Wetterdaten: Donnerstag, 30.03.2017
Datum Zeit Temp. A. Temp. A. max Feuchte A. Luftdruck Regen Wind Richtung Richtung Sonnenschein ET UV Solar Taupunkt Windchill Windböen
30.03.2017 00:00 6,3 °C 6,3 °C 82 % 1026,3 hPa 0,0 mm 0,0 km/h (0 Bft) S-SO 150 ° 0 min 0,000 mm 0,0 UV-I 0 W/m² 3,5 °C 6,3 °C 0,0 km/h (0 Bft)
30.03.2017 00:01 6,3 °C 6,3 °C 82 % 1026,3 hPa 0,0 mm 0,0 km/h (0 Bft) S-SO 150 ° 0 min 0,000 mm 0,0 UV-I 0 W/m² 3,5 °C 6,3 °C 0,0 km/h (0 Bft)
30.03.2017 00:02 6,3 °C 6,3 °C 82 % 1026,3 hPa 0,0 mm 0,0 km/h (0 Bft) S-SO 150 ° 0 min 0,000 mm 0,0 UV-I 0 W/m² 3,5 °C 6,3 °C 0,0 km/h (0 Bft)
30.03.2017 00:03 6,2 °C 6,3 °C 82 % 1026,3 hPa 0,0 mm 0,0 km/h (0 Bft) S-SO 150 ° 0 min 0,000 mm 0,0 UV-I 0 W/m² 3,4 °C 6,2 °C 0,0 km/h (0 Bft)
30.03.2017 00:04 6,2 °C 6,2 °C 83 % 1026,4 hPa 0,0 mm 0,0 km/h (0 Bft) S-SO 150 ° 0 min 0,000 mm 0,0 UV-I 0 W/m² 3,5 °C 6,2 °C 0,0 km/h (0 Bft)
30.03.2017 00:05 6,2 °C 6,2 °C 83 % 1026,4 hPa 0,0 mm 0,3 km/h (0 Bft) S-SO 150 ° 0 min 0,000 mm 0,0 UV-I 0 W/m² 3,5 °C 6,2 °C 1,6 km/h (1 Bft)
30.03.2017 00:06 6,2 °C 6,2 °C 83 % 1026,4 hPa 0,0 mm 0,0 km/h (0 Bft) S-SO 150 ° 0 min 0,000 mm 0,0 UV-I 0 W/m² 3,5 °C 6,2 °C 0,0 km/h (0 Bft)
30.03.2017 00:07 6,2 °C 6,2 °C 82 % 1026,3 hPa 0,0 mm 0,0 km/h (0 Bft) S-SO 150 ° 0 min 0,000 mm 0,0 UV-I 0 W/m² 3,4 °C 6,2 °C 0,0 km/h (0 Bft)
30.03.2017 00:08 6,2 °C 6,2 °C 83 % 1026,3 hPa 0,0 mm 0,2 km/h (0 Bft) S-SO 150 ° 0 min 0,000 mm 0,0 UV-I 0 W/m² 3,5 °C 6,2 °C 1,6 km/h (1 Bft)
30.03.2017 00:09 6,2 °C 6,2 °C 83 % 1026,3 hPa 0,0 mm 0,0 km/h (0 Bft) S-SO 150 ° 0 min 0,000 mm 0,0 UV-I 0 W/m² 3,5 °C 6,2 °C 0,0 km/h (0 Bft)
30.03.2017 00:10 6,2 °C 6,2 °C 83 % 1026,3 hPa 0,0 mm 0,0 km/h (0 Bft) S-SO 150 ° 0 min 0,000 mm 0,0 UV-I 0 W/m² 3,5 °C 6,2 °C 0,0 km/h (0 Bft)
30.03.2017 00:11 6,2 °C 6,2 °C 82 % 1026,4 hPa 0,0 mm 0,0 km/h (0 Bft) S-SO 150 ° 0 min 0,000 mm 0,0 UV-I 0 W/m² 3,4 °C 6,2 °C 0,0 km/h (0 Bft)
30.03.2017 00:12 6,1 °C 6,2 °C 83 % 1026,3 hPa 0,0 mm 0,0 km/h (0 Bft) S-SO 150 ° 0 min 0,000 mm 0,0 UV-I 0 W/m² 3,4 °C 6,1 °C 0,0 km/h (0 Bft)
30.03.2017 00:13 6,0 °C 6,1 °C 83 % 1026,4 hPa 0,0 mm 0,0 km/h (0 Bft) S-SO 150 ° 0 min 0,000 mm 0,0 UV-I 0 W/m² 3,3 °C 6,0 °C 0,0 km/h (0 Bft)
30.03.2017 00:14 6,0 °C 6,0 °C 83 % 1026,4 hPa 0,0 mm 0,0 km/h (0 Bft) S-SO 150 ° 0 min 0,000 mm 0,0 UV-I 0 W/m² 3,3 °C 6,0 °C 0,0 km/h (0 Bft)
30.03.2017 00:15 6,0 °C 6,0 °C 83 % 1026,4 hPa 0,0 mm 0,0 km/h (0 Bft) S-SO 150 ° 0 min 0,000 mm 0,0 UV-I 0 W/m² 3,3 °C 6,0 °C 0,0 km/h (0 Bft)
30.03.2017 00:16 6,1 °C 6,1 °C 84 % 1026,4 hPa 0,0 mm 0,0 km/h (0 Bft) S-SO 150 ° 0 min 0,000 mm 0,0 UV-I 0 W/m² 3,6 °C 6,1 °C 0,0 km/h (0 Bft)
30.03.2017 00:17 6,1 °C 6,1 °C 84 % 1026,4 hPa 0,0 mm 0,0 km/h (0 Bft) S-SO 150 ° 0 min 0,000 mm 0,0 UV-I 0 W/m² 3,6 °C 6,1 °C 0,0 km/h (0 Bft)
30.03.2017 00:18 6,1 °C 6,1 °C 84 % 1026,4 hPa 0,0 mm 0,0 km/h (0 Bft) S-SO 150 ° 0 min 0,000 mm 0,0 UV-I 0 W/m² 3,6 °C 6,1 °C 0,0 km/h (0 Bft)
30.03.2017 00:19 6,1 °C 6,1 °C 83 % 1026,3 hPa 0,0 mm 0,0 km/h (0 Bft) S-SO 150 ° 0 min 0,000 mm 0,0 UV-I 0 W/m² 3,4 °C 6,1 °C 0,0 km/h (0 Bft)
30.03.2017 00:20 6,0 °C 6,1 °C 84 % 1026,4 hPa 0,0 mm 0,0 km/h (0 Bft) S-SO 150 ° 0 min 0,000 mm 0,0 UV-I 0 W/m² 3,5 °C 6,0 °C 0,0 km/h (0 Bft)
30.03.2017 00:21 6,0 °C 6,0 °C 84 % 1026,4 hPa 0,0 mm 0,0 km/h (0 Bft) S-SO 150 ° 0 min 0,000 mm 0,0 UV-I 0 W/m² 3,5 °C 6,0 °C 0,0 km/h (0 Bft)
30.03.2017 00:22 5,9 °C 6,0 °C 84 % 1026,3 hPa 0,0 mm 0,0 km/h (0 Bft) S-SO 150 ° 0 min 0,000 mm 0,0 UV-I 0 W/m² 3,4 °C 5,9 °C 0,0 km/h (0 Bft)
30.03.2017 00:23 5,9 °C 5,9 °C 84 % 1026,4 hPa 0,0 mm 0,0 km/h (0 Bft) S-SO 150 ° 0 min 0,000 mm 0,0 UV-I 0 W/m² 3,4 °C 5,9 °C 0,0 km/h (0 Bft)
30.03.2017 00:24 5,9 °C 5,9 °C 84 % 1026,4 hPa 0,0 mm 0,0 km/h (0 Bft) S-SO 150 ° 0 min 0,000 mm 0,0 UV-I 0 W/m² 3,4 °C 5,9 °C 0,0 km/h (0 Bft)
30.03.2017 00:25 5,9 °C 5,9 °C 84 % 1026,4 hPa 0,0 mm 0,0 km/h (0 Bft) S-SO 150 ° 0 min 0,000 mm 0,0 UV-I 0 W/m² 3,4 °C 5,9 °C 0,0 km/h (0 Bft)
30.03.2017 00:26 5,9 °C 5,9 °C 84 % 1026,4 hPa 0,0 mm 0,0 km/h (0 Bft) S-SO 150 ° 0 min 0,000 mm 0,0 UV-I 0 W/m² 3,4 °C 5,9 °C 0,0 km/h (0 Bft)
30.03.2017 00:27 5,9 °C 5,9 °C 83 % 1026,6 hPa 0,0 mm 0,0 km/h (0 Bft) S-SO 150 ° 0 min 0,000 mm 0,0 UV-I 0 W/m² 3,2 °C 5,9 °C 0,0 km/h (0 Bft)
30.03.2017 00:28 5,9 °C 5,9 °C 83 % 1026,6 hPa 0,0 mm 0,0 km/h (0 Bft) S-SO 150 ° 0 min 0,000 mm 0,0 UV-I 0 W/m² 3,2 °C 5,9 °C 0,0 km/h (0 Bft)
30.03.2017 00:29 5,8 °C 5,9 °C 83 % 1026,7 hPa 0,0 mm 0,2 km/h (0 Bft) S-SO 150 ° 0 min 0,000 mm 0,0 UV-I 0 W/m² 3,1 °C 5,8 °C 1,6 km/h (1 Bft)
30.03.2017 00:30 5,7 °C 5,8 °C 83 % 1026,7 hPa 0,0 mm 1,9 km/h (1 Bft) NW 304 ° 0 min 0,000 mm 0,0 UV-I 0 W/m² 3,0 °C 5,7 °C 4,8 km/h (1 Bft)
30.03.2017 00:31 5,6 °C 5,7 °C 83 % 1026,6 hPa 0,0 mm 3,0 km/h (1 Bft) W 280 ° 0 min 0,000 mm 0,0 UV-I 0 W/m² 2,9 °C 5,6 °C 4,8 km/h (1 Bft)
30.03.2017 00:32 5,6 °C 5,6 °C 83 % 1026,7 hPa 0,0 mm 3,5 km/h (1 Bft) S 190 ° 0 min 0,000 mm 0,0 UV-I 0 W/m² 2,9 °C 5,6 °C 4,8 km/h (1 Bft)
30.03.2017 00:33 5,6 °C 5,6 °C 83 % 1026,7 hPa 0,0 mm 3,5 km/h (1 Bft) W-SW 254 ° 0 min 0,000 mm 0,0 UV-I 0 W/m² 2,9 °C 5,6 °C 4,8 km/h (1 Bft)
30.03.2017 00:34 5,6 °C 5,6 °C 84 % 1026,7 hPa 0,0 mm 4,0 km/h (1 Bft) W-SW 253 ° 0 min 0,000 mm 0,0 UV-I 0 W/m² 3,1 °C 5,6 °C 4,8 km/h (1 Bft)
30.03.2017 00:35 5,7 °C 5,7 °C 83 % 1026,7 hPa 0,0 mm 4,0 km/h (1 Bft) W-SW 253 ° 0 min 0,000 mm 0,0 UV-I 0 W/m² 3,0 °C 5,7 °C 6,4 km/h (2 Bft)
30.03.2017 00:36 5,6 °C 5,7 °C 83 % 1026,8 hPa 0,0 mm 6,7 km/h (2 Bft) W-SW 248 ° 0 min 0,000 mm 0,0 UV-I 0 W/m² 2,9 °C 4,2 °C 11,3 km/h (2 Bft)
30.03.2017 00:37 5,5 °C 5,6 °C 82 % 1026,8 hPa 0,0 mm 7,4 km/h (2 Bft) W-SW 252 ° 0 min 0,000 mm 0,0 UV-I 0 W/m² 2,7 °C 3,9 °C 11,3 km/h (2 Bft)
30.03.2017 00:38 5,4 °C 5,5 °C 83 % 1026,8 hPa 0,0 mm 5,7 km/h (1 Bft) SW 219 ° 0 min 0,000 mm 0,0 UV-I 0 W/m² 2,7 °C 4,3 °C 8,0 km/h (2 Bft)
30.03.2017 00:39 5,4 °C 5,4 °C 84 % 1026,8 hPa 0,0 mm 6,9 km/h (2 Bft) S-SW 202 ° 0 min 0,000 mm 0,0 UV-I 0 W/m² 2,9 °C 3,9 °C 8,0 km/h (2 Bft)
30.03.2017 00:40 5,6 °C 5,6 °C 84 % 1026,8 hPa 0,0 mm 7,3 km/h (2 Bft) S-SW 194 ° 0 min 0,000 mm 0,0 UV-I 0 W/m² 3,1 °C 4,0 °C 9,7 km/h (2 Bft)
30.03.2017 00:41 5,7 °C 5,7 °C 84 % 1026,8 hPa 0,0 mm 7,8 km/h (2 Bft) S 188 ° 0 min 0,000 mm 0,0 UV-I 0 W/m² 3,2 °C 4,0 °C 9,7 km/h (2 Bft)
30.03.2017 00:42 5,9 °C 5,9 °C 83 % 1026,8 hPa 0,0 mm 7,5 km/h (2 Bft) S 185 ° 0 min 0,000 mm 0,0 UV-I 0 W/m² 3,2 °C 4,3 °C 9,7 km/h (2 Bft)
30.03.2017 00:43 6,2 °C 6,2 °C 83 % 1026,8 hPa 0,0 mm 8,6 km/h (2 Bft) S 191 ° 0 min 0,000 mm 0,0 UV-I 0 W/m² 3,5 °C 4,4 °C 11,3 km/h (2 Bft)
30.03.2017 00:44 6,4 °C 6,4 °C 82 % 1026,8 hPa 0,0 mm 9,7 km/h (2 Bft) S 189 ° 0 min 0,000 mm 0,0 UV-I 0 W/m² 3,6 °C 4,4 °C 11,3 km/h (2 Bft)
30.03.2017 00:45 6,6 °C 6,6 °C 81 % 1026,8 hPa 0,0 mm 9,7 km/h (2 Bft) S 182 ° 0 min 0,000 mm 0,0 UV-I 0 W/m² 3,6 °C 4,6 °C 12,9 km/h (3 Bft)
30.03.2017 00:46 6,8 °C 6,8 °C 80 % 1026,8 hPa 0,0 mm 10,5 km/h (2 Bft) S 179 ° 0 min 0,000 mm 0,0 UV-I 0 W/m² 3,6 °C 4,7 °C 14,5 km/h (3 Bft)
30.03.2017 00:47 6,9 °C 6,9 °C 79 % 1026,8 hPa 0,0 mm 7,6 km/h (2 Bft) S 169 ° 0 min 0,000 mm 0,0 UV-I 0 W/m² 3,5 °C 5,5 °C 9,7 km/h (2 Bft)
30.03.2017 00:48 6,9 °C 6,9 °C 79 % 1026,8 hPa 0,0 mm 7,1 km/h (2 Bft) S-SO 158 ° 0 min 0,000 mm 0,0 UV-I 0 W/m² 3,5 °C 5,6 °C 9,7 km/h (2 Bft)
30.03.2017 00:49 6,9 °C 6,9 °C 79 % 1026,8 hPa 0,0 mm 7,9 km/h (2 Bft) S-SO 158 ° 0 min 0,000 mm 0,0 UV-I 0 W/m² 3,5 °C 5,4 °C 9,7 km/h (2 Bft)
30.03.2017 00:50 6,8 °C 6,9 °C 79 % 1026,7 hPa 0,0 mm 6,3 km/h (2 Bft) S 188 ° 0 min 0,000 mm 0,0 UV-I 0 W/m² 3,4 °C 5,7 °C 9,7 km/h (2 Bft)
30.03.2017 00:51 6,8 °C 6,8 °C 79 % 1026,8 hPa 0,0 mm 4,6 km/h (1 Bft) S-SW 192 ° 0 min 0,000 mm 0,0 UV-I 0 W/m² 3,4 °C 6,3 °C 6,4 km/h (2 Bft)
30.03.2017 00:52 6,7 °C 6,8 °C 80 % 1026,8 hPa 0,0 mm 4,3 km/h (1 Bft) S 170 ° 0 min 0,000 mm 0,0 UV-I 0 W/m² 3,5 °C 6,7 °C 6,4 km/h (2 Bft)
30.03.2017 00:53 6,7 °C 6,7 °C 80 % 1026,8 hPa 0,0 mm 6,2 km/h (2 Bft) S-SO 165 ° 0 min 0,000 mm 0,0 UV-I 0 W/m² 3,5 °C 5,6 °C 8,0 km/h (2 Bft)
30.03.2017 00:54 6,7 °C 6,7 °C 80 % 1026,8 hPa 0,0 mm 4,5 km/h (1 Bft) S 184 ° 0 min 0,000 mm 0,0 UV-I 0 W/m² 3,5 °C 6,7 °C 6,4 km/h (2 Bft)
30.03.2017 00:55 6,7 °C 6,7 °C 80 % 1026,8 hPa 0,0 mm 2,5 km/h (1 Bft) S-SO 153 ° 0 min 0,000 mm 0,0 UV-I 0 W/m² 3,5 °C 6,7 °C 3,2 km/h (1 Bft)
30.03.2017 00:56 6,7 °C 6,7 °C 80 % 1026,8 hPa 0,0 mm 2,3 km/h (1 Bft) S-SO 153 ° 0 min 0,000 mm 0,0 UV-I 0 W/m² 3,5 °C 6,7 °C 3,2 km/h (1 Bft)
30.03.2017 00:57 6,7 °C 6,7 °C 80 % 1026,8 hPa 0,0 mm 1,6 km/h (1 Bft) S-SO 153 ° 0 min 0,000 mm 0,0 UV-I 0 W/m² 3,5 °C 6,7 °C 3,2 km/h (1 Bft)
30.03.2017 00:58 6,7 °C 6,7 °C 80 % 1026,9 hPa 0,0 mm 0,1 km/h (0 Bft) S-SO 153 ° 0 min 0,000 mm 0,0 UV-I 0 W/m² 3,5 °C 6,7 °C 1,6 km/h (1 Bft)
30.03.2017 00:59 6,6 °C 6,7 °C 80 % 1026,9 hPa 0,0 mm 1,4 km/h (1 Bft) S-SO 153 ° 0 min 0,000 mm 0,0 UV-I 0 W/m² 3,4 °C 6,6 °C 3,2 km/h (1 Bft)
30.03.2017 01:00 6,3 °C 6,6 °C 79 % 1026,9 hPa 0,0 mm 0,7 km/h (0 Bft) S-SO 153 ° 0 min 0,025 mm 0,0 UV-I 0 W/m² 2,9 °C 6,3 °C 3,2 km/h (1 Bft)
30.03.2017 01:01 6,1 °C 6,3 °C 79 % 1026,9 hPa 0,0 mm 0,0 km/h (0 Bft) S-SO 153 ° 0 min 0,000 mm 0,0 UV-I 0 W/m² 2,7 °C 6,1 °C 0,0 km/h (0 Bft)
30.03.2017 01:02 5,8 °C 6,1 °C 80 % 1026,9 hPa 0,0 mm 0,4 km/h (0 Bft) S-SO 153 ° 0 min 0,000 mm 0,0 UV-I 0 W/m² 2,6 °C 5,8 °C 1,6 km/h (1 Bft)
30.03.2017 01:03 5,6 °C 5,8 °C 81 % 1026,9 hPa 0,0 mm 2,5 km/h (1 Bft) S 170 ° 0 min 0,000 mm 0,0 UV-I 0 W/m² 2,6 °C 5,6 °C 6,4 km/h (2 Bft)
30.03.2017 01:04 5,5 °C 5,6 °C 82 % 1026,9 hPa 0,0 mm 3,8 km/h (1 Bft) S 170 ° 0 min 0,000 mm 0,0 UV-I 0 W/m² 2,7 °C 5,5 °C 6,4 km/h (2 Bft)
30.03.2017 01:05 5,6 °C 5,6 °C 83 % 1026,9 hPa 0,0 mm 6,5 km/h (2 Bft) S 169 ° 0 min 0,000 mm 0,0 UV-I 0 W/m² 2,9 °C 4,3 °C 8,0 km/h (2 Bft)
30.03.2017 01:06 5,6 °C 5,6 °C 83 % 1026,9 hPa 0,0 mm 5,2 km/h (1 Bft) S 169 ° 0 min 0,000 mm 0,0 UV-I 0 W/m² 2,9 °C 4,7 °C 8,0 km/h (2 Bft)
30.03.2017 01:07 5,7 °C 5,7 °C 83 % 1026,9 hPa 0,0 mm 2,8 km/h (1 Bft) S 170 ° 0 min 0,000 mm 0,0 UV-I 0 W/m² 3,0 °C 5,7 °C 6,4 km/h (2 Bft)
30.03.2017 01:08 5,8 °C 5,8 °C 82 % 1026,9 hPa 0,0 mm 4,0 km/h (1 Bft) S 181 ° 0 min 0,000 mm 0,0 UV-I 0 W/m² 3,0 °C 5,8 °C 6,4 km/h (2 Bft)
30.03.2017 01:09 5,8 °C 5,8 °C 82 % 1026,9 hPa 0,0 mm 3,4 km/h (1 Bft) S 180 ° 0 min 0,000 mm 0,0 UV-I 0 W/m² 3,0 °C 5,8 °C 4,8 km/h (1 Bft)
30.03.2017 01:10 5,9 °C 5,9 °C 82 % 1026,9 hPa 0,0 mm 4,2 km/h (1 Bft) S 179 ° 0 min 0,000 mm 0,0 UV-I 0 W/m² 3,1 °C 5,9 °C 6,4 km/h (2 Bft)
30.03.2017 01:11 6,0 °C 6,0 °C 82 % 1026,9 hPa 0,0 mm 2,1 km/h (1 Bft) S 179 ° 0 min 0,000 mm 0,0 UV-I 0 W/m² 3,2 °C 6,0 °C 3,2 km/h (1 Bft)
30.03.2017 01:12 6,0 °C 6,0 °C 82 % 1026,9 hPa 0,0 mm 4,2 km/h (1 Bft) S-SW 194 ° 0 min 0,000 mm 0,0 UV-I 0 W/m² 3,2 °C 6,0 °C 8,0 km/h (2 Bft)
30.03.2017 01:13 6,0 °C 6,0 °C 81 % 1027,0 hPa 0,0 mm 5,9 km/h (2 Bft) S 178 ° 0 min 0,000 mm 0,0 UV-I 0 W/m² 3,0 °C 4,9 °C 9,7 km/h (2 Bft)
30.03.2017 01:14 6,0 °C 6,0 °C 82 % 1027,0 hPa 0,0 mm 4,4 km/h (1 Bft) S 179 ° 0 min 0,000 mm 0,0 UV-I 0 W/m² 3,2 °C 6,0 °C 6,4 km/h (2 Bft)
30.03.2017 01:15 6,0 °C 6,1 °C 81 % 1027,0 hPa 0,0 mm 5,9 km/h (2 Bft) S-SO 163 ° 0 min 0,000 mm 0,0 UV-I 0 W/m² 3,0 °C 4,9 °C 6,4 km/h (2 Bft)
30.03.2017 01:16 6,1 °C 6,1 °C 82 % 1027,0 hPa 0,0 mm 5,3 km/h (1 Bft) S-SO 163 ° 0 min 0,000 mm 0,0 UV-I 0 W/m² 3,3 °C 5,2 °C 8,0 km/h (2 Bft)
30.03.2017 01:17 6,1 °C 6,1 °C 81 % 1027,0 hPa 0,0 mm 3,4 km/h (1 Bft) S-SO 163 ° 0 min 0,000 mm 0,0 UV-I 0 W/m² 3,1 °C 6,1 °C 6,4 km/h (2 Bft)
30.03.2017 01:18 6,1 °C 6,1 °C 81 % 1027,0 hPa 0,0 mm 3,9 km/h (1 Bft) S-SO 163 ° 0 min 0,000 mm 0,0 UV-I 0 W/m² 3,1 °C 6,1 °C 6,4 km/h (2 Bft)
30.03.2017 01:19 6,2 °C 6,2 °C 81 % 1027,0 hPa 0,0 mm 3,5 km/h (1 Bft) S-SO 165 ° 0 min 0,000 mm 0,0 UV-I 0 W/m² 3,2 °C 6,2 °C 8,0 km/h (2 Bft)
30.03.2017 01:20 6,4 °C 6,4 °C 81 % 1027,0 hPa 0,0 mm 3,7 km/h (1 Bft) S 173 ° 0 min 0,000 mm 0,0 UV-I 0 W/m² 3,4 °C 6,4 °C 4,8 km/h (1 Bft)
30.03.2017 01:21 6,5 °C 6,5 °C 81 % 1026,9 hPa 0,0 mm 3,1 km/h (1 Bft) S 178 ° 0 min 0,000 mm 0,0 UV-I 0 W/m² 3,5 °C 6,5 °C 4,8 km/h (1 Bft)
30.03.2017 01:22 6,6 °C 6,6 °C 80 % 1026,9 hPa 0,0 mm 1,9 km/h (1 Bft) S 178 ° 0 min 0,000 mm 0,0 UV-I 0 W/m² 3,4 °C 6,6 °C 4,8 km/h (1 Bft)
30.03.2017 01:23 6,6 °C 6,6 °C 80 % 1026,9 hPa 0,0 mm 2,7 km/h (1 Bft) S 178 ° 0 min 0,000 mm 0,0 UV-I 0 W/m² 3,4 °C 6,6 °C 4,8 km/h (1 Bft)
30.03.2017 01:24 6,6 °C 6,7 °C 80 % 1026,9 hPa 0,0 mm 2,3 km/h (1 Bft) S 178 ° 0 min 0,000 mm 0,0 UV-I 0 W/m² 3,4 °C 6,6 °C 4,8 km/h (1 Bft)
30.03.2017 01:25 6,6 °C 6,7 °C 79 % 1026,9 hPa 0,0 mm 4,6 km/h (1 Bft) S-SO 168 ° 0 min 0,000 mm 0,0 UV-I 0 W/m² 3,2 °C 6,0 °C 8,0 km/h (2 Bft)
30.03.2017 01:26 6,6 °C 6,6 °C 80 % 1027,0 hPa 0,0 mm 6,2 km/h (2 Bft) S 171 ° 0 min 0,000 mm 0,0 UV-I 0 W/m² 3,4 °C 5,5 °C 8,0 km/h (2 Bft)
30.03.2017 01:27 6,6 °C 6,6 °C 80 % 1027,0 hPa 0,0 mm 4,6 km/h (1 Bft) S 187 ° 0 min 0,000 mm 0,0 UV-I 0 W/m² 3,4 °C 6,0 °C 6,4 km/h (2 Bft)
30.03.2017 01:28 6,5 °C 6,6 °C 80 % 1027,0 hPa 0,0 mm 3,4 km/h (1 Bft) S 181 ° 0 min 0,000 mm 0,0 UV-I 0 W/m² 3,3 °C 6,5 °C 4,8 km/h (1 Bft)
30.03.2017 01:29 6,5 °C 6,6 °C 80 % 1027,0 hPa 0,0 mm 4,2 km/h (1 Bft) S 177 ° 0 min 0,000 mm 0,0 UV-I 0 W/m² 3,3 °C 6,5 °C 4,8 km/h (1 Bft)
30.03.2017 01:30 6,5 °C 6,5 °C 80 % 1027,0 hPa 0,0 mm 3,5 km/h (1 Bft) S 177 ° 0 min 0,000 mm 0,0 UV-I 0 W/m² 3,3 °C 6,5 °C 6,4 km/h (2 Bft)
30.03.2017 01:31 6,5 °C 6,5 °C 80 % 1027,0 hPa 0,0 mm 2,7 km/h (1 Bft) S 177 ° 0 min 0,000 mm 0,0 UV-I 0 W/m² 3,3 °C 6,5 °C 3,2 km/h (1 Bft)
30.03.2017 01:32 6,5 °C 6,5 °C 80 % 1027,0 hPa 0,0 mm 2,3 km/h (1 Bft) S 177 ° 0 min 0,000 mm 0,0 UV-I 0 W/m² 3,3 °C 6,5 °C 3,2 km/h (1 Bft)
30.03.2017 01:33 6,5 °C 6,5 °C 80 % 1027,0 hPa 0,0 mm 3,0 km/h (1 Bft) S 177 ° 0 min 0,000 mm 0,0 UV-I 0 W/m² 3,3 °C 6,5 °C 4,8 km/h (1 Bft)
30.03.2017 01:34 6,5 °C 6,5 °C 80 % 1027,0 hPa 0,0 mm 3,2 km/h (1 Bft) S 177 ° 0 min 0,000 mm 0,0 UV-I 0 W/m² 3,3 °C 6,5 °C 4,8 km/h (1 Bft)
30.03.2017 01:35 6,6 °C 6,6 °C 80 % 1027,0 hPa 0,0 mm 3,7 km/h (1 Bft) S 177 ° 0 min 0,000 mm 0,0 UV-I 0 W/m² 3,4 °C 6,6 °C 4,8 km/h (1 Bft)
30.03.2017 01:36 6,6 °C 6,6 °C 80 % 1027,0 hPa 0,0 mm 5,6 km/h (1 Bft) S 178 ° 0 min 0,000 mm 0,0 UV-I 0 W/m² 3,4 °C 5,7 °C 11,3 km/h (2 Bft)
30.03.2017 01:37 6,7 °C 6,7 °C 79 % 1027,0 hPa 0,0 mm 3,8 km/h (1 Bft) S 178 ° 0 min 0,000 mm 0,0 UV-I 0 W/m² 3,3 °C 6,7 °C 6,4 km/h (2 Bft)
30.03.2017 01:38 6,8 °C 6,8 °C 79 % 1027,1 hPa 0,0 mm 3,9 km/h (1 Bft) S-SW 196 ° 0 min 0,000 mm 0,0 UV-I 0 W/m² 3,4 °C 6,8 °C 4,8 km/h (1 Bft)
30.03.2017 01:39 6,8 °C 6,8 °C 79 % 1027,0 hPa 0,0 mm 4,6 km/h (1 Bft) S 170 ° 0 min 0,000 mm 0,0 UV-I 0 W/m² 3,4 °C 6,3 °C 6,4 km/h (2 Bft)
30.03.2017 01:40 6,9 °C 6,9 °C 79 % 1027,0 hPa 0,0 mm 4,1 km/h (1 Bft) S 170 ° 0 min 0,000 mm 0,0 UV-I 0 W/m² 3,5 °C 6,9 °C 6,4 km/h (2 Bft)
30.03.2017 01:41 7,0 °C 7,0 °C 78 % 1027,0 hPa 0,0 mm 2,4 km/h (1 Bft) S 175 ° 0 min 0,000 mm 0,0 UV-I 0 W/m² 3,4 °C 7,0 °C 3,2 km/h (1 Bft)
30.03.2017 01:42 7,1 °C 7,1 °C 78 % 1027,0 hPa 0,0 mm 4,2 km/h (1 Bft) S-SW 202 ° 0 min 0,000 mm 0,0 UV-I 0 W/m² 3,5 °C 7,1 °C 9,7 km/h (2 Bft)
30.03.2017 01:43 7,1 °C 7,1 °C 78 % 1027,0 hPa 0,0 mm 7,5 km/h (2 Bft) S-SO 168 ° 0 min 0,000 mm 0,0 UV-I 0 W/m² 3,5 °C 5,7 °C 9,7 km/h (2 Bft)
30.03.2017 01:44 7,1 °C 7,1 °C 78 % 1027,0 hPa 0,0 mm 7,4 km/h (2 Bft) S-SW 196 ° 0 min 0,000 mm 0,0 UV-I 0 W/m² 3,5 °C 5,7 °C 11,3 km/h (2 Bft)
30.03.2017 01:45 6,9 °C 7,1 °C 78 % 1027,0 hPa 0,0 mm 5,2 km/h (1 Bft) S 190 ° 0 min 0,000 mm 0,0 UV-I 0 W/m² 3,3 °C 6,2 °C 6,4 km/h (2 Bft)
30.03.2017 01:46 6,8 °C 6,9 °C 78 % 1027,0 hPa 0,0 mm 7,2 km/h (2 Bft) S-SW 212 ° 0 min 0,000 mm 0,0 UV-I 0 W/m² 3,2 °C 5,5 °C 9,7 km/h (2 Bft)
30.03.2017 01:47 6,7 °C 6,8 °C 78 % 1027,0 hPa 0,0 mm 6,4 km/h (2 Bft) S-SW 203 ° 0 min 0,000 mm 0,0 UV-I 0 W/m² 3,1 °C 5,6 °C 9,7 km/h (2 Bft)
30.03.2017 01:48 6,6 °C 6,7 °C 79 % 1027,0 hPa 0,0 mm 8,8 km/h (2 Bft) S 190 ° 0 min 0,000 mm 0,0 UV-I 0 W/m² 3,2 °C 4,8 °C 14,5 km/h (3 Bft)
30.03.2017 01:49 6,4 °C 6,6 °C 80 % 1027,0 hPa 0,0 mm 6,6 km/h (2 Bft) S 180 ° 0 min 0,000 mm 0,0 UV-I 0 W/m² 3,2 °C 5,2 °C 8,0 km/h (2 Bft)
30.03.2017 01:50 6,4 °C 6,4 °C 80 % 1027,0 hPa 0,0 mm 4,2 km/h (1 Bft) S 183 ° 0 min 0,000 mm 0,0 UV-I 0 W/m² 3,2 °C 6,4 °C 6,4 km/h (2 Bft)
30.03.2017 01:51 6,4 °C 6,4 °C 80 % 1027,0 hPa 0,0 mm 1,6 km/h (1 Bft) S 183 ° 0 min 0,000 mm 0,0 UV-I 0 W/m² 3,2 °C 6,4 °C 3,2 km/h (1 Bft)
30.03.2017 01:52 6,4 °C 6,4 °C 80 % 1027,0 hPa 0,0 mm 1,8 km/h (1 Bft) S 183 ° 0 min 0,000 mm 0,0 UV-I 0 W/m² 3,2 °C 6,4 °C 4,8 km/h (1 Bft)
30.03.2017 01:53 6,4 °C 6,4 °C 80 % 1027,0 hPa 0,0 mm 5,3 km/h (1 Bft) S-SW 204 ° 0 min 0,000 mm 0,0 UV-I 0 W/m² 3,2 °C 5,6 °C 6,4 km/h (2 Bft)
30.03.2017 01:54 6,3 °C 6,4 °C 79 % 1027,1 hPa 0,0 mm 3,3 km/h (1 Bft) S-SW 192 ° 0 min 0,000 mm 0,0 UV-I 0 W/m² 2,9 °C 6,3 °C 4,8 km/h (1 Bft)
30.03.2017 01:55 6,2 °C 6,3 °C 80 % 1027,1 hPa 0,0 mm 2,5 km/h (1 Bft) S-SW 192 ° 0 min 0,000 mm 0,0 UV-I 0 W/m² 3,0 °C 6,2 °C 3,2 km/h (1 Bft)
30.03.2017 01:56 6,1 °C 6,2 °C 81 % 1027,1 hPa 0,0 mm 1,5 km/h (1 Bft) S-SW 192 ° 0 min 0,000 mm 0,0 UV-I 0 W/m² 3,1 °C 6,1 °C 3,2 km/h (1 Bft)
30.03.2017 01:57 6,1 °C 6,1 °C 81 % 1027,1 hPa 0,0 mm 1,9 km/h (1 Bft) S-SW 192 ° 0 min 0,000 mm 0,0 UV-I 0 W/m² 3,1 °C 6,1 °C 3,2 km/h (1 Bft)
30.03.2017 01:58 6,1 °C 6,1 °C 81 % 1027,1 hPa 0,0 mm 0,8 km/h (0 Bft) S-SW 192 ° 0 min 0,000 mm 0,0 UV-I 0 W/m² 3,1 °C 6,1 °C 1,6 km/h (1 Bft)
30.03.2017 01:59 6,1 °C 6,1 °C 81 % 1027,1 hPa 0,0 mm 1,4 km/h (1 Bft) S-SW 192 ° 0 min 0,000 mm 0,0 UV-I 0 W/m² 3,1 °C 6,1 °C 1,6 km/h (1 Bft)
30.03.2017 02:00 6,0 °C 6,1 °C 81 % 1027,1 hPa 0,0 mm 0,9 km/h (0 Bft) S-SW 192 ° 0 min 0,026 mm 0,0 UV-I 0 W/m² 3,0 °C 6,0 °C 3,2 km/h (1 Bft)
30.03.2017 02:01 6,0 °C 6,0 °C 81 % 1027,1 hPa 0,0 mm 1,9 km/h (1 Bft) S-SW 192 ° 0 min 0,000 mm 0,0 UV-I 0 W/m² 3,0 °C 6,0 °C 3,2 km/h (1 Bft)
30.03.2017 02:02 5,9 °C 6,0 °C 81 % 1027,1 hPa 0,0 mm 1,5 km/h (1 Bft) S-SW 192 ° 0 min 0,000 mm 0,0 UV-I 0 W/m² 2,9 °C 5,9 °C 3,2 km/h (1 Bft)
30.03.2017 02:03 5,9 °C 5,9 °C 82 % 1027,2 hPa 0,0 mm 0,9 km/h (0 Bft) S-SW 192 ° 0 min 0,000 mm 0,0 UV-I 0 W/m² 3,1 °C 5,9 °C 1,6 km/h (1 Bft)
30.03.2017 02:04 5,8 °C 5,9 °C 82 % 1027,1 hPa 0,0 mm 0,3 km/h (0 Bft) S-SW 192 ° 0 min 0,000 mm 0,0 UV-I 0 W/m² 3,0 °C 5,8 °C 1,6 km/h (1 Bft)
30.03.2017 02:05 5,8 °C 5,8 °C 82 % 1027,1 hPa 0,0 mm 0,1 km/h (0 Bft) S-SW 192 ° 0 min 0,000 mm 0,0 UV-I 0 W/m² 3,0 °C 5,8 °C 1,6 km/h (1 Bft)
30.03.2017 02:06 5,8 °C 5,8 °C 82 % 1027,2 hPa 0,0 mm 0,0 km/h (0 Bft) S-SW 192 ° 0 min 0,000 mm 0,0 UV-I 0 W/m² 3,0 °C 5,8 °C 0,0 km/h (0 Bft)
30.03.2017 02:07 5,8 °C 5,8 °C 82 % 1027,1 hPa 0,0 mm 0,0 km/h (0 Bft) S-SW 192 ° 0 min 0,000 mm 0,0 UV-I 0 W/m² 3,0 °C 5,8 °C 0,0 km/h (0 Bft)
30.03.2017 02:08 5,6 °C 5,8 °C 81 % 1027,1 hPa 0,0 mm 0,0 km/h (0 Bft) S-SW 192 ° 0 min 0,000 mm 0,0 UV-I 0 W/m² 2,6 °C 5,6 °C 0,0 km/h (0 Bft)
30.03.2017 02:09 5,4 °C 5,6 °C 82 % 1027,2 hPa 0,0 mm 0,0 km/h (0 Bft) S-SW 192 ° 0 min 0,000 mm 0,0 UV-I 0 W/m² 2,6 °C 5,4 °C 0,0 km/h (0 Bft)
30.03.2017 02:10 5,3 °C 5,4 °C 83 % 1027,2 hPa 0,0 mm 0,1 km/h (0 Bft) S-SW 192 ° 0 min 0,000 mm 0,0 UV-I 0 W/m² 2,7 °C 5,3 °C 1,6 km/h (1 Bft)
30.03.2017 02:11 5,2 °C 5,3 °C 83 % 1027,2 hPa 0,0 mm 0,0 km/h (0 Bft) S-SW 192 ° 0 min 0,000 mm 0,0 UV-I 0 W/m² 2,6 °C 5,2 °C 0,0 km/h (0 Bft)
30.03.2017 02:12 5,2 °C 5,2 °C 84 % 1027,2 hPa 0,0 mm 0,6 km/h (0 Bft) S-SW 192 ° 0 min 0,000 mm 0,0 UV-I 0 W/m² 2,7 °C 5,2 °C 1,6 km/h (1 Bft)
30.03.2017 02:13 5,2 °C 5,2 °C 84 % 1027,2 hPa 0,0 mm 0,7 km/h (0 Bft) S-SW 192 ° 0 min 0,000 mm 0,0 UV-I 0 W/m² 2,7 °C 5,2 °C 1,6 km/h (1 Bft)
30.03.2017 02:14 5,2 °C 5,2 °C 84 % 1027,2 hPa 0,0 mm 0,3 km/h (0 Bft) S-SW 192 ° 0 min 0,000 mm 0,0 UV-I 0 W/m² 2,7 °C 5,2 °C 1,6 km/h (1 Bft)
30.03.2017 02:15 5,2 °C 5,2 °C 84 % 1027,2 hPa 0,0 mm 0,0 km/h (0 Bft) S-SW 192 ° 0 min 0,000 mm 0,0 UV-I 0 W/m² 2,7 °C 5,2 °C 0,0 km/h (0 Bft)
30.03.2017 02:16 5,2 °C 5,2 °C 84 % 1027,1 hPa 0,0 mm 0,0 km/h (0 Bft) S-SW 192 ° 0 min 0,000 mm 0,0 UV-I 0 W/m² 2,7 °C 5,2 °C 0,0 km/h (0 Bft)
30.03.2017 02:17 5,2 °C 5,2 °C 84 % 1027,1 hPa 0,0 mm 0,0 km/h (0 Bft) S-SW 192 ° 0 min 0,000 mm 0,0 UV-I 0 W/m² 2,7 °C 5,2 °C 0,0 km/h (0 Bft)
30.03.2017 02:18 5,2 °C 5,3 °C 84 % 1027,2 hPa 0,0 mm 0,0 km/h (0 Bft) S-SW 192 ° 0 min 0,000 mm 0,0 UV-I 0 W/m² 2,7 °C 5,2 °C 0,0 km/h (0 Bft)
30.03.2017 02:19 5,2 °C 5,2 °C 84 % 1027,2 hPa 0,0 mm 0,0 km/h (0 Bft) S-SW 192 ° 0 min 0,000 mm 0,0 UV-I 0 W/m² 2,7 °C 5,2 °C 0,0 km/h (0 Bft)
30.03.2017 02:20 5,1 °C 5,2 °C 84 % 1027,1 hPa 0,0 mm 0,0 km/h (0 Bft) S-SW 192 ° 0 min 0,000 mm 0,0 UV-I 0 W/m² 2,6 °C 5,1 °C 0,0 km/h (0 Bft)
30.03.2017 02:21 5,0 °C 5,1 °C 84 % 1027,2 hPa 0,0 mm 0,0 km/h (0 Bft) S-SW 192 ° 0 min 0,000 mm 0,0 UV-I 0 W/m² 2,5 °C 5,0 °C 0,0 km/h (0 Bft)
30.03.2017 02:22 4,9 °C 5,0 °C 84 % 1027,2 hPa 0,0 mm 0,0 km/h (0 Bft) S-SW 192 ° 0 min 0,000 mm 0,0 UV-I 0 W/m² 2,4 °C 4,9 °C 0,0 km/h (0 Bft)
30.03.2017 02:23 4,8 °C 4,9 °C 84 % 1027,2 hPa 0,0 mm 0,0 km/h (0 Bft) S-SW 192 ° 0 min 0,000 mm 0,0 UV-I 0 W/m² 2,3 °C 4,8 °C 0,0 km/h (0 Bft)
30.03.2017 02:24 4,8 °C 4,8 °C 85 % 1027,2 hPa 0,0 mm 0,0 km/h (0 Bft) S-SW 192 ° 0 min 0,000 mm 0,0 UV-I 0 W/m² 2,5 °C 4,8 °C 0,0 km/h (0 Bft)
30.03.2017 02:25 4,7 °C 4,8 °C 86 % 1027,1 hPa 0,0 mm 0,0 km/h (0 Bft) S-SW 192 ° 0 min 0,000 mm 0,0 UV-I 0 W/m² 2,6 °C 4,7 °C 0,0 km/h (0 Bft)
30.03.2017 02:26 4,7 °C 4,7 °C 86 % 1027,1 hPa 0,0 mm 0,0 km/h (0 Bft) S-SW 192 ° 0 min 0,000 mm 0,0 UV-I 0 W/m² 2,6 °C 4,7 °C 0,0 km/h (0 Bft)
30.03.2017 02:27 4,6 °C 4,7 °C 86 % 1027,1 hPa 0,0 mm 0,0 km/h (0 Bft) S-SW 192 ° 0 min 0,000 mm 0,0 UV-I 0 W/m² 2,5 °C 4,6 °C 0,0 km/h (0 Bft)
30.03.2017 02:28 4,6 °C 4,6 °C 86 % 1027,1 hPa 0,0 mm 0,0 km/h (0 Bft) S-SW 192 ° 0 min 0,000 mm 0,0 UV-I 0 W/m² 2,5 °C 4,6 °C 0,0 km/h (0 Bft)
30.03.2017 02:29 4,5 °C 4,6 °C 86 % 1027,1 hPa 0,0 mm 0,0 km/h (0 Bft) S-SW 192 ° 0 min 0,000 mm 0,0 UV-I 0 W/m² 2,4 °C 4,5 °C 0,0 km/h (0 Bft)
30.03.2017 02:30 4,4 °C 4,5 °C 87 % 1027,1 hPa 0,0 mm 0,0 km/h (0 Bft) S-SW 192 ° 0 min 0,000 mm 0,0 UV-I 0 W/m² 2,4 °C 4,4 °C 0,0 km/h (0 Bft)
30.03.2017 02:31 4,4 °C 4,5 °C 87 % 1027,1 hPa 0,0 mm 0,0 km/h (0 Bft) S-SW 192 ° 0 min 0,000 mm 0,0 UV-I 0 W/m² 2,4 °C 4,4 °C 0,0 km/h (0 Bft)
30.03.2017 02:32 4,4 °C 4,5 °C 87 % 1027,1 hPa 0,0 mm 0,0 km/h (0 Bft) S-SW 192 ° 0 min 0,000 mm 0,0 UV-I 0 W/m² 2,4 °C 4,4 °C 0,0 km/h (0 Bft)
30.03.2017 02:33 4,4 °C 4,4 °C 87 % 1027,1 hPa 0,0 mm 0,0 km/h (0 Bft) S-SW 192 ° 0 min 0,000 mm 0,0 UV-I 0 W/m² 2,4 °C 4,4 °C 0,0 km/h (0 Bft)
30.03.2017 02:34 4,4 °C 4,4 °C 88 % 1027,0 hPa 0,0 mm 0,0 km/h (0 Bft) S-SW 192 ° 0 min 0,000 mm 0,0 UV-I 0 W/m² 2,6 °C 4,4 °C 0,0 km/h (0 Bft)
30.03.2017 02:35 4,4 °C 4,5 °C 88 % 1027,1 hPa 0,0 mm 0,0 km/h (0 Bft) S-SW 192 ° 0 min 0,000 mm 0,0 UV-I 0 W/m² 2,6 °C 4,4 °C 0,0 km/h (0 Bft)
30.03.2017 02:36 4,4 °C 4,4 °C 87 % 1027,1 hPa 0,0 mm 0,0 km/h (0 Bft) S-SW 192 ° 0 min 0,000 mm 0,0 UV-I 0 W/m² 2,4 °C 4,4 °C 0,0 km/h (0 Bft)
30.03.2017 02:37 4,3 °C 4,4 °C 87 % 1027,1 hPa 0,0 mm 0,0 km/h (0 Bft) S-SW 192 ° 0 min 0,000 mm 0,0 UV-I 0 W/m² 2,3 °C 4,3 °C 0,0 km/h (0 Bft)
30.03.2017 02:38 4,3 °C 4,4 °C 87 % 1027,1 hPa 0,0 mm 0,0 km/h (0 Bft) S-SW 192 ° 0 min 0,000 mm 0,0 UV-I 0 W/m² 2,3 °C 4,3 °C 0,0 km/h (0 Bft)
30.03.2017 02:39 4,3 °C 4,3 °C 87 % 1027,1 hPa 0,0 mm 0,0 km/h (0 Bft) S-SW 192 ° 0 min 0,000 mm 0,0 UV-I 0 W/m² 2,3 °C 4,3 °C 0,0 km/h (0 Bft)
30.03.2017 02:40 4,2 °C 4,3 °C 86 % 1027,1 hPa 0,0 mm 0,0 km/h (0 Bft) S-SW 192 ° 0 min 0,000 mm 0,0 UV-I 0 W/m² 2,1 °C 4,2 °C 0,0 km/h (0 Bft)
30.03.2017 02:41 4,1 °C 4,2 °C 87 % 1027,0 hPa 0,0 mm 0,0 km/h (0 Bft) S-SW 192 ° 0 min 0,000 mm 0,0 UV-I 0 W/m² 2,1 °C 4,1 °C 0,0 km/h (0 Bft)
30.03.2017 02:42 4,1 °C 4,2 °C 87 % 1027,0 hPa 0,0 mm 0,0 km/h (0 Bft) S-SW 192 ° 0 min 0,000 mm 0,0 UV-I 0 W/m² 2,1 °C 4,1 °C 0,0 km/h (0 Bft)
30.03.2017 02:43 4,0 °C 4,1 °C 87 % 1027,1 hPa 0,0 mm 0,0 km/h (0 Bft) S-SW 192 ° 0 min 0,000 mm 0,0 UV-I 0 W/m² 2,0 °C 4,0 °C 0,0 km/h (0 Bft)
30.03.2017 02:44 3,9 °C 4,0 °C 88 % 1027,0 hPa 0,0 mm 0,0 km/h (0 Bft) S-SW 192 ° 0 min 0,000 mm 0,0 UV-I 0 W/m² 2,1 °C 3,9 °C 0,0 km/h (0 Bft)
30.03.2017 02:45 3,9 °C 3,9 °C 88 % 1027,0 hPa 0,0 mm 0,0 km/h (0 Bft) S-SW 192 ° 0 min 0,000 mm 0,0 UV-I 0 W/m² 2,1 °C 3,9 °C 0,0 km/h (0 Bft)
30.03.2017 02:46 3,9 °C 3,9 °C 88 % 1027,0 hPa 0,0 mm 0,0 km/h (0 Bft) S-SW 192 ° 0 min 0,000 mm 0,0 UV-I 0 W/m² 2,1 °C 3,9 °C 0,0 km/h (0 Bft)
30.03.2017 02:47 3,8 °C 3,9 °C 88 % 1027,0 hPa 0,0 mm 0,0 km/h (0 Bft) S-SW 192 ° 0 min 0,000 mm 0,0 UV-I 0 W/m² 2,0 °C 3,8 °C 0,0 km/h (0 Bft)
30.03.2017 02:48 3,7 °C 3,8 °C 88 % 1027,0 hPa 0,0 mm 0,0 km/h (0 Bft) S-SW 192 ° 0 min 0,000 mm 0,0 UV-I 0 W/m² 1,9 °C 3,7 °C 0,0 km/h (0 Bft)
30.03.2017 02:49 3,7 °C 3,8 °C 88 % 1027,0 hPa 0,0 mm 0,0 km/h (0 Bft) S-SW 192 ° 0 min 0,000 mm 0,0 UV-I 0 W/m² 1,9 °C 3,7 °C 0,0 km/h (0 Bft)
30.03.2017 02:50 3,7 °C 3,7 °C 88 % 1027,0 hPa 0,0 mm 0,0 km/h (0 Bft) S-SW 192 ° 0 min 0,000 mm 0,0 UV-I 0 W/m² 1,9 °C 3,7 °C 0,0 km/h (0 Bft)
30.03.2017 02:51 3,7 °C 3,7 °C 89 % 1027,0 hPa 0,0 mm 0,0 km/h (0 Bft) S-SW 192 ° 0 min 0,000 mm 0,0 UV-I 0 W/m² 2,1 °C 3,7 °C 0,0 km/h (0 Bft)
30.03.2017 02:52 3,7 °C 3,7 °C 89 % 1026,9 hPa 0,0 mm 0,0 km/h (0 Bft) S-SW 192 ° 0 min 0,000 mm 0,0 UV-I 0 W/m² 2,1 °C 3,7 °C 0,0 km/h (0 Bft)
30.03.2017 02:53 3,7 °C 3,7 °C 89 % 1027,0 hPa 0,0 mm 0,0 km/h (0 Bft) S-SW 192 ° 0 min 0,000 mm 0,0 UV-I 0 W/m² 2,1 °C 3,7 °C 0,0 km/h (0 Bft)
30.03.2017 02:54 3,6 °C 3,7 °C 89 % 1027,0 hPa 0,0 mm 0,0 km/h (0 Bft) S-SW 192 ° 0 min 0,000 mm 0,0 UV-I 0 W/m² 2,0 °C 3,6 °C 0,0 km/h (0 Bft)
30.03.2017 02:55 3,6 °C 3,6 °C 89 % 1026,9 hPa 0,0 mm 0,0 km/h (0 Bft) S-SW 192 ° 0 min 0,000 mm 0,0 UV-I 0 W/m² 2,0 °C 3,6 °C 0,0 km/h (0 Bft)
30.03.2017 02:56 3,6 °C 3,6 °C 89 % 1026,9 hPa 0,0 mm 0,0 km/h (0 Bft) S-SW 192 ° 0 min 0,000 mm 0,0 UV-I 0 W/m² 2,0 °C 3,6 °C 0,0 km/h (0 Bft)
30.03.2017 02:57 3,5 °C 3,6 °C 89 % 1026,9 hPa 0,0 mm 0,0 km/h (0 Bft) S-SW 192 ° 0 min 0,000 mm 0,0 UV-I 0 W/m² 1,9 °C 3,5 °C 0,0 km/h (0 Bft)
30.03.2017 02:58 3,5 °C 3,6 °C 89 % 1026,9 hPa 0,0 mm 0,0 km/h (0 Bft) S-SW 192 ° 0 min 0,000 mm 0,0 UV-I 0 W/m² 1,9 °C 3,5 °C 0,0 km/h (0 Bft)
30.03.2017 02:59 3,6 °C 3,6 °C 89 % 1026,9 hPa 0,0 mm 0,5 km/h (0 Bft) S-SW 192 ° 0 min 0,000 mm 0,0 UV-I 0 W/m² 2,0 °C 3,6 °C 1,6 km/h (1 Bft)
30.03.2017 03:00 3,6 °C 3,6 °C 89 % 1026,9 hPa 0,0 mm 0,9 km/h (0 Bft) S-SW 192 ° 0 min 0,000 mm 0,0 UV-I 0 W/m² 2,0 °C 3,6 °C 1,6 km/h (1 Bft)
30.03.2017 03:01 3,6 °C 3,6 °C 89 % 1026,9 hPa 0,0 mm 0,8 km/h (0 Bft) S-SW 192 ° 0 min 0,000 mm 0,0 UV-I 0 W/m² 2,0 °C 3,6 °C 1,6 km/h (1 Bft)
30.03.2017 03:02 3,6 °C 3,6 °C 89 % 1026,9 hPa 0,0 mm 0,0 km/h (0 Bft) S-SW 192 ° 0 min 0,000 mm 0,0 UV-I 0 W/m² 2,0 °C 3,6 °C 0,0 km/h (0 Bft)
30.03.2017 03:03 3,7 °C 3,7 °C 89 % 1026,9 hPa 0,0 mm 0,0 km/h (0 Bft) S-SW 192 ° 0 min 0,000 mm 0,0 UV-I 0 W/m² 2,1 °C 3,7 °C 0,0 km/h (0 Bft)
30.03.2017 03:04 3,7 °C 3,7 °C 89 % 1026,9 hPa 0,0 mm 0,0 km/h (0 Bft) S-SW 192 ° 0 min 0,000 mm 0,0 UV-I 0 W/m² 2,1 °C 3,7 °C 0,0 km/h (0 Bft)
30.03.2017 03:05 3,7 °C 3,7 °C 89 % 1026,9 hPa 0,0 mm 0,0 km/h (0 Bft) S-SW 192 ° 0 min 0,000 mm 0,0 UV-I 0 W/m² 2,1 °C 3,7 °C 0,0 km/h (0 Bft)
30.03.2017 03:06 3,8 °C 3,8 °C 89 % 1026,9 hPa 0,0 mm 0,0 km/h (0 Bft) S-SW 192 ° 0 min 0,000 mm 0,0 UV-I 0 W/m² 2,2 °C 3,8 °C 0,0 km/h (0 Bft)
30.03.2017 03:07 3,8 °C 3,8 °C 89 % 1026,9 hPa 0,0 mm 0,0 km/h (0 Bft) S-SW 192 ° 0 min 0,000 mm 0,0 UV-I 0 W/m² 2,2 °C 3,8 °C 0,0 km/h (0 Bft)
30.03.2017 03:08 3,9 °C 3,9 °C 89 % 1026,9 hPa 0,0 mm 0,0 km/h (0 Bft) S-SW 192 ° 0 min 0,000 mm 0,0 UV-I 0 W/m² 2,3 °C 3,9 °C 0,0 km/h (0 Bft)
30.03.2017 03:09 3,9 °C 3,9 °C 89 % 1026,9 hPa 0,0 mm 0,0 km/h (0 Bft) S-SW 192 ° 0 min 0,000 mm 0,0 UV-I 0 W/m² 2,3 °C 3,9 °C 0,0 km/h (0 Bft)
30.03.2017 03:10 4,0 °C 4,0 °C 89 % 1026,9 hPa 0,0 mm 0,0 km/h (0 Bft) S-SW 192 ° 0 min 0,000 mm 0,0 UV-I 0 W/m² 2,4 °C 4,0 °C 0,0 km/h (0 Bft)
30.03.2017 03:11 4,1 °C 4,1 °C 89 % 1026,9 hPa 0,0 mm 0,0 km/h (0 Bft) S-SW 192 ° 0 min 0,000 mm 0,0 UV-I 0 W/m² 2,5 °C 4,1 °C 0,0 km/h (0 Bft)
30.03.2017 03:12 4,1 °C 4,1 °C 89 % 1026,9 hPa 0,0 mm 0,0 km/h (0 Bft) S-SW 192 ° 0 min 0,000 mm 0,0 UV-I 0 W/m² 2,5 °C 4,1 °C 0,0 km/h (0 Bft)
30.03.2017 03:13 4,1 °C 4,1 °C 88 % 1026,9 hPa 0,0 mm 0,0 km/h (0 Bft) S-SW 192 ° 0 min 0,000 mm 0,0 UV-I 0 W/m² 2,3 °C 4,1 °C 0,0 km/h (0 Bft)
30.03.2017 03:14 4,1 °C 4,2 °C 88 % 1026,9 hPa 0,0 mm 0,0 km/h (0 Bft) S-SW 192 ° 0 min 0,000 mm 0,0 UV-I 0 W/m² 2,3 °C 4,1 °C 0,0 km/h (0 Bft)
30.03.2017 03:15 4,1 °C 4,2 °C 88 % 1026,9 hPa 0,0 mm 0,0 km/h (0 Bft) S-SW 192 ° 0 min 0,000 mm 0,0 UV-I 0 W/m² 2,3 °C 4,1 °C 0,0 km/h (0 Bft)
30.03.2017 03:16 4,1 °C 4,1 °C 88 % 1026,8 hPa 0,0 mm 0,0 km/h (0 Bft) S-SW 192 ° 0 min 0,000 mm 0,0 UV-I 0 W/m² 2,3 °C 4,1 °C 0,0 km/h (0 Bft)
30.03.2017 03:17 4,1 °C 4,1 °C 88 % 1026,8 hPa 0,0 mm 0,0 km/h (0 Bft) S-SW 192 ° 0 min 0,000 mm 0,0 UV-I 0 W/m² 2,3 °C 4,1 °C 0,0 km/h (0 Bft)
30.03.2017 03:18 4,0 °C 4,1 °C 88 % 1026,9 hPa 0,0 mm 0,0 km/h (0 Bft) S-SW 192 ° 0 min 0,000 mm 0,0 UV-I 0 W/m² 2,2 °C 4,0 °C 0,0 km/h (0 Bft)
30.03.2017 03:19 3,9 °C 4,0 °C 88 % 1026,8 hPa 0,0 mm 0,0 km/h (0 Bft) S-SW 192 ° 0 min 0,000 mm 0,0 UV-I 0 W/m² 2,1 °C 3,9 °C 0,0 km/h (0 Bft)
30.03.2017 03:20 3,9 °C 3,9 °C 88 % 1026,8 hPa 0,0 mm 0,0 km/h (0 Bft) S-SW 192 ° 0 min 0,000 mm 0,0 UV-I 0 W/m² 2,1 °C 3,9 °C 0,0 km/h (0 Bft)
30.03.2017 03:21 3,9 °C 3,9 °C 88 % 1026,8 hPa 0,0 mm 0,0 km/h (0 Bft) S-SW 192 ° 0 min 0,000 mm 0,0 UV-I 0 W/m² 2,1 °C 3,9 °C 0,0 km/h (0 Bft)
30.03.2017 03:22 3,8 °C 3,9 °C 88 % 1026,8 hPa 0,0 mm 0,0 km/h (0 Bft) S-SW 192 ° 0 min 0,000 mm 0,0 UV-I 0 W/m² 2,0 °C 3,8 °C 0,0 km/h (0 Bft)
30.03.2017 03:23 3,8 °C 3,8 °C 89 % 1026,8 hPa 0,0 mm 0,0 km/h (0 Bft) S-SW 192 ° 0 min 0,000 mm 0,0 UV-I 0 W/m² 2,2 °C 3,8 °C 0,0 km/h (0 Bft)
30.03.2017 03:24 3,7 °C 3,8 °C 88 % 1026,8 hPa 0,0 mm 0,0 km/h (0 Bft) S-SW 192 ° 0 min 0,000 mm 0,0 UV-I 0 W/m² 1,9 °C 3,7 °C 0,0 km/h (0 Bft)
30.03.2017 03:25 3,7 °C 3,7 °C 88 % 1026,7 hPa 0,0 mm 0,0 km/h (0 Bft) S-SW 192 ° 0 min 0,000 mm 0,0 UV-I 0 W/m² 1,9 °C 3,7 °C 0,0 km/h (0 Bft)
30.03.2017 03:26 3,7 °C 3,7 °C 89 % 1026,8 hPa 0,0 mm 0,0 km/h (0 Bft) S-SW 192 ° 0 min 0,000 mm 0,0 UV-I 0 W/m² 2,1 °C 3,7 °C 0,0 km/h (0 Bft)
30.03.2017 03:27 3,7 °C 3,7 °C 89 % 1026,7 hPa 0,0 mm 0,0 km/h (0 Bft) S-SW 192 ° 0 min 0,000 mm 0,0 UV-I 0 W/m² 2,1 °C 3,7 °C 0,0 km/h (0 Bft)
30.03.2017 03:28 3,7 °C 3,7 °C 89 % 1026,7 hPa 0,0 mm 0,0 km/h (0 Bft) S-SW 192 ° 0 min 0,000 mm 0,0 UV-I 0 W/m² 2,1 °C 3,7 °C 0,0 km/h (0 Bft)
30.03.2017 03:29 3,7 °C 3,7 °C 89 % 1026,7 hPa 0,0 mm 0,0 km/h (0 Bft) S-SW 192 ° 0 min 0,000 mm 0,0 UV-I 0 W/m² 2,1 °C 3,7 °C 0,0 km/h (0 Bft)
30.03.2017 03:30 3,7 °C 3,7 °C 89 % 1026,7 hPa 0,0 mm 0,0 km/h (0 Bft) S-SW 192 ° 0 min 0,000 mm 0,0 UV-I 0 W/m² 2,1 °C 3,7 °C 0,0 km/h (0 Bft)
30.03.2017 03:31 3,6 °C 3,7 °C 89 % 1026,7 hPa 0,0 mm 0,0 km/h (0 Bft) S-SW 192 ° 0 min 0,000 mm 0,0 UV-I 0 W/m² 2,0 °C 3,6 °C 0,0 km/h (0 Bft)
30.03.2017 03:32 3,6 °C 3,6 °C 89 % 1026,7 hPa 0,0 mm 0,0 km/h (0 Bft) S-SW 192 ° 0 min 0,000 mm 0,0 UV-I 0 W/m² 2,0 °C 3,6 °C 0,0 km/h (0 Bft)
30.03.2017 03:33 3,6 °C 3,6 °C 89 % 1026,7 hPa 0,0 mm 0,0 km/h (0 Bft) S-SW 192 ° 0 min 0,000 mm 0,0 UV-I 0 W/m² 2,0 °C 3,6 °C 0,0 km/h (0 Bft)
30.03.2017 03:34 3,6 °C 3,6 °C 90 % 1026,7 hPa 0,0 mm 0,0 km/h (0 Bft) S-SW 192 ° 0 min 0,000 mm 0,0 UV-I 0 W/m² 2,1 °C 3,6 °C 0,0 km/h (0 Bft)
30.03.2017 03:35 3,6 °C 3,6 °C 90 % 1026,7 hPa 0,0 mm 0,0 km/h (0 Bft) S-SW 192 ° 0 min 0,000 mm 0,0 UV-I 0 W/m² 2,1 °C 3,6 °C 0,0 km/h (0 Bft)
30.03.2017 03:36 3,7 °C 3,7 °C 89 % 1026,7 hPa 0,0 mm 0,0 km/h (0 Bft) S-SW 192 ° 0 min 0,000 mm 0,0 UV-I 0 W/m² 2,1 °C 3,7 °C 0,0 km/h (0 Bft)
30.03.2017 03:37 3,6 °C 3,7 °C 89 % 1026,6 hPa 0,0 mm 0,0 km/h (0 Bft) S-SW 192 ° 0 min 0,000 mm 0,0 UV-I 0 W/m² 2,0 °C 3,6 °C 0,0 km/h (0 Bft)
30.03.2017 03:38 3,6 °C 3,6 °C 89 % 1026,6 hPa 0,0 mm 0,0 km/h (0 Bft) S-SW 192 ° 0 min 0,000 mm 0,0 UV-I 0 W/m² 2,0 °C 3,6 °C 0,0 km/h (0 Bft)
30.03.2017 03:39 3,6 °C 3,6 °C 89 % 1026,6 hPa 0,0 mm 0,0 km/h (0 Bft) S-SW 192 ° 0 min 0,000 mm 0,0 UV-I 0 W/m² 2,0 °C 3,6 °C 0,0 km/h (0 Bft)
30.03.2017 03:40 3,6 °C 3,6 °C 89 % 1026,6 hPa 0,0 mm 0,0 km/h (0 Bft) S-SW 192 ° 0 min 0,000 mm 0,0 UV-I 0 W/m² 2,0 °C 3,6 °C 0,0 km/h (0 Bft)
30.03.2017 03:41 3,6 °C 3,6 °C 89 % 1026,6 hPa 0,0 mm 0,0 km/h (0 Bft) S-SW 192 ° 0 min 0,000 mm 0,0 UV-I 0 W/m² 2,0 °C 3,6 °C 0,0 km/h (0 Bft)
30.03.2017 03:42 3,5 °C 3,6 °C 89 % 1026,7 hPa 0,0 mm 0,0 km/h (0 Bft) S-SW 192 ° 0 min 0,000 mm 0,0 UV-I 0 W/m² 1,9 °C 3,5 °C 0,0 km/h (0 Bft)
30.03.2017 03:43 3,4 °C 3,5 °C 89 % 1026,7 hPa 0,0 mm 0,0 km/h (0 Bft) S-SW 192 ° 0 min 0,000 mm 0,0 UV-I 0 W/m² 1,8 °C 3,4 °C 0,0 km/h (0 Bft)
30.03.2017 03:44 3,4 °C 3,4 °C 89 % 1026,7 hPa 0,0 mm 0,0 km/h (0 Bft) S-SW 192 ° 0 min 0,000 mm 0,0 UV-I 0 W/m² 1,8 °C 3,4 °C 0,0 km/h (0 Bft)
30.03.2017 03:45 3,3 °C 3,4 °C 89 % 1026,7 hPa 0,0 mm 0,0 km/h (0 Bft) S-SW 192 ° 0 min 0,000 mm 0,0 UV-I 0 W/m² 1,7 °C 3,3 °C 0,0 km/h (0 Bft)
30.03.2017 03:46 3,3 °C 3,3 °C 90 % 1026,7 hPa 0,0 mm 0,0 km/h (0 Bft) S-SW 192 ° 0 min 0,000 mm 0,0 UV-I 0 W/m² 1,8 °C 3,3 °C 0,0 km/h (0 Bft)
30.03.2017 03:47 3,3 °C 3,3 °C 90 % 1026,7 hPa 0,0 mm 0,0 km/h (0 Bft) S-SW 192 ° 0 min 0,000 mm 0,0 UV-I 0 W/m² 1,8 °C 3,3 °C 0,0 km/h (0 Bft)
30.03.2017 03:48 3,3 °C 3,3 °C 90 % 1026,7 hPa 0,0 mm 0,0 km/h (0 Bft) S-SW 192 ° 0 min 0,000 mm 0,0 UV-I 0 W/m² 1,8 °C 3,3 °C 0,0 km/h (0 Bft)
30.03.2017 03:49 3,3 °C 3,3 °C 90 % 1026,7 hPa 0,0 mm 0,0 km/h (0 Bft) S-SW 192 ° 0 min 0,000 mm 0,0 UV-I 0 W/m² 1,8 °C 3,3 °C 0,0 km/h (0 Bft)
30.03.2017 03:50 3,2 °C 3,3 °C 90 % 1026,7 hPa 0,0 mm 0,0 km/h (0 Bft) S-SW 192 ° 0 min 0,000 mm 0,0 UV-I 0 W/m² 1,7 °C 3,2 °C 0,0 km/h (0 Bft)
30.03.2017 03:51 3,3 °C 3,3 °C 90 % 1026,7 hPa 0,0 mm 0,0 km/h (0 Bft) S-SW 192 ° 0 min 0,000 mm 0,0 UV-I 0 W/m² 1,8 °C 3,3 °C 0,0 km/h (0 Bft)
30.03.2017 03:52 3,3 °C 3,3 °C 91 % 1026,7 hPa 0,0 mm 0,0 km/h (0 Bft) S-SW 192 ° 0 min 0,000 mm 0,0 UV-I 0 W/m² 2,0 °C 3,3 °C 0,0 km/h (0 Bft)
30.03.2017 03:53 3,3 °C 3,3 °C 90 % 1026,7 hPa 0,0 mm 0,0 km/h (0 Bft) S-SW 192 ° 0 min 0,000 mm 0,0 UV-I 0 W/m² 1,8 °C 3,3 °C 0,0 km/h (0 Bft)
30.03.2017 03:54 3,3 °C 3,3 °C 91 % 1026,7 hPa 0,0 mm 0,0 km/h (0 Bft) S-SW 192 ° 0 min 0,000 mm 0,0 UV-I 0 W/m² 2,0 °C 3,3 °C 0,0 km/h (0 Bft)
30.03.2017 03:55 3,4 °C 3,4 °C 91 % 1026,7 hPa 0,0 mm 0,0 km/h (0 Bft) S-SW 192 ° 0 min 0,000 mm 0,0 UV-I 0 W/m² 2,1 °C 3,4 °C 0,0 km/h (0 Bft)
30.03.2017 03:56 3,5 °C 3,5 °C 91 % 1026,7 hPa 0,0 mm 0,0 km/h (0 Bft) S-SW 192 ° 0 min 0,000 mm 0,0 UV-I 0 W/m² 2,2 °C 3,5 °C 0,0 km/h (0 Bft)
30.03.2017 03:57 3,5 °C 3,5 °C 91 % 1026,7 hPa 0,0 mm 0,0 km/h (0 Bft) S-SW 192 ° 0 min 0,000 mm 0,0 UV-I 0 W/m² 2,2 °C 3,5 °C 0,0 km/h (0 Bft)
30.03.2017 03:58 3,5 °C 3,5 °C 90 % 1026,6 hPa 0,0 mm 0,0 km/h (0 Bft) S-SW 192 ° 0 min 0,000 mm 0,0 UV-I 0 W/m² 2,0 °C 3,5 °C 0,0 km/h (0 Bft)
30.03.2017 03:59 3,5 °C 3,5 °C 90 % 1026,6 hPa 0,0 mm 0,0 km/h (0 Bft) S-SW 192 ° 0 min 0,000 mm 0,0 UV-I 0 W/m² 2,0 °C 3,5 °C 0,0 km/h (0 Bft)
30.03.2017 04:00 3,5 °C 3,5 °C 90 % 1026,6 hPa 0,0 mm 0,0 km/h (0 Bft) S-SW 192 ° 0 min 0,000 mm 0,0 UV-I 0 W/m² 2,0 °C 3,5 °C 0,0 km/h (0 Bft)
30.03.2017 04:01 3,4 °C 3,5 °C 90 % 1026,6 hPa 0,0 mm 0,0 km/h (0 Bft) S-SW 192 ° 0 min 0,000 mm 0,0 UV-I 0 W/m² 1,9 °C 3,4 °C 0,0 km/h (0 Bft)
30.03.2017 04:02 3,4 °C 3,5 °C 89 % 1026,7 hPa 0,0 mm 0,0 km/h (0 Bft) S-SW 192 ° 0 min 0,000 mm 0,0 UV-I 0 W/m² 1,8 °C 3,4 °C 0,0 km/h (0 Bft)
30.03.2017 04:03 3,3 °C 3,4 °C 89 % 1026,6 hPa 0,0 mm 0,0 km/h (0 Bft) S-SW 192 ° 0 min 0,000 mm 0,0 UV-I 0 W/m² 1,7 °C 3,3 °C 0,0 km/h (0 Bft)
30.03.2017 04:04 3,3 °C 3,4 °C 89 % 1026,6 hPa 0,0 mm 0,0 km/h (0 Bft) S-SW 192 ° 0 min 0,000 mm 0,0 UV-I 0 W/m² 1,7 °C 3,3 °C 0,0 km/h (0 Bft)
30.03.2017 04:05 3,2 °C 3,3 °C 89 % 1026,6 hPa 0,0 mm 0,0 km/h (0 Bft) S-SW 192 ° 0 min 0,000 mm 0,0 UV-I 0 W/m² 1,6 °C 3,2 °C 0,0 km/h (0 Bft)
30.03.2017 04:06 3,2 °C 3,2 °C 90 % 1026,6 hPa 0,0 mm 0,0 km/h (0 Bft) S-SW 192 ° 0 min 0,000 mm 0,0 UV-I 0 W/m² 1,7 °C 3,2 °C 0,0 km/h (0 Bft)
30.03.2017 04:07 3,2 °C 3,2 °C 90 % 1026,6 hPa 0,0 mm 0,0 km/h (0 Bft) S-SW 192 ° 0 min 0,000 mm 0,0 UV-I 0 W/m² 1,7 °C 3,2 °C 0,0 km/h (0 Bft)
30.03.2017 04:08 3,1 °C 3,2 °C 90 % 1026,7 hPa 0,0 mm 0,0 km/h (0 Bft) S-SW 192 ° 0 min 0,000 mm 0,0 UV-I 0 W/m² 1,6 °C 3,1 °C 0,0 km/h (0 Bft)
30.03.2017 04:09 3,1 °C 3,1 °C 90 % 1026,6 hPa 0,0 mm 0,0 km/h (0 Bft) S-SW 192 ° 0 min 0,000 mm 0,0 UV-I 0 W/m² 1,6 °C 3,1 °C 0,0 km/h (0 Bft)
30.03.2017 04:10 3,1 °C 3,1 °C 90 % 1026,6 hPa 0,0 mm 0,0 km/h (0 Bft) S-SW 192 ° 0 min 0,000 mm 0,0 UV-I 0 W/m² 1,6 °C 3,1 °C 0,0 km/h (0 Bft)
30.03.2017 04:11 3,1 °C 3,1 °C 90 % 1026,6 hPa 0,0 mm 0,0 km/h (0 Bft) S-SW 192 ° 0 min 0,000 mm 0,0 UV-I 0 W/m² 1,6 °C 3,1 °C 0,0 km/h (0 Bft)
30.03.2017 04:12 3,0 °C 3,1 °C 90 % 1026,6 hPa 0,0 mm 0,0 km/h (0 Bft) S-SW 192 ° 0 min 0,000 mm 0,0 UV-I 0 W/m² 1,5 °C 3,0 °C 0,0 km/h (0 Bft)
30.03.2017 04:13 3,0 °C 3,0 °C 90 % 1026,6 hPa 0,0 mm 0,0 km/h (0 Bft) S-SW 192 ° 0 min 0,000 mm 0,0 UV-I 0 W/m² 1,5 °C 3,0 °C 0,0 km/h (0 Bft)
30.03.2017 04:14 2,9 °C 3,0 °C 90 % 1026,5 hPa 0,0 mm 0,0 km/h (0 Bft) S-SW 192 ° 0 min 0,000 mm 0,0 UV-I 0 W/m² 1,4 °C 2,9 °C 0,0 km/h (0 Bft)
30.03.2017 04:15 2,9 °C 2,9 °C 90 % 1026,6 hPa 0,0 mm 0,0 km/h (0 Bft) S-SW 192 ° 0 min 0,000 mm 0,0 UV-I 0 W/m² 1,4 °C 2,9 °C 0,0 km/h (0 Bft)
30.03.2017 04:16 2,9 °C 2,9 °C 91 % 1026,7 hPa 0,0 mm 0,0 km/h (0 Bft) S-SW 192 ° 0 min 0,000 mm 0,0 UV-I 0 W/m² 1,6 °C 2,9 °C 0,0 km/h (0 Bft)
30.03.2017 04:17 2,9 °C 2,9 °C 91 % 1026,6 hPa 0,0 mm 0,0 km/h (0 Bft) S-SW 192 ° 0 min 0,000 mm 0,0 UV-I 0 W/m² 1,6 °C 2,9 °C 0,0 km/h (0 Bft)
30.03.2017 04:18 3,1 °C 3,1 °C 91 % 1026,7 hPa 0,0 mm 0,0 km/h (0 Bft) S-SW 192 ° 0 min 0,000 mm 0,0 UV-I 0 W/m² 1,8 °C 3,1 °C 0,0 km/h (0 Bft)
30.03.2017 04:19 3,1 °C 3,1 °C 91 % 1026,7 hPa 0,0 mm 0,0 km/h (0 Bft) S-SW 192 ° 0 min 0,000 mm 0,0 UV-I 0 W/m² 1,8 °C 3,1 °C 0,0 km/h (0 Bft)
30.03.2017 04:20 3,2 °C 3,2 °C 91 % 1026,7 hPa 0,0 mm 0,0 km/h (0 Bft) S-SW 192 ° 0 min 0,000 mm 0,0 UV-I 0 W/m² 1,9 °C 3,2 °C 0,0 km/h (0 Bft)
30.03.2017 04:21 3,2 °C 3,2 °C 91 % 1026,6 hPa 0,0 mm 0,0 km/h (0 Bft) S-SW 192 ° 0 min 0,000 mm 0,0 UV-I 0 W/m² 1,9 °C 3,2 °C 0,0 km/h (0 Bft)
30.03.2017 04:22 3,3 °C 3,3 °C 91 % 1026,6 hPa 0,0 mm 0,0 km/h (0 Bft) S-SW 192 ° 0 min 0,000 mm 0,0 UV-I 0 W/m² 2,0 °C 3,3 °C 0,0 km/h (0 Bft)
30.03.2017 04:23 3,3 °C 3,3 °C 90 % 1026,7 hPa 0,0 mm 0,0 km/h (0 Bft) S-SW 192 ° 0 min 0,000 mm 0,0 UV-I 0 W/m² 1,8 °C 3,3 °C 0,0 km/h (0 Bft)
30.03.2017 04:24 3,4 °C 3,4 °C 90 % 1026,7 hPa 0,0 mm 0,0 km/h (0 Bft) S-SW 192 ° 0 min 0,000 mm 0,0 UV-I 0 W/m² 1,9 °C 3,4 °C 0,0 km/h (0 Bft)
30.03.2017 04:25 3,4 °C 3,4 °C 90 % 1026,7 hPa 0,0 mm 0,0 km/h (0 Bft) S-SW 192 ° 0 min 0,000 mm 0,0 UV-I 0 W/m² 1,9 °C 3,4 °C 0,0 km/h (0 Bft)
30.03.2017 04:26 3,3 °C 3,4 °C 90 % 1026,6 hPa 0,0 mm 0,0 km/h (0 Bft) S-SW 192 ° 0 min 0,000 mm 0,0 UV-I 0 W/m² 1,8 °C 3,3 °C 0,0 km/h (0 Bft)
30.03.2017 04:27 3,3 °C 3,3 °C 90 % 1026,6 hPa 0,0 mm 0,0 km/h (0 Bft) S-SW 192 ° 0 min 0,000 mm 0,0 UV-I 0 W/m² 1,8 °C 3,3 °C 0,0 km/h (0 Bft)
30.03.2017 04:28 3,3 °C 3,4 °C 90 % 1026,6 hPa 0,0 mm 0,0 km/h (0 Bft) S-SW 192 ° 0 min 0,000 mm 0,0 UV-I 0 W/m² 1,8 °C 3,3 °C 0,0 km/h (0 Bft)
30.03.2017 04:29 3,3 °C 3,3 °C 90 % 1026,6 hPa 0,0 mm 0,0 km/h (0 Bft) S-SW 192 ° 0 min 0,000 mm 0,0 UV-I 0 W/m² 1,8 °C 3,3 °C 0,0 km/h (0 Bft)
30.03.2017 04:30 3,3 °C 3,4 °C 90 % 1026,6 hPa 0,0 mm 0,0 km/h (0 Bft) S-SW 192 ° 0 min 0,000 mm 0,0 UV-I 0 W/m² 1,8 °C 3,3 °C 0,0 km/h (0 Bft)
30.03.2017 04:31 3,3 °C 3,3 °C 90 % 1026,7 hPa 0,0 mm 0,0 km/h (0 Bft) S-SW 192 ° 0 min 0,000 mm 0,0 UV-I 0 W/m² 1,8 °C 3,3 °C 0,0 km/h (0 Bft)
30.03.2017 04:32 3,2 °C 3,3 °C 90 % 1026,6 hPa 0,0 mm 0,0 km/h (0 Bft) S-SW 192 ° 0 min 0,000 mm 0,0 UV-I 0 W/m² 1,7 °C 3,2 °C 0,0 km/h (0 Bft)
30.03.2017 04:33 3,1 °C 3,2 °C 89 % 1026,6 hPa 0,0 mm 0,0 km/h (0 Bft) S-SW 192 ° 0 min 0,000 mm 0,0 UV-I 0 W/m² 1,5 °C 3,1 °C 0,0 km/h (0 Bft)
30.03.2017 04:34 2,9 °C 3,1 °C 89 % 1026,7 hPa 0,0 mm 0,0 km/h (0 Bft) S-SW 192 ° 0 min 0,000 mm 0,0 UV-I 0 W/m² 1,3 °C 2,9 °C 0,0 km/h (0 Bft)
30.03.2017 04:35 2,8 °C 2,9 °C 89 % 1026,6 hPa 0,0 mm 0,0 km/h (0 Bft) S-SW 192 ° 0 min 0,000 mm 0,0 UV-I 0 W/m² 1,2 °C 2,8 °C 0,0 km/h (0 Bft)
30.03.2017 04:36 2,7 °C 2,8 °C 89 % 1026,6 hPa 0,0 mm 0,0 km/h (0 Bft) S-SW 192 ° 0 min 0,000 mm 0,0 UV-I 0 W/m² 1,1 °C 2,7 °C 0,0 km/h (0 Bft)
30.03.2017 04:37 2,7 °C 2,7 °C 90 % 1026,7 hPa 0,0 mm 0,0 km/h (0 Bft) S-SW 192 ° 0 min 0,000 mm 0,0 UV-I 0 W/m² 1,2 °C 2,7 °C 0,0 km/h (0 Bft)
30.03.2017 04:38 2,6 °C 2,7 °C 90 % 1026,7 hPa 0,0 mm 0,0 km/h (0 Bft) S-SW 192 ° 0 min 0,000 mm 0,0 UV-I 0 W/m² 1,1 °C 2,6 °C 0,0 km/h (0 Bft)
30.03.2017 04:39 2,6 °C 2,6 °C 90 % 1026,7 hPa 0,0 mm 0,0 km/h (0 Bft) S-SW 192 ° 0 min 0,000 mm 0,0 UV-I 0 W/m² 1,1 °C 2,6 °C 0,0 km/h (0 Bft)
30.03.2017 04:40 2,6 °C 2,6 °C 90 % 1026,7 hPa 0,0 mm 0,0 km/h (0 Bft) S-SW 192 ° 0 min 0,000 mm 0,0 UV-I 0 W/m² 1,1 °C 2,6 °C 0,0 km/h (0 Bft)
30.03.2017 04:41 2,6 °C 2,6 °C 91 % 1026,7 hPa 0,0 mm 0,0 km/h (0 Bft) S-SW 192 ° 0 min 0,000 mm 0,0 UV-I 0 W/m² 1,3 °C 2,6 °C 0,0 km/h (0 Bft)
30.03.2017 04:42 2,6 °C 2,6 °C 91 % 1026,7 hPa 0,0 mm 0,0 km/h (0 Bft) S-SW 192 ° 0 min 0,000 mm 0,0 UV-I 0 W/m² 1,3 °C 2,6 °C 0,0 km/h (0 Bft)
30.03.2017 04:43 2,6 °C 2,6 °C 91 % 1026,7 hPa 0,0 mm 0,0 km/h (0 Bft) S-SW 192 ° 0 min 0,000 mm 0,0 UV-I 0 W/m² 1,3 °C 2,6 °C 0,0 km/h (0 Bft)
30.03.2017 04:44 2,7 °C 2,7 °C 91 % 1026,7 hPa 0,0 mm 0,3 km/h (0 Bft) S-SW 192 ° 0 min 0,000 mm 0,0 UV-I 0 W/m² 1,4 °C 2,7 °C 1,6 km/h (1 Bft)
30.03.2017 04:45 2,8 °C 2,8 °C 92 % 1026,7 hPa 0,0 mm 0,0 km/h (0 Bft) S-SW 192 ° 0 min 0,000 mm 0,0 UV-I 0 W/m² 1,6 °C 2,8 °C 0,0 km/h (0 Bft)
30.03.2017 04:46 2,8 °C 2,8 °C 91 % 1026,7 hPa 0,0 mm 0,0 km/h (0 Bft) S-SW 192 ° 0 min 0,000 mm 0,0 UV-I 0 W/m² 1,5 °C 2,8 °C 0,0 km/h (0 Bft)
30.03.2017 04:47 2,9 °C 2,9 °C 91 % 1026,7 hPa 0,0 mm 0,0 km/h (0 Bft) S-SW 192 ° 0 min 0,000 mm 0,0 UV-I 0 W/m² 1,6 °C 2,9 °C 0,0 km/h (0 Bft)
30.03.2017 04:48 2,9 °C 2,9 °C 91 % 1026,7 hPa 0,0 mm 0,0 km/h (0 Bft) S-SW 192 ° 0 min 0,000 mm 0,0 UV-I 0 W/m² 1,6 °C 2,9 °C 0,0 km/h (0 Bft)
30.03.2017 04:49 2,9 °C 2,9 °C 91 % 1026,7 hPa 0,0 mm 0,0 km/h (0 Bft) S-SW 192 ° 0 min 0,000 mm 0,0 UV-I 0 W/m² 1,6 °C 2,9 °C 0,0 km/h (0 Bft)
30.03.2017 04:50 2,9 °C 2,9 °C 91 % 1026,7 hPa 0,0 mm 0,0 km/h (0 Bft) S-SW 192 ° 0 min 0,000 mm 0,0 UV-I 0 W/m² 1,6 °C 2,9 °C 0,0 km/h (0 Bft)
30.03.2017 04:51 2,8 °C 2,9 °C 91 % 1026,7 hPa 0,0 mm 0,0 km/h (0 Bft) S-SW 192 ° 0 min 0,000 mm 0,0 UV-I 0 W/m² 1,5 °C 2,8 °C 0,0 km/h (0 Bft)
30.03.2017 04:52 2,8 °C 2,8 °C 91 % 1026,7 hPa 0,0 mm 0,0 km/h (0 Bft) S-SW 192 ° 0 min 0,000 mm 0,0 UV-I 0 W/m² 1,5 °C 2,8 °C 0,0 km/h (0 Bft)
30.03.2017 04:53 2,8 °C 2,8 °C 91 % 1026,7 hPa 0,0 mm 0,0 km/h (0 Bft) S-SW 192 ° 0 min 0,000 mm 0,0 UV-I 0 W/m² 1,5 °C 2,8 °C 0,0 km/h (0 Bft)
30.03.2017 04:54 2,8 °C 2,8 °C 91 % 1026,7 hPa 0,0 mm 0,0 km/h (0 Bft) S-SW 192 ° 0 min 0,000 mm 0,0 UV-I 0 W/m² 1,5 °C 2,8 °C 0,0 km/h (0 Bft)
30.03.2017 04:55 2,9 °C 2,9 °C 91 % 1026,7 hPa 0,0 mm 0,0 km/h (0 Bft) S-SW 192 ° 0 min 0,000 mm 0,0 UV-I 0 W/m² 1,6 °C 2,9 °C 0,0 km/h (0 Bft)
30.03.2017 04:56 2,9 °C 2,9 °C 91 % 1026,7 hPa 0,0 mm 0,0 km/h (0 Bft) S-SW 192 ° 0 min 0,000 mm 0,0 UV-I 0 W/m² 1,6 °C 2,9 °C 0,0 km/h (0 Bft)
30.03.2017 04:57 3,0 °C 3,0 °C 91 % 1026,6 hPa 0,0 mm 0,0 km/h (0 Bft) S-SW 192 ° 0 min 0,000 mm 0,0 UV-I 0 W/m² 1,7 °C 3,0 °C 0,0 km/h (0 Bft)
30.03.2017 04:58 3,1 °C 3,1 °C 91 % 1026,6 hPa 0,0 mm 0,0 km/h (0 Bft) S-SW 192 ° 0 min 0,000 mm 0,0 UV-I 0 W/m² 1,8 °C 3,1 °C 0,0 km/h (0 Bft)
30.03.2017 04:59 3,1 °C 3,1 °C 91 % 1026,6 hPa 0,0 mm 0,0 km/h (0 Bft) S-SW 192 ° 0 min 0,000 mm 0,0 UV-I 0 W/m² 1,8 °C 3,1 °C 0,0 km/h (0 Bft)
30.03.2017 05:00 3,1 °C 3,2 °C 91 % 1026,6 hPa 0,0 mm 0,0 km/h (0 Bft) S-SW 192 ° 0 min 0,000 mm 0,0 UV-I 0 W/m² 1,8 °C 3,1 °C 0,0 km/h (0 Bft)
30.03.2017 05:01 3,2 °C 3,2 °C 91 % 1026,6 hPa 0,0 mm 0,0 km/h (0 Bft) S-SW 192 ° 0 min 0,000 mm 0,0 UV-I 0 W/m² 1,9 °C 3,2 °C 0,0 km/h (0 Bft)
30.03.2017 05:02 3,2 °C 3,2 °C 90 % 1026,6 hPa 0,0 mm 0,0 km/h (0 Bft) S-SW 192 ° 0 min 0,000 mm 0,0 UV-I 0 W/m² 1,7 °C 3,2 °C 0,0 km/h (0 Bft)
30.03.2017 05:03 3,2 °C 3,2 °C 90 % 1026,6 hPa 0,0 mm 0,0 km/h (0 Bft) S-SW 192 ° 0 min 0,000 mm 0,0 UV-I 0 W/m² 1,7 °C 3,2 °C 0,0 km/h (0 Bft)
30.03.2017 05:04 3,1 °C 3,2 °C 90 % 1026,5 hPa 0,0 mm 0,0 km/h (0 Bft) S-SW 192 ° 0 min 0,000 mm 0,0 UV-I 0 W/m² 1,6 °C 3,1 °C 0,0 km/h (0 Bft)
30.03.2017 05:05 3,1 °C 3,1 °C 90 % 1026,5 hPa 0,0 mm 0,0 km/h (0 Bft) S-SW 192 ° 0 min 0,000 mm 0,0 UV-I 0 W/m² 1,6 °C 3,1 °C 0,0 km/h (0 Bft)
30.03.2017 05:06 3,0 °C 3,1 °C 90 % 1026,5 hPa 0,0 mm 0,0 km/h (0 Bft) S-SW 192 ° 0 min 0,000 mm 0,0 UV-I 0 W/m² 1,5 °C 3,0 °C 0,0 km/h (0 Bft)
30.03.2017 05:07 2,9 °C 3,0 °C 90 % 1026,6 hPa 0,0 mm 0,0 km/h (0 Bft) S-SW 192 ° 0 min 0,000 mm 0,0 UV-I 0 W/m² 1,4 °C 2,9 °C 0,0 km/h (0 Bft)
30.03.2017 05:08 2,9 °C 2,9 °C 90 % 1026,6 hPa 0,0 mm 0,0 km/h (0 Bft) S-SW 192 ° 0 min 0,000 mm 0,0 UV-I 0 W/m² 1,4 °C 2,9 °C 0,0 km/h (0 Bft)
30.03.2017 05:09 2,8 °C 2,9 °C 90 % 1026,6 hPa 0,0 mm 0,0 km/h (0 Bft) S-SW 192 ° 0 min 0,000 mm 0,0 UV-I 0 W/m² 1,3 °C 2,8 °C 0,0 km/h (0 Bft)
30.03.2017 05:10 2,8 °C 2,8 °C 90 % 1026,7 hPa 0,0 mm 0,0 km/h (0 Bft) S-SW 192 ° 0 min 0,000 mm 0,0 UV-I 0 W/m² 1,3 °C 2,8 °C 0,0 km/h (0 Bft)
30.03.2017 05:11 2,8 °C 2,8 °C 90 % 1026,6 hPa 0,0 mm 0,0 km/h (0 Bft) S-SW 192 ° 0 min 0,000 mm 0,0 UV-I 0 W/m² 1,3 °C 2,8 °C 0,0 km/h (0 Bft)
30.03.2017 05:12 2,7 °C 2,8 °C 90 % 1026,6 hPa 0,0 mm 0,0 km/h (0 Bft) S-SW 192 ° 0 min 0,000 mm 0,0 UV-I 0 W/m² 1,2 °C 2,7 °C 0,0 km/h (0 Bft)
30.03.2017 05:13 2,7 °C 2,7 °C 90 % 1026,6 hPa 0,0 mm 0,0 km/h (0 Bft) S-SW 192 ° 0 min 0,000 mm 0,0 UV-I 0 W/m² 1,2 °C 2,7 °C 0,0 km/h (0 Bft)
30.03.2017 05:14 2,6 °C 2,7 °C 90 % 1026,7 hPa 0,0 mm 0,0 km/h (0 Bft) S-SW 192 ° 0 min 0,000 mm 0,0 UV-I 0 W/m² 1,1 °C 2,6 °C 0,0 km/h (0 Bft)
30.03.2017 05:15 2,6 °C 2,6 °C 90 % 1026,6 hPa 0,0 mm 0,0 km/h (0 Bft) S-SW 192 ° 0 min 0,000 mm 0,0 UV-I 0 W/m² 1,1 °C 2,6 °C 0,0 km/h (0 Bft)
30.03.2017 05:16 2,5 °C 2,6 °C 91 % 1026,7 hPa 0,0 mm 0,0 km/h (0 Bft) S-SW 192 ° 0 min 0,000 mm 0,0 UV-I 0 W/m² 1,2 °C 2,5 °C 0,0 km/h (0 Bft)
30.03.2017 05:17 2,5 °C 2,6 °C 91 % 1026,6 hPa 0,0 mm 0,3 km/h (0 Bft) S-SW 192 ° 0 min 0,000 mm 0,0 UV-I 0 W/m² 1,2 °C 2,5 °C 1,6 km/h (1 Bft)
30.03.2017 05:18 2,5 °C 2,6 °C 91 % 1026,7 hPa 0,0 mm 0,1 km/h (0 Bft) S-SW 192 ° 0 min 0,000 mm 0,0 UV-I 0 W/m² 1,2 °C 2,5 °C 1,6 km/h (1 Bft)
30.03.2017 05:19 2,6 °C 2,6 °C 91 % 1026,7 hPa 0,0 mm 0,0 km/h (0 Bft) S-SW 192 ° 0 min 0,000 mm 0,0 UV-I 0 W/m² 1,3 °C 2,6 °C 0,0 km/h (0 Bft)
30.03.2017 05:20 2,6 °C 2,6 °C 92 % 1026,7 hPa 0,0 mm 0,0 km/h (0 Bft) S-SW 192 ° 0 min 0,000 mm 0,0 UV-I 0 W/m² 1,4 °C 2,6 °C 0,0 km/h (0 Bft)
30.03.2017 05:21 2,7 °C 2,7 °C 92 % 1026,7 hPa 0,0 mm 0,0 km/h (0 Bft) S-SW 192 ° 0 min 0,000 mm 0,0 UV-I 0 W/m² 1,5 °C 2,7 °C 0,0 km/h (0 Bft)
30.03.2017 05:22 2,7 °C 2,7 °C 92 % 1026,7 hPa 0,0 mm 0,0 km/h (0 Bft) S-SW 192 ° 0 min 0,000 mm 0,0 UV-I 0 W/m² 1,5 °C 2,7 °C 0,0 km/h (0 Bft)
30.03.2017 05:23 2,8 °C 2,8 °C 91 % 1026,7 hPa 0,0 mm 0,0 km/h (0 Bft) S-SW 192 ° 0 min 0,000 mm 0,0 UV-I 0 W/m² 1,5 °C 2,8 °C 0,0 km/h (0 Bft)
30.03.2017 05:24 2,8 °C 2,8 °C 91 % 1026,6 hPa 0,0 mm 0,0 km/h (0 Bft) S-SW 192 ° 0 min 0,000 mm 0,0 UV-I 0 W/m² 1,5 °C 2,8 °C 0,0 km/h (0 Bft)
30.03.2017 05:25 2,8 °C 2,8 °C 91 % 1026,6 hPa 0,0 mm 0,0 km/h (0 Bft) S-SW 192 ° 0 min 0,000 mm 0,0 UV-I 0 W/m² 1,5 °C 2,8 °C 0,0 km/h (0 Bft)
30.03.2017 05:26 2,8 °C 2,8 °C 91 % 1026,6 hPa 0,0 mm 0,0 km/h (0 Bft) S-SW 192 ° 0 min 0,000 mm 0,0 UV-I 0 W/m² 1,5 °C 2,8 °C 0,0 km/h (0 Bft)
30.03.2017 05:27 2,8 °C 2,8 °C 91 % 1026,6 hPa 0,0 mm 0,0 km/h (0 Bft) S-SW 192 ° 0 min 0,000 mm 0,0 UV-I 0 W/m² 1,5 °C 2,8 °C 0,0 km/h (0 Bft)
30.03.2017 05:28 2,7 °C 2,8 °C 91 % 1026,6 hPa 0,0 mm 0,0 km/h (0 Bft) S-SW 192 ° 0 min 0,000 mm 0,0 UV-I 0 W/m² 1,4 °C 2,7 °C 0,0 km/h (0 Bft)
30.03.2017 05:29 2,7 °C 2,7 °C 91 % 1026,6 hPa 0,0 mm 0,0 km/h (0 Bft) S-SW 192 ° 0 min 0,000 mm 0,0 UV-I 0 W/m² 1,4 °C 2,7 °C 0,0 km/h (0 Bft)
30.03.2017 05:30 2,7 °C 2,7 °C 91 % 1026,7 hPa 0,0 mm 0,0 km/h (0 Bft) S-SW 192 ° 0 min 0,000 mm 0,0 UV-I 0 W/m² 1,4 °C 2,7 °C 0,0 km/h (0 Bft)
30.03.2017 05:31 2,7 °C 2,7 °C 91 % 1026,6 hPa 0,0 mm 0,0 km/h (0 Bft) S-SW 192 ° 0 min 0,000 mm 0,0 UV-I 0 W/m² 1,4 °C 2,7 °C 0,0 km/h (0 Bft)
30.03.2017 05:32 2,6 °C 2,7 °C 91 % 1026,6 hPa 0,0 mm 0,0 km/h (0 Bft) S-SW 192 ° 0 min 0,000 mm 0,0 UV-I 0 W/m² 1,3 °C 2,6 °C 0,0 km/h (0 Bft)
30.03.2017 05:33 2,6 °C 2,7 °C 91 % 1026,6 hPa 0,0 mm 0,0 km/h (0 Bft) S-SW 192 ° 0 min 0,000 mm 0,0 UV-I 0 W/m² 1,3 °C 2,6 °C 0,0 km/h (0 Bft)
30.03.2017 05:34 2,6 °C 2,6 °C 91 % 1026,6 hPa 0,0 mm 0,0 km/h (0 Bft) S-SW 192 ° 0 min 0,000 mm 0,0 UV-I 0 W/m² 1,3 °C 2,6 °C 0,0 km/h (0 Bft)
30.03.2017 05:35 2,6 °C 2,6 °C 91 % 1026,6 hPa 0,0 mm 0,0 km/h (0 Bft) S-SW 192 ° 0 min 0,000 mm 0,0 UV-I 0 W/m² 1,3 °C 2,6 °C 0,0 km/h (0 Bft)
30.03.2017 05:36 2,6 °C 2,6 °C 91 % 1026,6 hPa 0,0 mm 0,0 km/h (0 Bft) S-SW 192 ° 0 min 0,000 mm 0,0 UV-I 0 W/m² 1,3 °C 2,6 °C 0,0 km/h (0 Bft)
30.03.2017 05:37 2,6 °C 2,6 °C 91 % 1026,5 hPa 0,0 mm 0,0 km/h (0 Bft) S-SW 192 ° 0 min 0,000 mm 0,0 UV-I 0 W/m² 1,3 °C 2,6 °C 0,0 km/h (0 Bft)
30.03.2017 05:38 2,6 °C 2,6 °C 91 % 1026,5 hPa 0,0 mm 0,0 km/h (0 Bft) S-SW 192 ° 0 min 0,000 mm 0,0 UV-I 0 W/m² 1,3 °C 2,6 °C 0,0 km/h (0 Bft)
30.03.2017 05:39 2,6 °C 2,7 °C 91 % 1026,5 hPa 0,0 mm 0,9 km/h (0 Bft) S-SW 192 ° 0 min 0,000 mm 0,0 UV-I 0 W/m² 1,3 °C 2,6 °C 1,6 km/h (1 Bft)
30.03.2017 05:40 2,7 °C 2,7 °C 91 % 1026,6 hPa 0,0 mm 0,2 km/h (0 Bft) S-SW 192 ° 0 min 0,000 mm 0,0 UV-I 0 W/m² 1,4 °C 2,7 °C 1,6 km/h (1 Bft)
30.03.2017 05:41 2,7 °C 2,7 °C 91 % 1026,6 hPa 0,0 mm 0,0 km/h (0 Bft) S-SW 192 ° 0 min 0,000 mm 0,0 UV-I 0 W/m² 1,4 °C 2,7 °C 0,0 km/h (0 Bft)
30.03.2017 05:42 2,7 °C 2,7 °C 91 % 1026,6 hPa 0,0 mm 0,0 km/h (0 Bft) S-SW 192 ° 0 min 0,000 mm 0,0 UV-I 0 W/m² 1,4 °C 2,7 °C 0,0 km/h (0 Bft)
30.03.2017 05:43 2,7 °C 2,7 °C 91 % 1026,6 hPa 0,0 mm 0,0 km/h (0 Bft) S-SW 192 ° 0 min 0,000 mm 0,0 UV-I 0 W/m² 1,4 °C 2,7 °C 0,0 km/h (0 Bft)
30.03.2017 05:44 2,7 °C 2,7 °C 91 % 1026,6 hPa 0,0 mm 0,0 km/h (0 Bft) S-SW 192 ° 0 min 0,000 mm 0,0 UV-I 0 W/m² 1,4 °C 2,7 °C 0,0 km/h (0 Bft)
30.03.2017 05:45 2,7 °C 2,8 °C 91 % 1026,6 hPa 0,0 mm 0,0 km/h (0 Bft) S-SW 192 ° 0 min 0,000 mm 0,0 UV-I 0 W/m² 1,4 °C 2,7 °C 0,0 km/h (0 Bft)
30.03.2017 05:46 2,7 °C 2,8 °C 91 % 1026,6 hPa 0,0 mm 0,0 km/h (0 Bft) S-SW 192 ° 0 min 0,000 mm 0,0 UV-I 0 W/m² 1,4 °C 2,7 °C 0,0 km/h (0 Bft)
30.03.2017 05:47 2,7 °C 2,8 °C 91 % 1026,6 hPa 0,0 mm 0,0 km/h (0 Bft) S-SW 192 ° 0 min 0,000 mm 0,0 UV-I 0 W/m² 1,4 °C 2,7 °C 0,0 km/h (0 Bft)
30.03.2017 05:48 2,7 °C 2,7 °C 91 % 1026,6 hPa 0,0 mm 0,0 km/h (0 Bft) S-SW 192 ° 0 min 0,000 mm 0,0 UV-I 0 W/m² 1,4 °C 2,7 °C 0,0 km/h (0 Bft)
30.03.2017 05:49 2,7 °C 2,7 °C 91 % 1026,5 hPa 0,0 mm 0,0 km/h (0 Bft) S-SW 192 ° 0 min 0,000 mm 0,0 UV-I 0 W/m² 1,4 °C 2,7 °C 0,0 km/h (0 Bft)
30.03.2017 05:50 2,7 °C 2,7 °C 91 % 1026,5 hPa 0,0 mm 0,0 km/h (0 Bft) S-SW 192 ° 0 min 0,000 mm 0,0 UV-I 0 W/m² 1,4 °C 2,7 °C 0,0 km/h (0 Bft)
30.03.2017 05:51 2,7 °C 2,7 °C 91 % 1026,5 hPa 0,0 mm 0,0 km/h (0 Bft) S-SW 192 ° 0 min 0,000 mm 0,0 UV-I 0 W/m² 1,4 °C 2,7 °C 0,0 km/h (0 Bft)
30.03.2017 05:52 2,7 °C 2,7 °C 91 % 1026,5 hPa 0,0 mm 0,0 km/h (0 Bft) S-SW 192 ° 0 min 0,000 mm 0,0 UV-I 0 W/m² 1,4 °C 2,7 °C 0,0 km/h (0 Bft)
30.03.2017 05:53 2,7 °C 2,7 °C 91 % 1026,5 hPa 0,0 mm 0,0 km/h (0 Bft) S-SW 192 ° 0 min 0,000 mm 0,0 UV-I 0 W/m² 1,4 °C 2,7 °C 0,0 km/h (0 Bft)
30.03.2017 05:54 2,7 °C 2,7 °C 91 % 1026,5 hPa 0,0 mm 0,0 km/h (0 Bft) S-SW 192 ° 0 min 0,000 mm 0,0 UV-I 0 W/m² 1,4 °C 2,7 °C 0,0 km/h (0 Bft)
30.03.2017 05:55 2,7 °C 2,7 °C 91 % 1026,5 hPa 0,0 mm 0,0 km/h (0 Bft) S-SW 192 ° 0 min 0,000 mm 0,0 UV-I 0 W/m² 1,4 °C 2,7 °C 0,0 km/h (0 Bft)
30.03.2017 05:56 2,7 °C 2,7 °C 91 % 1026,5 hPa 0,0 mm 0,0 km/h (0 Bft) S-SW 192 ° 0 min 0,000 mm 0,0 UV-I 0 W/m² 1,4 °C 2,7 °C 0,0 km/h (0 Bft)
30.03.2017 05:57 2,7 °C 2,7 °C 91 % 1026,5 hPa 0,0 mm 0,0 km/h (0 Bft) S-SW 192 ° 0 min 0,000 mm 0,0 UV-I 0 W/m² 1,4 °C 2,7 °C 0,0 km/h (0 Bft)
30.03.2017 05:58 2,8 °C 2,8 °C 91 % 1026,5 hPa 0,0 mm 0,0 km/h (0 Bft) S-SW 192 ° 0 min 0,000 mm 0,0 UV-I 0 W/m² 1,5 °C 2,8 °C 0,0 km/h (0 Bft)
30.03.2017 05:59 2,9 °C 2,9 °C 91 % 1026,6 hPa 0,0 mm 0,0 km/h (0 Bft) S-SW 192 ° 0 min 0,000 mm 0,0 UV-I 0 W/m² 1,6 °C 2,9 °C 0,0 km/h (0 Bft)
30.03.2017 06:00 2,9 °C 2,9 °C 91 % 1026,5 hPa 0,0 mm 0,0 km/h (0 Bft) S-SW 192 ° 0 min 0,000 mm 0,0 UV-I 0 W/m² 1,6 °C 2,9 °C 0,0 km/h (0 Bft)
30.03.2017 06:01 3,0 °C 3,0 °C 91 % 1026,5 hPa 0,0 mm 0,0 km/h (0 Bft) S-SW 192 ° 0 min 0,000 mm 0,0 UV-I 0 W/m² 1,7 °C 3,0 °C 0,0 km/h (0 Bft)
30.03.2017 06:02 3,0 °C 3,0 °C 91 % 1026,6 hPa 0,0 mm 0,0 km/h (0 Bft) S-SW 192 ° 0 min 0,000 mm 0,0 UV-I 0 W/m² 1,7 °C 3,0 °C 0,0 km/h (0 Bft)
30.03.2017 06:03 3,0 °C 3,0 °C 91 % 1026,6 hPa 0,0 mm 0,0 km/h (0 Bft) S-SW 192 ° 0 min 0,000 mm 0,0 UV-I 0 W/m² 1,7 °C 3,0 °C 0,0 km/h (0 Bft)
30.03.2017 06:04 3,1 °C 3,1 °C 91 % 1026,6 hPa 0,0 mm 0,0 km/h (0 Bft) S-SW 192 ° 0 min 0,000 mm 0,0 UV-I 0 W/m² 1,8 °C 3,1 °C 0,0 km/h (0 Bft)
30.03.2017 06:05 3,0 °C 3,1 °C 91 % 1026,6 hPa 0,0 mm 0,0 km/h (0 Bft) S-SW 192 ° 0 min 0,000 mm 0,0 UV-I 0 W/m² 1,7 °C 3,0 °C 0,0 km/h (0 Bft)
30.03.2017 06:06 3,0 °C 3,0 °C 91 % 1026,6 hPa 0,0 mm 0,0 km/h (0 Bft) S-SW 192 ° 0 min 0,000 mm 0,0 UV-I 0 W/m² 1,7 °C 3,0 °C 0,0 km/h (0 Bft)
30.03.2017 06:07 3,0 °C 3,0 °C 91 % 1026,7 hPa 0,0 mm 0,0 km/h (0 Bft) S-SW 192 ° 0 min 0,000 mm 0,0 UV-I 0 W/m² 1,7 °C 3,0 °C 0,0 km/h (0 Bft)
30.03.2017 06:08 2,9 °C 3,0 °C 91 % 1026,6 hPa 0,0 mm 0,0 km/h (0 Bft) S-SW 192 ° 0 min 0,000 mm 0,0 UV-I 0 W/m² 1,6 °C 2,9 °C 0,0 km/h (0 Bft)
30.03.2017 06:09 2,9 °C 2,9 °C 91 % 1026,5 hPa 0,0 mm 0,8 km/h (0 Bft) S-SW 192 ° 0 min 0,000 mm 0,0 UV-I 0 W/m² 1,6 °C 2,9 °C 3,2 km/h (1 Bft)
30.03.2017 06:10 2,9 °C 2,9 °C 91 % 1026,6 hPa 0,0 mm 0,5 km/h (0 Bft) S-SW 192 ° 0 min 0,000 mm 0,0 UV-I 0 W/m² 1,6 °C 2,9 °C 1,6 km/h (1 Bft)
30.03.2017 06:11 2,8 °C 2,9 °C 91 % 1026,6 hPa 0,0 mm 0,0 km/h (0 Bft) S-SW 192 ° 0 min 0,000 mm 0,0 UV-I 0 W/m² 1,5 °C 2,8 °C 0,0 km/h (0 Bft)
30.03.2017 06:12 2,8 °C 2,9 °C 91 % 1026,6 hPa 0,0 mm 0,0 km/h (0 Bft) S-SW 192 ° 0 min 0,000 mm 0,0 UV-I 0 W/m² 1,5 °C 2,8 °C 0,0 km/h (0 Bft)
30.03.2017 06:13 2,8 °C 2,8 °C 91 % 1026,6 hPa 0,0 mm 0,0 km/h (0 Bft) S-SW 192 ° 0 min 0,000 mm 0,0 UV-I 0 W/m² 1,5 °C 2,8 °C 0,0 km/h (0 Bft)
30.03.2017 06:14 2,8 °C 2,8 °C 91 % 1026,5 hPa 0,0 mm 0,0 km/h (0 Bft) S-SW 192 ° 0 min 0,000 mm 0,0 UV-I 0 W/m² 1,5 °C 2,8 °C 0,0 km/h (0 Bft)
30.03.2017 06:15 2,8 °C 2,8 °C 92 % 1026,5 hPa 0,0 mm 0,0 km/h (0 Bft) S-SW 192 ° 0 min 0,000 mm 0,0 UV-I 0 W/m² 1,6 °C 2,8 °C 0,0 km/h (0 Bft)
30.03.2017 06:16 2,8 °C 2,8 °C 92 % 1026,5 hPa 0,0 mm 0,1 km/h (0 Bft) S-SW 192 ° 0 min 0,000 mm 0,0 UV-I 0 W/m² 1,6 °C 2,8 °C 1,6 km/h (1 Bft)
30.03.2017 06:17 2,8 °C 2,8 °C 92 % 1026,6 hPa 0,0 mm 0,0 km/h (0 Bft) S-SW 192 ° 0 min 0,000 mm 0,0 UV-I 0 W/m² 1,6 °C 2,8 °C 0,0 km/h (0 Bft)
30.03.2017 06:18 2,7 °C 2,8 °C 92 % 1026,5 hPa 0,0 mm 0,0 km/h (0 Bft) S-SW 192 ° 0 min 0,000 mm 0,0 UV-I 0 W/m² 1,5 °C 2,7 °C 0,0 km/h (0 Bft)
30.03.2017 06:19 2,7 °C 2,7 °C 92 % 1026,5 hPa 0,0 mm 0,0 km/h (0 Bft) S-SW 192 ° 0 min 0,000 mm 0,0 UV-I 0 W/m² 1,5 °C 2,7 °C 0,0 km/h (0 Bft)
30.03.2017 06:20 2,7 °C 2,7 °C 92 % 1026,5 hPa 0,0 mm 0,0 km/h (0 Bft) S-SW 192 ° 0 min 0,000 mm 0,0 UV-I 0 W/m² 1,5 °C 2,7 °C 0,0 km/h (0 Bft)
30.03.2017 06:21 2,7 °C 2,7 °C 92 % 1026,6 hPa 0,0 mm 0,0 km/h (0 Bft) S-SW 192 ° 0 min 0,000 mm 0,0 UV-I 0 W/m² 1,5 °C 2,7 °C 0,0 km/h (0 Bft)
30.03.2017 06:22 2,7 °C 2,7 °C 92 % 1026,6 hPa 0,0 mm 0,0 km/h (0 Bft) S-SW 192 ° 0 min 0,000 mm 0,0 UV-I 0 W/m² 1,5 °C 2,7 °C 0,0 km/h (0 Bft)
30.03.2017 06:23 2,7 °C 2,7 °C 92 % 1026,6 hPa 0,0 mm 0,1 km/h (0 Bft) S-SW 192 ° 0 min 0,000 mm 0,0 UV-I 0 W/m² 1,5 °C 2,7 °C 1,6 km/h (1 Bft)
30.03.2017 06:24 2,7 °C 2,7 °C 92 % 1026,6 hPa 0,0 mm 0,0 km/h (0 Bft) S-SW 192 ° 0 min 0,000 mm 0,0 UV-I 0 W/m² 1,5 °C 2,7 °C 0,0 km/h (0 Bft)
30.03.2017 06:25 2,8 °C 2,8 °C 92 % 1026,5 hPa 0,0 mm 0,0 km/h (0 Bft) S-SW 192 ° 0 min 0,000 mm 0,0 UV-I 0 W/m² 1,6 °C 2,8 °C 0,0 km/h (0 Bft)
30.03.2017 06:26 2,8 °C 2,8 °C 92 % 1026,5 hPa 0,0 mm 0,0 km/h (0 Bft) S-SW 192 ° 0 min 0,000 mm 0,0 UV-I 0 W/m² 1,6 °C 2,8 °C 0,0 km/h (0 Bft)
30.03.2017 06:27 2,7 °C 2,8 °C 92 % 1026,5 hPa 0,0 mm 0,0 km/h (0 Bft) S-SW 192 ° 0 min 0,000 mm 0,0 UV-I 0 W/m² 1,5 °C 2,7 °C 0,0 km/h (0 Bft)
30.03.2017 06:28 2,8 °C 2,8 °C 92 % 1026,5 hPa 0,0 mm 0,7 km/h (0 Bft) S-SW 192 ° 0 min 0,000 mm 0,0 UV-I 0 W/m² 1,6 °C 2,8 °C 1,6 km/h (1 Bft)
30.03.2017 06:29 2,8 °C 2,8 °C 92 % 1026,5 hPa 0,0 mm 0,3 km/h (0 Bft) S-SW 192 ° 0 min 0,000 mm 0,0 UV-I 0 W/m² 1,6 °C 2,8 °C 1,6 km/h (1 Bft)
30.03.2017 06:30 2,9 °C 2,9 °C 92 % 1026,5 hPa 0,0 mm 0,1 km/h (0 Bft) S-SW 192 ° 0 min 0,000 mm 0,0 UV-I 0 W/m² 1,7 °C 2,9 °C 1,6 km/h (1 Bft)
30.03.2017 06:31 2,9 °C 2,9 °C 92 % 1026,5 hPa 0,0 mm 0,1 km/h (0 Bft) S-SW 192 ° 0 min 0,000 mm 0,0 UV-I 0 W/m² 1,7 °C 2,9 °C 1,6 km/h (1 Bft)
30.03.2017 06:32 3,0 °C 3,0 °C 92 % 1026,5 hPa 0,0 mm 0,0 km/h (0 Bft) S-SW 192 ° 0 min 0,000 mm 0,0 UV-I 0 W/m² 1,8 °C 3,0 °C 0,0 km/h (0 Bft)
30.03.2017 06:33 3,1 °C 3,1 °C 92 % 1026,5 hPa 0,0 mm 0,0 km/h (0 Bft) S-SW 192 ° 0 min 0,000 mm 0,0 UV-I 0 W/m² 1,9 °C 3,1 °C 0,0 km/h (0 Bft)
30.03.2017 06:34 3,0 °C 3,1 °C 91 % 1026,5 hPa 0,0 mm 0,0 km/h (0 Bft) S-SW 192 ° 0 min 0,000 mm 0,0 UV-I 0 W/m² 1,7 °C 3,0 °C 0,0 km/h (0 Bft)
30.03.2017 06:35 2,9 °C 3,0 °C 91 % 1026,5 hPa 0,0 mm 0,0 km/h (0 Bft) S-SW 192 ° 0 min 0,000 mm 0,0 UV-I 0 W/m² 1,6 °C 2,9 °C 0,0 km/h (0 Bft)
30.03.2017 06:36 2,9 °C 2,9 °C 91 % 1026,5 hPa 0,0 mm 0,0 km/h (0 Bft) S-SW 192 ° 0 min 0,000 mm 0,0 UV-I 0 W/m² 1,6 °C 2,9 °C 0,0 km/h (0 Bft)
30.03.2017 06:37 2,8 °C 2,9 °C 91 % 1026,5 hPa 0,0 mm 0,0 km/h (0 Bft) S-SW 192 ° 0 min 0,000 mm 0,0 UV-I 0 W/m² 1,5 °C 2,8 °C 0,0 km/h (0 Bft)
30.03.2017 06:38 2,8 °C 2,8 °C 91 % 1026,5 hPa 0,0 mm 0,0 km/h (0 Bft) S-SW 192 ° 0 min 0,000 mm 0,0 UV-I 0 W/m² 1,5 °C 2,8 °C 0,0 km/h (0 Bft)
30.03.2017 06:39 2,7 °C 2,8 °C 91 % 1026,6 hPa 0,0 mm 0,0 km/h (0 Bft) S-SW 192 ° 0 min 0,000 mm 0,0 UV-I 0 W/m² 1,4 °C 2,7 °C 0,0 km/h (0 Bft)
30.03.2017 06:40 2,6 °C 2,7 °C 91 % 1026,5 hPa 0,0 mm 0,0 km/h (0 Bft) S-SW 192 ° 0 min 0,000 mm 0,0 UV-I 0 W/m² 1,3 °C 2,6 °C 0,0 km/h (0 Bft)
30.03.2017 06:41 2,5 °C 2,6 °C 91 % 1026,5 hPa 0,0 mm 0,0 km/h (0 Bft) S-SW 192 ° 0 min 0,000 mm 0,0 UV-I 0 W/m² 1,2 °C 2,5 °C 0,0 km/h (0 Bft)
30.03.2017 06:42 2,4 °C 2,5 °C 91 % 1026,5 hPa 0,0 mm 0,0 km/h (0 Bft) S-SW 192 ° 0 min 0,000 mm 0,0 UV-I 0 W/m² 1,1 °C 2,4 °C 0,0 km/h (0 Bft)
30.03.2017 06:43 2,4 °C 2,4 °C 91 % 1026,5 hPa 0,0 mm 0,0 km/h (0 Bft) S-SW 192 ° 0 min 0,000 mm 0,0 UV-I 0 W/m² 1,1 °C 2,4 °C 0,0 km/h (0 Bft)
30.03.2017 06:44 2,4 °C 2,4 °C 91 % 1026,6 hPa 0,0 mm 0,0 km/h (0 Bft) S-SW 192 ° 0 min 0,000 mm 0,0 UV-I 0 W/m² 1,1 °C 2,4 °C 0,0 km/h (0 Bft)
30.03.2017 06:45 2,3 °C 2,4 °C 91 % 1026,6 hPa 0,0 mm 0,0 km/h (0 Bft) S-SW 192 ° 0 min 0,000 mm 0,0 UV-I 0 W/m² 1,0 °C 2,3 °C 0,0 km/h (0 Bft)
30.03.2017 06:46 2,3 °C 2,3 °C 92 % 1026,6 hPa 0,0 mm 0,0 km/h (0 Bft) S-SW 192 ° 0 min 0,000 mm 0,0 UV-I 0 W/m² 1,1 °C 2,3 °C 0,0 km/h (0 Bft)
30.03.2017 06:47 2,4 °C 2,4 °C 92 % 1026,6 hPa 0,0 mm 0,0 km/h (0 Bft) S-SW 192 ° 0 min 0,000 mm 0,0 UV-I 0 W/m² 1,2 °C 2,4 °C 0,0 km/h (0 Bft)
30.03.2017 06:48 2,4 °C 2,4 °C 92 % 1026,6 hPa 0,0 mm 0,0 km/h (0 Bft) S-SW 192 ° 0 min 0,000 mm 0,0 UV-I 0 W/m² 1,2 °C 2,4 °C 0,0 km/h (0 Bft)
30.03.2017 06:49 2,4 °C 2,4 °C 92 % 1026,6 hPa 0,0 mm 0,0 km/h (0 Bft) S-SW 192 ° 0 min 0,000 mm 0,0 UV-I 0 W/m² 1,2 °C 2,4 °C 0,0 km/h (0 Bft)
30.03.2017 06:50 2,4 °C 2,4 °C 92 % 1026,6 hPa 0,0 mm 0,0 km/h (0 Bft) S-SW 192 ° 0 min 0,000 mm 0,0 UV-I 0 W/m² 1,2 °C 2,4 °C 0,0 km/h (0 Bft)
30.03.2017 06:51 2,4 °C 2,4 °C 92 % 1026,6 hPa 0,0 mm 0,0 km/h (0 Bft) S-SW 192 ° 0 min 0,000 mm 0,0 UV-I 0 W/m² 1,2 °C 2,4 °C 0,0 km/h (0 Bft)
30.03.2017 06:52 2,4 °C 2,4 °C 92 % 1026,7 hPa 0,0 mm 0,0 km/h (0 Bft) S-SW 192 ° 0 min 0,000 mm 0,0 UV-I 0 W/m² 1,2 °C 2,4 °C 0,0 km/h (0 Bft)
30.03.2017 06:53 2,5 °C 2,5 °C 92 % 1026,7 hPa 0,0 mm 0,0 km/h (0 Bft) S-SW 192 ° 0 min 0,000 mm 0,0 UV-I 0 W/m² 1,3 °C 2,5 °C 0,0 km/h (0 Bft)
30.03.2017 06:54 2,6 °C 2,6 °C 92 % 1026,7 hPa 0,0 mm 0,0 km/h (0 Bft) S-SW 192 ° 0 min 0,000 mm 0,0 UV-I 0 W/m² 1,4 °C 2,6 °C 0,0 km/h (0 Bft)
30.03.2017 06:55 2,6 °C 2,6 °C 92 % 1026,7 hPa 0,0 mm 0,0 km/h (0 Bft) S-SW 192 ° 0 min 0,000 mm 0,0 UV-I 0 W/m² 1,4 °C 2,6 °C 0,0 km/h (0 Bft)
30.03.2017 06:56 2,5 °C 2,6 °C 92 % 1026,7 hPa 0,0 mm 0,0 km/h (0 Bft) S-SW 192 ° 0 min 0,000 mm 0,0 UV-I 0 W/m² 1,3 °C 2,5 °C 0,0 km/h (0 Bft)
30.03.2017 06:57 2,4 °C 2,5 °C 92 % 1026,6 hPa 0,0 mm 0,0 km/h (0 Bft) S-SW 192 ° 0 min 0,000 mm 0,0 UV-I 0 W/m² 1,2 °C 2,4 °C 0,0 km/h (0 Bft)
30.03.2017 06:58 2,4 °C 2,4 °C 92 % 1026,6 hPa 0,0 mm 0,0 km/h (0 Bft) S-SW 192 ° 0 min 0,000 mm 0,0 UV-I 0 W/m² 1,2 °C 2,4 °C 0,0 km/h (0 Bft)
30.03.2017 06:59 2,4 °C 2,4 °C 92 % 1026,6 hPa 0,0 mm 0,0 km/h (0 Bft) S-SW 192 ° 0 min 0,000 mm 0,0 UV-I 0 W/m² 1,2 °C 2,4 °C 0,0 km/h (0 Bft)
30.03.2017 07:00 2,3 °C 2,4 °C 92 % 1026,7 hPa 0,0 mm 0,0 km/h (0 Bft) S-SW 192 ° 0 min 0,000 mm 0,0 UV-I 0 W/m² 1,1 °C 2,3 °C 0,0 km/h (0 Bft)
30.03.2017 07:01 2,3 °C 2,3 °C 91 % 1026,6 hPa 0,0 mm 0,0 km/h (0 Bft) S-SW 192 ° 0 min 0,000 mm 0,0 UV-I 0 W/m² 1,0 °C 2,3 °C 0,0 km/h (0 Bft)
30.03.2017 07:02 2,2 °C 2,3 °C 92 % 1026,6 hPa 0,0 mm 0,0 km/h (0 Bft) S-SW 192 ° 0 min 0,000 mm 0,0 UV-I 0 W/m² 1,0 °C 2,2 °C 0,0 km/h (0 Bft)
30.03.2017 07:03 2,3 °C 2,3 °C 92 % 1026,6 hPa 0,0 mm 0,0 km/h (0 Bft) S-SW 192 ° 0 min 0,000 mm 0,0 UV-I 0 W/m² 1,1 °C 2,3 °C 0,0 km/h (0 Bft)
30.03.2017 07:04 2,2 °C 2,3 °C 92 % 1026,6 hPa 0,0 mm 0,0 km/h (0 Bft) S-SW 192 ° 0 min 0,000 mm 0,0 UV-I 5 W/m² 1,0 °C 2,2 °C 0,0 km/h (0 Bft)
30.03.2017 07:05 2,1 °C 2,2 °C 92 % 1026,6 hPa 0,0 mm 0,0 km/h (0 Bft) S-SW 192 ° 0 min 0,000 mm 0,0 UV-I 5 W/m² 0,9 °C 2,1 °C 0,0 km/h (0 Bft)
30.03.2017 07:06 2,1 °C 2,2 °C 92 % 1026,7 hPa 0,0 mm 0,0 km/h (0 Bft) S-SW 192 ° 0 min 0,000 mm 0,0 UV-I 5 W/m² 0,9 °C 2,1 °C 0,0 km/h (0 Bft)
30.03.2017 07:07 2,1 °C 2,1 °C 92 % 1026,7 hPa 0,0 mm 0,0 km/h (0 Bft) S-SW 192 ° 0 min 0,000 mm 0,0 UV-I 5 W/m² 0,9 °C 2,1 °C 0,0 km/h (0 Bft)
30.03.2017 07:08 2,1 °C 2,1 °C 92 % 1026,7 hPa 0,0 mm 0,0 km/h (0 Bft) S-SW 192 ° 0 min 0,000 mm 0,0 UV-I 5 W/m² 0,9 °C 2,1 °C 0,0 km/h (0 Bft)
30.03.2017 07:09 2,1 °C 2,1 °C 92 % 1026,7 hPa 0,0 mm 0,0 km/h (0 Bft) S-SW 192 ° 0 min 0,000 mm 0,0 UV-I 7 W/m² 0,9 °C 2,1 °C 0,0 km/h (0 Bft)
30.03.2017 07:10 2,1 °C 2,1 °C 92 % 1026,7 hPa 0,0 mm 0,0 km/h (0 Bft) S-SW 192 ° 0 min 0,000 mm 0,0 UV-I 7 W/m² 0,9 °C 2,1 °C 0,0 km/h (0 Bft)
30.03.2017 07:11 2,1 °C 2,1 °C 92 % 1026,6 hPa 0,0 mm 0,0 km/h (0 Bft) S-SW 192 ° 0 min 0,000 mm 0,0 UV-I 9 W/m² 0,9 °C 2,1 °C 0,0 km/h (0 Bft)
30.03.2017 07:12 2,1 °C 2,1 °C 92 % 1026,6 hPa 0,0 mm 0,0 km/h (0 Bft) S-SW 192 ° 0 min 0,000 mm 0,0 UV-I 9 W/m² 0,9 °C 2,1 °C 0,0 km/h (0 Bft)
30.03.2017 07:13 2,1 °C 2,1 °C 92 % 1026,6 hPa 0,0 mm 0,0 km/h (0 Bft) S-SW 192 ° 0 min 0,000 mm 0,0 UV-I 11 W/m² 0,9 °C 2,1 °C 0,0 km/h (0 Bft)
30.03.2017 07:14 2,0 °C 2,1 °C 92 % 1026,6 hPa 0,0 mm 0,0 km/h (0 Bft) S-SW 192 ° 0 min 0,000 mm 0,0 UV-I 11 W/m² 0,8 °C 2,0 °C 0,0 km/h (0 Bft)
30.03.2017 07:15 1,9 °C 2,0 °C 92 % 1026,7 hPa 0,0 mm 0,0 km/h (0 Bft) S-SW 192 ° 0 min 0,000 mm 0,0 UV-I 12 W/m² 0,7 °C 1,9 °C 0,0 km/h (0 Bft)
30.03.2017 07:16 1,9 °C 1,9 °C 92 % 1026,6 hPa 0,0 mm 0,0 km/h (0 Bft) S-SW 192 ° 0 min 0,000 mm 0,0 UV-I 12 W/m² 0,7 °C 1,9 °C 0,0 km/h (0 Bft)
30.03.2017 07:17 1,9 °C 1,9 °C 92 % 1026,6 hPa 0,0 mm 0,0 km/h (0 Bft) S-SW 192 ° 0 min 0,000 mm 0,0 UV-I 12 W/m² 0,7 °C 1,9 °C 0,0 km/h (0 Bft)
30.03.2017 07:18 1,9 °C 1,9 °C 92 % 1026,6 hPa 0,0 mm 0,0 km/h (0 Bft) S-SW 192 ° 0 min 0,000 mm 0,0 UV-I 12 W/m² 0,7 °C 1,9 °C 0,0 km/h (0 Bft)
30.03.2017 07:19 2,0 °C 2,0 °C 92 % 1026,6 hPa 0,0 mm 0,0 km/h (0 Bft) S-SW 192 ° 0 min 0,000 mm 0,0 UV-I 14 W/m² 0,8 °C 2,0 °C 0,0 km/h (0 Bft)
30.03.2017 07:20 2,0 °C 2,0 °C 93 % 1026,6 hPa 0,0 mm 0,0 km/h (0 Bft) S-SW 192 ° 0 min 0,000 mm 0,0 UV-I 14 W/m² 1,0 °C 2,0 °C 0,0 km/h (0 Bft)
30.03.2017 07:21 1,9 °C 2,0 °C 92 % 1026,6 hPa 0,0 mm 0,0 km/h (0 Bft) S-SW 192 ° 0 min 0,000 mm 0,0 UV-I 16 W/m² 0,7 °C 1,9 °C 0,0 km/h (0 Bft)
30.03.2017 07:22 1,9 °C 1,9 °C 92 % 1026,6 hPa 0,0 mm 0,0 km/h (0 Bft) S-SW 192 ° 0 min 0,000 mm 0,0 UV-I 16 W/m² 0,7 °C 1,9 °C 0,0 km/h (0 Bft)
30.03.2017 07:23 1,8 °C 1,9 °C 92 % 1026,6 hPa 0,0 mm 0,0 km/h (0 Bft) S-SW 192 ° 0 min 0,000 mm 0,0 UV-I 16 W/m² 0,6 °C 1,8 °C 0,0 km/h (0 Bft)
30.03.2017 07:24 1,8 °C 1,8 °C 92 % 1026,6 hPa 0,0 mm 0,0 km/h (0 Bft) S-SW 192 ° 0 min 0,000 mm 0,0 UV-I 16 W/m² 0,6 °C 1,8 °C 0,0 km/h (0 Bft)
30.03.2017 07:25 1,8 °C 1,8 °C 92 % 1026,6 hPa 0,0 mm 0,0 km/h (0 Bft) S-SW 192 ° 0 min 0,000 mm 0,0 UV-I 18 W/m² 0,6 °C 1,8 °C 0,0 km/h (0 Bft)
30.03.2017 07:26 1,8 °C 1,8 °C 92 % 1026,6 hPa 0,0 mm 0,0 km/h (0 Bft) S-SW 192 ° 0 min 0,000 mm 0,0 UV-I 18 W/m² 0,6 °C 1,8 °C 0,0 km/h (0 Bft)
30.03.2017 07:27 1,8 °C 1,8 °C 92 % 1026,7 hPa 0,0 mm 0,0 km/h (0 Bft) S-SW 192 ° 0 min 0,000 mm 0,0 UV-I 19 W/m² 0,6 °C 1,8 °C 0,0 km/h (0 Bft)
30.03.2017 07:28 1,8 °C 1,8 °C 92 % 1026,7 hPa 0,0 mm 0,0 km/h (0 Bft) S-SW 192 ° 0 min 0,000 mm 0,0 UV-I 19 W/m² 0,6 °C 1,8 °C 0,0 km/h (0 Bft)
30.03.2017 07:29 1,8 °C 1,8 °C 92 % 1026,6 hPa 0,0 mm 0,0 km/h (0 Bft) S-SW 192 ° 0 min 0,000 mm 0,0 UV-I 21 W/m² 0,6 °C 1,8 °C 0,0 km/h (0 Bft)
30.03.2017 07:30 1,7 °C 1,8 °C 92 % 1026,6 hPa 0,0 mm 0,0 km/h (0 Bft) S-SW 192 ° 0 min 0,000 mm 0,0 UV-I 21 W/m² 0,5 °C 1,7 °C 0,0 km/h (0 Bft)
30.03.2017 07:31 1,8 °C 1,8 °C 93 % 1026,6 hPa 0,0 mm 0,0 km/h (0 Bft) S-SW 192 ° 0 min 0,000 mm 0,0 UV-I 23 W/m² 0,8 °C 1,8 °C 0,0 km/h (0 Bft)
30.03.2017 07:32 1,8 °C 1,8 °C 93 % 1026,6 hPa 0,0 mm 0,0 km/h (0 Bft) S-SW 192 ° 0 min 0,000 mm 0,0 UV-I 25 W/m² 0,8 °C 1,8 °C 0,0 km/h (0 Bft)
30.03.2017 07:33 1,8 °C 1,8 °C 93 % 1026,6 hPa 0,0 mm 0,0 km/h (0 Bft) S-SW 192 ° 0 min 0,000 mm 0,0 UV-I 25 W/m² 0,8 °C 1,8 °C 0,0 km/h (0 Bft)
30.03.2017 07:34 1,9 °C 1,9 °C 93 % 1026,6 hPa 0,0 mm 0,0 km/h (0 Bft) S-SW 192 ° 0 min 0,000 mm 0,0 UV-I 26 W/m² 0,9 °C 1,9 °C 0,0 km/h (0 Bft)
30.03.2017 07:35 1,9 °C 1,9 °C 93 % 1026,6 hPa 0,0 mm 0,0 km/h (0 Bft) S-SW 192 ° 0 min 0,000 mm 0,0 UV-I 26 W/m² 0,9 °C 1,9 °C 0,0 km/h (0 Bft)
30.03.2017 07:36 1,9 °C 1,9 °C 93 % 1026,6 hPa 0,0 mm 0,0 km/h (0 Bft) S-SW 192 ° 0 min 0,000 mm 0,0 UV-I 28 W/m² 0,9 °C 1,9 °C 0,0 km/h (0 Bft)
30.03.2017 07:37 1,9 °C 1,9 °C 93 % 1026,6 hPa 0,0 mm 0,0 km/h (0 Bft) S-SW 192 ° 0 min 0,000 mm 0,0 UV-I 28 W/m² 0,9 °C 1,9 °C 0,0 km/h (0 Bft)
30.03.2017 07:38 1,9 °C 2,0 °C 93 % 1026,6 hPa 0,0 mm 0,0 km/h (0 Bft) S-SW 192 ° 0 min 0,000 mm 0,0 UV-I 28 W/m² 0,9 °C 1,9 °C 0,0 km/h (0 Bft)
30.03.2017 07:39 2,0 °C 2,0 °C 93 % 1026,6 hPa 0,0 mm 0,0 km/h (0 Bft) S-SW 192 ° 0 min 0,000 mm 0,0 UV-I 30 W/m² 1,0 °C 2,0 °C 0,0 km/h (0 Bft)
30.03.2017 07:40 2,0 °C 2,0 °C 93 % 1026,6 hPa 0,0 mm 0,0 km/h (0 Bft) S-SW 192 ° 0 min 0,000 mm 0,0 UV-I 30 W/m² 1,0 °C 2,0 °C 0,0 km/h (0 Bft)
30.03.2017 07:41 2,0 °C 2,0 °C 93 % 1026,6 hPa 0,0 mm 0,0 km/h (0 Bft) S-SW 192 ° 0 min 0,000 mm 0,0 UV-I 30 W/m² 1,0 °C 2,0 °C 0,0 km/h (0 Bft)
30.03.2017 07:42 2,0 °C 2,0 °C 93 % 1026,6 hPa 0,0 mm 0,0 km/h (0 Bft) S-SW 192 ° 0 min 0,000 mm 0,0 UV-I 32 W/m² 1,0 °C 2,0 °C 0,0 km/h (0 Bft)
30.03.2017 07:43 2,1 °C 2,1 °C 93 % 1026,7 hPa 0,0 mm 0,0 km/h (0 Bft) S-SW 192 ° 0 min 0,000 mm 0,0 UV-I 32 W/m² 1,1 °C 2,1 °C 0,0 km/h (0 Bft)
30.03.2017 07:44 2,1 °C 2,1 °C 93 % 1026,7 hPa 0,0 mm 0,0 km/h (0 Bft) S-SW 192 ° 0 min 0,000 mm 0,0 UV-I 33 W/m² 1,1 °C 2,1 °C 0,0 km/h (0 Bft)
30.03.2017 07:45 2,1 °C 2,1 °C 93 % 1026,6 hPa 0,0 mm 0,0 km/h (0 Bft) S-SW 192 ° 0 min 0,000 mm 0,0 UV-I 33 W/m² 1,1 °C 2,1 °C 0,0 km/h (0 Bft)
30.03.2017 07:46 2,1 °C 2,1 °C 93 % 1026,7 hPa 0,0 mm 0,0 km/h (0 Bft) S-SW 192 ° 0 min 0,000 mm 0,0 UV-I 33 W/m² 1,1 °C 2,1 °C 0,0 km/h (0 Bft)
30.03.2017 07:47 2,1 °C 2,1 °C 93 % 1026,7 hPa 0,0 mm 0,0 km/h (0 Bft) S-SW 192 ° 0 min 0,000 mm 0,0 UV-I 35 W/m² 1,1 °C 2,1 °C 0,0 km/h (0 Bft)
30.03.2017 07:48 2,1 °C 2,2 °C 93 % 1026,6 hPa 0,0 mm 0,0 km/h (0 Bft) S-SW 192 ° 0 min 0,000 mm 0,0 UV-I 35 W/m² 1,1 °C 2,1 °C 0,0 km/h (0 Bft)
30.03.2017 07:49 2,2 °C 2,2 °C 93 % 1026,6 hPa 0,0 mm 0,0 km/h (0 Bft) S-SW 192 ° 0 min 0,000 mm 0,0 UV-I 37 W/m² 1,2 °C 2,2 °C 0,0 km/h (0 Bft)
30.03.2017 07:50 2,2 °C 2,2 °C 93 % 1026,6 hPa 0,0 mm 0,0 km/h (0 Bft) S-SW 192 ° 0 min 0,000 mm 0,0 UV-I 39 W/m² 1,2 °C 2,2 °C 0,0 km/h (0 Bft)
30.03.2017 07:51 2,2 °C 2,2 °C 93 % 1026,6 hPa 0,0 mm 0,0 km/h (0 Bft) S-SW 192 ° 0 min 0,000 mm 0,0 UV-I 39 W/m² 1,2 °C 2,2 °C 0,0 km/h (0 Bft)
30.03.2017 07:52 2,2 °C 2,2 °C 93 % 1026,6 hPa 0,0 mm 0,0 km/h (0 Bft) S-SW 192 ° 0 min 0,000 mm 0,0 UV-I 39 W/m² 1,2 °C 2,2 °C 0,0 km/h (0 Bft)
30.03.2017 07:53 2,2 °C 2,2 °C 93 % 1026,7 hPa 0,0 mm 0,0 km/h (0 Bft) S-SW 192 ° 0 min 0,000 mm 0,0 UV-I 39 W/m² 1,2 °C 2,2 °C 0,0 km/h (0 Bft)
30.03.2017 07:54 2,3 °C 2,3 °C 93 % 1026,7 hPa 0,0 mm 0,0 km/h (0 Bft) S-SW 192 ° 0 min 0,000 mm 0,0 UV-I 40 W/m² 1,3 °C 2,3 °C 0,0 km/h (0 Bft)
30.03.2017 07:55 2,3 °C 2,3 °C 93 % 1026,6 hPa 0,0 mm 0,0 km/h (0 Bft) S-SW 192 ° 0 min 0,000 mm 0,0 UV-I 42 W/m² 1,3 °C 2,3 °C 0,0 km/h (0 Bft)
30.03.2017 07:56 2,3 °C 2,3 °C 93 % 1026,7 hPa 0,0 mm 0,0 km/h (0 Bft) S-SW 192 ° 0 min 0,000 mm 0,0 UV-I 42 W/m² 1,3 °C 2,3 °C 0,0 km/h (0 Bft)
30.03.2017 07:57 2,3 °C 2,3 °C 93 % 1026,7 hPa 0,0 mm 0,0 km/h (0 Bft) S-SW 192 ° 0 min 0,000 mm 0,0 UV-I 44 W/m² 1,3 °C 2,3 °C 0,0 km/h (0 Bft)
30.03.2017 07:58 2,3 °C 2,3 °C 93 % 1026,7 hPa 0,0 mm 0,0 km/h (0 Bft) S-SW 192 ° 0 min 0,000 mm 0,0 UV-I 44 W/m² 1,3 °C 2,3 °C 0,0 km/h (0 Bft)
30.03.2017 07:59 2,4 °C 2,4 °C 93 % 1026,7 hPa 0,0 mm 0,0 km/h (0 Bft) S-SW 192 ° 0 min 0,000 mm 0,0 UV-I 44 W/m² 1,4 °C 2,4 °C 0,0 km/h (0 Bft)
30.03.2017 08:00 2,4 °C 2,4 °C 93 % 1026,7 hPa 0,0 mm 0,0 km/h (0 Bft) S-SW 192 ° 0 min 0,000 mm 0,0 UV-I 47 W/m² 1,4 °C 2,4 °C 0,0 km/h (0 Bft)
30.03.2017 08:01 2,5 °C 2,5 °C 93 % 1026,7 hPa 0,0 mm 0,0 km/h (0 Bft) S-SW 192 ° 0 min 0,000 mm 0,0 UV-I 47 W/m² 1,5 °C 2,5 °C 0,0 km/h (0 Bft)
30.03.2017 08:02 2,5 °C 2,6 °C 93 % 1026,7 hPa 0,0 mm 0,0 km/h (0 Bft) S-SW 192 ° 0 min 0,000 mm 0,0 UV-I 49 W/m² 1,5 °C 2,5 °C 0,0 km/h (0 Bft)
30.03.2017 08:03 2,6 °C 2,6 °C 92 % 1026,7 hPa 0,0 mm 0,0 km/h (0 Bft) S-SW 192 ° 0 min 0,000 mm 0,0 UV-I 49 W/m² 1,4 °C 2,6 °C 0,0 km/h (0 Bft)
30.03.2017 08:04 2,5 °C 2,6 °C 92 % 1026,7 hPa 0,0 mm 0,0 km/h (0 Bft) S-SW 192 ° 0 min 0,000 mm 0,0 UV-I 49 W/m² 1,3 °C 2,5 °C 0,0 km/h (0 Bft)
30.03.2017 08:05 2,6 °C 2,6 °C 93 % 1026,7 hPa 0,0 mm 0,0 km/h (0 Bft) S-SW 192 ° 0 min 0,000 mm 0,0 UV-I 51 W/m² 1,6 °C 2,6 °C 0,0 km/h (0 Bft)
30.03.2017 08:06 2,6 °C 2,6 °C 93 % 1026,7 hPa 0,0 mm 0,0 km/h (0 Bft) S-SW 192 ° 0 min 0,000 mm 0,0 UV-I 54 W/m² 1,6 °C 2,6 °C 0,0 km/h (0 Bft)
30.03.2017 08:07 2,6 °C 2,6 °C 93 % 1026,7 hPa 0,0 mm 0,0 km/h (0 Bft) S-SW 192 ° 0 min 0,000 mm 0,0 UV-I 58 W/m² 1,6 °C 2,6 °C 0,0 km/h (0 Bft)
30.03.2017 08:08 2,7 °C 2,7 °C 93 % 1026,7 hPa 0,0 mm 0,0 km/h (0 Bft) S-SW 192 ° 0 min 0,000 mm 0,0 UV-I 63 W/m² 1,7 °C 2,7 °C 0,0 km/h (0 Bft)
30.03.2017 08:09 2,8 °C 2,8 °C 93 % 1026,7 hPa 0,0 mm 0,0 km/h (0 Bft) S-SW 192 ° 0 min 0,000 mm 0,0 UV-I 72 W/m² 1,8 °C 2,8 °C 0,0 km/h (0 Bft)
30.03.2017 08:10 2,8 °C 2,8 °C 92 % 1026,7 hPa 0,0 mm 0,0 km/h (0 Bft) S-SW 192 ° 0 min 0,000 mm 0,0 UV-I 81 W/m² 1,6 °C 2,8 °C 0,0 km/h (0 Bft)
30.03.2017 08:11 2,8 °C 2,8 °C 92 % 1026,7 hPa 0,0 mm 0,0 km/h (0 Bft) S-SW 192 ° 0 min 0,000 mm 0,0 UV-I 90 W/m² 1,6 °C 2,8 °C 0,0 km/h (0 Bft)
30.03.2017 08:12 2,9 °C 2,9 °C 92 % 1026,7 hPa 0,0 mm 0,0 km/h (0 Bft) S-SW 192 ° 0 min 0,000 mm 0,5 UV-I 95 W/m² 1,7 °C 2,9 °C 0,0 km/h (0 Bft)
30.03.2017 08:13 3,1 °C 3,1 °C 93 % 1026,7 hPa 0,0 mm 0,0 km/h (0 Bft) S-SW 192 ° 0 min 0,000 mm 0,5 UV-I 97 W/m² 2,1 °C 3,1 °C 0,0 km/h (0 Bft)
30.03.2017 08:14 3,2 °C 3,2 °C 93 % 1026,7 hPa 0,0 mm 0,0 km/h (0 Bft) S-SW 192 ° 0 min 0,000 mm 0,5 UV-I 100 W/m² 2,2 °C 3,2 °C 0,0 km/h (0 Bft)
30.03.2017 08:15 3,3 °C 3,3 °C 93 % 1026,6 hPa 0,0 mm 0,0 km/h (0 Bft) S-SW 192 ° 0 min 0,000 mm 0,5 UV-I 97 W/m² 2,3 °C 3,3 °C 0,0 km/h (0 Bft)
30.03.2017 08:16 3,3 °C 3,4 °C 91 % 1026,7 hPa 0,0 mm 0,0 km/h (0 Bft) S-SW 192 ° 0 min 0,000 mm 0,5 UV-I 93 W/m² 2,0 °C 3,3 °C 0,0 km/h (0 Bft)
30.03.2017 08:17 3,3 °C 3,3 °C 91 % 1026,8 hPa 0,0 mm 0,0 km/h (0 Bft) S-SW 192 ° 0 min 0,000 mm 0,5 UV-I 91 W/m² 2,0 °C 3,3 °C 0,0 km/h (0 Bft)
30.03.2017 08:18 3,2 °C 3,3 °C 91 % 1026,7 hPa 0,0 mm 0,0 km/h (0 Bft) S-SW 192 ° 0 min 0,000 mm 0,5 UV-I 98 W/m² 1,9 °C 3,2 °C 0,0 km/h (0 Bft)
30.03.2017 08:19 3,2 °C 3,2 °C 91 % 1026,8 hPa 0,0 mm 0,0 km/h (0 Bft) S-SW 192 ° 0 min 0,000 mm 0,5 UV-I 109 W/m² 1,9 °C 3,2 °C 0,0 km/h (0 Bft)
30.03.2017 08:20 3,2 °C 3,2 °C 91 % 1026,8 hPa 0,0 mm 0,0 km/h (0 Bft) S-SW 192 ° 0 min 0,000 mm 0,5 UV-I 120 W/m² 1,9 °C 3,2 °C 0,0 km/h (0 Bft)
30.03.2017 08:21 3,3 °C 3,3 °C 92 % 1026,8 hPa 0,0 mm 0,0 km/h (0 Bft) S-SW 192 ° 0 min 0,000 mm 0,6 UV-I 121 W/m² 2,1 °C 3,3 °C 0,0 km/h (0 Bft)
30.03.2017 08:22 3,4 °C 3,4 °C 92 % 1026,7 hPa 0,0 mm 0,0 km/h (0 Bft) S-SW 192 ° 0 min 0,000 mm 0,6 UV-I 118 W/m² 2,2 °C 3,4 °C 0,0 km/h (0 Bft)
30.03.2017 08:23 3,5 °C 3,5 °C 92 % 1026,7 hPa 0,0 mm 0,0 km/h (0 Bft) S-SW 192 ° 0 min 0,000 mm 0,6 UV-I 109 W/m² 2,3 °C 3,5 °C 0,0 km/h (0 Bft)
30.03.2017 08:24 3,6 °C 3,6 °C 91 % 1026,7 hPa 0,0 mm 0,0 km/h (0 Bft) S-SW 192 ° 0 min 0,000 mm 0,6 UV-I 107 W/m² 2,3 °C 3,6 °C 0,0 km/h (0 Bft)
30.03.2017 08:25 3,7 °C 3,7 °C 91 % 1026,7 hPa 0,0 mm 0,0 km/h (0 Bft) S-SW 192 ° 0 min 0,000 mm 0,6 UV-I 128 W/m² 2,4 °C 3,7 °C 0,0 km/h (0 Bft)
30.03.2017 08:26 3,7 °C 3,7 °C 91 % 1026,7 hPa 0,0 mm 0,0 km/h (0 Bft) S-SW 192 ° 0 min 0,000 mm 0,6 UV-I 132 W/m² 2,4 °C 3,7 °C 0,0 km/h (0 Bft)
30.03.2017 08:27 3,8 °C 3,8 °C 90 % 1026,7 hPa 0,0 mm 0,0 km/h (0 Bft) S-SW 192 ° 0 min 0,000 mm 0,6 UV-I 118 W/m² 2,3 °C 3,8 °C 0,0 km/h (0 Bft)
30.03.2017 08:28 3,9 °C 3,9 °C 90 % 1026,7 hPa 0,0 mm 0,0 km/h (0 Bft) S-SW 192 ° 0 min 0,000 mm 0,6 UV-I 98 W/m² 2,4 °C 3,9 °C 0,0 km/h (0 Bft)
30.03.2017 08:29 3,9 °C 3,9 °C 90 % 1026,7 hPa 0,0 mm 0,0 km/h (0 Bft) S-SW 192 ° 0 min 0,000 mm 0,6 UV-I 91 W/m² 2,4 °C 3,9 °C 0,0 km/h (0 Bft)
30.03.2017 08:30 4,0 °C 4,0 °C 90 % 1026,7 hPa 0,0 mm 0,0 km/h (0 Bft) S-SW 192 ° 0 min 0,000 mm 0,6 UV-I 83 W/m² 2,5 °C 4,0 °C 0,0 km/h (0 Bft)
30.03.2017 08:31 4,1 °C 4,1 °C 90 % 1026,7 hPa 0,0 mm 0,0 km/h (0 Bft) S-SW 192 ° 0 min 0,000 mm 0,6 UV-I 79 W/m² 2,6 °C 4,1 °C 0,0 km/h (0 Bft)
30.03.2017 08:32 4,1 °C 4,1 °C 89 % 1026,8 hPa 0,0 mm 0,0 km/h (0 Bft) S-SW 192 ° 0 min 0,000 mm 0,6 UV-I 77 W/m² 2,5 °C 4,1 °C 0,0 km/h (0 Bft)
30.03.2017 08:33 4,2 °C 4,2 °C 89 % 1026,7 hPa 0,0 mm 0,0 km/h (0 Bft) S-SW 192 ° 0 min 0,000 mm 0,6 UV-I 77 W/m² 2,6 °C 4,2 °C 0,0 km/h (0 Bft)
30.03.2017 08:34 4,2 °C 4,2 °C 89 % 1026,7 hPa 0,0 mm 0,0 km/h (0 Bft) S-SW 192 ° 0 min 0,000 mm 0,7 UV-I 77 W/m² 2,6 °C 4,2 °C 0,0 km/h (0 Bft)
30.03.2017 08:35 4,3 °C 4,3 °C 89 % 1026,7 hPa 0,0 mm 0,0 km/h (0 Bft) S-SW 192 ° 0 min 0,000 mm 0,7 UV-I 79 W/m² 2,7 °C 4,3 °C 0,0 km/h (0 Bft)
30.03.2017 08:36 4,3 °C 4,3 °C 89 % 1026,7 hPa 0,0 mm 0,0 km/h (0 Bft) S-SW 192 ° 0 min 0,000 mm 0,7 UV-I 77 W/m² 2,7 °C 4,3 °C 0,0 km/h (0 Bft)
30.03.2017 08:37 4,3 °C 4,3 °C 89 % 1026,7 hPa 0,0 mm 0,0 km/h (0 Bft) S-SW 192 ° 0 min 0,000 mm 0,7 UV-I 79 W/m² 2,7 °C 4,3 °C 0,0 km/h (0 Bft)
30.03.2017 08:38 4,4 °C 4,4 °C 89 % 1026,7 hPa 0,0 mm 0,0 km/h (0 Bft) S-SW 192 ° 0 min 0,000 mm 0,7 UV-I 79 W/m² 2,7 °C 4,4 °C 0,0 km/h (0 Bft)
30.03.2017 08:39 4,5 °C 4,5 °C 89 % 1026,7 hPa 0,0 mm 0,0 km/h (0 Bft) S-SW 192 ° 0 min 0,000 mm 0,7 UV-I 81 W/m² 2,8 °C 4,5 °C 0,0 km/h (0 Bft)
30.03.2017 08:40 4,5 °C 4,5 °C 89 % 1026,7 hPa 0,0 mm 0,0 km/h (0 Bft) S-SW 192 ° 0 min 0,000 mm 0,7 UV-I 83 W/m² 2,8 °C 4,5 °C 0,0 km/h (0 Bft)
30.03.2017 08:41 4,6 °C 4,6 °C 88 % 1026,7 hPa 0,0 mm 0,0 km/h (0 Bft) S-SW 192 ° 0 min 0,000 mm 0,7 UV-I 81 W/m² 2,8 °C 4,6 °C 0,0 km/h (0 Bft)
30.03.2017 08:42 4,6 °C 4,6 °C 88 % 1026,7 hPa 0,0 mm 0,0 km/h (0 Bft) S-SW 192 ° 0 min 0,000 mm 0,7 UV-I 90 W/m² 2,8 °C 4,6 °C 0,0 km/h (0 Bft)
30.03.2017 08:43 4,7 °C 4,7 °C 88 % 1026,7 hPa 0,0 mm 0,0 km/h (0 Bft) S-SW 192 ° 0 min 0,000 mm 0,8 UV-I 114 W/m² 2,9 °C 4,7 °C 0,0 km/h (0 Bft)
30.03.2017 08:44 4,7 °C 4,7 °C 88 % 1026,7 hPa 0,0 mm 0,0 km/h (0 Bft) S-SW 192 ° 0 min 0,000 mm 0,8 UV-I 144 W/m² 2,9 °C 4,7 °C 0,0 km/h (0 Bft)
30.03.2017 08:45 4,8 °C 4,8 °C 88 % 1026,7 hPa 0,0 mm 0,0 km/h (0 Bft) S-SW 192 ° 0 min 0,000 mm 0,8 UV-I 148 W/m² 3,0 °C 4,8 °C 0,0 km/h (0 Bft)
30.03.2017 08:46 4,9 °C 4,9 °C 88 % 1026,7 hPa 0,0 mm 0,0 km/h (0 Bft) S-SW 192 ° 0 min 0,000 mm 0,8 UV-I 153 W/m² 3,1 °C 4,9 °C 0,0 km/h (0 Bft)
30.03.2017 08:47 4,9 °C 4,9 °C 88 % 1026,7 hPa 0,0 mm 0,0 km/h (0 Bft) S-SW 192 ° 0 min 0,000 mm 0,8 UV-I 186 W/m² 3,1 °C 4,9 °C 0,0 km/h (0 Bft)
30.03.2017 08:48 5,0 °C 5,0 °C 88 % 1026,7 hPa 0,0 mm 0,0 km/h (0 Bft) S-SW 192 ° 0 min 0,000 mm 0,9 UV-I 209 W/m² 3,2 °C 5,0 °C 0,0 km/h (0 Bft)
30.03.2017 08:49 5,1 °C 5,1 °C 87 % 1026,7 hPa 0,0 mm 0,0 km/h (0 Bft) S-SW 192 ° 0 min 0,000 mm 0,9 UV-I 213 W/m² 3,1 °C 5,1 °C 0,0 km/h (0 Bft)
30.03.2017 08:50 5,2 °C 5,2 °C 88 % 1026,7 hPa 0,0 mm 0,0 km/h (0 Bft) S-SW 192 ° 0 min 0,000 mm 0,9 UV-I 200 W/m² 3,4 °C 5,2 °C 0,0 km/h (0 Bft)
30.03.2017 08:51 5,3 °C 5,3 °C 88 % 1026,7 hPa 0,0 mm 0,0 km/h (0 Bft) S-SW 192 ° 0 min 0,000 mm 0,9 UV-I 236 W/m² 3,5 °C 5,3 °C 0,0 km/h (0 Bft)
30.03.2017 08:52 5,4 °C 5,4 °C 88 % 1026,6 hPa 0,0 mm 0,0 km/h (0 Bft) S-SW 192 ° 0 min 0,000 mm 1,0 UV-I 243 W/m² 3,6 °C 5,4 °C 0,0 km/h (0 Bft)
30.03.2017 08:53 5,4 °C 5,4 °C 88 % 1026,7 hPa 0,0 mm 0,0 km/h (0 Bft) S-SW 192 ° 0 min 0,000 mm 1,0 UV-I 232 W/m² 3,6 °C 5,4 °C 0,0 km/h (0 Bft)
30.03.2017 08:54 5,5 °C 5,5 °C 87 % 1026,7 hPa 0,0 mm 0,0 km/h (0 Bft) S-SW 192 ° 0 min 0,000 mm 1,0 UV-I 221 W/m² 3,5 °C 5,5 °C 0,0 km/h (0 Bft)
30.03.2017 08:55 5,6 °C 5,6 °C 87 % 1026,7 hPa 0,0 mm 0,0 km/h (0 Bft) S-SW 192 ° 0 min 0,000 mm 1,0 UV-I 239 W/m² 3,6 °C 5,6 °C 0,0 km/h (0 Bft)
30.03.2017 08:56 5,7 °C 5,7 °C 87 % 1026,7 hPa 0,0 mm 0,0 km/h (0 Bft) S-SW 192 ° 0 min 0,000 mm 1,0 UV-I 258 W/m² 3,7 °C 5,7 °C 0,0 km/h (0 Bft)
30.03.2017 08:57 5,8 °C 5,8 °C 87 % 1026,6 hPa 0,0 mm 0,0 km/h (0 Bft) S-SW 192 ° 0 min 0,000 mm 1,0 UV-I 260 W/m² 3,8 °C 5,8 °C 0,0 km/h (0 Bft)
30.03.2017 08:58 5,9 °C 5,9 °C 87 % 1026,6 hPa 0,0 mm 0,0 km/h (0 Bft) S-SW 192 ° 0 min 0,000 mm 1,0 UV-I 257 W/m² 3,9 °C 5,9 °C 0,0 km/h (0 Bft)
30.03.2017 08:59 5,9 °C 5,9 °C 86 % 1026,6 hPa 0,0 mm 0,1 km/h (0 Bft) S-SW 192 ° 0 min 0,000 mm 1,1 UV-I 253 W/m² 3,7 °C 5,9 °C 1,6 km/h (1 Bft)
30.03.2017 09:00 6,1 °C 6,1 °C 86 % 1026,6 hPa 0,0 mm 0,8 km/h (0 Bft) S-SW 192 ° 0 min 0,000 mm 1,1 UV-I 260 W/m² 3,9 °C 6,1 °C 1,6 km/h (1 Bft)
30.03.2017 09:01 6,1 °C 6,1 °C 86 % 1026,7 hPa 0,0 mm 0,4 km/h (0 Bft) S-SW 192 ° 0 min 0,051 mm 1,1 UV-I 241 W/m² 3,9 °C 6,1 °C 1,6 km/h (1 Bft)
30.03.2017 09:02 6,2 °C 6,2 °C 86 % 1026,7 hPa 0,0 mm 0,5 km/h (0 Bft) S-SW 192 ° 0 min 0,000 mm 1,1 UV-I 258 W/m² 4,0 °C 6,2 °C 1,6 km/h (1 Bft)
30.03.2017 09:03 6,3 °C 6,3 °C 86 % 1026,7 hPa 0,0 mm 0,5 km/h (0 Bft) S-SW 192 ° 0 min 0,000 mm 1,1 UV-I 250 W/m² 4,1 °C 6,3 °C 1,6 km/h (1 Bft)
30.03.2017 09:04 6,3 °C 6,3 °C 85 % 1026,7 hPa 0,0 mm 0,3 km/h (0 Bft) S-SW 192 ° 0 min 0,000 mm 1,1 UV-I 258 W/m² 4,0 °C 6,3 °C 1,6 km/h (1 Bft)
30.03.2017 09:05 6,4 °C 6,4 °C 85 % 1026,7 hPa 0,0 mm 0,9 km/h (0 Bft) S-SW 192 ° 0 min 0,000 mm 1,2 UV-I 285 W/m² 4,1 °C 6,4 °C 1,6 km/h (1 Bft)
30.03.2017 09:06 6,6 °C 6,6 °C 86 % 1026,7 hPa 0,0 mm 0,3 km/h (0 Bft) S-SW 192 ° 1 min 0,000 mm 1,2 UV-I 294 W/m² 4,4 °C 6,6 °C 1,6 km/h (1 Bft)
30.03.2017 09:07 6,7 °C 6,7 °C 86 % 1026,7 hPa 0,0 mm 0,0 km/h (0 Bft) S-SW 192 ° 1 min 0,000 mm 1,2 UV-I 297 W/m² 4,5 °C 6,7 °C 0,0 km/h (0 Bft)
30.03.2017 09:08 6,9 °C 6,9 °C 86 % 1026,6 hPa 0,0 mm 0,0 km/h (0 Bft) S-SW 192 ° 1 min 0,000 mm 1,2 UV-I 302 W/m² 4,7 °C 6,9 °C 0,0 km/h (0 Bft)
30.03.2017 09:09 7,2 °C 7,2 °C 86 % 1026,6 hPa 0,0 mm 0,0 km/h (0 Bft) S-SW 192 ° 1 min 0,000 mm 1,2 UV-I 306 W/m² 5,0 °C 7,2 °C 0,0 km/h (0 Bft)
30.03.2017 09:10 7,3 °C 7,3 °C 85 % 1026,6 hPa 0,0 mm 0,3 km/h (0 Bft) S-SW 192 ° 1 min 0,000 mm 1,3 UV-I 308 W/m² 4,9 °C 7,3 °C 1,6 km/h (1 Bft)
30.03.2017 09:11 7,3 °C 7,3 °C 84 % 1026,6 hPa 0,0 mm 0,2 km/h (0 Bft) S-SW 192 ° 1 min 0,000 mm 1,3 UV-I 302 W/m² 4,8 °C 7,3 °C 1,6 km/h (1 Bft)
30.03.2017 09:12 7,4 °C 7,4 °C 85 % 1026,6 hPa 0,0 mm 0,0 km/h (0 Bft) S-SW 192 ° 1 min 0,000 mm 1,3 UV-I 304 W/m² 5,0 °C 7,4 °C 0,0 km/h (0 Bft)
30.03.2017 09:13 7,6 °C 7,6 °C 86 % 1026,7 hPa 0,0 mm 0,0 km/h (0 Bft) S-SW 192 ° 1 min 0,000 mm 1,3 UV-I 311 W/m² 5,4 °C 7,6 °C 0,0 km/h (0 Bft)
30.03.2017 09:14 7,7 °C 7,7 °C 83 % 1026,7 hPa 0,0 mm 0,0 km/h (0 Bft) S-SW 192 ° 1 min 0,000 mm 1,4 UV-I 313 W/m² 5,0 °C 7,7 °C 0,0 km/h (0 Bft)
30.03.2017 09:15 7,8 °C 7,8 °C 83 % 1026,7 hPa 0,0 mm 0,0 km/h (0 Bft) S-SW 192 ° 1 min 0,000 mm 1,4 UV-I 316 W/m² 5,1 °C 7,8 °C 0,0 km/h (0 Bft)
30.03.2017 09:16 7,8 °C 7,8 °C 83 % 1026,7 hPa 0,0 mm 1,0 km/h (0 Bft) S-SW 192 ° 1 min 0,000 mm 1,4 UV-I 316 W/m² 5,1 °C 7,8 °C 1,6 km/h (1 Bft)
30.03.2017 09:17 7,8 °C 7,8 °C 82 % 1026,7 hPa 0,0 mm 0,1 km/h (0 Bft) S-SW 192 ° 1 min 0,000 mm 1,4 UV-I 318 W/m² 4,9 °C 7,8 °C 1,6 km/h (1 Bft)
30.03.2017 09:18 7,8 °C 7,8 °C 82 % 1026,7 hPa 0,0 mm 0,0 km/h (0 Bft) S-SW 192 ° 1 min 0,000 mm 1,5 UV-I 329 W/m² 4,9 °C 7,8 °C 0,0 km/h (0 Bft)
30.03.2017 09:19 7,9 °C 7,9 °C 82 % 1026,6 hPa 0,0 mm 0,0 km/h (0 Bft) S-SW 192 ° 1 min 0,000 mm 1,5 UV-I 338 W/m² 5,0 °C 7,9 °C 0,0 km/h (0 Bft)
30.03.2017 09:20 7,9 °C 7,9 °C 82 % 1026,6 hPa 0,0 mm 0,0 km/h (0 Bft) S-SW 192 ° 1 min 0,000 mm 1,5 UV-I 338 W/m² 5,0 °C 7,9 °C 0,0 km/h (0 Bft)
30.03.2017 09:21 8,0 °C 8,0 °C 82 % 1026,6 hPa 0,0 mm 0,0 km/h (0 Bft) S-SW 192 ° 1 min 0,000 mm 1,5 UV-I 339 W/m² 5,1 °C 8,0 °C 0,0 km/h (0 Bft)
30.03.2017 09:22 8,2 °C 8,2 °C 82 % 1026,6 hPa 0,0 mm 0,6 km/h (0 Bft) S-SW 192 ° 1 min 0,000 mm 1,6 UV-I 359 W/m² 5,3 °C 8,2 °C 1,6 km/h (1 Bft)
30.03.2017 09:23 8,3 °C 8,3 °C 81 % 1026,7 hPa 0,0 mm 0,1 km/h (0 Bft) S-SW 192 ° 1 min 0,000 mm 1,6 UV-I 357 W/m² 5,2 °C 8,3 °C 1,6 km/h (1 Bft)
30.03.2017 09:24 8,3 °C 8,3 °C 81 % 1026,7 hPa 0,0 mm 0,5 km/h (0 Bft) S-SW 192 ° 1 min 0,000 mm 1,6 UV-I 359 W/m² 5,2 °C 8,3 °C 1,6 km/h (1 Bft)
30.03.2017 09:25 8,4 °C 8,4 °C 82 % 1026,7 hPa 0,0 mm 1,1 km/h (1 Bft) S-SW 192 ° 1 min 0,000 mm 1,7 UV-I 367 W/m² 5,5 °C 8,4 °C 1,6 km/h (1 Bft)
30.03.2017 09:26 8,5 °C 8,5 °C 81 % 1026,7 hPa 0,0 mm 0,3 km/h (0 Bft) S-SW 192 ° 1 min 0,000 mm 1,7 UV-I 366 W/m² 5,4 °C 8,5 °C 1,6 km/h (1 Bft)
30.03.2017 09:27 8,6 °C 8,6 °C 80 % 1026,7 hPa 0,0 mm 0,7 km/h (0 Bft) S-SW 192 ° 1 min 0,000 mm 1,7 UV-I 360 W/m² 5,3 °C 8,6 °C 1,6 km/h (1 Bft)
30.03.2017 09:28 8,7 °C 8,7 °C 80 % 1026,6 hPa 0,0 mm 0,5 km/h (0 Bft) S-SW 192 ° 1 min 0,000 mm 1,7 UV-I 367 W/m² 5,4 °C 8,7 °C 1,6 km/h (1 Bft)
30.03.2017 09:29 8,7 °C 8,7 °C 80 % 1026,7 hPa 0,0 mm 0,9 km/h (0 Bft) S-SW 192 ° 1 min 0,000 mm 1,7 UV-I 369 W/m² 5,4 °C 8,7 °C 1,6 km/h (1 Bft)
30.03.2017 09:30 8,7 °C 8,7 °C 80 % 1026,7 hPa 0,0 mm 0,3 km/h (0 Bft) S-SW 192 ° 1 min 0,000 mm 1,7 UV-I 373 W/m² 5,4 °C 8,7 °C 1,6 km/h (1 Bft)
30.03.2017 09:31 8,8 °C 8,8 °C 80 % 1026,6 hPa 0,0 mm 0,6 km/h (0 Bft) S-SW 192 ° 1 min 0,000 mm 1,7 UV-I 373 W/m² 5,5 °C 8,8 °C 1,6 km/h (1 Bft)
30.03.2017 09:32 8,9 °C 8,9 °C 81 % 1026,6 hPa 0,0 mm 0,8 km/h (0 Bft) S-SW 192 ° 1 min 0,000 mm 1,7 UV-I 369 W/m² 5,8 °C 8,9 °C 1,6 km/h (1 Bft)
30.03.2017 09:33 9,1 °C 9,1 °C 79 % 1026,6 hPa 0,0 mm 0,3 km/h (0 Bft) S-SW 192 ° 1 min 0,000 mm 1,8 UV-I 371 W/m² 5,7 °C 9,1 °C 1,6 km/h (1 Bft)
30.03.2017 09:34 9,1 °C 9,1 °C 79 % 1026,6 hPa 0,0 mm 1,2 km/h (1 Bft) S-SW 192 ° 1 min 0,000 mm 1,8 UV-I 364 W/m² 5,7 °C 9,1 °C 1,6 km/h (1 Bft)
30.03.2017 09:35 9,1 °C 9,1 °C 78 % 1026,6 hPa 0,0 mm 1,1 km/h (1 Bft) S-SW 192 ° 1 min 0,000 mm 1,8 UV-I 362 W/m² 5,5 °C 9,1 °C 1,6 km/h (1 Bft)
30.03.2017 09:36 9,1 °C 9,2 °C 78 % 1026,6 hPa 0,0 mm 1,7 km/h (1 Bft) S-SW 192 ° 1 min 0,000 mm 1,8 UV-I 345 W/m² 5,5 °C 9,1 °C 3,2 km/h (1 Bft)
30.03.2017 09:37 9,2 °C 9,2 °C 79 % 1026,6 hPa 0,0 mm 1,3 km/h (1 Bft) SO 144 ° 1 min 0,000 mm 1,7 UV-I 334 W/m² 5,8 °C 9,2 °C 3,2 km/h (1 Bft)
30.03.2017 09:38 9,3 °C 9,3 °C 77 % 1026,6 hPa 0,0 mm 0,3 km/h (0 Bft) SO 144 ° 1 min 0,000 mm 1,7 UV-I 327 W/m² 5,5 °C 9,3 °C 1,6 km/h (1 Bft)
30.03.2017 09:39 9,4 °C 9,4 °C 77 % 1026,7 hPa 0,0 mm 0,0 km/h (0 Bft) SO 144 ° 1 min 0,000 mm 1,7 UV-I 318 W/m² 5,6 °C 9,4 °C 0,0 km/h (0 Bft)
30.03.2017 09:40 9,6 °C 9,6 °C 76 % 1026,5 hPa 0,0 mm 0,1 km/h (0 Bft) SO 144 ° 1 min 0,000 mm 1,7 UV-I 323 W/m² 5,6 °C 9,6 °C 1,6 km/h (1 Bft)
30.03.2017 09:41 9,6 °C 9,6 °C 76 % 1026,5 hPa 0,0 mm 0,4 km/h (0 Bft) SO 144 ° 1 min 0,000 mm 1,7 UV-I 309 W/m² 5,6 °C 9,6 °C 1,6 km/h (1 Bft)
30.03.2017 09:42 9,7 °C 9,7 °C 76 % 1026,6 hPa 0,0 mm 0,4 km/h (0 Bft) SO 144 ° 0 min 0,000 mm 1,6 UV-I 281 W/m² 5,7 °C 9,7 °C 1,6 km/h (1 Bft)
30.03.2017 09:43 9,8 °C 9,8 °C 75 % 1026,6 hPa 0,0 mm 0,3 km/h (0 Bft) SO 144 ° 0 min 0,000 mm 1,7 UV-I 267 W/m² 5,6 °C 9,8 °C 1,6 km/h (1 Bft)
30.03.2017 09:44 9,9 °C 9,9 °C 75 % 1026,6 hPa 0,0 mm 0,5 km/h (0 Bft) SO 144 ° 1 min 0,000 mm 1,8 UV-I 308 W/m² 5,7 °C 9,9 °C 1,6 km/h (1 Bft)
30.03.2017 09:45 10,1 °C 10,1 °C 74 % 1026,6 hPa 0,0 mm 0,1 km/h (0 Bft) SO 144 ° 1 min 0,000 mm 1,8 UV-I 302 W/m² 5,7 °C 10,1 °C 1,6 km/h (1 Bft)
30.03.2017 09:46 10,2 °C 10,2 °C 74 % 1026,6 hPa 0,0 mm 0,0 km/h (0 Bft) SO 144 ° 1 min 0,000 mm 1,8 UV-I 332 W/m² 5,8 °C 10,2 °C 0,0 km/h (0 Bft)
30.03.2017 09:47 10,3 °C 10,3 °C 74 % 1026,6 hPa 0,0 mm 0,0 km/h (0 Bft) SO 144 ° 1 min 0,000 mm 1,9 UV-I 332 W/m² 5,9 °C 10,3 °C 0,0 km/h (0 Bft)
30.03.2017 09:48 10,3 °C 10,3 °C 73 % 1026,5 hPa 0,0 mm 0,7 km/h (0 Bft) SO 125 ° 1 min 0,000 mm 1,9 UV-I 350 W/m² 5,7 °C 10,3 °C 4,8 km/h (1 Bft)
30.03.2017 09:49 10,4 °C 10,4 °C 75 % 1026,5 hPa 0,0 mm 3,0 km/h (1 Bft) O 91 ° 1 min 0,000 mm 2,0 UV-I 364 W/m² 6,2 °C 10,4 °C 4,8 km/h (1 Bft)
30.03.2017 09:50 10,4 °C 10,4 °C 75 % 1026,6 hPa 0,0 mm 1,3 km/h (1 Bft) O 91 ° 1 min 0,000 mm 2,0 UV-I 367 W/m² 6,2 °C 10,4 °C 1,6 km/h (1 Bft)
30.03.2017 09:51 10,5 °C 10,5 °C 72 % 1026,6 hPa 0,0 mm 2,9 km/h (1 Bft) O 91 ° 1 min 0,000 mm 2,0 UV-I 367 W/m² 5,7 °C 10,5 °C 4,8 km/h (1 Bft)
30.03.2017 09:52 10,4 °C 10,5 °C 72 % 1026,6 hPa 0,0 mm 3,6 km/h (1 Bft) O 91 ° 1 min 0,000 mm 2,1 UV-I 380 W/m² 5,6 °C 10,4 °C 4,8 km/h (1 Bft)
30.03.2017 09:53 10,4 °C 10,4 °C 71 % 1026,6 hPa 0,0 mm 2,6 km/h (1 Bft) O 91 ° 1 min 0,000 mm 2,1 UV-I 380 W/m² 5,4 °C 10,4 °C 4,8 km/h (1 Bft)
30.03.2017 09:54 10,6 °C 10,6 °C 72 % 1026,6 hPa 0,0 mm 2,5 km/h (1 Bft) O 91 ° 1 min 0,000 mm 2,1 UV-I 399 W/m² 5,8 °C 10,6 °C 3,2 km/h (1 Bft)
30.03.2017 09:55 10,7 °C 10,7 °C 71 % 1026,5 hPa 0,0 mm 3,4 km/h (1 Bft) N-NO 33 ° 1 min 0,000 mm 2,2 UV-I 424 W/m² 5,7 °C 10,7 °C 4,8 km/h (1 Bft)
30.03.2017 09:56 10,8 °C 10,8 °C 73 % 1026,6 hPa 0,0 mm 3,6 km/h (1 Bft) N-NO 29 ° 1 min 0,000 mm 2,2 UV-I 432 W/m² 6,2 °C 10,8 °C 4,8 km/h (1 Bft)
30.03.2017 09:57 10,8 °C 10,8 °C 71 % 1026,6 hPa 0,0 mm 2,6 km/h (1 Bft) NO 40 ° 1 min 0,000 mm 2,2 UV-I 438 W/m² 5,8 °C 10,8 °C 4,8 km/h (1 Bft)
30.03.2017 09:58 10,9 °C 10,9 °C 74 % 1026,6 hPa 0,0 mm 4,3 km/h (1 Bft) N-NO 15 ° 1 min 0,000 mm 2,3 UV-I 438 W/m² 6,5 °C 10,9 °C 6,4 km/h (2 Bft)
30.03.2017 09:59 11,1 °C 11,1 °C 73 % 1026,5 hPa 0,0 mm 5,5 km/h (1 Bft) N 11 ° 1 min 0,000 mm 2,3 UV-I 448 W/m² 6,4 °C 11,1 °C 8,0 km/h (2 Bft)
30.03.2017 10:00 11,2 °C 11,2 °C 69 % 1026,5 hPa 0,0 mm 4,9 km/h (1 Bft) N-NO 25 ° 1 min 0,000 mm 2,3 UV-I 454 W/m² 5,7 °C 11,2 °C 6,4 km/h (2 Bft)
30.03.2017 10:01 11,3 °C 11,3 °C 70 % 1026,5 hPa 0,0 mm 3,4 km/h (1 Bft) N-NO 25 ° 1 min 0,152 mm 2,4 UV-I 473 W/m² 6,0 °C 11,3 °C 6,4 km/h (2 Bft)
30.03.2017 10:02 11,4 °C 11,4 °C 68 % 1026,5 hPa 0,0 mm 3,2 km/h (1 Bft) N-NO 25 ° 1 min 0,000 mm 2,4 UV-I 473 W/m² 5,7 °C 11,4 °C 4,8 km/h (1 Bft)
30.03.2017 10:03 11,4 °C 11,4 °C 68 % 1026,5 hPa 0,0 mm 3,0 km/h (1 Bft) N-NO 25 ° 1 min 0,000 mm 2,3 UV-I 455 W/m² 5,7 °C 11,4 °C 4,8 km/h (1 Bft)
30.03.2017 10:04 11,4 °C 11,5 °C 68 % 1026,5 hPa 0,0 mm 2,1 km/h (1 Bft) N-NO 25 ° 1 min 0,000 mm 2,4 UV-I 478 W/m² 5,7 °C 11,4 °C 3,2 km/h (1 Bft)
30.03.2017 10:05 11,5 °C 11,6 °C 72 % 1026,5 hPa 0,0 mm 2,5 km/h (1 Bft) N-NO 25 ° 1 min 0,000 mm 2,4 UV-I 473 W/m² 6,6 °C 11,5 °C 4,8 km/h (1 Bft)
30.03.2017 10:06 11,6 °C 11,6 °C 71 % 1026,5 hPa 0,0 mm 2,6 km/h (1 Bft) N-NO 25 ° 1 min 0,000 mm 2,4 UV-I 462 W/m² 6,5 °C 11,6 °C 4,8 km/h (1 Bft)
30.03.2017 10:07 11,7 °C 11,7 °C 74 % 1026,5 hPa 0,0 mm 3,9 km/h (1 Bft) N-NO 25 ° 1 min 0,000 mm 2,5 UV-I 482 W/m² 7,2 °C 11,7 °C 4,8 km/h (1 Bft)
30.03.2017 10:08 11,7 °C 11,7 °C 68 % 1026,5 hPa 0,0 mm 2,4 km/h (1 Bft) N-NO 25 ° 1 min 0,000 mm 2,5 UV-I 482 W/m² 6,0 °C 11,7 °C 4,8 km/h (1 Bft)
30.03.2017 10:09 11,8 °C 11,8 °C 69 % 1026,4 hPa 0,0 mm 5,8 km/h (2 Bft) N-NO 16 ° 1 min 0,000 mm 2,5 UV-I 483 W/m² 6,3 °C 11,8 °C 8,0 km/h (2 Bft)
30.03.2017 10:10 11,8 °C 11,8 °C 70 % 1026,5 hPa 0,0 mm 3,0 km/h (1 Bft) N-NO 16 ° 1 min 0,000 mm 2,5 UV-I 478 W/m² 6,5 °C 11,8 °C 4,8 km/h (1 Bft)
30.03.2017 10:11 11,7 °C 11,8 °C 68 % 1026,5 hPa 0,0 mm 4,6 km/h (1 Bft) N-NO 16 ° 1 min 0,000 mm 2,5 UV-I 478 W/m² 6,0 °C 11,7 °C 6,4 km/h (2 Bft)
30.03.2017 10:12 11,7 °C 11,7 °C 68 % 1026,5 hPa 0,0 mm 3,6 km/h (1 Bft) N-NO 16 ° 1 min 0,000 mm 2,5 UV-I 476 W/m² 6,0 °C 11,7 °C 4,8 km/h (1 Bft)
30.03.2017 10:13 11,8 °C 11,8 °C 68 % 1026,5 hPa 0,0 mm 2,9 km/h (1 Bft) N-NO 16 ° 1 min 0,000 mm 2,5 UV-I 464 W/m² 6,1 °C 11,8 °C 4,8 km/h (1 Bft)
30.03.2017 10:14 11,8 °C 11,8 °C 68 % 1026,5 hPa 0,0 mm 4,2 km/h (1 Bft) N-NO 16 ° 1 min 0,000 mm 2,4 UV-I 418 W/m² 6,1 °C 11,8 °C 6,4 km/h (2 Bft)
30.03.2017 10:15 11,8 °C 11,9 °C 69 % 1026,5 hPa 0,0 mm 2,9 km/h (1 Bft) N-NO 16 ° 1 min 0,000 mm 2,4 UV-I 431 W/m² 6,3 °C 11,8 °C 4,8 km/h (1 Bft)
30.03.2017 10:16 11,9 °C 11,9 °C 69 % 1026,5 hPa 0,0 mm 2,4 km/h (1 Bft) N-NO 21 ° 1 min 0,000 mm 2,5 UV-I 425 W/m² 6,4 °C 11,9 °C 3,2 km/h (1 Bft)
30.03.2017 10:17 11,9 °C 11,9 °C 67 % 1026,5 hPa 0,0 mm 2,3 km/h (1 Bft) N-NO 21 ° 1 min 0,000 mm 2,6 UV-I 468 W/m² 6,0 °C 11,9 °C 3,2 km/h (1 Bft)
30.03.2017 10:18 11,9 °C 11,9 °C 69 % 1026,5 hPa 0,0 mm 1,3 km/h (1 Bft) N-NO 21 ° 1 min 0,000 mm 2,7 UV-I 512 W/m² 6,4 °C 11,9 °C 1,6 km/h (1 Bft)
30.03.2017 10:19 11,9 °C 11,9 °C 69 % 1026,5 hPa 0,0 mm 0,7 km/h (0 Bft) N-NO 21 ° 1 min 0,000 mm 2,8 UV-I 520 W/m² 6,4 °C 11,9 °C 3,2 km/h (1 Bft)
30.03.2017 10:20 12,1 °C 12,1 °C 69 % 1026,5 hPa 0,0 mm 4,1 km/h (1 Bft) N-NO 19 ° 1 min 0,000 mm 2,8 UV-I 520 W/m² 6,6 °C 12,1 °C 6,4 km/h (2 Bft)
30.03.2017 10:21 12,2 °C 12,2 °C 67 % 1026,5 hPa 0,0 mm 3,2 km/h (1 Bft) N-NO 13 ° 1 min 0,000 mm 2,8 UV-I 522 W/m² 6,3 °C 12,2 °C 4,8 km/h (1 Bft)
30.03.2017 10:22 12,4 °C 12,4 °C 67 % 1026,5 hPa 0,0 mm 4,6 km/h (1 Bft) O-NO 59 ° 1 min 0,000 mm 2,7 UV-I 499 W/m² 6,4 °C 12,4 °C 6,4 km/h (2 Bft)
30.03.2017 10:23 12,4 °C 12,4 °C 67 % 1026,5 hPa 0,0 mm 2,0 km/h (1 Bft) O-NO 59 ° 1 min 0,000 mm 2,7 UV-I 492 W/m² 6,4 °C 12,4 °C 6,4 km/h (2 Bft)
30.03.2017 10:24 12,4 °C 12,4 °C 65 % 1026,5 hPa 0,0 mm 4,2 km/h (1 Bft) N-NO 15 ° 1 min 0,000 mm 2,7 UV-I 485 W/m² 6,0 °C 12,4 °C 6,4 km/h (2 Bft)
30.03.2017 10:25 12,4 °C 12,4 °C 66 % 1026,5 hPa 0,0 mm 4,0 km/h (1 Bft) N 350 ° 1 min 0,000 mm 2,7 UV-I 494 W/m² 6,2 °C 12,4 °C 4,8 km/h (1 Bft)
30.03.2017 10:26 12,6 °C 12,6 °C 66 % 1026,5 hPa 0,0 mm 2,8 km/h (1 Bft) N 350 ° 1 min 0,000 mm 2,7 UV-I 459 W/m² 6,4 °C 12,6 °C 6,4 km/h (2 Bft)
30.03.2017 10:27 12,8 °C 12,8 °C 66 % 1026,5 hPa 0,0 mm 3,7 km/h (1 Bft) NO 42 ° 1 min 0,000 mm 2,7 UV-I 483 W/m² 6,6 °C 12,8 °C 6,4 km/h (2 Bft)
30.03.2017 10:28 12,9 °C 12,9 °C 65 % 1026,5 hPa 0,0 mm 7,6 km/h (2 Bft) O-NO 71 ° 1 min 0,000 mm 2,8 UV-I 483 W/m² 6,5 °C 12,9 °C 9,7 km/h (2 Bft)
30.03.2017 10:29 12,9 °C 13,0 °C 63 % 1026,5 hPa 0,0 mm 6,7 km/h (2 Bft) NO 50 ° 1 min 0,000 mm 2,7 UV-I 464 W/m² 6,0 °C 12,9 °C 11,3 km/h (2 Bft)
30.03.2017 10:30 12,8 °C 12,9 °C 61 % 1026,5 hPa 0,0 mm 6,3 km/h (2 Bft) NO 41 ° 1 min 0,000 mm 2,5 UV-I 392 W/m² 5,5 °C 12,8 °C 9,7 km/h (2 Bft)
30.03.2017 10:31 12,8 °C 12,8 °C 61 % 1026,5 hPa 0,0 mm 6,6 km/h (2 Bft) NO 41 ° 1 min 0,000 mm 2,6 UV-I 448 W/m² 5,5 °C 12,8 °C 8,0 km/h (2 Bft)
30.03.2017 10:32 12,8 °C 12,8 °C 61 % 1026,5 hPa 0,0 mm 6,6 km/h (2 Bft) NO 40 ° 1 min 0,000 mm 2,6 UV-I 431 W/m² 5,5 °C 12,8 °C 9,7 km/h (2 Bft)
30.03.2017 10:33 12,8 °C 12,8 °C 62 % 1026,5 hPa 0,0 mm 4,8 km/h (1 Bft) O-NO 67 ° 1 min 0,000 mm 2,6 UV-I 438 W/m² 5,7 °C 12,8 °C 6,4 km/h (2 Bft)
30.03.2017 10:34 12,8 °C 12,8 °C 63 % 1026,5 hPa 0,0 mm 6,0 km/h (2 Bft) NO 42 ° 1 min 0,000 mm 2,6 UV-I 443 W/m² 5,9 °C 12,8 °C 9,7 km/h (2 Bft)
30.03.2017 10:35 12,8 °C 12,8 °C 61 % 1026,5 hPa 0,0 mm 3,8 km/h (1 Bft) O-NO 71 ° 1 min 0,000 mm 2,5 UV-I 417 W/m² 5,5 °C 12,8 °C 9,7 km/h (2 Bft)
30.03.2017 10:36 12,7 °C 12,8 °C 63 % 1026,5 hPa 0,0 mm 5,1 km/h (1 Bft) NO 55 ° 1 min 0,000 mm 2,5 UV-I 410 W/m² 5,8 °C 12,7 °C 8,0 km/h (2 Bft)
30.03.2017 10:37 12,8 °C 12,8 °C 61 % 1026,5 hPa 0,0 mm 7,6 km/h (2 Bft) NO 38 ° 1 min 0,000 mm 2,6 UV-I 438 W/m² 5,5 °C 12,8 °C 16,1 km/h (3 Bft)
30.03.2017 10:38 12,8 °C 12,8 °C 62 % 1026,5 hPa 0,0 mm 8,7 km/h (2 Bft) N-NW 340 ° 1 min 0,000 mm 2,6 UV-I 434 W/m² 5,7 °C 12,8 °C 11,3 km/h (2 Bft)
30.03.2017 10:39 12,8 °C 12,8 °C 61 % 1026,5 hPa 0,0 mm 8,5 km/h (2 Bft) N-NO 24 ° 1 min 0,000 mm 2,6 UV-I 431 W/m² 5,5 °C 12,8 °C 12,9 km/h (3 Bft)
30.03.2017 10:40 12,8 °C 12,8 °C 61 % 1026,5 hPa 0,0 mm 5,2 km/h (1 Bft) NO 46 ° 1 min 0,000 mm 2,6 UV-I 425 W/m² 5,5 °C 12,8 °C 9,7 km/h (2 Bft)
30.03.2017 10:41 12,8 °C 12,9 °C 61 % 1026,5 hPa 0,0 mm 3,5 km/h (1 Bft) N 360 ° 1 min 0,000 mm 2,7 UV-I 468 W/m² 5,5 °C 12,8 °C 6,4 km/h (2 Bft)
30.03.2017 10:42 12,8 °C 12,8 °C 61 % 1026,6 hPa 0,0 mm 5,4 km/h (1 Bft) N 349 ° 1 min 0,000 mm 2,7 UV-I 455 W/m² 5,5 °C 12,8 °C 8,0 km/h (2 Bft)
30.03.2017 10:43 12,8 °C 12,8 °C 61 % 1026,6 hPa 0,0 mm 4,2 km/h (1 Bft) NO 51 ° 1 min 0,000 mm 2,6 UV-I 431 W/m² 5,5 °C 12,8 °C 8,0 km/h (2 Bft)
30.03.2017 10:44 12,8 °C 12,8 °C 61 % 1026,6 hPa 0,0 mm 7,3 km/h (2 Bft) NO 53 ° 1 min 0,000 mm 2,6 UV-I 471 W/m² 5,5 °C 12,8 °C 11,3 km/h (2 Bft)
30.03.2017 10:45 12,8 °C 12,8 °C 62 % 1026,6 hPa 0,0 mm 6,3 km/h (2 Bft) NO 42 ° 1 min 0,000 mm 2,7 UV-I 441 W/m² 5,7 °C 12,8 °C 8,0 km/h (2 Bft)
30.03.2017 10:46 12,8 °C 12,8 °C 63 % 1026,6 hPa 0,0 mm 5,1 km/h (1 Bft) O 82 ° 1 min 0,000 mm 2,5 UV-I 397 W/m² 5,9 °C 12,8 °C 8,0 km/h (2 Bft)
30.03.2017 10:47 12,7 °C 12,8 °C 63 % 1026,6 hPa 0,0 mm 7,1 km/h (2 Bft) O-NO 75 ° 1 min 0,000 mm 2,7 UV-I 417 W/m² 5,8 °C 12,7 °C 8,0 km/h (2 Bft)
30.03.2017 10:48 12,7 °C 12,7 °C 62 % 1026,6 hPa 0,0 mm 7,3 km/h (2 Bft) O-NO 65 ° 1 min 0,000 mm 2,6 UV-I 429 W/m² 5,6 °C 12,7 °C 11,3 km/h (2 Bft)
30.03.2017 10:49 12,7 °C 12,7 °C 62 % 1026,6 hPa 0,0 mm 4,8 km/h (1 Bft) O-NO 57 ° 1 min 0,000 mm 2,7 UV-I 434 W/m² 5,6 °C 12,7 °C 8,0 km/h (2 Bft)
30.03.2017 10:50 12,6 °C 12,7 °C 62 % 1026,6 hPa 0,0 mm 7,6 km/h (2 Bft) NO 55 ° 1 min 0,000 mm 2,6 UV-I 438 W/m² 5,5 °C 12,6 °C 9,7 km/h (2 Bft)
30.03.2017 10:51 12,6 °C 12,6 °C 62 % 1026,6 hPa 0,0 mm 6,4 km/h (2 Bft) NO 50 ° 1 min 0,000 mm 2,5 UV-I 394 W/m² 5,5 °C 12,6 °C 8,0 km/h (2 Bft)
30.03.2017 10:52 12,6 °C 12,6 °C 64 % 1026,6 hPa 0,0 mm 7,4 km/h (2 Bft) O-NO 57 ° 1 min 0,000 mm 2,6 UV-I 359 W/m² 6,0 °C 12,6 °C 12,9 km/h (3 Bft)
30.03.2017 10:53 12,6 °C 12,6 °C 62 % 1026,7 hPa 0,0 mm 6,6 km/h (2 Bft) O-NO 76 ° 1 min 0,000 mm 2,8 UV-I 446 W/m² 5,5 °C 12,6 °C 11,3 km/h (2 Bft)
30.03.2017 10:54 12,5 °C 12,6 °C 63 % 1026,7 hPa 0,0 mm 5,6 km/h (1 Bft) NO 55 ° 1 min 0,000 mm 2,8 UV-I 457 W/m² 5,7 °C 12,5 °C 8,0 km/h (2 Bft)
30.03.2017 10:55 12,5 °C 12,6 °C 62 % 1026,7 hPa 0,0 mm 4,6 km/h (1 Bft) NO 46 ° 1 min 0,000 mm 2,8 UV-I 445 W/m² 5,4 °C 12,5 °C 8,0 km/h (2 Bft)
30.03.2017 10:56 12,6 °C 12,6 °C 63 % 1026,7 hPa 0,0 mm 7,5 km/h (2 Bft) O-NO 69 ° 1 min 0,000 mm 2,8 UV-I 492 W/m² 5,7 °C 12,6 °C 11,3 km/h (2 Bft)
30.03.2017 10:57 12,7 °C 12,7 °C 63 % 1026,7 hPa 0,0 mm 4,3 km/h (1 Bft) N-NO 30 ° 1 min 0,000 mm 2,9 UV-I 485 W/m² 5,8 °C 12,7 °C 4,8 km/h (1 Bft)
30.03.2017 10:58 12,6 °C 12,7 °C 63 % 1026,7 hPa 0,0 mm 3,6 km/h (1 Bft) O-NO 62 ° 1 min 0,000 mm 2,9 UV-I 471 W/m² 5,7 °C 12,6 °C 6,4 km/h (2 Bft)
30.03.2017 10:59 12,7 °C 12,7 °C 63 % 1026,7 hPa 0,0 mm 5,6 km/h (1 Bft) N 360 ° 1 min 0,000 mm 2,9 UV-I 487 W/m² 5,8 °C 12,7 °C 8,0 km/h (2 Bft)
30.03.2017 11:00 12,8 °C 12,8 °C 63 % 1026,7 hPa 0,0 mm 4,3 km/h (1 Bft) NO 40 ° 1 min 0,000 mm 3,0 UV-I 506 W/m² 5,9 °C 12,8 °C 6,4 km/h (2 Bft)
30.03.2017 11:01 12,9 °C 12,9 °C 63 % 1026,7 hPa 0,0 mm 3,8 km/h (1 Bft) NO 46 ° 1 min 0,254 mm 3,1 UV-I 522 W/m² 6,0 °C 12,9 °C 4,8 km/h (1 Bft)
30.03.2017 11:02 12,8 °C 12,9 °C 62 % 1026,7 hPa 0,0 mm 4,0 km/h (1 Bft) N-NO 20 ° 1 min 0,000 mm 3,1 UV-I 541 W/m² 5,7 °C 12,8 °C 6,4 km/h (2 Bft)
30.03.2017 11:03 12,9 °C 12,9 °C 62 % 1026,7 hPa 0,0 mm 5,2 km/h (1 Bft) N 5 ° 1 min 0,000 mm 3,1 UV-I 533 W/m² 5,8 °C 12,9 °C 8,0 km/h (2 Bft)
30.03.2017 11:04 12,9 °C 12,9 °C 62 % 1026,7 hPa 0,0 mm 6,5 km/h (2 Bft) N-NO 17 ° 1 min 0,000 mm 3,1 UV-I 534 W/m² 5,8 °C 12,9 °C 8,0 km/h (2 Bft)
30.03.2017 11:05 13,0 °C 13,0 °C 64 % 1026,7 hPa 0,0 mm 4,6 km/h (1 Bft) N-NO 28 ° 1 min 0,000 mm 3,1 UV-I 534 W/m² 6,4 °C 13,0 °C 6,4 km/h (2 Bft)
30.03.2017 11:06 13,1 °C 13,1 °C 64 % 1026,7 hPa 0,0 mm 6,4 km/h (2 Bft) N-NO 23 ° 1 min 0,000 mm 3,1 UV-I 515 W/m² 6,4 °C 13,1 °C 8,0 km/h (2 Bft)
30.03.2017 11:07 13,2 °C 13,2 °C 65 % 1026,7 hPa 0,0 mm 3,6 km/h (1 Bft) N-NO 23 ° 1 min 0,000 mm 3,1 UV-I 517 W/m² 6,8 °C 13,2 °C 4,8 km/h (1 Bft)
30.03.2017 11:08 13,2 °C 13,2 °C 63 % 1026,7 hPa 0,0 mm 4,2 km/h (1 Bft) NO 50 ° 1 min 0,000 mm 3,1 UV-I 515 W/m² 6,3 °C 13,2 °C 6,4 km/h (2 Bft)
30.03.2017 11:09 13,2 °C 13,2 °C 63 % 1026,7 hPa 0,0 mm 3,9 km/h (1 Bft) O-NO 57 ° 1 min 0,000 mm 3,1 UV-I 534 W/m² 6,3 °C 13,2 °C 6,4 km/h (2 Bft)
30.03.2017 11:10 13,2 °C 13,2 °C 64 % 1026,7 hPa 0,0 mm 5,8 km/h (2 Bft) O-NO 57 ° 1 min 0,000 mm 3,1 UV-I 524 W/m² 6,5 °C 13,2 °C 8,0 km/h (2 Bft)
30.03.2017 11:11 13,2 °C 13,2 °C 64 % 1026,7 hPa 0,0 mm 6,3 km/h (2 Bft) O-SO 102 ° 1 min 0,000 mm 3,0 UV-I 475 W/m² 6,5 °C 13,2 °C 11,3 km/h (2 Bft)
30.03.2017 11:12 13,2 °C 13,3 °C 61 % 1026,6 hPa 0,0 mm 7,3 km/h (2 Bft) NO 54 ° 1 min 0,000 mm 3,0 UV-I 471 W/m² 5,8 °C 13,2 °C 11,3 km/h (2 Bft)
30.03.2017 11:13 13,2 °C 13,2 °C 61 % 1026,6 hPa 0,0 mm 6,2 km/h (2 Bft) N 11 ° 1 min 0,000 mm 3,0 UV-I 471 W/m² 5,8 °C 13,2 °C 8,0 km/h (2 Bft)
30.03.2017 11:14 13,2 °C 13,2 °C 61 % 1026,6 hPa 0,0 mm 7,6 km/h (2 Bft) O-NO 74 ° 1 min 0,000 mm 3,0 UV-I 531 W/m² 5,8 °C 13,2 °C 11,3 km/h (2 Bft)
30.03.2017 11:15 13,2 °C 13,2 °C 61 % 1026,6 hPa 0,0 mm 6,2 km/h (2 Bft) O-NO 74 ° 1 min 0,000 mm 3,3 UV-I 561 W/m² 5,8 °C 13,2 °C 9,7 km/h (2 Bft)
30.03.2017 11:16 13,1 °C 13,2 °C 61 % 1026,6 hPa 0,0 mm 4,0 km/h (1 Bft) O-NO 70 ° 1 min 0,000 mm 3,4 UV-I 564 W/m² 5,8 °C 13,1 °C 6,4 km/h (2 Bft)
30.03.2017 11:17 13,1 °C 13,1 °C 62 % 1026,6 hPa 0,0 mm 8,6 km/h (2 Bft) O-NO 76 ° 1 min 0,000 mm 3,4 UV-I 575 W/m² 6,0 °C 13,1 °C 12,9 km/h (3 Bft)
30.03.2017 11:18 13,1 °C 13,1 °C 62 % 1026,5 hPa 0,0 mm 9,3 km/h (2 Bft) O 85 ° 1 min 0,000 mm 3,5 UV-I 587 W/m² 6,0 °C 13,1 °C 16,1 km/h (3 Bft)
30.03.2017 11:19 13,1 °C 13,1 °C 61 % 1026,6 hPa 0,0 mm 7,5 km/h (2 Bft) NO 45 ° 1 min 0,000 mm 3,5 UV-I 605 W/m² 5,8 °C 13,1 °C 11,3 km/h (2 Bft)
30.03.2017 11:20 13,1 °C 13,1 °C 61 % 1026,6 hPa 0,0 mm 8,9 km/h (2 Bft) NO 46 ° 1 min 0,000 mm 3,6 UV-I 621 W/m² 5,8 °C 13,1 °C 12,9 km/h (3 Bft)
30.03.2017 11:21 13,2 °C 13,2 °C 61 % 1026,5 hPa 0,0 mm 8,6 km/h (2 Bft) NO 51 ° 1 min 0,000 mm 3,6 UV-I 619 W/m² 5,8 °C 13,2 °C 12,9 km/h (3 Bft)
30.03.2017 11:22 13,2 °C 13,2 °C 61 % 1026,6 hPa 0,0 mm 6,2 km/h (2 Bft) O-NO 60 ° 1 min 0,000 mm 3,6 UV-I 613 W/m² 5,8 °C 13,2 °C 8,0 km/h (2 Bft)
30.03.2017 11:23 13,2 °C 13,3 °C 62 % 1026,5 hPa 0,0 mm 4,4 km/h (1 Bft) N-NO 15 ° 1 min 0,000 mm 3,6 UV-I 584 W/m² 6,1 °C 13,2 °C 6,4 km/h (2 Bft)
30.03.2017 11:24 13,2 °C 13,3 °C 60 % 1026,6 hPa 0,0 mm 6,1 km/h (2 Bft) NO 52 ° 1 min 0,000 mm 3,7 UV-I 635 W/m² 5,6 °C 13,2 °C 8,0 km/h (2 Bft)
30.03.2017 11:25 13,2 °C 13,2 °C 61 % 1026,5 hPa 0,0 mm 3,4 km/h (1 Bft) N-NO 33 ° 1 min 0,000 mm 3,6 UV-I 594 W/m² 5,8 °C 13,2 °C 4,8 km/h (1 Bft)
30.03.2017 11:26 13,2 °C 13,2 °C 61 % 1026,5 hPa 0,0 mm 6,5 km/h (2 Bft) O-NO 68 ° 1 min 0,000 mm 3,6 UV-I 592 W/m² 5,8 °C 13,2 °C 12,9 km/h (3 Bft)
30.03.2017 11:27 13,3 °C 13,3 °C 63 % 1026,5 hPa 0,0 mm 6,8 km/h (2 Bft) O 84 ° 1 min 0,000 mm 3,6 UV-I 592 W/m² 6,4 °C 13,3 °C 9,7 km/h (2 Bft)
30.03.2017 11:28 13,3 °C 13,3 °C 61 % 1026,5 hPa 0,0 mm 6,0 km/h (2 Bft) O-NO 73 ° 1 min 0,000 mm 3,6 UV-I 591 W/m² 5,9 °C 13,3 °C 11,3 km/h (2 Bft)
30.03.2017 11:29 13,3 °C 13,3 °C 61 % 1026,5 hPa 0,0 mm 4,2 km/h (1 Bft) O-NO 59 ° 1 min 0,000 mm 3,7 UV-I 605 W/m² 5,9 °C 13,3 °C 6,4 km/h (2 Bft)
30.03.2017 11:30 13,3 °C 13,3 °C 61 % 1026,5 hPa 0,0 mm 3,4 km/h (1 Bft) O-NO 71 ° 1 min 0,000 mm 3,7 UV-I 621 W/m² 5,9 °C 13,3 °C 6,4 km/h (2 Bft)
30.03.2017 11:31 13,3 °C 13,3 °C 63 % 1026,4 hPa 0,0 mm 3,4 km/h (1 Bft) O-NO 57 ° 1 min 0,000 mm 3,6 UV-I 594 W/m² 6,4 °C 13,3 °C 6,4 km/h (2 Bft)
30.03.2017 11:32 13,4 °C 13,4 °C 61 % 1026,4 hPa 0,0 mm 4,4 km/h (1 Bft) O-NO 70 ° 1 min 0,000 mm 3,8 UV-I 642 W/m² 6,0 °C 13,4 °C 6,4 km/h (2 Bft)
30.03.2017 11:33 13,5 °C 13,5 °C 61 % 1026,4 hPa 0,0 mm 5,4 km/h (1 Bft) O-NO 63 ° 1 min 0,000 mm 3,8 UV-I 650 W/m² 6,1 °C 13,5 °C 6,4 km/h (2 Bft)
30.03.2017 11:34 13,6 °C 13,6 °C 60 % 1026,4 hPa 0,0 mm 4,9 km/h (1 Bft) NO 49 ° 1 min 0,000 mm 3,9 UV-I 666 W/m² 6,0 °C 13,6 °C 8,0 km/h (2 Bft)
30.03.2017 11:35 13,6 °C 13,6 °C 61 % 1026,3 hPa 0,0 mm 9,5 km/h (2 Bft) NO 50 ° 1 min 0,000 mm 4,0 UV-I 680 W/m² 6,2 °C 13,6 °C 17,7 km/h (3 Bft)
30.03.2017 11:36 13,5 °C 13,6 °C 61 % 1026,3 hPa 0,0 mm 6,4 km/h (2 Bft) O-NO 59 ° 1 min 0,000 mm 3,9 UV-I 670 W/m² 6,1 °C 13,5 °C 9,7 km/h (2 Bft)
30.03.2017 11:37 13,4 °C 13,5 °C 61 % 1026,3 hPa 0,0 mm 5,9 km/h (2 Bft) O-NO 65 ° 1 min 0,000 mm 3,8 UV-I 575 W/m² 6,0 °C 13,4 °C 11,3 km/h (2 Bft)
30.03.2017 11:38 13,5 °C 13,5 °C 61 % 1026,3 hPa 0,0 mm 5,2 km/h (1 Bft) O-NO 61 ° 1 min 0,000 mm 3,7 UV-I 575 W/m² 6,1 °C 13,5 °C 6,4 km/h (2 Bft)
30.03.2017 11:39 13,4 °C 13,5 °C 60 % 1026,3 hPa 0,0 mm 9,7 km/h (2 Bft) O 83 ° 1 min 0,000 mm 3,4 UV-I 517 W/m² 5,8 °C 13,4 °C 14,5 km/h (3 Bft)
30.03.2017 11:40 13,4 °C 13,4 °C 61 % 1026,3 hPa 0,0 mm 6,8 km/h (2 Bft) O-NO 78 ° 1 min 0,000 mm 3,5 UV-I 506 W/m² 6,0 °C 13,4 °C 11,3 km/h (2 Bft)
30.03.2017 11:41 13,5 °C 13,5 °C 61 % 1026,3 hPa 0,0 mm 5,6 km/h (1 Bft) NO 36 ° 1 min 0,000 mm 3,8 UV-I 575 W/m² 6,1 °C 13,5 °C 8,0 km/h (2 Bft)
30.03.2017 11:42 13,6 °C 13,6 °C 61 % 1026,3 hPa 0,0 mm 5,0 km/h (1 Bft) N-NO 29 ° 1 min 0,000 mm 4,0 UV-I 657 W/m² 6,2 °C 13,6 °C 6,4 km/h (2 Bft)
30.03.2017 11:43 13,8 °C 13,8 °C 60 % 1026,3 hPa 0,0 mm 7,4 km/h (2 Bft) N-NO 29 ° 1 min 0,000 mm 4,1 UV-I 698 W/m² 6,2 °C 13,8 °C 9,7 km/h (2 Bft)
30.03.2017 11:44 13,9 °C 13,9 °C 60 % 1026,3 hPa 0,0 mm 7,0 km/h (2 Bft) N-NO 26 ° 1 min 0,000 mm 4,0 UV-I 668 W/m² 6,3 °C 13,9 °C 9,7 km/h (2 Bft)
30.03.2017 11:45 14,1 °C 14,1 °C 59 % 1026,3 hPa 0,0 mm 6,2 km/h (2 Bft) NO 45 ° 1 min 0,000 mm 4,0 UV-I 673 W/m² 6,2 °C 14,1 °C 11,3 km/h (2 Bft)
30.03.2017 11:46 14,0 °C 14,1 °C 59 % 1026,3 hPa 0,0 mm 8,9 km/h (2 Bft) NO 51 ° 1 min 0,000 mm 3,9 UV-I 642 W/m² 6,1 °C 14,0 °C 14,5 km/h (3 Bft)
30.03.2017 11:47 14,1 °C 14,1 °C 61 % 1026,2 hPa 0,0 mm 7,1 km/h (2 Bft) N-NO 13 ° 1 min 0,000 mm 4,0 UV-I 652 W/m² 6,7 °C 14,1 °C 12,9 km/h (3 Bft)
30.03.2017 11:48 14,1 °C 14,1 °C 58 % 1026,3 hPa 0,0 mm 6,0 km/h (2 Bft) O-NO 57 ° 1 min 0,000 mm 4,0 UV-I 652 W/m² 6,0 °C 14,1 °C 8,0 km/h (2 Bft)
30.03.2017 11:49 14,1 °C 14,1 °C 59 % 1026,3 hPa 0,0 mm 4,2 km/h (1 Bft) NO 43 ° 1 min 0,000 mm 4,0 UV-I 670 W/m² 6,2 °C 14,1 °C 8,0 km/h (2 Bft)
30.03.2017 11:50 14,2 °C 14,2 °C 60 % 1026,2 hPa 0,0 mm 5,4 km/h (1 Bft) O-NO 59 ° 1 min 0,000 mm 3,9 UV-I 671 W/m² 6,5 °C 14,2 °C 8,0 km/h (2 Bft)
30.03.2017 11:51 14,2 °C 14,2 °C 59 % 1026,3 hPa 0,0 mm 6,6 km/h (2 Bft) N-NO 31 ° 1 min 0,000 mm 4,1 UV-I 680 W/m² 6,3 °C 14,2 °C 12,9 km/h (3 Bft)
30.03.2017 11:52 14,2 °C 14,2 °C 59 % 1026,2 hPa 0,0 mm 9,4 km/h (2 Bft) NO 46 ° 1 min 0,000 mm 4,2 UV-I 703 W/m² 6,3 °C 14,2 °C 14,5 km/h (3 Bft)
30.03.2017 11:53 14,1 °C 14,2 °C 60 % 1026,2 hPa 0,0 mm 7,0 km/h (2 Bft) O-NO 67 ° 1 min 0,000 mm 4,2 UV-I 687 W/m² 6,5 °C 14,1 °C 9,7 km/h (2 Bft)
30.03.2017 11:54 14,2 °C 14,2 °C 60 % 1026,2 hPa 0,0 mm 6,9 km/h (2 Bft) O-NO 66 ° 1 min 0,000 mm 4,1 UV-I 680 W/m² 6,5 °C 14,2 °C 11,3 km/h (2 Bft)
30.03.2017 11:55 14,3 °C 14,3 °C 60 % 1026,2 hPa 0,0 mm 4,4 km/h (1 Bft) O-NO 57 ° 1 min 0,000 mm 4,1 UV-I 677 W/m² 6,6 °C 14,3 °C 14,5 km/h (3 Bft)
30.03.2017 11:56 14,3 °C 14,3 °C 59 % 1026,2 hPa 0,0 mm 6,4 km/h (2 Bft) O 84 ° 1 min 0,000 mm 4,0 UV-I 652 W/m² 6,4 °C 14,3 °C 14,5 km/h (3 Bft)
30.03.2017 11:57 14,3 °C 14,3 °C 58 % 1026,1 hPa 0,0 mm 5,8 km/h (2 Bft) O-NO 76 ° 1 min 0,000 mm 4,1 UV-I 656 W/m² 6,2 °C 14,3 °C 8,0 km/h (2 Bft)
30.03.2017 11:58 14,4 °C 14,4 °C 59 % 1026,1 hPa 0,0 mm 4,8 km/h (1 Bft) NO 49 ° 1 min 0,000 mm 4,1 UV-I 657 W/m² 6,5 °C 14,4 °C 6,4 km/h (2 Bft)
30.03.2017 11:59 14,5 °C 14,5 °C 60 % 1026,2 hPa 0,0 mm 7,8 km/h (2 Bft) O-NO 74 ° 1 min 0,000 mm 4,1 UV-I 671 W/m² 6,8 °C 14,5 °C 11,3 km/h (2 Bft)
30.03.2017 12:00 14,6 °C 14,6 °C 57 % 1026,2 hPa 0,0 mm 5,4 km/h (1 Bft) O 82 ° 1 min 0,000 mm 4,1 UV-I 679 W/m² 6,2 °C 14,6 °C 11,3 km/h (2 Bft)
30.03.2017 12:01 14,4 °C 14,6 °C 58 % 1026,1 hPa 0,0 mm 5,0 km/h (1 Bft) O 86 ° 1 min 0,330 mm 4,2 UV-I 675 W/m² 6,2 °C 14,4 °C 8,0 km/h (2 Bft)
30.03.2017 12:02 14,4 °C 14,4 °C 58 % 1026,1 hPa 0,0 mm 8,0 km/h (2 Bft) NO 56 ° 1 min 0,000 mm 4,1 UV-I 645 W/m² 6,2 °C 14,4 °C 12,9 km/h (3 Bft)
30.03.2017 12:03 14,3 °C 14,4 °C 58 % 1026,1 hPa 0,0 mm 6,4 km/h (2 Bft) NO 39 ° 1 min 0,000 mm 4,2 UV-I 661 W/m² 6,2 °C 14,3 °C 8,0 km/h (2 Bft)
30.03.2017 12:04 14,3 °C 14,3 °C 59 % 1026,1 hPa 0,0 mm 7,4 km/h (2 Bft) NO 55 ° 1 min 0,000 mm 4,1 UV-I 638 W/m² 6,4 °C 14,3 °C 9,7 km/h (2 Bft)
30.03.2017 12:05 14,3 °C 14,3 °C 60 % 1026,1 hPa 0,0 mm 5,8 km/h (2 Bft) NO 54 ° 1 min 0,000 mm 4,2 UV-I 649 W/m² 6,6 °C 14,3 °C 8,0 km/h (2 Bft)
30.03.2017 12:06 14,2 °C 14,3 °C 60 % 1026,1 hPa 0,0 mm 4,2 km/h (1 Bft) N 5 ° 1 min 0,000 mm 4,3 UV-I 694 W/m² 6,5 °C 14,2 °C 6,4 km/h (2 Bft)
30.03.2017 12:07 14,3 °C 14,3 °C 63 % 1026,0 hPa 0,0 mm 5,3 km/h (1 Bft) NO 53 ° 1 min 0,000 mm 4,3 UV-I 703 W/m² 7,4 °C 14,3 °C 9,7 km/h (2 Bft)
30.03.2017 12:08 14,4 °C 14,4 °C 59 % 1026,0 hPa 0,0 mm 8,6 km/h (2 Bft) O-NO 77 ° 1 min 0,000 mm 4,2 UV-I 663 W/m² 6,5 °C 14,4 °C 12,9 km/h (3 Bft)
30.03.2017 12:09 14,6 °C 14,6 °C 59 % 1026,0 hPa 0,0 mm 10,1 km/h (2 Bft) O 82 ° 1 min 0,000 mm 4,3 UV-I 696 W/m² 6,7 °C 14,6 °C 14,5 km/h (3 Bft)
30.03.2017 12:10 14,5 °C 14,6 °C 60 % 1026,0 hPa 0,0 mm 5,7 km/h (1 Bft) O 87 ° 1 min 0,000 mm 4,1 UV-I 615 W/m² 6,8 °C 14,5 °C 9,7 km/h (2 Bft)
30.03.2017 12:11 14,6 °C 14,6 °C 59 % 1026,0 hPa 0,0 mm 5,6 km/h (1 Bft) O-NO 67 ° 1 min 0,000 mm 4,3 UV-I 698 W/m² 6,7 °C 14,6 °C 8,0 km/h (2 Bft)
30.03.2017 12:12 14,6 °C 14,7 °C 58 % 1025,9 hPa 0,0 mm 5,2 km/h (1 Bft) NO 34 ° 1 min 0,000 mm 4,2 UV-I 642 W/m² 6,4 °C 14,6 °C 8,0 km/h (2 Bft)
30.03.2017 12:13 14,7 °C 14,7 °C 60 % 1026,0 hPa 0,0 mm 7,6 km/h (2 Bft) O-NO 75 ° 1 min 0,000 mm 3,9 UV-I 573 W/m² 7,0 °C 14,7 °C 12,9 km/h (3 Bft)
30.03.2017 12:14 14,6 °C 14,7 °C 60 % 1025,9 hPa 0,0 mm 6,7 km/h (2 Bft) O-NO 67 ° 1 min 0,000 mm 3,9 UV-I 608 W/m² 6,9 °C 14,6 °C 12,9 km/h (3 Bft)
30.03.2017 12:15 14,6 °C 14,6 °C 61 % 1026,0 hPa 0,0 mm 5,2 km/h (1 Bft) NO 34 ° 1 min 0,000 mm 4,0 UV-I 605 W/m² 7,2 °C 14,6 °C 8,0 km/h (2 Bft)
30.03.2017 12:16 14,6 °C 14,6 °C 59 % 1025,9 hPa 0,0 mm 6,7 km/h (2 Bft) O-NO 57 ° 1 min 0,000 mm 4,0 UV-I 610 W/m² 6,7 °C 14,6 °C 8,0 km/h (2 Bft)
30.03.2017 12:17 14,6 °C 14,6 °C 58 % 1025,9 hPa 0,0 mm 7,0 km/h (2 Bft) N 9 ° 1 min 0,000 mm 3,8 UV-I 575 W/m² 6,4 °C 14,6 °C 12,9 km/h (3 Bft)
30.03.2017 12:18 14,7 °C 14,7 °C 58 % 1025,9 hPa 0,0 mm 7,2 km/h (2 Bft) O-NO 59 ° 1 min 0,000 mm 4,0 UV-I 577 W/m² 6,5 °C 14,7 °C 9,7 km/h (2 Bft)
30.03.2017 12:19 14,7 °C 14,7 °C 58 % 1025,9 hPa 0,0 mm 6,5 km/h (2 Bft) NO 43 ° 1 min 0,000 mm 4,1 UV-I 631 W/m² 6,5 °C 14,7 °C 9,7 km/h (2 Bft)
30.03.2017 12:20 14,7 °C 14,7 °C 58 % 1025,9 hPa 0,0 mm 4,3 km/h (1 Bft) NO 41 ° 1 min 0,000 mm 4,0 UV-I 624 W/m² 6,5 °C 14,7 °C 8,0 km/h (2 Bft)
30.03.2017 12:21 14,7 °C 14,7 °C 58 % 1025,9 hPa 0,0 mm 7,2 km/h (2 Bft) O-NO 60 ° 1 min 0,000 mm 4,1 UV-I 619 W/m² 6,5 °C 14,7 °C 12,9 km/h (3 Bft)
30.03.2017 12:22 14,7 °C 14,7 °C 58 % 1025,9 hPa 0,0 mm 6,8 km/h (2 Bft) NO 38 ° 1 min 0,000 mm 3,9 UV-I 591 W/m² 6,5 °C 14,7 °C 11,3 km/h (2 Bft)
30.03.2017 12:23 14,7 °C 14,7 °C 57 % 1025,9 hPa 0,0 mm 3,5 km/h (1 Bft) N 9 ° 1 min 0,000 mm 3,9 UV-I 580 W/m² 6,3 °C 14,7 °C 4,8 km/h (1 Bft)
30.03.2017 12:24 14,7 °C 14,7 °C 58 % 1025,9 hPa 0,0 mm 5,4 km/h (1 Bft) N-NW 348 ° 1 min 0,000 mm 4,0 UV-I 643 W/m² 6,5 °C 14,7 °C 6,4 km/h (2 Bft)
30.03.2017 12:25 14,7 °C 14,7 °C 58 % 1025,9 hPa 0,0 mm 8,4 km/h (2 Bft) N-NO 20 ° 1 min 0,000 mm 4,2 UV-I 656 W/m² 6,5 °C 14,7 °C 14,5 km/h (3 Bft)
30.03.2017 12:26 14,8 °C 14,8 °C 58 % 1025,8 hPa 0,0 mm 7,0 km/h (2 Bft) O-NO 60 ° 1 min 0,000 mm 4,2 UV-I 663 W/m² 6,6 °C 14,8 °C 11,3 km/h (2 Bft)
30.03.2017 12:27 14,8 °C 14,8 °C 58 % 1025,8 hPa 0,0 mm 7,8 km/h (2 Bft) O-NO 57 ° 1 min 0,000 mm 4,3 UV-I 666 W/m² 6,6 °C 14,8 °C 9,7 km/h (2 Bft)
30.03.2017 12:28 14,8 °C 14,8 °C 58 % 1025,8 hPa 0,0 mm 6,6 km/h (2 Bft) O 81 ° 1 min 0,000 mm 4,4 UV-I 682 W/m² 6,6 °C 14,8 °C 12,9 km/h (3 Bft)
30.03.2017 12:29 14,8 °C 14,8 °C 60 % 1025,7 hPa 0,0 mm 4,2 km/h (1 Bft) N-NO 13 ° 1 min 0,000 mm 4,4 UV-I 698 W/m² 7,1 °C 14,8 °C 8,0 km/h (2 Bft)
30.03.2017 12:30 15,0 °C 15,0 °C 60 % 1025,7 hPa 0,0 mm 7,7 km/h (2 Bft) O-NO 66 ° 1 min 0,000 mm 4,3 UV-I 657 W/m² 7,3 °C 15,0 °C 16,1 km/h (3 Bft)
30.03.2017 12:31 15,1 °C 15,1 °C 59 % 1025,8 hPa 0,0 mm 8,4 km/h (2 Bft) O 85 ° 1 min 0,000 mm 4,4 UV-I 677 W/m² 7,1 °C 15,1 °C 11,3 km/h (2 Bft)
30.03.2017 12:32 15,0 °C 15,1 °C 59 % 1025,7 hPa 0,0 mm 6,7 km/h (2 Bft) NO 42 ° 1 min 0,000 mm 4,3 UV-I 679 W/m² 7,1 °C 15,0 °C 8,0 km/h (2 Bft)
30.03.2017 12:33 15,2 °C 15,2 °C 58 % 1025,7 hPa 0,0 mm 6,5 km/h (2 Bft) NO 40 ° 1 min 0,000 mm 4,4 UV-I 680 W/m² 7,0 °C 15,2 °C 9,7 km/h (2 Bft)
30.03.2017 12:34 15,2 °C 15,2 °C 57 % 1025,7 hPa 0,0 mm 9,2 km/h (2 Bft) N-NO 28 ° 1 min 0,000 mm 4,5 UV-I 703 W/m² 6,7 °C 15,2 °C 16,1 km/h (3 Bft)
30.03.2017 12:35 15,1 °C 15,2 °C 57 % 1025,7 hPa 0,0 mm 4,6 km/h (1 Bft) N 5 ° 1 min 0,000 mm 4,5 UV-I 721 W/m² 6,6 °C 15,1 °C 8,0 km/h (2 Bft)
30.03.2017 12:36 15,2 °C 15,2 °C 58 % 1025,6 hPa 0,0 mm 4,8 km/h (1 Bft) N-NO 27 ° 1 min 0,000 mm 4,5 UV-I 707 W/m² 7,0 °C 15,2 °C 8,0 km/h (2 Bft)
30.03.2017 12:37 15,3 °C 15,3 °C 58 % 1025,6 hPa 0,0 mm 5,3 km/h (1 Bft) N-NW 329 ° 1 min 0,000 mm 4,4 UV-I 701 W/m² 7,1 °C 15,3 °C 6,4 km/h (2 Bft)
30.03.2017 12:38 15,4 °C 15,4 °C 58 % 1025,6 hPa 0,0 mm 9,0 km/h (2 Bft) O-NO 58 ° 1 min 0,000 mm 4,4 UV-I 680 W/m² 7,2 °C 15,4 °C 14,5 km/h (3 Bft)
30.03.2017 12:39 15,3 °C 15,4 °C 59 % 1025,6 hPa 0,0 mm 5,7 km/h (1 Bft) N-NO 15 ° 1 min 0,000 mm 4,4 UV-I 679 W/m² 7,3 °C 15,3 °C 8,0 km/h (2 Bft)
30.03.2017 12:40 15,4 °C 15,4 °C 57 % 1025,6 hPa 0,0 mm 8,7 km/h (2 Bft) N-NO 26 ° 1 min 0,000 mm 4,4 UV-I 687 W/m² 6,9 °C 15,4 °C 12,9 km/h (3 Bft)
30.03.2017 12:41 15,4 °C 15,4 °C 60 % 1025,5 hPa 0,0 mm 7,8 km/h (2 Bft) NO 40 ° 1 min 0,000 mm 4,4 UV-I 677 W/m² 7,7 °C 15,4 °C 12,9 km/h (3 Bft)
30.03.2017 12:42 15,4 °C 15,4 °C 58 % 1025,6 hPa 0,0 mm 5,0 km/h (1 Bft) N-NO 26 ° 1 min 0,000 mm 4,4 UV-I 670 W/m² 7,2 °C 15,4 °C 8,0 km/h (2 Bft)
30.03.2017 12:43 15,6 °C 15,6 °C 57 % 1025,5 hPa 0,0 mm 7,4 km/h (2 Bft) O-NO 67 ° 1 min 0,000 mm 4,4 UV-I 677 W/m² 7,1 °C 15,6 °C 11,3 km/h (2 Bft)
30.03.2017 12:44 15,4 °C 15,6 °C 58 % 1025,6 hPa 0,0 mm 7,0 km/h (2 Bft) N-NO 28 ° 1 min 0,000 mm 4,4 UV-I 679 W/m² 7,2 °C 15,4 °C 12,9 km/h (3 Bft)
30.03.2017 12:45 15,3 °C 15,4 °C 57 % 1025,5 hPa 0,0 mm 10,9 km/h (2 Bft) NO 54 ° 1 min 0,000 mm 4,4 UV-I 673 W/m² 6,8 °C 15,3 °C 19,3 km/h (3 Bft)
30.03.2017 12:46 15,4 °C 15,4 °C 57 % 1025,5 hPa 0,0 mm 12,7 km/h (3 Bft) NO 44 ° 1 min 0,000 mm 4,4 UV-I 673 W/m² 6,9 °C 15,4 °C 16,1 km/h (3 Bft)
30.03.2017 12:47 15,3 °C 15,4 °C 57 % 1025,5 hPa 0,0 mm 6,4 km/h (2 Bft) NO 55 ° 1 min 0,000 mm 4,5 UV-I 700 W/m² 6,8 °C 15,3 °C 14,5 km/h (3 Bft)
30.03.2017 12:48 15,3 °C 15,3 °C 58 % 1025,5 hPa 0,0 mm 5,2 km/h (1 Bft) NO 39 ° 1 min 0,000 mm 4,5 UV-I 712 W/m² 7,1 °C 15,3 °C 8,0 km/h (2 Bft)
30.03.2017 12:49 15,4 °C 15,4 °C 59 % 1025,5 hPa 0,0 mm 5,7 km/h (1 Bft) N 5 ° 1 min 0,000 mm 4,6 UV-I 719 W/m² 7,4 °C 15,4 °C 11,3 km/h (2 Bft)
30.03.2017 12:50 15,5 °C 15,6 °C 58 % 1025,5 hPa 0,0 mm 6,7 km/h (2 Bft) N-NW 347 ° 1 min 0,000 mm 4,6 UV-I 715 W/m² 7,3 °C 15,5 °C 9,7 km/h (2 Bft)
30.03.2017 12:51 15,6 °C 15,6 °C 57 % 1025,5 hPa 0,0 mm 7,6 km/h (2 Bft) NO 43 ° 1 min 0,000 mm 4,5 UV-I 707 W/m² 7,1 °C 15,6 °C 11,3 km/h (2 Bft)
30.03.2017 12:52 15,6 °C 15,7 °C 57 % 1025,5 hPa 0,0 mm 8,0 km/h (2 Bft) N 5 ° 1 min 0,000 mm 4,5 UV-I 686 W/m² 7,1 °C 15,6 °C 12,9 km/h (3 Bft)
30.03.2017 12:53 15,6 °C 15,6 °C 57 % 1025,5 hPa 0,0 mm 6,2 km/h (2 Bft) N-NO 29 ° 1 min 0,000 mm 4,2 UV-I 631 W/m² 7,1 °C 15,6 °C 9,7 km/h (2 Bft)
30.03.2017 12:54 15,6 °C 15,6 °C 58 % 1025,4 hPa 0,0 mm 4,5 km/h (1 Bft) NO 50 ° 1 min 0,000 mm 4,2 UV-I 631 W/m² 7,4 °C 15,6 °C 6,4 km/h (2 Bft)
30.03.2017 12:55 15,6 °C 15,7 °C 57 % 1025,4 hPa 0,0 mm 6,4 km/h (2 Bft) O-NO 61 ° 1 min 0,000 mm 4,4 UV-I 670 W/m² 7,1 °C 15,6 °C 12,9 km/h (3 Bft)
30.03.2017 12:56 15,6 °C 15,6 °C 58 % 1025,4 hPa 0,0 mm 4,4 km/h (1 Bft) NO 51 ° 1 min 0,000 mm 4,4 UV-I 671 W/m² 7,4 °C 15,6 °C 6,4 km/h (2 Bft)
30.03.2017 12:57 15,4 °C 15,6 °C 58 % 1025,5 hPa 0,0 mm 7,8 km/h (2 Bft) NO 36 ° 1 min 0,000 mm 4,5 UV-I 693 W/m² 7,2 °C 15,4 °C 11,3 km/h (2 Bft)
30.03.2017 12:58 15,4 °C 15,4 °C 57 % 1025,4 hPa 0,0 mm 4,1 km/h (1 Bft) O 84 ° 1 min 0,000 mm 4,5 UV-I 687 W/m² 6,9 °C 15,4 °C 9,7 km/h (2 Bft)
30.03.2017 12:59 15,4 °C 15,4 °C 60 % 1025,4 hPa 0,0 mm 11,6 km/h (2 Bft) O-NO 59 ° 1 min 0,000 mm 4,4 UV-I 694 W/m² 7,7 °C 15,4 °C 17,7 km/h (3 Bft)
30.03.2017 13:00 15,4 °C 15,4 °C 59 % 1025,4 hPa 0,0 mm 6,8 km/h (2 Bft) N-NO 18 ° 1 min 0,000 mm 4,5 UV-I 701 W/m² 7,4 °C 15,4 °C 12,9 km/h (3 Bft)
30.03.2017 13:01 15,5 °C 15,5 °C 57 % 1025,4 hPa 0,0 mm 6,3 km/h (2 Bft) NO 51 ° 1 min 0,381 mm 4,5 UV-I 705 W/m² 7,0 °C 15,5 °C 8,0 km/h (2 Bft)
30.03.2017 13:02 15,6 °C 15,6 °C 57 % 1025,4 hPa 0,0 mm 8,2 km/h (2 Bft) O-NO 71 ° 1 min 0,000 mm 3,8 UV-I 705 W/m² 7,1 °C 15,6 °C 14,5 km/h (3 Bft)
30.03.2017 13:03 15,6 °C 15,6 °C 57 % 1025,4 hPa 0,0 mm 4,9 km/h (1 Bft) O-NO 64 ° 1 min 0,000 mm 4,5 UV-I 705 W/m² 7,1 °C 15,6 °C 8,0 km/h (2 Bft)
30.03.2017 13:04 15,6 °C 15,6 °C 60 % 1025,4 hPa 0,0 mm 9,5 km/h (2 Bft) NO 34 ° 1 min 0,000 mm 4,5 UV-I 705 W/m² 7,9 °C 15,6 °C 17,7 km/h (3 Bft)
30.03.2017 13:05 15,5 °C 15,6 °C 57 % 1025,4 hPa 0,0 mm 8,4 km/h (2 Bft) O-NO 70 ° 1 min 0,000 mm 4,1 UV-I 577 W/m² 7,0 °C 15,5 °C 11,3 km/h (2 Bft)
30.03.2017 13:06 15,4 °C 15,5 °C 56 % 1025,4 hPa 0,0 mm 5,6 km/h (1 Bft) N-NO 12 ° 1 min 0,000 mm 4,2 UV-I 612 W/m² 6,7 °C 15,4 °C 8,0 km/h (2 Bft)
30.03.2017 13:07 15,4 °C 15,5 °C 57 % 1025,4 hPa 0,0 mm 6,0 km/h (2 Bft) N-NO 25 ° 1 min 0,000 mm 4,4 UV-I 682 W/m² 6,9 °C 15,4 °C 8,0 km/h (2 Bft)
30.03.2017 13:08 15,5 °C 15,5 °C 57 % 1025,4 hPa 0,0 mm 4,2 km/h (1 Bft) N-NO 17 ° 1 min 0,000 mm 4,4 UV-I 663 W/m² 7,0 °C 15,5 °C 6,4 km/h (2 Bft)
30.03.2017 13:09 15,6 °C 15,6 °C 57 % 1025,4 hPa 0,0 mm 7,4 km/h (2 Bft) N-NO 19 ° 1 min 0,000 mm 4,3 UV-I 650 W/m² 7,1 °C 15,6 °C 12,9 km/h (3 Bft)
30.03.2017 13:10 15,7 °C 15,7 °C 57 % 1025,3 hPa 0,0 mm 8,2 km/h (2 Bft) NO 40 ° 1 min 0,000 mm 4,3 UV-I 652 W/m² 7,2 °C 15,7 °C 9,7 km/h (2 Bft)
30.03.2017 13:11 15,9 °C 15,9 °C 56 % 1025,3 hPa 0,0 mm 10,2 km/h (2 Bft) N 5 ° 1 min 0,000 mm 4,3 UV-I 645 W/m² 7,1 °C 15,9 °C 16,1 km/h (3 Bft)
30.03.2017 13:12 15,9 °C 15,9 °C 54 % 1025,3 hPa 0,0 mm 10,2 km/h (2 Bft) N-NO 19 ° 1 min 0,000 mm 4,3 UV-I 661 W/m² 6,6 °C 15,9 °C 14,5 km/h (3 Bft)
30.03.2017 13:13 15,9 °C 15,9 °C 55 % 1025,3 hPa 0,0 mm 11,7 km/h (2 Bft) O-NO 76 ° 1 min 0,000 mm 4,2 UV-I 647 W/m² 6,9 °C 15,9 °C 19,3 km/h (3 Bft)
30.03.2017 13:14 15,8 °C 15,9 °C 55 % 1025,3 hPa 0,0 mm 9,0 km/h (2 Bft) NO 54 ° 1 min 0,000 mm 4,1 UV-I 598 W/m² 6,8 °C 15,8 °C 14,5 km/h (3 Bft)
30.03.2017 13:15 15,8 °C 15,8 °C 55 % 1025,3 hPa 0,0 mm 7,8 km/h (2 Bft) N 9 ° 1 min 0,000 mm 4,2 UV-I 584 W/m² 6,8 °C 15,8 °C 11,3 km/h (2 Bft)
30.03.2017 13:16 15,8 °C 15,8 °C 56 % 1025,3 hPa 0,0 mm 5,5 km/h (1 Bft) NO 38 ° 1 min 0,000 mm 4,3 UV-I 640 W/m² 7,0 °C 15,8 °C 8,0 km/h (2 Bft)
30.03.2017 13:17 15,8 °C 15,8 °C 55 % 1025,3 hPa 0,0 mm 3,5 km/h (1 Bft) NO 41 ° 1 min 0,000 mm 4,3 UV-I 652 W/m² 6,8 °C 15,8 °C 6,4 km/h (2 Bft)
30.03.2017 13:18 15,8 °C 15,8 °C 54 % 1025,3 hPa 0,0 mm 10,3 km/h (2 Bft) O 92 ° 1 min 0,000 mm 4,5 UV-I 701 W/m² 6,5 °C 15,8 °C 14,5 km/h (3 Bft)
30.03.2017 13:19 15,7 °C 15,8 °C 56 % 1025,3 hPa 0,0 mm 10,8 km/h (2 Bft) N-NW 334 ° 1 min 0,000 mm 4,6 UV-I 714 W/m² 6,9 °C 15,7 °C 16,1 km/h (3 Bft)
30.03.2017 13:20 15,8 °C 15,8 °C 52 % 1025,2 hPa 0,0 mm 11,8 km/h (2 Bft) NO 38 ° 1 min 0,000 mm 4,6 UV-I 737 W/m² 6,0 °C 15,8 °C 16,1 km/h (3 Bft)
30.03.2017 13:21 15,8 °C 15,8 °C 51 % 1025,3 hPa 0,0 mm 9,5 km/h (2 Bft) N-NO 17 ° 1 min 0,000 mm 4,7 UV-I 729 W/m² 5,7 °C 15,8 °C 16,1 km/h (3 Bft)
30.03.2017 13:22 15,7 °C 15,8 °C 50 % 1025,2 hPa 0,0 mm 9,4 km/h (2 Bft) N 360 ° 1 min 0,000 mm 4,7 UV-I 747 W/m² 5,3 °C 15,7 °C 14,5 km/h (3 Bft)
30.03.2017 13:23 15,8 °C 15,8 °C 51 % 1025,3 hPa 0,0 mm 10,3 km/h (2 Bft) N-NW 348 ° 1 min 0,000 mm 4,6 UV-I 694 W/m² 5,7 °C 15,8 °C 14,5 km/h (3 Bft)
30.03.2017 13:24 15,9 °C 15,9 °C 50 % 1025,3 hPa 0,0 mm 6,5 km/h (2 Bft) O-NO 76 ° 1 min 0,000 mm 4,2 UV-I 615 W/m² 5,5 °C 15,9 °C 14,5 km/h (3 Bft)
30.03.2017 13:25 15,8 °C 15,9 °C 52 % 1025,3 hPa 0,0 mm 10,3 km/h (2 Bft) N-NO 15 ° 1 min 0,000 mm 4,3 UV-I 686 W/m² 6,0 °C 15,8 °C 16,1 km/h (3 Bft)
30.03.2017 13:26 15,9 °C 15,9 °C 54 % 1025,2 hPa 0,0 mm 7,2 km/h (2 Bft) O-NO 67 ° 1 min 0,000 mm 4,0 UV-I 596 W/m² 6,6 °C 15,9 °C 14,5 km/h (3 Bft)
30.03.2017 13:27 15,9 °C 16,0 °C 52 % 1025,2 hPa 0,0 mm 7,8 km/h (2 Bft) N 5 ° 1 min 0,000 mm 4,1 UV-I 596 W/m² 6,1 °C 15,9 °C 14,5 km/h (3 Bft)
30.03.2017 13:28 15,9 °C 16,0 °C 52 % 1025,3 hPa 0,0 mm 10,0 km/h (2 Bft) O-NO 68 ° 1 min 0,000 mm 4,2 UV-I 606 W/m² 6,1 °C 15,9 °C 17,7 km/h (3 Bft)
30.03.2017 13:29 15,8 °C 15,9 °C 51 % 1025,1 hPa 0,0 mm 11,1 km/h (2 Bft) O 95 ° 1 min 0,000 mm 4,2 UV-I 612 W/m² 5,7 °C 15,8 °C 14,5 km/h (3 Bft)
30.03.2017 13:30 15,8 °C 15,8 °C 53 % 1025,2 hPa 0,0 mm 9,4 km/h (2 Bft) N-NO 28 ° 1 min 0,000 mm 4,2 UV-I 629 W/m² 6,2 °C 15,8 °C 12,9 km/h (3 Bft)
30.03.2017 13:31 15,9 °C 15,9 °C 53 % 1025,2 hPa 0,0 mm 11,3 km/h (2 Bft) N-NO 26 ° 1 min 0,000 mm 4,5 UV-I 664 W/m² 6,3 °C 15,9 °C 16,1 km/h (3 Bft)
30.03.2017 13:32 15,9 °C 15,9 °C 52 % 1025,2 hPa 0,0 mm 8,0 km/h (2 Bft) N 5 ° 1 min 0,000 mm 4,6 UV-I 724 W/m² 6,1 °C 15,9 °C 9,7 km/h (2 Bft)
30.03.2017 13:33 16,1 °C 16,1 °C 54 % 1025,2 hPa 0,0 mm 6,6 km/h (2 Bft) O-NO 57 ° 1 min 0,000 mm 4,6 UV-I 715 W/m² 6,8 °C 16,1 °C 9,7 km/h (2 Bft)
30.03.2017 13:34 16,2 °C 16,2 °C 52 % 1025,1 hPa 0,0 mm 7,7 km/h (2 Bft) O-NO 61 ° 1 min 0,000 mm 4,5 UV-I 666 W/m² 6,3 °C 16,2 °C 16,1 km/h (3 Bft)
30.03.2017 13:35 16,3 °C 16,3 °C 52 % 1025,2 hPa 0,0 mm 7,8 km/h (2 Bft) NO 35 ° 1 min 0,000 mm 4,5 UV-I 687 W/m² 6,4 °C 16,3 °C 14,5 km/h (3 Bft)
30.03.2017 13:36 16,2 °C 16,3 °C 51 % 1025,2 hPa 0,0 mm 6,2 km/h (2 Bft) NO 38 ° 1 min 0,000 mm 4,6 UV-I 710 W/m² 6,1 °C 16,2 °C 11,3 km/h (2 Bft)
30.03.2017 13:37 16,2 °C 16,2 °C 52 % 1025,2 hPa 0,0 mm 7,1 km/h (2 Bft) NO 46 ° 1 min 0,000 mm 4,6 UV-I 714 W/m² 6,3 °C 16,2 °C 9,7 km/h (2 Bft)
30.03.2017 13:38 16,2 °C 16,3 °C 52 % 1025,1 hPa 0,0 mm 9,5 km/h (2 Bft) NO 53 ° 1 min 0,000 mm 4,7 UV-I 722 W/m² 6,3 °C 16,2 °C 14,5 km/h (3 Bft)
30.03.2017 13:39 16,3 °C 16,3 °C 51 % 1025,1 hPa 0,0 mm 11,3 km/h (2 Bft) N-NO 27 ° 1 min 0,000 mm 4,6 UV-I 726 W/m² 6,1 °C 16,3 °C 19,3 km/h (3 Bft)
30.03.2017 13:40 16,3 °C 16,3 °C 52 % 1025,1 hPa 0,0 mm 11,3 km/h (2 Bft) NO 42 ° 1 min 0,000 mm 4,6 UV-I 724 W/m² 6,4 °C 16,3 °C 16,1 km/h (3 Bft)
30.03.2017 13:41 16,3 °C 16,3 °C 51 % 1025,1 hPa 0,0 mm 12,5 km/h (3 Bft) NO 39 ° 1 min 0,000 mm 4,6 UV-I 726 W/m² 6,1 °C 16,3 °C 16,1 km/h (3 Bft)
30.03.2017 13:42 16,2 °C 16,3 °C 51 % 1025,1 hPa 0,0 mm 7,6 km/h (2 Bft) O-NO 61 ° 1 min 0,000 mm 4,6 UV-I 717 W/m² 6,1 °C 16,2 °C 11,3 km/h (2 Bft)
30.03.2017 13:43 16,1 °C 16,2 °C 50 % 1025,1 hPa 0,0 mm 13,7 km/h (3 Bft) O-NO 72 ° 1 min 0,000 mm 4,6 UV-I 712 W/m² 5,7 °C 16,1 °C 19,3 km/h (3 Bft)
30.03.2017 13:44 16,1 °C 16,2 °C 51 % 1025,2 hPa 0,0 mm 12,6 km/h (3 Bft) N-NO 19 ° 1 min 0,000 mm 4,6 UV-I 717 W/m² 6,0 °C 16,1 °C 17,7 km/h (3 Bft)
30.03.2017 13:45 16,3 °C 16,3 °C 50 % 1025,1 hPa 0,0 mm 12,6 km/h (3 Bft) O-NO 58 ° 1 min 0,000 mm 4,6 UV-I 707 W/m² 5,9 °C 16,3 °C 16,1 km/h (3 Bft)
30.03.2017 13:46 16,3 °C 16,3 °C 50 % 1025,1 hPa 0,0 mm 7,9 km/h (2 Bft) N-NO 20 ° 1 min 0,000 mm 4,6 UV-I 703 W/m² 5,9 °C 16,3 °C 12,9 km/h (3 Bft)
30.03.2017 13:47 16,3 °C 16,3 °C 49 % 1025,1 hPa 0,0 mm 7,8 km/h (2 Bft) NO 51 ° 1 min 0,000 mm 4,5 UV-I 696 W/m² 5,6 °C 16,3 °C 12,9 km/h (3 Bft)
30.03.2017 13:48 16,3 °C 16,3 °C 51 % 1025,1 hPa 0,0 mm 8,2 km/h (2 Bft) NO 46 ° 1 min 0,000 mm 4,5 UV-I 701 W/m² 6,1 °C 16,3 °C 17,7 km/h (3 Bft)
30.03.2017 13:49 16,3 °C 16,3 °C 51 % 1025,1 hPa 0,0 mm 9,0 km/h (2 Bft) O 80 ° 1 min 0,000 mm 4,6 UV-I 705 W/m² 6,1 °C 16,3 °C 11,3 km/h (2 Bft)
30.03.2017 13:50 16,2 °C 16,3 °C 52 % 1025,1 hPa 0,0 mm 3,6 km/h (1 Bft) O-NO 74 ° 1 min 0,000 mm 4,6 UV-I 712 W/m² 6,3 °C 16,2 °C 6,4 km/h (2 Bft)
30.03.2017 13:51 16,2 °C 16,2 °C 53 % 1025,0 hPa 0,0 mm 5,6 km/h (1 Bft) NO 36 ° 1 min 0,000 mm 4,6 UV-I 721 W/m² 6,6 °C 16,2 °C 8,0 km/h (2 Bft)
30.03.2017 13:52 16,2 °C 16,2 °C 51 % 1025,0 hPa 0,0 mm 6,8 km/h (2 Bft) N-NO 24 ° 1 min 0,000 mm 4,6 UV-I 708 W/m² 6,1 °C 16,2 °C 12,9 km/h (3 Bft)
30.03.2017 13:53 16,2 °C 16,2 °C 50 % 1025,1 hPa 0,0 mm 9,3 km/h (2 Bft) N-NO 22 ° 1 min 0,000 mm 4,6 UV-I 701 W/m² 5,8 °C 16,2 °C 14,5 km/h (3 Bft)
30.03.2017 13:54 16,3 °C 16,3 °C 50 % 1025,1 hPa 0,0 mm 7,8 km/h (2 Bft) N-NO 23 ° 1 min 0,000 mm 4,6 UV-I 714 W/m² 5,9 °C 16,3 °C 12,9 km/h (3 Bft)
30.03.2017 13:55 16,4 °C 16,4 °C 51 % 1025,1 hPa 0,0 mm 8,4 km/h (2 Bft) O-NO 67 ° 1 min 0,000 mm 4,6 UV-I 719 W/m² 6,2 °C 16,4 °C 14,5 km/h (3 Bft)
30.03.2017 13:56 16,4 °C 16,4 °C 50 % 1025,1 hPa 0,0 mm 12,5 km/h (3 Bft) O-NO 73 ° 1 min 0,000 mm 4,6 UV-I 722 W/m² 6,0 °C 16,4 °C 16,1 km/h (3 Bft)
30.03.2017 13:57 16,4 °C 16,4 °C 51 % 1025,1 hPa 0,0 mm 7,1 km/h (2 Bft) O-NO 63 ° 1 min 0,000 mm 4,6 UV-I 707 W/m² 6,2 °C 16,4 °C 9,7 km/h (2 Bft)
30.03.2017 13:58 16,4 °C 16,4 °C 52 % 1025,1 hPa 0,0 mm 5,4 km/h (1 Bft) NO 52 ° 1 min 0,000 mm 4,6 UV-I 724 W/m² 6,5 °C 16,4 °C 9,7 km/h (2 Bft)
30.03.2017 13:59 16,4 °C 16,4 °C 49 % 1025,0 hPa 0,0 mm 9,7 km/h (2 Bft) O-NO 64 ° 1 min 0,000 mm 4,5 UV-I 717 W/m² 5,7 °C 16,4 °C 17,7 km/h (3 Bft)
30.03.2017 14:00 16,4 °C 16,4 °C 49 % 1024,9 hPa 0,0 mm 8,2 km/h (2 Bft) O-NO 59 ° 1 min 0,000 mm 4,6 UV-I 715 W/m² 5,7 °C 16,4 °C 14,5 km/h (3 Bft)
30.03.2017 14:01 16,4 °C 16,4 °C 52 % 1024,9 hPa 0,0 mm 10,6 km/h (2 Bft) O-NO 71 ° 1 min 0,407 mm 4,6 UV-I 721 W/m² 6,5 °C 16,4 °C 14,5 km/h (3 Bft)
30.03.2017 14:02 16,4 °C 16,4 °C 52 % 1024,9 hPa 0,0 mm 10,6 km/h (2 Bft) O-NO 78 ° 1 min 0,000 mm 4,6 UV-I 728 W/m² 6,5 °C 16,4 °C 12,9 km/h (3 Bft)
30.03.2017 14:03 16,3 °C 16,4 °C 50 % 1024,9 hPa 0,0 mm 5,2 km/h (1 Bft) O-NO 76 ° 1 min 0,000 mm 4,6 UV-I 715 W/m² 5,9 °C 16,3 °C 11,3 km/h (2 Bft)
30.03.2017 14:04 16,3 °C 16,4 °C 49 % 1024,9 hPa 0,0 mm 6,2 km/h (2 Bft) N-NO 30 ° 1 min 0,000 mm 4,5 UV-I 691 W/m² 5,6 °C 16,3 °C 8,0 km/h (2 Bft)
30.03.2017 14:05 16,4 °C 16,4 °C 49 % 1024,9 hPa 0,0 mm 6,5 km/h (2 Bft) N-NO 28 ° 1 min 0,000 mm 4,4 UV-I 677 W/m² 5,7 °C 16,4 °C 9,7 km/h (2 Bft)
30.03.2017 14:06 16,4 °C 16,5 °C 50 % 1024,9 hPa 0,0 mm 6,2 km/h (2 Bft) NO 38 ° 1 min 0,000 mm 4,4 UV-I 700 W/m² 6,0 °C 16,4 °C 8,0 km/h (2 Bft)
30.03.2017 14:07 16,5 °C 16,5 °C 49 % 1024,9 hPa 0,0 mm 6,8 km/h (2 Bft) N 355 ° 1 min 0,000 mm 4,4 UV-I 686 W/m² 5,8 °C 16,5 °C 9,7 km/h (2 Bft)
30.03.2017 14:08 16,6 °C 16,6 °C 49 % 1024,9 hPa 0,0 mm 4,7 km/h (1 Bft) N-NW 342 ° 1 min 0,000 mm 4,4 UV-I 668 W/m² 5,8 °C 16,6 °C 6,4 km/h (2 Bft)
30.03.2017 14:09 16,7 °C 16,7 °C 48 % 1024,8 hPa 0,0 mm 4,8 km/h (1 Bft) N 9 ° 1 min 0,000 mm 4,3 UV-I 675 W/m² 5,6 °C 16,7 °C 9,7 km/h (2 Bft)
30.03.2017 14:10 16,9 °C 16,9 °C 48 % 1024,8 hPa 0,0 mm 4,1 km/h (1 Bft) O-NO 72 ° 1 min 0,000 mm 4,5 UV-I 693 W/m² 5,8 °C 16,9 °C 8,0 km/h (2 Bft)
30.03.2017 14:11 16,9 °C 17,0 °C 50 % 1024,8 hPa 0,0 mm 12,0 km/h (2 Bft) N-NO 32 ° 1 min 0,000 mm 4,6 UV-I 712 W/m² 6,4 °C 16,9 °C 17,7 km/h (3 Bft)
30.03.2017 14:12 17,0 °C 17,0 °C 48 % 1024,8 hPa 0,0 mm 8,9 km/h (2 Bft) NO 34 ° 1 min 0,000 mm 4,5 UV-I 701 W/m² 5,9 °C 17,0 °C 16,1 km/h (3 Bft)
30.03.2017 14:13 17,0 °C 17,0 °C 47 % 1024,8 hPa 0,0 mm 9,3 km/h (2 Bft) NO 35 ° 1 min 0,000 mm 4,4 UV-I 679 W/m² 5,6 °C 17,0 °C 14,5 km/h (3 Bft)
30.03.2017 14:14 16,9 °C 17,0 °C 47 % 1024,8 hPa 0,0 mm 14,0 km/h (3 Bft) O 85 ° 1 min 0,000 mm 4,4 UV-I 656 W/m² 5,5 °C 16,9 °C 16,1 km/h (3 Bft)
30.03.2017 14:15 16,8 °C 16,9 °C 47 % 1024,8 hPa 0,0 mm 8,6 km/h (2 Bft) N 350 ° 1 min 0,000 mm 4,5 UV-I 680 W/m² 5,4 °C 16,8 °C 16,1 km/h (3 Bft)
30.03.2017 14:16 16,8 °C 16,8 °C 50 % 1024,8 hPa 0,0 mm 6,9 km/h (2 Bft) O-NO 61 ° 1 min 0,000 mm 4,4 UV-I 650 W/m² 6,3 °C 16,8 °C 16,1 km/h (3 Bft)
30.03.2017 14:17 16,8 °C 16,8 °C 48 % 1024,8 hPa 0,0 mm 7,2 km/h (2 Bft) O-NO 71 ° 1 min 0,000 mm 4,4 UV-I 654 W/m² 5,7 °C 16,8 °C 11,3 km/h (2 Bft)
30.03.2017 14:18 16,7 °C 16,8 °C 47 % 1024,8 hPa 0,0 mm 3,6 km/h (1 Bft) NO 46 ° 1 min 0,000 mm 4,5 UV-I 682 W/m² 5,3 °C 16,7 °C 9,7 km/h (2 Bft)
30.03.2017 14:19 16,7 °C 16,7 °C 47 % 1024,7 hPa 0,0 mm 8,0 km/h (2 Bft) N-NW 344 ° 1 min 0,000 mm 4,4 UV-I 673 W/m² 5,3 °C 16,7 °C 12,9 km/h (3 Bft)
30.03.2017 14:20 16,7 °C 16,7 °C 48 % 1024,7 hPa 0,0 mm 8,0 km/h (2 Bft) NO 46 ° 1 min 0,000 mm 4,4 UV-I 680 W/m² 5,6 °C 16,7 °C 11,3 km/h (2 Bft)
30.03.2017 14:21 16,8 °C 16,8 °C 47 % 1024,7 hPa 0,0 mm 3,4 km/h (1 Bft) O-NO 65 ° 1 min 0,000 mm 4,5 UV-I 694 W/m² 5,4 °C 16,8 °C 4,8 km/h (1 Bft)
30.03.2017 14:22 16,8 °C 16,8 °C 48 % 1024,7 hPa 0,0 mm 8,4 km/h (2 Bft) NO 34 ° 1 min 0,000 mm 4,5 UV-I 691 W/m² 5,7 °C 16,8 °C 12,9 km/h (3 Bft)
30.03.2017 14:23 16,9 °C 16,9 °C 49 % 1024,7 hPa 0,0 mm 7,9 km/h (2 Bft) O 92 ° 1 min 0,000 mm 4,4 UV-I 689 W/m² 6,1 °C 16,9 °C 12,9 km/h (3 Bft)
30.03.2017 14:24 16,9 °C 16,9 °C 48 % 1024,7 hPa 0,0 mm 8,3 km/h (2 Bft) O-NO 66 ° 1 min 0,000 mm 4,4 UV-I 700 W/m² 5,8 °C 16,9 °C 14,5 km/h (3 Bft)
30.03.2017 14:25 16,9 °C 16,9 °C 47 % 1024,7 hPa 0,0 mm 8,3 km/h (2 Bft) O 97 ° 1 min 0,000 mm 4,3 UV-I 675 W/m² 5,5 °C 16,9 °C 14,5 km/h (3 Bft)
30.03.2017 14:26 17,0 °C 17,0 °C 47 % 1024,7 hPa 0,0 mm 7,5 km/h (2 Bft) O 81 ° 1 min 0,000 mm 4,1 UV-I 608 W/m² 5,6 °C 17,0 °C 14,5 km/h (3 Bft)
30.03.2017 14:27 16,9 °C 17,0 °C 48 % 1024,6 hPa 0,0 mm 8,5 km/h (2 Bft) O 93 ° 1 min 0,000 mm 4,1 UV-I 613 W/m² 5,8 °C 16,9 °C 12,9 km/h (3 Bft)
30.03.2017 14:28 17,0 °C 17,0 °C 51 % 1024,7 hPa 0,0 mm 7,0 km/h (2 Bft) NO 55 ° 1 min 0,000 mm 4,3 UV-I 636 W/m² 6,8 °C 17,0 °C 9,7 km/h (2 Bft)
30.03.2017 14:29 16,9 °C 17,0 °C 47 % 1024,7 hPa 0,0 mm 1,8 km/h (1 Bft) NO 55 ° 1 min 0,000 mm 4,2 UV-I 628 W/m² 5,5 °C 16,9 °C 3,2 km/h (1 Bft)
30.03.2017 14:30 16,8 °C 16,9 °C 46 % 1024,6 hPa 0,0 mm 1,9 km/h (1 Bft) NO 55 ° 1 min 0,000 mm 4,3 UV-I 635 W/m² 5,1 °C 16,8 °C 4,8 km/h (1 Bft)
30.03.2017 14:31 16,7 °C 16,8 °C 49 % 1024,6 hPa 0,0 mm 3,2 km/h (1 Bft) O 84 ° 1 min 0,000 mm 4,4 UV-I 656 W/m² 5,9 °C 16,7 °C 8,0 km/h (2 Bft)
30.03.2017 14:32 16,7 °C 16,7 °C 46 % 1024,7 hPa 0,0 mm 7,2 km/h (2 Bft) O-NO 74 ° 1 min 0,000 mm 4,4 UV-I 689 W/m² 5,0 °C 16,7 °C 12,9 km/h (3 Bft)
30.03.2017 14:33 16,6 °C 16,7 °C 45 % 1024,6 hPa 0,0 mm 6,0 km/h (2 Bft) O-NO 58 ° 1 min 0,000 mm 4,4 UV-I 693 W/m² 4,6 °C 16,6 °C 14,5 km/h (3 Bft)
30.03.2017 14:34 16,7 °C 16,7 °C 47 % 1024,6 hPa 0,0 mm 6,6 km/h (2 Bft) N-NO 32 ° 1 min 0,000 mm 4,4 UV-I 684 W/m² 5,3 °C 16,7 °C 12,9 km/h (3 Bft)
30.03.2017 14:35 16,8 °C 16,8 °C 48 % 1024,6 hPa 0,0 mm 7,4 km/h (2 Bft) N-NO 20 ° 1 min 0,000 mm 4,1 UV-I 622 W/m² 5,7 °C 16,8 °C 9,7 km/h (2 Bft)
30.03.2017 14:36 17,1 °C 17,1 °C 47 % 1024,6 hPa 0,0 mm 5,2 km/h (1 Bft) N-NW 345 ° 1 min 0,000 mm 4,4 UV-I 689 W/m² 5,7 °C 17,1 °C 8,0 km/h (2 Bft)
30.03.2017 14:37 17,2 °C 17,2 °C 47 % 1024,6 hPa 0,0 mm 8,6 km/h (2 Bft) O-NO 70 ° 1 min 0,000 mm 4,4 UV-I 689 W/m² 5,8 °C 17,2 °C 14,5 km/h (3 Bft)
30.03.2017 14:38 17,3 °C 17,3 °C 46 % 1024,6 hPa 0,0 mm 10,1 km/h (2 Bft) O 80 ° 1 min 0,000 mm 4,3 UV-I 686 W/m² 5,6 °C 17,3 °C 16,1 km/h (3 Bft)
30.03.2017 14:39 17,2 °C 17,3 °C 46 % 1024,6 hPa 0,0 mm 5,8 km/h (2 Bft) O-NO 72 ° 1 min 0,000 mm 4,4 UV-I 682 W/m² 5,5 °C 17,2 °C 8,0 km/h (2 Bft)
30.03.2017 14:40 17,1 °C 17,2 °C 46 % 1024,6 hPa 0,0 mm 4,8 km/h (1 Bft) O 88 ° 1 min 0,000 mm 4,3 UV-I 680 W/m² 5,4 °C 17,1 °C 6,4 km/h (2 Bft)
30.03.2017 14:41 16,9 °C 17,1 °C 46 % 1024,5 hPa 0,0 mm 5,2 km/h (1 Bft) O 80 ° 1 min 0,000 mm 4,3 UV-I 680 W/m² 5,2 °C 16,9 °C 8,0 km/h (2 Bft)
30.03.2017 14:42 16,9 °C 16,9 °C 47 % 1024,5 hPa 0,0 mm 7,6 km/h (2 Bft) O 79 ° 1 min 0,000 mm 4,3 UV-I 675 W/m² 5,5 °C 16,9 °C 12,9 km/h (3 Bft)
30.03.2017 14:43 16,8 °C 16,9 °C 48 % 1024,5 hPa 0,0 mm 8,6 km/h (2 Bft) O 82 ° 1 min 0,000 mm 4,3 UV-I 677 W/m² 5,7 °C 16,8 °C 12,9 km/h (3 Bft)
30.03.2017 14:44 16,8 °C 16,8 °C 47 % 1024,6 hPa 0,0 mm 4,7 km/h (1 Bft) O 96 ° 1 min 0,000 mm 4,3 UV-I 670 W/m² 5,4 °C 16,8 °C 8,0 km/h (2 Bft)
30.03.2017 14:45 16,9 °C 16,9 °C 48 % 1024,5 hPa 0,0 mm 5,4 km/h (1 Bft) SO 126 ° 1 min 0,000 mm 4,2 UV-I 619 W/m² 5,8 °C 16,9 °C 8,0 km/h (2 Bft)
30.03.2017 14:46 16,9 °C 16,9 °C 47 % 1024,5 hPa 0,0 mm 5,8 km/h (2 Bft) NO 44 ° 1 min 0,000 mm 4,1 UV-I 636 W/m² 5,5 °C 16,9 °C 16,1 km/h (3 Bft)
30.03.2017 14:47 16,9 °C 16,9 °C 47 % 1024,5 hPa 0,0 mm 2,7 km/h (1 Bft) O-NO 64 ° 1 min 0,000 mm 4,2 UV-I 661 W/m² 5,5 °C 16,9 °C 4,8 km/h (1 Bft)
30.03.2017 14:48 16,9 °C 16,9 °C 48 % 1024,5 hPa 0,0 mm 3,3 km/h (1 Bft) N-NO 33 ° 1 min 0,000 mm 4,2 UV-I 659 W/m² 5,8 °C 16,9 °C 4,8 km/h (1 Bft)
30.03.2017 14:49 17,2 °C 17,2 °C 47 % 1024,4 hPa 0,0 mm 4,3 km/h (1 Bft) N-NO 23 ° 1 min 0,000 mm 4,2 UV-I 664 W/m² 5,8 °C 17,2 °C 6,4 km/h (2 Bft)
30.03.2017 14:50 17,3 °C 17,3 °C 48 % 1024,4 hPa 0,0 mm 6,6 km/h (2 Bft) O 82 ° 1 min 0,000 mm 4,2 UV-I 656 W/m² 6,2 °C 17,3 °C 8,0 km/h (2 Bft)
30.03.2017 14:51 17,2 °C 17,3 °C 47 % 1024,4 hPa 0,0 mm 6,0 km/h (2 Bft) O 80 ° 1 min 0,000 mm 4,2 UV-I 652 W/m² 5,8 °C 17,2 °C 9,7 km/h (2 Bft)
30.03.2017 14:52 17,3 °C 17,3 °C 49 % 1024,4 hPa 0,0 mm 5,3 km/h (1 Bft) O-NO 71 ° 1 min 0,000 mm 4,2 UV-I 663 W/m² 6,5 °C 17,3 °C 8,0 km/h (2 Bft)
30.03.2017 14:53 17,2 °C 17,3 °C 47 % 1024,4 hPa 0,0 mm 7,4 km/h (2 Bft) O-NO 58 ° 1 min 0,000 mm 4,2 UV-I 659 W/m² 5,8 °C 17,2 °C 11,3 km/h (2 Bft)
30.03.2017 14:54 17,2 °C 17,3 °C 48 % 1024,4 hPa 0,0 mm 11,5 km/h (2 Bft) O 80 ° 1 min 0,000 mm 4,1 UV-I 656 W/m² 6,1 °C 17,2 °C 16,1 km/h (3 Bft)
30.03.2017 14:55 17,2 °C 17,2 °C 49 % 1024,4 hPa 0,0 mm 7,2 km/h (2 Bft) N 5 ° 1 min 0,000 mm 4,1 UV-I 656 W/m² 6,4 °C 17,2 °C 11,3 km/h (2 Bft)
30.03.2017 14:56 17,1 °C 17,2 °C 49 % 1024,4 hPa 0,0 mm 7,5 km/h (2 Bft) O-NO 68 ° 1 min 0,000 mm 3,8 UV-I 652 W/m² 6,3 °C 17,1 °C 9,7 km/h (2 Bft)
30.03.2017 14:57 17,2 °C 17,2 °C 49 % 1024,4 hPa 0,0 mm 8,3 km/h (2 Bft) NO 40 ° 1 min 0,000 mm 4,0 UV-I 645 W/m² 6,4 °C 17,2 °C 12,9 km/h (3 Bft)
30.03.2017 14:58 17,2 °C 17,2 °C 49 % 1024,3 hPa 0,0 mm 11,1 km/h (2 Bft) O 79 ° 1 min 0,000 mm 4,0 UV-I 640 W/m² 6,4 °C 17,2 °C 14,5 km/h (3 Bft)
30.03.2017 14:59 17,2 °C 17,2 °C 48 % 1024,4 hPa 0,0 mm 10,6 km/h (2 Bft) O-NO 66 ° 1 min 0,000 mm 4,0 UV-I 640 W/m² 6,1 °C 17,2 °C 17,7 km/h (3 Bft)
30.03.2017 15:00 17,1 °C 17,2 °C 49 % 1024,3 hPa 0,0 mm 6,2 km/h (2 Bft) O-NO 69 ° 1 min 0,000 mm 4,0 UV-I 636 W/m² 6,3 °C 17,1 °C 11,3 km/h (2 Bft)
30.03.2017 15:01 17,1 °C 17,2 °C 49 % 1024,3 hPa 0,0 mm 7,7 km/h (2 Bft) O-SO 104 ° 1 min 0,406 mm 4,0 UV-I 638 W/m² 6,3 °C 17,1 °C 11,3 km/h (2 Bft)
30.03.2017 15:02 17,0 °C 17,1 °C 51 % 1024,3 hPa 0,0 mm 4,8 km/h (1 Bft) N 350 ° 1 min 0,000 mm 4,0 UV-I 635 W/m² 6,8 °C 17,0 °C 14,5 km/h (3 Bft)
30.03.2017 15:03 17,1 °C 17,1 °C 49 % 1024,3 hPa 0,0 mm 8,0 km/h (2 Bft) N 5 ° 1 min 0,000 mm 4,0 UV-I 642 W/m² 6,3 °C 17,1 °C 14,5 km/h (3 Bft)
30.03.2017 15:04 17,2 °C 17,2 °C 49 % 1024,2 hPa 0,0 mm 3,0 km/h (1 Bft) N 355 ° 1 min 0,000 mm 4,0 UV-I 643 W/m² 6,4 °C 17,2 °C 6,4 km/h (2 Bft)
30.03.2017 15:05 17,4 °C 17,4 °C 50 % 1024,3 hPa 0,0 mm 4,0 km/h (1 Bft) N-NO 22 ° 1 min 0,000 mm 3,9 UV-I 643 W/m² 6,9 °C 17,4 °C 6,4 km/h (2 Bft)
30.03.2017 15:06 17,5 °C 17,5 °C 49 % 1024,2 hPa 0,0 mm 4,7 km/h (1 Bft) NO 48 ° 1 min 0,000 mm 3,9 UV-I 645 W/m² 6,7 °C 17,5 °C 8,0 km/h (2 Bft)
30.03.2017 15:07 17,6 °C 17,6 °C 48 % 1024,2 hPa 0,0 mm 5,8 km/h (2 Bft) NO 52 ° 1 min 0,000 mm 3,8 UV-I 643 W/m² 6,5 °C 17,6 °C 9,7 km/h (2 Bft)
30.03.2017 15:08 17,6 °C 17,6 °C 48 % 1024,2 hPa 0,0 mm 6,2 km/h (2 Bft) N-NO 31 ° 1 min 0,000 mm 3,8 UV-I 642 W/m² 6,5 °C 17,6 °C 14,5 km/h (3 Bft)
30.03.2017 15:09 17,6 °C 17,6 °C 49 % 1024,2 hPa 0,0 mm 7,1 km/h (2 Bft) N 360 ° 1 min 0,000 mm 3,7 UV-I 638 W/m² 6,8 °C 17,6 °C 11,3 km/h (2 Bft)
30.03.2017 15:10 17,6 °C 17,6 °C 47 % 1024,2 hPa 0,0 mm 6,7 km/h (2 Bft) N 355 ° 1 min 0,000 mm 3,6 UV-I 638 W/m² 6,2 °C 17,6 °C 8,0 km/h (2 Bft)
30.03.2017 15:11 17,6 °C 17,6 °C 50 % 1024,2 hPa 0,0 mm 5,4 km/h (1 Bft) N-NO 26 ° 1 min 0,000 mm 3,6 UV-I 636 W/m² 7,1 °C 17,6 °C 11,3 km/h (2 Bft)
30.03.2017 15:12 17,7 °C 17,7 °C 50 % 1024,2 hPa 0,0 mm 6,2 km/h (2 Bft) O-SO 113 ° 1 min 0,000 mm 3,6 UV-I 636 W/m² 7,1 °C 17,7 °C 9,7 km/h (2 Bft)
30.03.2017 15:13 17,7 °C 17,7 °C 48 % 1024,2 hPa 0,0 mm 3,7 km/h (1 Bft) O-NO 57 ° 1 min 0,000 mm 3,6 UV-I 635 W/m² 6,6 °C 17,7 °C 4,8 km/h (1 Bft)
30.03.2017 15:14 17,7 °C 17,7 °C 50 % 1024,2 hPa 0,0 mm 4,7 km/h (1 Bft) N-NO 24 ° 1 min 0,000 mm 3,5 UV-I 631 W/m² 7,1 °C 17,7 °C 8,0 km/h (2 Bft)
30.03.2017 15:15 17,8 °C 17,8 °C 48 % 1024,2 hPa 0,0 mm 4,2 km/h (1 Bft) O-NO 65 ° 1 min 0,000 mm 3,5 UV-I 628 W/m² 6,6 °C 17,8 °C 4,8 km/h (1 Bft)
30.03.2017 15:16 17,8 °C 17,8 °C 48 % 1024,1 hPa 0,0 mm 3,5 km/h (1 Bft) N 5 ° 1 min 0,000 mm 3,5 UV-I 624 W/m² 6,6 °C 17,8 °C 6,4 km/h (2 Bft)
30.03.2017 15:17 17,8 °C 17,8 °C 47 % 1024,1 hPa 0,0 mm 5,7 km/h (1 Bft) N-NW 344 ° 1 min 0,000 mm 3,5 UV-I 624 W/m² 6,3 °C 17,8 °C 11,3 km/h (2 Bft)
30.03.2017 15:18 17,8 °C 17,8 °C 47 % 1024,1 hPa 0,0 mm 8,6 km/h (2 Bft) N 5 ° 1 min 0,000 mm 3,5 UV-I 624 W/m² 6,3 °C 17,8 °C 12,9 km/h (3 Bft)
30.03.2017 15:19 17,8 °C 17,8 °C 47 % 1024,2 hPa 0,0 mm 10,6 km/h (2 Bft) N-NO 13 ° 1 min 0,000 mm 3,5 UV-I 622 W/m² 6,3 °C 17,8 °C 16,1 km/h (3 Bft)
30.03.2017 15:20 17,8 °C 17,8 °C 47 % 1024,1 hPa 0,0 mm 6,8 km/h (2 Bft) N-NW 327 ° 1 min 0,000 mm 3,5 UV-I 621 W/m² 6,3 °C 17,8 °C 9,7 km/h (2 Bft)
30.03.2017 15:21 17,9 °C 17,9 °C 47 % 1024,2 hPa 0,0 mm 5,0 km/h (1 Bft) N 5 ° 1 min 0,000 mm 3,4 UV-I 617 W/m² 6,4 °C 17,9 °C 8,0 km/h (2 Bft)
30.03.2017 15:22 17,9 °C 17,9 °C 49 % 1024,1 hPa 0,0 mm 6,0 km/h (2 Bft) N-NO 28 ° 1 min 0,000 mm 3,4 UV-I 599 W/m² 7,0 °C 17,9 °C 8,0 km/h (2 Bft)
30.03.2017 15:23 17,9 °C 17,9 °C 47 % 1024,0 hPa 0,0 mm 5,8 km/h (2 Bft) O-NO 71 ° 1 min 0,000 mm 3,4 UV-I 615 W/m² 6,4 °C 17,9 °C 8,0 km/h (2 Bft)
30.03.2017 15:24 17,6 °C 17,9 °C 45 % 1024,0 hPa 0,0 mm 3,9 km/h (1 Bft) N 360 ° 1 min 0,000 mm 3,4 UV-I 615 W/m² 5,5 °C 17,6 °C 6,4 km/h (2 Bft)
30.03.2017 15:25 17,6 °C 17,6 °C 47 % 1024,1 hPa 0,0 mm 5,6 km/h (1 Bft) N 360 ° 1 min 0,000 mm 3,4 UV-I 612 W/m² 6,2 °C 17,6 °C 12,9 km/h (3 Bft)
30.03.2017 15:26 17,5 °C 17,6 °C 47 % 1024,0 hPa 0,0 mm 3,3 km/h (1 Bft) N 355 ° 1 min 0,000 mm 3,4 UV-I 610 W/m² 6,1 °C 17,5 °C 4,8 km/h (1 Bft)
30.03.2017 15:27 17,5 °C 17,5 °C 48 % 1024,0 hPa 0,0 mm 4,9 km/h (1 Bft) N-NW 345 ° 1 min 0,000 mm 3,4 UV-I 610 W/m² 6,4 °C 17,5 °C 8,0 km/h (2 Bft)
30.03.2017 15:28 17,7 °C 17,7 °C 50 % 1024,0 hPa 0,0 mm 6,3 km/h (2 Bft) O-NO 65 ° 1 min 0,000 mm 3,4 UV-I 606 W/m² 7,1 °C 17,7 °C 9,7 km/h (2 Bft)
30.03.2017 15:29 17,8 °C 17,8 °C 48 % 1024,0 hPa 0,0 mm 6,4 km/h (2 Bft) O 88 ° 1 min 0,000 mm 3,4 UV-I 606 W/m² 6,6 °C 17,8 °C 12,9 km/h (3 Bft)
30.03.2017 15:30 17,7 °C 17,8 °C 47 % 1024,0 hPa 0,0 mm 8,2 km/h (2 Bft) O-NO 69 ° 1 min 0,000 mm 3,3 UV-I 601 W/m² 6,2 °C 17,7 °C 12,9 km/h (3 Bft)
30.03.2017 15:31 17,7 °C 17,7 °C 48 % 1023,9 hPa 0,0 mm 3,8 km/h (1 Bft) NO 51 ° 1 min 0,000 mm 3,3 UV-I 599 W/m² 6,6 °C 17,7 °C 8,0 km/h (2 Bft)
30.03.2017 15:32 17,6 °C 17,7 °C 47 % 1024,0 hPa 0,0 mm 10,5 km/h (2 Bft) NO 40 ° 1 min 0,000 mm 3,3 UV-I 599 W/m² 6,2 °C 17,6 °C 16,1 km/h (3 Bft)
30.03.2017 15:33 17,6 °C 17,6 °C 48 % 1023,9 hPa 0,0 mm 7,5 km/h (2 Bft) O 87 ° 1 min 0,000 mm 3,3 UV-I 599 W/m² 6,5 °C 17,6 °C 9,7 km/h (2 Bft)
30.03.2017 15:34 17,6 °C 17,6 °C 49 % 1023,9 hPa 0,0 mm 6,6 km/h (2 Bft) O-NO 78 ° 1 min 0,000 mm 3,3 UV-I 598 W/m² 6,8 °C 17,6 °C 11,3 km/h (2 Bft)
30.03.2017 15:35 17,6 °C 17,6 °C 49 % 1023,9 hPa 0,0 mm 7,1 km/h (2 Bft) NO 55 ° 1 min 0,000 mm 3,3 UV-I 598 W/m² 6,8 °C 17,6 °C 12,9 km/h (3 Bft)
30.03.2017 15:36 17,6 °C 17,6 °C 49 % 1023,9 hPa 0,0 mm 7,7 km/h (2 Bft) O 82 ° 1 min 0,000 mm 3,3 UV-I 594 W/m² 6,8 °C 17,6 °C 12,9 km/h (3 Bft)
30.03.2017 15:37 17,4 °C 17,6 °C 47 % 1023,8 hPa 0,0 mm 3,4 km/h (1 Bft) N-NO 13 ° 1 min 0,000 mm 3,4 UV-I 587 W/m² 6,0 °C 17,4 °C 4,8 km/h (1 Bft)
30.03.2017 15:38 17,4 °C 17,4 °C 48 % 1023,8 hPa 0,0 mm 5,8 km/h (2 Bft) N-NW 348 ° 1 min 0,000 mm 3,4 UV-I 582 W/m² 6,3 °C 17,4 °C 8,0 km/h (2 Bft)
30.03.2017 15:39 17,4 °C 17,4 °C 47 % 1023,8 hPa 0,0 mm 2,6 km/h (1 Bft) N 5 ° 1 min 0,000 mm 3,4 UV-I 584 W/m² 6,0 °C 17,4 °C 8,0 km/h (2 Bft)
30.03.2017 15:40 17,5 °C 17,5 °C 50 % 1023,8 hPa 0,0 mm 6,8 km/h (2 Bft) N 5 ° 1 min 0,000 mm 3,4 UV-I 578 W/m² 7,0 °C 17,5 °C 11,3 km/h (2 Bft)
30.03.2017 15:41 17,6 °C 17,6 °C 50 % 1023,8 hPa 0,0 mm 7,8 km/h (2 Bft) N-NO 12 ° 1 min 0,000 mm 3,4 UV-I 578 W/m² 7,1 °C 17,6 °C 12,9 km/h (3 Bft)
30.03.2017 15:42 17,7 °C 17,7 °C 47 % 1023,8 hPa 0,0 mm 7,2 km/h (2 Bft) N 360 ° 1 min 0,000 mm 3,4 UV-I 578 W/m² 6,2 °C 17,7 °C 12,9 km/h (3 Bft)
30.03.2017 15:43 17,7 °C 17,7 °C 46 % 1023,8 hPa 0,0 mm 5,6 km/h (1 Bft) N 351 ° 1 min 0,000 mm 3,4 UV-I 571 W/m² 5,9 °C 17,7 °C 8,0 km/h (2 Bft)
30.03.2017 15:44 17,8 °C 17,8 °C 47 % 1023,8 hPa 0,0 mm 6,7 km/h (2 Bft) NO 51 ° 1 min 0,000 mm 3,4 UV-I 571 W/m² 6,3 °C 17,8 °C 11,3 km/h (2 Bft)
30.03.2017 15:45 17,9 °C 17,9 °C 47 % 1023,8 hPa 0,0 mm 12,0 km/h (2 Bft) O 100 ° 1 min 0,000 mm 3,4 UV-I 571 W/m² 6,4 °C 17,9 °C 16,1 km/h (3 Bft)
30.03.2017 15:46 17,8 °C 17,9 °C 48 % 1023,8 hPa 0,0 mm 7,7 km/h (2 Bft) O-NO 72 ° 1 min 0,000 mm 3,3 UV-I 571 W/m² 6,6 °C 17,8 °C 11,3 km/h (2 Bft)
30.03.2017 15:47 17,7 °C 17,8 °C 47 % 1023,8 hPa 0,0 mm 4,6 km/h (1 Bft) N-NO 28 ° 1 min 0,000 mm 3,3 UV-I 564 W/m² 6,2 °C 17,7 °C 6,4 km/h (2 Bft)
30.03.2017 15:48 17,7 °C 17,7 °C 47 % 1023,7 hPa 0,0 mm 5,1 km/h (1 Bft) N 355 ° 1 min 0,000 mm 3,3 UV-I 561 W/m² 6,2 °C 17,7 °C 6,4 km/h (2 Bft)
30.03.2017 15:49 17,7 °C 17,7 °C 47 % 1023,7 hPa 0,0 mm 4,8 km/h (1 Bft) NO 34 ° 1 min 0,000 mm 3,2 UV-I 552 W/m² 6,2 °C 17,7 °C 6,4 km/h (2 Bft)
30.03.2017 15:50 17,7 °C 17,7 °C 46 % 1023,7 hPa 0,0 mm 4,2 km/h (1 Bft) N-NO 15 ° 1 min 0,000 mm 3,2 UV-I 552 W/m² 5,9 °C 17,7 °C 6,4 km/h (2 Bft)
30.03.2017 15:51 17,7 °C 17,7 °C 46 % 1023,7 hPa 0,0 mm 3,7 km/h (1 Bft) N-NW 341 ° 1 min 0,000 mm 3,2 UV-I 548 W/m² 5,9 °C 17,7 °C 4,8 km/h (1 Bft)
30.03.2017 15:52 17,7 °C 17,7 °C 47 % 1023,7 hPa 0,0 mm 4,0 km/h (1 Bft) NO 36 ° 1 min 0,000 mm 3,2 UV-I 550 W/m² 6,2 °C 17,7 °C 4,8 km/h (1 Bft)
30.03.2017 15:53 17,7 °C 17,7 °C 47 % 1023,7 hPa 0,0 mm 1,0 km/h (0 Bft) NO 36 ° 1 min 0,000 mm 3,2 UV-I 548 W/m² 6,2 °C 17,7 °C 3,2 km/h (1 Bft)
30.03.2017 15:54 17,8 °C 17,8 °C 46 % 1023,7 hPa 0,0 mm 0,7 km/h (0 Bft) NO 36 ° 1 min 0,000 mm 3,2 UV-I 550 W/m² 6,0 °C 17,8 °C 3,2 km/h (1 Bft)
30.03.2017 15:55 17,9 °C 17,9 °C 48 % 1023,7 hPa 0,0 mm 5,4 km/h (1 Bft) N-NO 32 ° 1 min 0,000 mm 3,2 UV-I 550 W/m² 6,7 °C 17,9 °C 8,0 km/h (2 Bft)
30.03.2017 15:56 17,9 °C 17,9 °C 47 % 1023,7 hPa 0,0 mm 7,2 km/h (2 Bft) N 360 ° 1 min 0,000 mm 3,2 UV-I 547 W/m² 6,4 °C 17,9 °C 9,7 km/h (2 Bft)
30.03.2017 15:57 18,0 °C 18,0 °C 46 % 1023,7 hPa 0,0 mm 8,8 km/h (2 Bft) O-NO 65 ° 1 min 0,000 mm 3,2 UV-I 547 W/m² 6,2 °C 18,0 °C 14,5 km/h (3 Bft)
30.03.2017 15:58 17,9 °C 18,0 °C 46 % 1023,7 hPa 0,0 mm 11,9 km/h (2 Bft) O-NO 68 ° 1 min 0,000 mm 3,1 UV-I 543 W/m² 6,1 °C 17,9 °C 16,1 km/h (3 Bft)
30.03.2017 15:59 17,8 °C 17,9 °C 45 % 1023,7 hPa 0,0 mm 6,7 km/h (2 Bft) NO 44 ° 1 min 0,000 mm 3,1 UV-I 543 W/m² 5,7 °C 17,8 °C 11,3 km/h (2 Bft)
30.03.2017 16:00 17,7 °C 17,8 °C 46 % 1023,7 hPa 0,0 mm 7,0 km/h (2 Bft) O-NO 72 ° 1 min 0,381 mm 3,1 UV-I 536 W/m² 5,9 °C 17,7 °C 11,3 km/h (2 Bft)
30.03.2017 16:01 17,7 °C 17,7 °C 47 % 1023,7 hPa 0,0 mm 6,6 km/h (2 Bft) N-NO 32 ° 1 min 0,000 mm 3,1 UV-I 533 W/m² 6,2 °C 17,7 °C 9,7 km/h (2 Bft)
30.03.2017 16:02 17,7 °C 17,7 °C 46 % 1023,7 hPa 0,0 mm 5,8 km/h (2 Bft) N-NO 30 ° 1 min 0,000 mm 3,0 UV-I 533 W/m² 5,9 °C 17,7 °C 8,0 km/h (2 Bft)
30.03.2017 16:03 17,7 °C 17,7 °C 46 % 1023,7 hPa 0,0 mm 5,4 km/h (1 Bft) N-NO 29 ° 1 min 0,000 mm 3,0 UV-I 531 W/m² 5,9 °C 17,7 °C 6,4 km/h (2 Bft)
30.03.2017 16:04 17,8 °C 17,8 °C 47 % 1023,7 hPa 0,0 mm 5,1 km/h (1 Bft) N-NO 19 ° 1 min 0,000 mm 3,0 UV-I 527 W/m² 6,3 °C 17,8 °C 8,0 km/h (2 Bft)
30.03.2017 16:05 17,9 °C 17,9 °C 47 % 1023,7 hPa 0,0 mm 5,2 km/h (1 Bft) N-NO 27 ° 1 min 0,000 mm 3,0 UV-I 526 W/m² 6,4 °C 17,9 °C 6,4 km/h (2 Bft)
30.03.2017 16:06 18,0 °C 18,0 °C 47 % 1023,7 hPa 0,0 mm 6,5 km/h (2 Bft) O-NO 66 ° 1 min 0,000 mm 3,0 UV-I 520 W/m² 6,5 °C 18,0 °C 9,7 km/h (2 Bft)
30.03.2017 16:07 18,1 °C 18,1 °C 47 % 1023,7 hPa 0,0 mm 6,6 km/h (2 Bft) O-NO 58 ° 1 min 0,000 mm 2,9 UV-I 519 W/m² 6,6 °C 18,1 °C 11,3 km/h (2 Bft)
30.03.2017 16:08 17,9 °C 18,1 °C 46 % 1023,7 hPa 0,0 mm 6,8 km/h (2 Bft) N-NO 20 ° 1 min 0,000 mm 2,9 UV-I 517 W/m² 6,1 °C 17,9 °C 9,7 km/h (2 Bft)
30.03.2017 16:09 17,9 °C 17,9 °C 47 % 1023,7 hPa 0,0 mm 4,2 km/h (1 Bft) NO 37 ° 1 min 0,000 mm 2,9 UV-I 515 W/m² 6,4 °C 17,9 °C 6,4 km/h (2 Bft)
30.03.2017 16:10 17,9 °C 17,9 °C 47 % 1023,7 hPa 0,0 mm 3,9 km/h (1 Bft) O-NO 61 ° 1 min 0,000 mm 2,9 UV-I 513 W/m² 6,4 °C 17,9 °C 6,4 km/h (2 Bft)
30.03.2017 16:11 17,9 °C 17,9 °C 46 % 1023,7 hPa 0,0 mm 9,7 km/h (2 Bft) N 11 ° 1 min 0,000 mm 2,9 UV-I 512 W/m² 6,1 °C 17,9 °C 12,9 km/h (3 Bft)
30.03.2017 16:12 17,8 °C 17,9 °C 46 % 1023,7 hPa 0,0 mm 5,9 km/h (2 Bft) N 5 ° 1 min 0,000 mm 2,9 UV-I 510 W/m² 6,0 °C 17,8 °C 8,0 km/h (2 Bft)
30.03.2017 16:13 17,8 °C 17,8 °C 47 % 1023,7 hPa 0,0 mm 7,1 km/h (2 Bft) N-NO 28 ° 1 min 0,000 mm 2,9 UV-I 510 W/m² 6,3 °C 17,8 °C 14,5 km/h (3 Bft)
30.03.2017 16:14 17,7 °C 17,8 °C 46 % 1023,6 hPa 0,0 mm 6,4 km/h (2 Bft) N 9 ° 1 min 0,000 mm 2,8 UV-I 506 W/m² 5,9 °C 17,7 °C 8,0 km/h (2 Bft)
30.03.2017 16:15 17,7 °C 17,7 °C 45 % 1023,6 hPa 0,0 mm 4,3 km/h (1 Bft) N 5 ° 1 min 0,000 mm 2,8 UV-I 503 W/m² 5,6 °C 17,7 °C 6,4 km/h (2 Bft)
30.03.2017 16:16 17,7 °C 17,7 °C 46 % 1023,6 hPa 0,0 mm 2,7 km/h (1 Bft) O-NO 67 ° 1 min 0,000 mm 2,8 UV-I 501 W/m² 5,9 °C 17,7 °C 3,2 km/h (1 Bft)
30.03.2017 16:17 17,6 °C 17,7 °C 47 % 1023,6 hPa 0,0 mm 4,3 km/h (1 Bft) O-NO 74 ° 1 min 0,000 mm 2,8 UV-I 499 W/m² 6,2 °C 17,6 °C 6,4 km/h (2 Bft)
30.03.2017 16:18 17,6 °C 17,6 °C 48 % 1023,6 hPa 0,0 mm 3,8 km/h (1 Bft) O-NO 59 ° 1 min 0,000 mm 2,8 UV-I 494 W/m² 6,5 °C 17,6 °C 6,4 km/h (2 Bft)
30.03.2017 16:19 17,7 °C 17,7 °C 46 % 1023,6 hPa 0,0 mm 7,1 km/h (2 Bft) NO 46 ° 1 min 0,000 mm 2,7 UV-I 492 W/m² 5,9 °C 17,7 °C 11,3 km/h (2 Bft)
30.03.2017 16:20 17,6 °C 17,7 °C 45 % 1023,6 hPa 0,0 mm 3,4 km/h (1 Bft) O-NO 59 ° 1 min 0,000 mm 2,7 UV-I 489 W/m² 5,5 °C 17,6 °C 6,4 km/h (2 Bft)
30.03.2017 16:21 17,6 °C 17,6 °C 48 % 1023,5 hPa 0,0 mm 6,3 km/h (2 Bft) NO 46 ° 1 min 0,000 mm 2,7 UV-I 487 W/m² 6,5 °C 17,6 °C 8,0 km/h (2 Bft)
30.03.2017 16:22 17,6 °C 17,6 °C 49 % 1023,5 hPa 0,0 mm 4,8 km/h (1 Bft) N-NO 19 ° 1 min 0,000 mm 2,7 UV-I 485 W/m² 6,8 °C 17,6 °C 11,3 km/h (2 Bft)
30.03.2017 16:23 17,7 °C 17,7 °C 47 % 1023,6 hPa 0,0 mm 7,4 km/h (2 Bft) N 5 ° 1 min 0,000 mm 2,6 UV-I 485 W/m² 6,2 °C 17,7 °C 12,9 km/h (3 Bft)
30.03.2017 16:24 17,7 °C 17,7 °C 47 % 1023,6 hPa 0,0 mm 8,3 km/h (2 Bft) NO 38 ° 1 min 0,000 mm 2,6 UV-I 476 W/m² 6,2 °C 17,7 °C 11,3 km/h (2 Bft)
30.03.2017 16:25 17,8 °C 17,8 °C 47 % 1023,6 hPa 0,0 mm 5,3 km/h (1 Bft) N-NO 24 ° 1 min 0,000 mm 2,6 UV-I 475 W/m² 6,3 °C 17,8 °C 8,0 km/h (2 Bft)
30.03.2017 16:26 17,8 °C 17,8 °C 47 % 1023,5 hPa 0,0 mm 4,3 km/h (1 Bft) O-NO 77 ° 1 min 0,000 mm 2,6 UV-I 473 W/m² 6,3 °C 17,8 °C 6,4 km/h (2 Bft)
30.03.2017 16:27 17,8 °C 17,8 °C 46 % 1023,5 hPa 0,0 mm 7,5 km/h (2 Bft) N-NO 28 ° 1 min 0,000 mm 2,5 UV-I 471 W/m² 6,0 °C 17,8 °C 11,3 km/h (2 Bft)
30.03.2017 16:28 17,8 °C 17,8 °C 46 % 1023,5 hPa 0,0 mm 9,0 km/h (2 Bft) NO 54 ° 1 min 0,000 mm 2,5 UV-I 469 W/m² 6,0 °C 17,8 °C 14,5 km/h (3 Bft)
30.03.2017 16:29 17,8 °C 17,8 °C 46 % 1023,5 hPa 0,0 mm 8,1 km/h (2 Bft) NO 46 ° 1 min 0,000 mm 2,5 UV-I 466 W/m² 6,0 °C 17,8 °C 14,5 km/h (3 Bft)
30.03.2017 16:30 17,7 °C 17,8 °C 47 % 1023,4 hPa 0,0 mm 7,4 km/h (2 Bft) N-NO 25 ° 1 min 0,000 mm 2,5 UV-I 464 W/m² 6,2 °C 17,7 °C 12,9 km/h (3 Bft)
30.03.2017 16:31 17,7 °C 17,8 °C 47 % 1023,5 hPa 0,0 mm 5,8 km/h (2 Bft) NO 53 ° 1 min 0,000 mm 2,5 UV-I 461 W/m² 6,2 °C 17,7 °C 9,7 km/h (2 Bft)
30.03.2017 16:32 17,7 °C 17,8 °C 46 % 1023,4 hPa 0,0 mm 7,7 km/h (2 Bft) O-NO 75 ° 1 min 0,000 mm 2,4 UV-I 459 W/m² 5,9 °C 17,7 °C 9,7 km/h (2 Bft)
30.03.2017 16:33 17,6 °C 17,7 °C 47 % 1023,4 hPa 0,0 mm 6,9 km/h (2 Bft) O-NO 57 ° 1 min 0,000 mm 2,4 UV-I 454 W/m² 6,2 °C 17,6 °C 8,0 km/h (2 Bft)
30.03.2017 16:34 17,6 °C 17,7 °C 45 % 1023,4 hPa 0,0 mm 5,7 km/h (1 Bft) NO 42 ° 1 min 0,000 mm 2,4 UV-I 452 W/m² 5,5 °C 17,6 °C 8,0 km/h (2 Bft)
30.03.2017 16:35 17,6 °C 17,6 °C 46 % 1023,4 hPa 0,0 mm 6,4 km/h (2 Bft) NO 49 ° 1 min 0,000 mm 2,3 UV-I 425 W/m² 5,8 °C 17,6 °C 12,9 km/h (3 Bft)
30.03.2017 16:36 17,6 °C 17,6 °C 46 % 1023,4 hPa 0,0 mm 6,6 km/h (2 Bft) O-NO 70 ° 1 min 0,000 mm 2,2 UV-I 404 W/m² 5,8 °C 17,6 °C 9,7 km/h (2 Bft)
30.03.2017 16:37 17,6 °C 17,6 °C 46 % 1023,4 hPa 0,0 mm 5,8 km/h (2 Bft) O 81 ° 1 min 0,000 mm 2,2 UV-I 411 W/m² 5,8 °C 17,6 °C 8,0 km/h (2 Bft)
30.03.2017 16:38 17,5 °C 17,6 °C 46 % 1023,4 hPa 0,0 mm 6,0 km/h (2 Bft) O 81 ° 1 min 0,000 mm 2,2 UV-I 401 W/m² 5,8 °C 17,5 °C 8,0 km/h (2 Bft)
30.03.2017 16:39 17,4 °C 17,5 °C 47 % 1023,4 hPa 0,0 mm 3,4 km/h (1 Bft) NO 50 ° 1 min 0,000 mm 2,2 UV-I 404 W/m² 6,0 °C 17,4 °C 11,3 km/h (2 Bft)
30.03.2017 16:40 17,5 °C 17,5 °C 46 % 1023,4 hPa 0,0 mm 8,9 km/h (2 Bft) N-NO 13 ° 1 min 0,000 mm 2,2 UV-I 387 W/m² 5,8 °C 17,5 °C 14,5 km/h (3 Bft)
30.03.2017 16:41 17,6 °C 17,6 °C 48 % 1023,4 hPa 0,0 mm 7,2 km/h (2 Bft) N-NO 15 ° 1 min 0,000 mm 2,2 UV-I 401 W/m² 6,5 °C 17,6 °C 11,3 km/h (2 Bft)
30.03.2017 16:42 17,6 °C 17,6 °C 46 % 1023,3 hPa 0,0 mm 7,4 km/h (2 Bft) O-NO 71 ° 1 min 0,000 mm 2,1 UV-I 343 W/m² 5,8 °C 17,6 °C 9,7 km/h (2 Bft)
30.03.2017 16:43 17,6 °C 17,6 °C 46 % 1023,4 hPa 0,0 mm 2,8 km/h (1 Bft) NO 55 ° 1 min 0,000 mm 2,0 UV-I 322 W/m² 5,8 °C 17,6 °C 4,8 km/h (1 Bft)
30.03.2017 16:44 17,6 °C 17,6 °C 47 % 1023,4 hPa 0,0 mm 7,9 km/h (2 Bft) N-NO 21 ° 1 min 0,000 mm 2,0 UV-I 316 W/m² 6,2 °C 17,6 °C 12,9 km/h (3 Bft)
30.03.2017 16:45 17,6 °C 17,6 °C 46 % 1023,4 hPa 0,0 mm 5,3 km/h (1 Bft) N-NO 19 ° 1 min 0,000 mm 1,9 UV-I 332 W/m² 5,8 °C 17,6 °C 8,0 km/h (2 Bft)
30.03.2017 16:46 17,7 °C 17,7 °C 47 % 1023,3 hPa 0,0 mm 5,7 km/h (1 Bft) N 360 ° 1 min 0,000 mm 1,9 UV-I 366 W/m² 6,2 °C 17,7 °C 8,0 km/h (2 Bft)
30.03.2017 16:47 17,8 °C 17,8 °C 47 % 1023,3 hPa 0,0 mm 4,9 km/h (1 Bft) O-NO 76 ° 0 min 0,000 mm 2,0 UV-I 255 W/m² 6,3 °C 17,8 °C 8,0 km/h (2 Bft)
30.03.2017 16:48 17,8 °C 17,8 °C 46 % 1023,4 hPa 0,0 mm 8,7 km/h (2 Bft) NO 44 ° 0 min 0,000 mm 1,9 UV-I 229 W/m² 6,0 °C 17,8 °C 14,5 km/h (3 Bft)
30.03.2017 16:49 17,8 °C 17,8 °C 46 % 1023,3 hPa 0,0 mm 7,8 km/h (2 Bft) O 82 ° 0 min 0,000 mm 1,8 UV-I 179 W/m² 6,0 °C 17,8 °C 11,3 km/h (2 Bft)
30.03.2017 16:50 17,7 °C 17,8 °C 46 % 1023,3 hPa 0,0 mm 7,9 km/h (2 Bft) N-NO 23 ° 0 min 0,000 mm 1,7 UV-I 171 W/m² 5,9 °C 17,7 °C 14,5 km/h (3 Bft)
30.03.2017 16:51 17,7 °C 17,7 °C 46 % 1023,4 hPa 0,0 mm 8,4 km/h (2 Bft) NO 56 ° 0 min 0,000 mm 1,6 UV-I 167 W/m² 5,9 °C 17,7 °C 12,9 km/h (3 Bft)
30.03.2017 16:52 17,7 °C 17,7 °C 46 % 1023,3 hPa 0,0 mm 3,8 km/h (1 Bft) N-NO 19 ° 0 min 0,000 mm 1,6 UV-I 207 W/m² 5,9 °C 17,7 °C 8,0 km/h (2 Bft)
30.03.2017 16:53 17,6 °C 17,7 °C 46 % 1023,3 hPa 0,0 mm 5,8 km/h (2 Bft) O-SO 103 ° 0 min 0,000 mm 1,7 UV-I 220 W/m² 5,8 °C 17,6 °C 9,7 km/h (2 Bft)
30.03.2017 16:54 17,6 °C 17,6 °C 46 % 1023,3 hPa 0,0 mm 6,9 km/h (2 Bft) N-NO 20 ° 0 min 0,000 mm 1,7 UV-I 243 W/m² 5,8 °C 17,6 °C 11,3 km/h (2 Bft)
30.03.2017 16:55 17,7 °C 17,7 °C 46 % 1023,4 hPa 0,0 mm 7,8 km/h (2 Bft) O 84 ° 0 min 0,000 mm 1,7 UV-I 234 W/m² 5,9 °C 17,7 °C 12,9 km/h (3 Bft)
30.03.2017 16:56 17,6 °C 17,7 °C 46 % 1023,3 hPa 0,0 mm 6,4 km/h (2 Bft) O-NO 72 ° 0 min 0,000 mm 1,6 UV-I 186 W/m² 5,8 °C 17,6 °C 12,9 km/h (3 Bft)
30.03.2017 16:57 17,6 °C 17,6 °C 47 % 1023,3 hPa 0,0 mm 4,2 km/h (1 Bft) N 350 ° 0 min 0,000 mm 1,5 UV-I 169 W/m² 6,2 °C 17,6 °C 4,8 km/h (1 Bft)
30.03.2017 16:58 17,6 °C 17,6 °C 46 % 1023,3 hPa 0,0 mm 6,6 km/h (2 Bft) N 360 ° 0 min 0,000 mm 1,6 UV-I 204 W/m² 5,8 °C 17,6 °C 8,0 km/h (2 Bft)
30.03.2017 16:59 17,7 °C 17,7 °C 47 % 1023,3 hPa 0,0 mm 5,1 km/h (1 Bft) O-NO 68 ° 0 min 0,000 mm 1,6 UV-I 128 W/m² 6,2 °C 17,7 °C 12,9 km/h (3 Bft)
30.03.2017 17:00 17,7 °C 17,7 °C 46 % 1023,3 hPa 0,0 mm 8,7 km/h (2 Bft) O-NO 57 ° 0 min 0,000 mm 1,3 UV-I 116 W/m² 5,9 °C 17,7 °C 16,1 km/h (3 Bft)
30.03.2017 17:01 17,7 °C 17,7 °C 47 % 1023,3 hPa 0,0 mm 4,2 km/h (1 Bft) O-NO 78 ° 0 min 0,279 mm 1,3 UV-I 97 W/m² 6,2 °C 17,7 °C 6,4 km/h (2 Bft)
30.03.2017 17:02 17,6 °C 17,7 °C 46 % 1023,2 hPa 0,0 mm 5,6 km/h (1 Bft) NO 53 ° 0 min 0,000 mm 1,3 UV-I 169 W/m² 5,8 °C 17,6 °C 9,7 km/h (2 Bft)
30.03.2017 17:03 17,6 °C 17,6 °C 46 % 1023,2 hPa 0,0 mm 5,8 km/h (2 Bft) N-NO 26 ° 0 min 0,000 mm 1,5 UV-I 234 W/m² 5,8 °C 17,6 °C 9,7 km/h (2 Bft)
30.03.2017 17:04 17,6 °C 17,6 °C 46 % 1023,2 hPa 0,0 mm 4,7 km/h (1 Bft) NO 42 ° 0 min 0,000 mm 1,5 UV-I 276 W/m² 5,8 °C 17,6 °C 8,0 km/h (2 Bft)
30.03.2017 17:05 17,6 °C 17,6 °C 46 % 1023,2 hPa 0,0 mm 5,9 km/h (2 Bft) O-NO 74 ° 0 min 0,000 mm 1,5 UV-I 193 W/m² 5,8 °C 17,6 °C 8,0 km/h (2 Bft)
30.03.2017 17:06 17,6 °C 17,6 °C 47 % 1023,1 hPa 0,0 mm 5,1 km/h (1 Bft) N 5 ° 0 min 0,000 mm 1,3 UV-I 121 W/m² 6,2 °C 17,6 °C 9,7 km/h (2 Bft)
30.03.2017 17:07 17,6 °C 17,6 °C 48 % 1023,2 hPa 0,0 mm 5,7 km/h (1 Bft) NO 37 ° 0 min 0,000 mm 1,3 UV-I 90 W/m² 6,5 °C 17,6 °C 8,0 km/h (2 Bft)
30.03.2017 17:08 17,6 °C 17,6 °C 47 % 1023,2 hPa 0,0 mm 5,2 km/h (1 Bft) O 90 ° 0 min 0,000 mm 1,3 UV-I 111 W/m² 6,2 °C 17,6 °C 9,7 km/h (2 Bft)
30.03.2017 17:09 17,6 °C 17,6 °C 46 % 1023,2 hPa 0,0 mm 6,4 km/h (2 Bft) O-NO 71 ° 0 min 0,000 mm 1,4 UV-I 148 W/m² 5,8 °C 17,6 °C 11,3 km/h (2 Bft)
30.03.2017 17:10 17,5 °C 17,6 °C 46 % 1023,2 hPa 0,0 mm 4,7 km/h (1 Bft) N 10 ° 0 min 0,000 mm 1,3 UV-I 141 W/m² 5,8 °C 17,5 °C 9,7 km/h (2 Bft)
30.03.2017 17:11 17,6 °C 17,6 °C 46 % 1023,2 hPa 0,0 mm 8,3 km/h (2 Bft) N 360 ° 0 min 0,000 mm 1,3 UV-I 178 W/m² 5,8 °C 17,6 °C 12,9 km/h (3 Bft)
30.03.2017 17:12 17,6 °C 17,6 °C 47 % 1023,2 hPa 0,0 mm 6,8 km/h (2 Bft) NO 43 ° 0 min 0,000 mm 1,3 UV-I 148 W/m² 6,2 °C 17,6 °C 14,5 km/h (3 Bft)
30.03.2017 17:13 17,6 °C 17,6 °C 47 % 1023,2 hPa 0,0 mm 5,0 km/h (1 Bft) N-NO 19 ° 0 min 0,000 mm 1,2 UV-I 88 W/m² 6,2 °C 17,6 °C 8,0 km/h (2 Bft)
30.03.2017 17:14 17,6 °C 17,6 °C 46 % 1023,2 hPa 0,0 mm 5,4 km/h (1 Bft) N-NO 33 ° 0 min 0,000 mm 1,3 UV-I 109 W/m² 5,8 °C 17,6 °C 6,4 km/h (2 Bft)
30.03.2017 17:15 17,6 °C 17,6 °C 46 % 1023,1 hPa 0,0 mm 4,2 km/h (1 Bft) O-NO 69 ° 0 min 0,000 mm 1,3 UV-I 135 W/m² 5,8 °C 17,6 °C 8,0 km/h (2 Bft)
30.03.2017 17:16 17,6 °C 17,6 °C 48 % 1023,1 hPa 0,0 mm 5,9 km/h (2 Bft) O-NO 66 ° 0 min 0,000 mm 1,3 UV-I 153 W/m² 6,5 °C 17,6 °C 8,0 km/h (2 Bft)
30.03.2017 17:17 17,6 °C 17,6 °C 46 % 1023,1 hPa 0,0 mm 2,9 km/h (1 Bft) O-NO 59 ° 0 min 0,000 mm 1,3 UV-I 171 W/m² 5,8 °C 17,6 °C 6,4 km/h (2 Bft)
30.03.2017 17:18 17,5 °C 17,6 °C 46 % 1023,0 hPa 0,0 mm 5,7 km/h (1 Bft) O-NO 59 ° 0 min 0,000 mm 1,3 UV-I 158 W/m² 5,8 °C 17,5 °C 9,7 km/h (2 Bft)
30.03.2017 17:19 17,5 °C 17,5 °C 47 % 1023,0 hPa 0,0 mm 7,5 km/h (2 Bft) O-SO 107 ° 0 min 0,000 mm 1,2 UV-I 134 W/m² 6,1 °C 17,5 °C 12,9 km/h (3 Bft)
30.03.2017 17:20 17,5 °C 17,5 °C 47 % 1023,0 hPa 0,0 mm 7,0 km/h (2 Bft) O-NO 63 ° 0 min 0,000 mm 1,1 UV-I 109 W/m² 6,1 °C 17,5 °C 9,7 km/h (2 Bft)
30.03.2017 17:21 17,4 °C 17,5 °C 48 % 1023,1 hPa 0,0 mm 4,8 km/h (1 Bft) O 82 ° 0 min 0,000 mm 1,2 UV-I 171 W/m² 6,3 °C 17,4 °C 8,0 km/h (2 Bft)
30.03.2017 17:22 17,4 °C 17,4 °C 47 % 1023,0 hPa 0,0 mm 3,9 km/h (1 Bft) O-NO 65 ° 0 min 0,000 mm 1,3 UV-I 272 W/m² 6,0 °C 17,4 °C 6,4 km/h (2 Bft)
30.03.2017 17:23 17,4 °C 17,4 °C 47 % 1023,0 hPa 0,0 mm 5,9 km/h (2 Bft) O-NO 76 ° 0 min 0,000 mm 1,4 UV-I 246 W/m² 6,0 °C 17,4 °C 8,0 km/h (2 Bft)
30.03.2017 17:24 17,4 °C 17,5 °C 47 % 1023,0 hPa 0,0 mm 8,4 km/h (2 Bft) NO 42 ° 0 min 0,000 mm 1,3 UV-I 220 W/m² 6,0 °C 17,4 °C 12,9 km/h (3 Bft)
30.03.2017 17:25 17,4 °C 17,4 °C 48 % 1023,0 hPa 0,0 mm 9,5 km/h (2 Bft) NO 54 ° 0 min 0,000 mm 1,3 UV-I 200 W/m² 6,3 °C 17,4 °C 14,5 km/h (3 Bft)
30.03.2017 17:26 17,4 °C 17,4 °C 48 % 1023,0 hPa 0,0 mm 7,6 km/h (2 Bft) O 95 ° 0 min 0,000 mm 1,3 UV-I 156 W/m² 6,3 °C 17,4 °C 11,3 km/h (2 Bft)
30.03.2017 17:27 17,4 °C 17,4 °C 48 % 1023,0 hPa 0,0 mm 6,9 km/h (2 Bft) NO 44 ° 0 min 0,000 mm 1,2 UV-I 144 W/m² 6,3 °C 17,4 °C 11,3 km/h (2 Bft)
30.03.2017 17:28 17,4 °C 17,4 °C 47 % 1023,0 hPa 0,0 mm 4,4 km/h (1 Bft) N-NO 29 ° 0 min 0,000 mm 1,1 UV-I 220 W/m² 6,0 °C 17,4 °C 6,4 km/h (2 Bft)
30.03.2017 17:29 17,5 °C 17,5 °C 48 % 1023,0 hPa 0,0 mm 6,4 km/h (2 Bft) NO 45 ° 0 min 0,000 mm 1,3 UV-I 251 W/m² 6,4 °C 17,5 °C 9,7 km/h (2 Bft)
30.03.2017 17:30 17,5 °C 17,5 °C 46 % 1023,0 hPa 0,0 mm 6,1 km/h (2 Bft) O-NO 68 ° 0 min 0,000 mm 1,2 UV-I 223 W/m² 5,8 °C 17,5 °C 9,7 km/h (2 Bft)
30.03.2017 17:31 17,5 °C 17,5 °C 47 % 1023,0 hPa 0,0 mm 3,9 km/h (1 Bft) O-NO 58 ° 0 min 0,000 mm 1,2 UV-I 193 W/m² 6,1 °C 17,5 °C 4,8 km/h (1 Bft)
30.03.2017 17:32 17,4 °C 17,5 °C 47 % 1023,0 hPa 0,0 mm 5,4 km/h (1 Bft) NO 42 ° 0 min 0,000 mm 1,2 UV-I 193 W/m² 6,0 °C 17,4 °C 8,0 km/h (2 Bft)
30.03.2017 17:33 17,4 °C 17,4 °C 46 % 1023,0 hPa 0,0 mm 5,1 km/h (1 Bft) O-NO 65 ° 0 min 0,000 mm 1,2 UV-I 216 W/m² 5,7 °C 17,4 °C 6,4 km/h (2 Bft)
30.03.2017 17:34 17,4 °C 17,4 °C 47 % 1023,0 hPa 0,0 mm 6,3 km/h (2 Bft) N-NO 23 ° 0 min 0,000 mm 1,2 UV-I 218 W/m² 6,0 °C 17,4 °C 8,0 km/h (2 Bft)
30.03.2017 17:35 17,4 °C 17,4 °C 46 % 1023,0 hPa 0,0 mm 6,8 km/h (2 Bft) NO 40 ° 0 min 0,000 mm 1,2 UV-I 216 W/m² 5,7 °C 17,4 °C 9,7 km/h (2 Bft)
30.03.2017 17:36 17,4 °C 17,4 °C 47 % 1023,0 hPa 0,0 mm 6,9 km/h (2 Bft) NO 49 ° 0 min 0,000 mm 1,2 UV-I 206 W/m² 6,0 °C 17,4 °C 11,3 km/h (2 Bft)
30.03.2017 17:37 17,4 °C 17,4 °C 46 % 1023,0 hPa 0,0 mm 4,8 km/h (1 Bft) O-NO 59 ° 0 min 0,000 mm 1,2 UV-I 225 W/m² 5,7 °C 17,4 °C 8,0 km/h (2 Bft)
30.03.2017 17:38 17,4 °C 17,5 °C 47 % 1023,0 hPa 0,0 mm 7,5 km/h (2 Bft) O-NO 73 ° 0 min 0,000 mm 1,2 UV-I 234 W/m² 6,0 °C 17,4 °C 9,7 km/h (2 Bft)
30.03.2017 17:39 17,4 °C 17,4 °C 48 % 1023,0 hPa 0,0 mm 4,1 km/h (1 Bft) O-NO 77 ° 0 min 0,000 mm 1,1 UV-I 227 W/m² 6,3 °C 17,4 °C 6,4 km/h (2 Bft)
30.03.2017 17:40 17,4 °C 17,4 °C 48 % 1023,0 hPa 0,0 mm 4,3 km/h (1 Bft) O 85 ° 0 min 0,000 mm 1,1 UV-I 176 W/m² 6,3 °C 17,4 °C 8,0 km/h (2 Bft)
30.03.2017 17:41 17,4 °C 17,4 °C 47 % 1022,9 hPa 0,0 mm 7,8 km/h (2 Bft) O-NO 58 ° 0 min 0,000 mm 1,0 UV-I 156 W/m² 6,0 °C 17,4 °C 12,9 km/h (3 Bft)
30.03.2017 17:42 17,4 °C 17,4 °C 51 % 1022,9 hPa 0,0 mm 5,3 km/h (1 Bft) O-NO 76 ° 0 min 0,000 mm 1,0 UV-I 172 W/m² 7,2 °C 17,4 °C 8,0 km/h (2 Bft)
30.03.2017 17:43 17,3 °C 17,4 °C 49 % 1022,9 hPa 0,0 mm 3,7 km/h (1 Bft) O-NO 76 ° 0 min 0,000 mm 1,0 UV-I 139 W/m² 6,5 °C 17,3 °C 4,8 km/h (1 Bft)
30.03.2017 17:44 17,3 °C 17,3 °C 47 % 1022,9 hPa 0,0 mm 4,0 km/h (1 Bft) NO 56 ° 0 min 0,000 mm 0,9 UV-I 97 W/m² 5,9 °C 17,3 °C 8,0 km/h (2 Bft)
30.03.2017 17:45 17,3 °C 17,3 °C 48 % 1023,0 hPa 0,0 mm 4,0 km/h (1 Bft) N-NO 24 ° 0 min 0,000 mm 0,9 UV-I 74 W/m² 6,2 °C 17,3 °C 6,4 km/h (2 Bft)
30.03.2017 17:46 17,3 °C 17,3 °C 47 % 1023,0 hPa 0,0 mm 3,9 km/h (1 Bft) O-NO 69 ° 0 min 0,000 mm 0,9 UV-I 58 W/m² 5,9 °C 17,3 °C 4,8 km/h (1 Bft)
30.03.2017 17:47 17,4 °C 17,4 °C 47 % 1022,9 hPa 0,0 mm 3,8 km/h (1 Bft) O 84 ° 0 min 0,000 mm 0,9 UV-I 63 W/m² 6,0 °C 17,4 °C 8,0 km/h (2 Bft)
30.03.2017 17:48 17,4 °C 17,4 °C 47 % 1022,9 hPa 0,0 mm 7,5 km/h (2 Bft) N-NO 17 ° 0 min 0,000 mm 0,8 UV-I 58 W/m² 6,0 °C 17,4 °C 9,7 km/h (2 Bft)
30.03.2017 17:49 17,4 °C 17,4 °C 46 % 1022,9 hPa 0,0 mm 5,4 km/h (1 Bft) O-NO 67 ° 0 min 0,000 mm 0,0 UV-I 42 W/m² 5,7 °C 17,4 °C 6,4 km/h (2 Bft)
30.03.2017 17:50 17,4 °C 17,4 °C 46 % 1022,9 hPa 0,0 mm 5,7 km/h (1 Bft) NO 41 ° 0 min 0,000 mm 0,0 UV-I 37 W/m² 5,7 °C 17,4 °C 8,0 km/h (2 Bft)
30.03.2017 17:51 17,4 °C 17,4 °C 47 % 1022,9 hPa 0,0 mm 6,0 km/h (2 Bft) NO 42 ° 0 min 0,000 mm 0,0 UV-I 37 W/m² 6,0 °C 17,4 °C 11,3 km/h (2 Bft)
30.03.2017 17:52 17,4 °C 17,4 °C 46 % 1022,9 hPa 0,0 mm 4,4 km/h (1 Bft) O-NO 62 ° 0 min 0,000 mm 0,0 UV-I 37 W/m² 5,7 °C 17,4 °C 8,0 km/h (2 Bft)
30.03.2017 17:53 17,4 °C 17,4 °C 50 % 1022,9 hPa 0,0 mm 6,5 km/h (2 Bft) O-NO 59 ° 0 min 0,000 mm 0,0 UV-I 37 W/m² 6,9 °C 17,4 °C 9,7 km/h (2 Bft)
30.03.2017 17:54 17,4 °C 17,4 °C 46 % 1022,9 hPa 0,0 mm 6,4 km/h (2 Bft) NO 49 ° 0 min 0,000 mm 0,0 UV-I 37 W/m² 5,7 °C 17,4 °C 8,0 km/h (2 Bft)
30.03.2017 17:55 17,4 °C 17,4 °C 46 % 1022,9 hPa 0,0 mm 5,7 km/h (1 Bft) NO 42 ° 0 min 0,000 mm 0,0 UV-I 37 W/m² 5,7 °C 17,4 °C 8,0 km/h (2 Bft)
30.03.2017 17:56 17,5 °C 17,5 °C 47 % 1022,9 hPa 0,0 mm 5,2 km/h (1 Bft) O 88 ° 0 min 0,000 mm 0,0 UV-I 37 W/m² 6,1 °C 17,5 °C 8,0 km/h (2 Bft)
30.03.2017 17:57 17,4 °C 17,5 °C 48 % 1022,9 hPa 0,0 mm 6,0 km/h (2 Bft) NO 53 ° 0 min 0,000 mm 0,0 UV-I 54 W/m² 6,3 °C 17,4 °C 8,0 km/h (2 Bft)
30.03.2017 17:58 17,4 °C 17,4 °C 48 % 1022,9 hPa 0,0 mm 8,9 km/h (2 Bft) O-SO 107 ° 0 min 0,000 mm 0,8 UV-I 113 W/m² 6,3 °C 17,4 °C 12,9 km/h (3 Bft)
30.03.2017 17:59 17,3 °C 17,4 °C 48 % 1023,0 hPa 0,0 mm 6,0 km/h (2 Bft) O 101 ° 0 min 0,000 mm 0,8 UV-I 128 W/m² 6,2 °C 17,3 °C 12,9 km/h (3 Bft)
30.03.2017 18:00 17,3 °C 17,3 °C 47 % 1022,9 hPa 0,0 mm 5,7 km/h (1 Bft) N-NO 31 ° 0 min 0,000 mm 0,7 UV-I 109 W/m² 5,9 °C 17,3 °C 8,0 km/h (2 Bft)
30.03.2017 18:01 17,2 °C 17,3 °C 49 % 1022,9 hPa 0,0 mm 6,7 km/h (2 Bft) NO 50 ° 0 min 0,127 mm 0,7 UV-I 63 W/m² 6,4 °C 17,2 °C 11,3 km/h (2 Bft)
30.03.2017 18:02 17,2 °C 17,2 °C 47 % 1022,9 hPa 0,0 mm 6,8 km/h (2 Bft) NO 54 ° 0 min 0,000 mm 0,0 UV-I 37 W/m² 5,8 °C 17,2 °C 11,3 km/h (2 Bft)
30.03.2017 18:03 17,2 °C 17,2 °C 47 % 1023,0 hPa 0,0 mm 7,6 km/h (2 Bft) NO 46 ° 0 min 0,000 mm 0,0 UV-I 35 W/m² 5,8 °C 17,2 °C 11,3 km/h (2 Bft)
30.03.2017 18:04 17,1 °C 17,2 °C 47 % 1023,0 hPa 0,0 mm 7,5 km/h (2 Bft) O 83 ° 0 min 0,000 mm 0,0 UV-I 37 W/m² 5,7 °C 17,1 °C 14,5 km/h (3 Bft)
30.03.2017 18:05 17,1 °C 17,2 °C 47 % 1022,9 hPa 0,0 mm 6,0 km/h (2 Bft) NO 52 ° 0 min 0,000 mm 0,0 UV-I 51 W/m² 5,7 °C 17,1 °C 8,0 km/h (2 Bft)
30.03.2017 18:06 17,1 °C 17,2 °C 47 % 1022,9 hPa 0,0 mm 6,4 km/h (2 Bft) O-NO 57 ° 0 min 0,000 mm 0,7 UV-I 58 W/m² 5,7 °C 17,1 °C 11,3 km/h (2 Bft)
30.03.2017 18:07 17,2 °C 17,2 °C 47 % 1022,9 hPa 0,0 mm 8,6 km/h (2 Bft) NO 38 ° 0 min 0,000 mm 0,0 UV-I 53 W/m² 5,8 °C 17,2 °C 12,9 km/h (3 Bft)
30.03.2017 18:08 17,2 °C 17,2 °C 47 % 1022,9 hPa 0,0 mm 6,2 km/h (2 Bft) NO 51 ° 0 min 0,000 mm 0,7 UV-I 60 W/m² 5,8 °C 17,2 °C 11,3 km/h (2 Bft)
30.03.2017 18:09 17,2 °C 17,2 °C 47 % 1023,0 hPa 0,0 mm 4,5 km/h (1 Bft) NO 54 ° 0 min 0,000 mm 0,7 UV-I 56 W/m² 5,8 °C 17,2 °C 8,0 km/h (2 Bft)
30.03.2017 18:10 17,1 °C 17,2 °C 47 % 1022,9 hPa 0,0 mm 5,6 km/h (1 Bft) N-NO 32 ° 0 min 0,000 mm 0,0 UV-I 46 W/m² 5,7 °C 17,1 °C 8,0 km/h (2 Bft)
30.03.2017 18:11 17,2 °C 17,2 °C 46 % 1022,9 hPa 0,0 mm 5,4 km/h (1 Bft) O-NO 71 ° 0 min 0,000 mm 0,0 UV-I 49 W/m² 5,5 °C 17,2 °C 8,0 km/h (2 Bft)
30.03.2017 18:12 17,1 °C 17,2 °C 47 % 1022,9 hPa 0,0 mm 4,5 km/h (1 Bft) O-NO 57 ° 0 min 0,000 mm 0,0 UV-I 42 W/m² 5,7 °C 17,1 °C 9,7 km/h (2 Bft)
30.03.2017 18:13 17,1 °C 17,1 °C 47 % 1022,9 hPa 0,0 mm 4,2 km/h (1 Bft) O-NO 57 ° 0 min 0,000 mm 0,0 UV-I 35 W/m² 5,7 °C 17,1 °C 6,4 km/h (2 Bft)
30.03.2017 18:14 17,1 °C 17,1 °C 47 % 1022,9 hPa 0,0 mm 6,3 km/h (2 Bft) O-NO 59 ° 0 min 0,000 mm 0,0 UV-I 33 W/m² 5,7 °C 17,1 °C 12,9 km/h (3 Bft)
30.03.2017 18:15 17,0 °C 17,1 °C 46 % 1022,9 hPa 0,0 mm 6,6 km/h (2 Bft) NO 42 ° 0 min 0,000 mm 0,0 UV-I 33 W/m² 5,3 °C 17,0 °C 11,3 km/h (2 Bft)
30.03.2017 18:16 17,0 °C 17,0 °C 47 % 1022,9 hPa 0,0 mm 5,0 km/h (1 Bft) O-NO 65 ° 0 min 0,000 mm 0,0 UV-I 33 W/m² 5,6 °C 17,0 °C 8,0 km/h (2 Bft)
30.03.2017 18:17 17,1 °C 17,1 °C 47 % 1022,9 hPa 0,0 mm 7,0 km/h (2 Bft) O 81 ° 0 min 0,000 mm 0,0 UV-I 33 W/m² 5,7 °C 17,1 °C 11,3 km/h (2 Bft)
30.03.2017 18:18 17,1 °C 17,1 °C 46 % 1022,9 hPa 0,0 mm 8,0 km/h (2 Bft) O-NO 71 ° 0 min 0,000 mm 0,0 UV-I 33 W/m² 5,4 °C 17,1 °C 12,9 km/h (3 Bft)
30.03.2017 18:19 17,0 °C 17,1 °C 49 % 1022,9 hPa 0,0 mm 4,3 km/h (1 Bft) N-NO 33 ° 0 min 0,000 mm 0,0 UV-I 33 W/m² 6,2 °C 17,0 °C 6,4 km/h (2 Bft)
30.03.2017 18:20 16,9 °C 17,0 °C 47 % 1022,9 hPa 0,0 mm 7,4 km/h (2 Bft) O-NO 63 ° 0 min 0,000 mm 0,0 UV-I 35 W/m² 5,5 °C 16,9 °C 11,3 km/h (2 Bft)
30.03.2017 18:21 16,9 °C 16,9 °C 47 % 1022,9 hPa 0,0 mm 5,9 km/h (2 Bft) NO 56 ° 0 min 0,000 mm 0,0 UV-I 33 W/m² 5,5 °C 16,9 °C 8,0 km/h (2 Bft)
30.03.2017 18:22 16,8 °C 16,9 °C 50 % 1022,9 hPa 0,0 mm 7,1 km/h (2 Bft) O-NO 57 ° 0 min 0,000 mm 0,0 UV-I 32 W/m² 6,3 °C 16,8 °C 9,7 km/h (2 Bft)
30.03.2017 18:23 16,7 °C 16,8 °C 49 % 1022,9 hPa 0,0 mm 2,9 km/h (1 Bft) NO 35 ° 0 min 0,000 mm 0,0 UV-I 32 W/m² 5,9 °C 16,7 °C 4,8 km/h (1 Bft)
30.03.2017 18:24 16,6 °C 16,7 °C 50 % 1022,9 hPa 0,0 mm 3,9 km/h (1 Bft) N-NO 31 ° 0 min 0,000 mm 0,0 UV-I 32 W/m² 6,1 °C 16,6 °C 4,8 km/h (1 Bft)
30.03.2017 18:25 16,6 °C 16,6 °C 49 % 1022,9 hPa 0,0 mm 3,7 km/h (1 Bft) N-NO 30 ° 0 min 0,000 mm 0,0 UV-I 32 W/m² 5,8 °C 16,6 °C 4,8 km/h (1 Bft)
30.03.2017 18:26 16,6 °C 16,6 °C 49 % 1022,9 hPa 0,0 mm 8,5 km/h (2 Bft) O-NO 67 ° 0 min 0,000 mm 0,0 UV-I 32 W/m² 5,8 °C 16,6 °C 12,9 km/h (3 Bft)
30.03.2017 18:27 16,6 °C 16,6 °C 49 % 1022,9 hPa 0,0 mm 6,6 km/h (2 Bft) O-NO 71 ° 0 min 0,000 mm 0,0 UV-I 32 W/m² 5,8 °C 16,6 °C 9,7 km/h (2 Bft)
30.03.2017 18:28 16,6 °C 16,6 °C 51 % 1023,0 hPa 0,0 mm 5,3 km/h (1 Bft) NO 37 ° 0 min 0,000 mm 0,0 UV-I 30 W/m² 6,4 °C 16,6 °C 6,4 km/h (2 Bft)
30.03.2017 18:29 16,5 °C 16,6 °C 49 % 1022,9 hPa 0,0 mm 4,6 km/h (1 Bft) NO 45 ° 0 min 0,000 mm 0,0 UV-I 30 W/m² 5,8 °C 16,5 °C 8,0 km/h (2 Bft)
30.03.2017 18:30 16,5 °C 16,5 °C 48 % 1022,9 hPa 0,0 mm 5,3 km/h (1 Bft) N-NO 28 ° 0 min 0,000 mm 0,0 UV-I 33 W/m² 5,5 °C 16,5 °C 8,0 km/h (2 Bft)
30.03.2017 18:31 16,6 °C 16,6 °C 49 % 1022,9 hPa 0,0 mm 5,7 km/h (1 Bft) NO 55 ° 0 min 0,000 mm 0,0 UV-I 37 W/m² 5,8 °C 16,6 °C 8,0 km/h (2 Bft)
30.03.2017 18:32 16,6 °C 16,6 °C 50 % 1022,9 hPa 0,0 mm 6,1 km/h (2 Bft) O 89 ° 0 min 0,000 mm 0,0 UV-I 35 W/m² 6,1 °C 16,6 °C 8,0 km/h (2 Bft)
30.03.2017 18:33 16,4 °C 16,6 °C 51 % 1023,0 hPa 0,0 mm 3,9 km/h (1 Bft) NO 53 ° 0 min 0,000 mm 0,0 UV-I 33 W/m² 6,2 °C 16,4 °C 6,4 km/h (2 Bft)
30.03.2017 18:34 16,3 °C 16,4 °C 52 % 1022,9 hPa 0,0 mm 4,8 km/h (1 Bft) O-NO 59 ° 0 min 0,000 mm 0,0 UV-I 35 W/m² 6,4 °C 16,3 °C 9,7 km/h (2 Bft)
30.03.2017 18:35 16,2 °C 16,3 °C 52 % 1023,0 hPa 0,0 mm 3,0 km/h (1 Bft) O-NO 59 ° 0 min 0,000 mm 0,0 UV-I 35 W/m² 6,3 °C 16,2 °C 4,8 km/h (1 Bft)
30.03.2017 18:36 16,1 °C 16,2 °C 52 % 1023,0 hPa 0,0 mm 2,0 km/h (1 Bft) O-NO 59 ° 0 min 0,000 mm 0,0 UV-I 37 W/m² 6,2 °C 16,1 °C 4,8 km/h (1 Bft)
30.03.2017 18:37 15,9 °C 16,1 °C 53 % 1022,9 hPa 0,0 mm 4,5 km/h (1 Bft) NO 42 ° 0 min 0,000 mm 0,0 UV-I 37 W/m² 6,3 °C 15,9 °C 6,4 km/h (2 Bft)
30.03.2017 18:38 15,8 °C 15,9 °C 52 % 1023,0 hPa 0,0 mm 2,5 km/h (1 Bft) NO 42 ° 0 min 0,000 mm 0,0 UV-I 39 W/m² 6,0 °C 15,8 °C 4,8 km/h (1 Bft)
30.03.2017 18:39 15,7 °C 15,8 °C 52 % 1022,9 hPa 0,0 mm 2,9 km/h (1 Bft) O-NO 77 ° 0 min 0,000 mm 0,0 UV-I 37 W/m² 5,9 °C 15,7 °C 4,8 km/h (1 Bft)
30.03.2017 18:40 15,7 °C 15,7 °C 53 % 1023,0 hPa 0,0 mm 4,0 km/h (1 Bft) NO 44 ° 0 min 0,000 mm 0,0 UV-I 37 W/m² 6,1 °C 15,7 °C 6,4 km/h (2 Bft)
30.03.2017 18:41 15,7 °C 15,7 °C 53 % 1022,9 hPa 0,0 mm 1,7 km/h (1 Bft) NO 44 ° 0 min 0,000 mm 0,0 UV-I 33 W/m² 6,1 °C 15,7 °C 3,2 km/h (1 Bft)
30.03.2017 18:42 15,7 °C 15,7 °C 54 % 1022,9 hPa 0,0 mm 2,2 km/h (1 Bft) NO 44 ° 0 min 0,000 mm 0,0 UV-I 32 W/m² 6,4 °C 15,7 °C 4,8 km/h (1 Bft)
30.03.2017 18:43 15,6 °C 15,7 °C 53 % 1023,0 hPa 0,0 mm 2,2 km/h (1 Bft) NO 44 ° 0 min 0,000 mm 0,0 UV-I 35 W/m² 6,1 °C 15,6 °C 3,2 km/h (1 Bft)
30.03.2017 18:44 15,6 °C 15,6 °C 52 % 1022,9 hPa 0,0 mm 2,0 km/h (1 Bft) N-NO 17 ° 0 min 0,000 mm 0,0 UV-I 39 W/m² 5,8 °C 15,6 °C 3,2 km/h (1 Bft)
30.03.2017 18:45 15,7 °C 15,7 °C 52 % 1022,9 hPa 0,0 mm 2,3 km/h (1 Bft) N-NO 17 ° 0 min 0,000 mm 0,0 UV-I 33 W/m² 5,9 °C 15,7 °C 3,2 km/h (1 Bft)
30.03.2017 18:46 15,6 °C 15,7 °C 54 % 1022,9 hPa 0,0 mm 2,1 km/h (1 Bft) O 101 ° 0 min 0,000 mm 0,0 UV-I 30 W/m² 6,3 °C 15,6 °C 4,8 km/h (1 Bft)
30.03.2017 18:47 15,4 °C 15,6 °C 55 % 1022,9 hPa 0,0 mm 1,7 km/h (1 Bft) O 101 ° 0 min 0,000 mm 0,0 UV-I 26 W/m² 6,4 °C 15,4 °C 3,2 km/h (1 Bft)
30.03.2017 18:48 15,3 °C 15,4 °C 54 % 1022,9 hPa 0,0 mm 1,9 km/h (1 Bft) O 101 ° 0 min 0,000 mm 0,0 UV-I 26 W/m² 6,0 °C 15,3 °C 3,2 km/h (1 Bft)
30.03.2017 18:49 15,2 °C 15,3 °C 55 % 1022,9 hPa 0,0 mm 1,4 km/h (1 Bft) O 101 ° 0 min 0,000 mm 0,0 UV-I 26 W/m² 6,2 °C 15,2 °C 1,6 km/h (1 Bft)
30.03.2017 18:50 15,1 °C 15,2 °C 54 % 1022,9 hPa 0,0 mm 2,1 km/h (1 Bft) O 101 ° 0 min 0,000 mm 0,0 UV-I 25 W/m² 5,9 °C 15,1 °C 3,2 km/h (1 Bft)
30.03.2017 18:51 15,1 °C 15,2 °C 54 % 1022,9 hPa 0,0 mm 2,0 km/h (1 Bft) O 101 ° 0 min 0,000 mm 0,0 UV-I 25 W/m² 5,9 °C 15,1 °C 3,2 km/h (1 Bft)
30.03.2017 18:52 15,0 °C 15,1 °C 56 % 1022,9 hPa 0,0 mm 5,0 km/h (1 Bft) O-NO 78 ° 0 min 0,000 mm 0,0 UV-I 25 W/m² 6,3 °C 15,0 °C 8,0 km/h (2 Bft)
30.03.2017 18:53 15,0 °C 15,0 °C 56 % 1022,9 hPa 0,0 mm 2,0 km/h (1 Bft) O-NO 78 ° 0 min 0,000 mm 0,0 UV-I 25 W/m² 6,3 °C 15,0 °C 3,2 km/h (1 Bft)
30.03.2017 18:54 15,0 °C 15,0 °C 55 % 1022,9 hPa 0,0 mm 1,2 km/h (1 Bft) O-NO 78 ° 0 min 0,000 mm 0,0 UV-I 25 W/m² 6,0 °C 15,0 °C 3,2 km/h (1 Bft)
30.03.2017 18:55 14,9 °C 15,0 °C 55 % 1022,9 hPa 0,0 mm 2,1 km/h (1 Bft) O-NO 78 ° 0 min 0,000 mm 0,0 UV-I 25 W/m² 5,9 °C 14,9 °C 3,2 km/h (1 Bft)
30.03.2017 18:56 14,9 °C 14,9 °C 55 % 1022,9 hPa 0,0 mm 0,8 km/h (0 Bft) O-NO 78 ° 0 min 0,000 mm 0,0 UV-I 23 W/m² 5,9 °C 14,9 °C 1,6 km/h (1 Bft)
30.03.2017 18:57 14,9 °C 14,9 °C 56 % 1022,9 hPa 0,0 mm 1,5 km/h (1 Bft) O-NO 78 ° 0 min 0,000 mm 0,0 UV-I 23 W/m² 6,2 °C 14,9 °C 3,2 km/h (1 Bft)
30.03.2017 18:58 14,7 °C 14,9 °C 56 % 1022,9 hPa 0,0 mm 1,6 km/h (1 Bft) O-NO 78 ° 0 min 0,000 mm 0,0 UV-I 25 W/m² 6,0 °C 14,7 °C 3,2 km/h (1 Bft)
30.03.2017 18:59 14,7 °C 14,7 °C 57 % 1022,9 hPa 0,0 mm 1,2 km/h (1 Bft) O-NO 78 ° 0 min 0,000 mm 0,0 UV-I 25 W/m² 6,3 °C 14,7 °C 3,2 km/h (1 Bft)
30.03.2017 19:00 14,6 °C 14,7 °C 57 % 1022,9 hPa 0,0 mm 2,3 km/h (1 Bft) O-NO 78 ° 0 min 0,000 mm 0,0 UV-I 23 W/m² 6,2 °C 14,6 °C 3,2 km/h (1 Bft)
30.03.2017 19:01 14,6 °C 14,7 °C 58 % 1022,9 hPa 0,0 mm 2,4 km/h (1 Bft) O-NO 78 ° 0 min 0,051 mm 0,0 UV-I 23 W/m² 6,4 °C 14,6 °C 3,2 km/h (1 Bft)
30.03.2017 19:02 14,7 °C 14,7 °C 57 % 1022,9 hPa 0,0 mm 1,8 km/h (1 Bft) O-NO 78 ° 0 min 0,000 mm 0,0 UV-I 23 W/m² 6,3 °C 14,7 °C 3,2 km/h (1 Bft)
30.03.2017 19:03 14,7 °C 14,7 °C 57 % 1022,9 hPa 0,0 mm 1,1 km/h (1 Bft) O-NO 78 ° 0 min 0,000 mm 0,0 UV-I 25 W/m² 6,3 °C 14,7 °C 3,2 km/h (1 Bft)
30.03.2017 19:04 14,7 °C 14,7 °C 57 % 1022,9 hPa 0,0 mm 2,1 km/h (1 Bft) O-NO 78 ° 0 min 0,000 mm 0,0 UV-I 25 W/m² 6,3 °C 14,7 °C 3,2 km/h (1 Bft)
30.03.2017 19:05 14,8 °C 14,8 °C 56 % 1022,9 hPa 0,0 mm 1,9 km/h (1 Bft) O-NO 78 ° 0 min 0,000 mm 0,0 UV-I 25 W/m² 6,1 °C 14,8 °C 3,2 km/h (1 Bft)
30.03.2017 19:06 14,9 °C 14,9 °C 56 % 1023,0 hPa 0,0 mm 0,7 km/h (0 Bft) O-NO 78 ° 0 min 0,000 mm 0,0 UV-I 23 W/m² 6,2 °C 14,9 °C 1,6 km/h (1 Bft)
30.03.2017 19:07 14,9 °C 14,9 °C 56 % 1023,0 hPa 0,0 mm 2,0 km/h (1 Bft) O-NO 78 ° 0 min 0,000 mm 0,0 UV-I 23 W/m² 6,2 °C 14,9 °C 3,2 km/h (1 Bft)
30.03.2017 19:08 14,9 °C 14,9 °C 56 % 1023,0 hPa 0,0 mm 2,8 km/h (1 Bft) O-NO 78 ° 0 min 0,000 mm 0,0 UV-I 21 W/m² 6,2 °C 14,9 °C 3,2 km/h (1 Bft)
30.03.2017 19:09 14,9 °C 14,9 °C 56 % 1023,0 hPa 0,0 mm 2,3 km/h (1 Bft) O-NO 78 ° 0 min 0,000 mm 0,0 UV-I 19 W/m² 6,2 °C 14,9 °C 3,2 km/h (1 Bft)
30.03.2017 19:10 14,9 °C 14,9 °C 56 % 1023,0 hPa 0,0 mm 2,4 km/h (1 Bft) O-NO 78 ° 0 min 0,000 mm 0,0 UV-I 19 W/m² 6,2 °C 14,9 °C 4,8 km/h (1 Bft)
30.03.2017 19:11 14,8 °C 14,9 °C 56 % 1023,0 hPa 0,0 mm 2,4 km/h (1 Bft) O 101 ° 0 min 0,000 mm 0,0 UV-I 19 W/m² 6,1 °C 14,8 °C 4,8 km/h (1 Bft)
30.03.2017 19:12 14,8 °C 14,9 °C 56 % 1023,0 hPa 0,0 mm 2,3 km/h (1 Bft) O 101 ° 0 min 0,000 mm 0,0 UV-I 19 W/m² 6,1 °C 14,8 °C 3,2 km/h (1 Bft)
30.03.2017 19:13 14,8 °C 14,8 °C 56 % 1023,0 hPa 0,0 mm 2,6 km/h (1 Bft) O 101 ° 0 min 0,000 mm 0,0 UV-I 19 W/m² 6,1 °C 14,8 °C 3,2 km/h (1 Bft)
30.03.2017 19:14 14,8 °C 14,8 °C 56 % 1023,0 hPa 0,0 mm 3,2 km/h (1 Bft) O 101 ° 0 min 0,000 mm 0,0 UV-I 19 W/m² 6,1 °C 14,8 °C 3,2 km/h (1 Bft)
30.03.2017 19:15 14,8 °C 14,8 °C 57 % 1023,0 hPa 0,0 mm 2,7 km/h (1 Bft) O 101 ° 0 min 0,000 mm 0,0 UV-I 18 W/m² 6,4 °C 14,8 °C 3,2 km/h (1 Bft)
30.03.2017 19:16 14,8 °C 14,8 °C 56 % 1023,0 hPa 0,0 mm 2,8 km/h (1 Bft) O 101 ° 0 min 0,000 mm 0,0 UV-I 18 W/m² 6,1 °C 14,8 °C 3,2 km/h (1 Bft)
30.03.2017 19:17 14,7 °C 14,8 °C 57 % 1023,0 hPa 0,0 mm 2,5 km/h (1 Bft) O 101 ° 0 min 0,000 mm 0,0 UV-I 18 W/m² 6,3 °C 14,7 °C 3,2 km/h (1 Bft)
30.03.2017 19:18 14,7 °C 14,7 °C 57 % 1023,0 hPa 0,0 mm 2,6 km/h (1 Bft) O 101 ° 0 min 0,000 mm 0,0 UV-I 18 W/m² 6,3 °C 14,7 °C 3,2 km/h (1 Bft)
30.03.2017 19:19 14,6 °C 14,7 °C 57 % 1023,0 hPa 0,0 mm 1,9 km/h (1 Bft) O 101 ° 0 min 0,000 mm 0,0 UV-I 16 W/m² 6,2 °C 14,6 °C 3,2 km/h (1 Bft)
30.03.2017 19:20 14,6 °C 14,6 °C 57 % 1023,0 hPa 0,0 mm 2,3 km/h (1 Bft) O 101 ° 0 min 0,000 mm 0,0 UV-I 16 W/m² 6,2 °C 14,6 °C 3,2 km/h (1 Bft)
30.03.2017 19:21 14,6 °C 14,6 °C 57 % 1023,0 hPa 0,0 mm 1,6 km/h (1 Bft) O 101 ° 0 min 0,000 mm 0,0 UV-I 14 W/m² 6,2 °C 14,6 °C 3,2 km/h (1 Bft)
30.03.2017 19:22 14,5 °C 14,6 °C 57 % 1023,0 hPa 0,0 mm 2,0 km/h (1 Bft) O 101 ° 0 min 0,000 mm 0,0 UV-I 14 W/m² 6,1 °C 14,5 °C 3,2 km/h (1 Bft)
30.03.2017 19:23 14,4 °C 14,5 °C 58 % 1023,0 hPa 0,0 mm 2,5 km/h (1 Bft) O 101 ° 0 min 0,000 mm 0,0 UV-I 14 W/m² 6,2 °C 14,4 °C 4,8 km/h (1 Bft)
30.03.2017 19:24 14,3 °C 14,4 °C 58 % 1023,0 hPa 0,0 mm 2,2 km/h (1 Bft) O 101 ° 0 min 0,000 mm 0,0 UV-I 14 W/m² 6,2 °C 14,3 °C 3,2 km/h (1 Bft)
30.03.2017 19:25 14,2 °C 14,3 °C 59 % 1023,1 hPa 0,0 mm 2,8 km/h (1 Bft) O 101 ° 0 min 0,000 mm 0,0 UV-I 14 W/m² 6,3 °C 14,2 °C 3,2 km/h (1 Bft)
30.03.2017 19:26 14,2 °C 14,2 °C 59 % 1023,0 hPa 0,0 mm 2,2 km/h (1 Bft) O 101 ° 0 min 0,000 mm 0,0 UV-I 12 W/m² 6,3 °C 14,2 °C 3,2 km/h (1 Bft)
30.03.2017 19:27 14,1 °C 14,2 °C 59 % 1023,0 hPa 0,0 mm 2,8 km/h (1 Bft) O 101 ° 0 min 0,000 mm 0,0 UV-I 12 W/m² 6,2 °C 14,1 °C 4,8 km/h (1 Bft)
30.03.2017 19:28 14,1 °C 14,1 °C 59 % 1023,1 hPa 0,0 mm 1,8 km/h (1 Bft) O 101 ° 0 min 0,000 mm 0,0 UV-I 12 W/m² 6,2 °C 14,1 °C 3,2 km/h (1 Bft)
30.03.2017 19:29 14,1 °C 14,1 °C 59 % 1023,0 hPa 0,0 mm 2,5 km/h (1 Bft) O 101 ° 0 min 0,000 mm 0,0 UV-I 11 W/m² 6,2 °C 14,1 °C 4,8 km/h (1 Bft)
30.03.2017 19:30 14,1 °C 14,1 °C 59 % 1023,0 hPa 0,0 mm 2,3 km/h (1 Bft) O 101 ° 0 min 0,000 mm 0,0 UV-I 11 W/m² 6,2 °C 14,1 °C 3,2 km/h (1 Bft)
30.03.2017 19:31 14,1 °C 14,1 °C 60 % 1023,1 hPa 0,0 mm 1,8 km/h (1 Bft) O 101 ° 0 min 0,000 mm 0,0 UV-I 11 W/m² 6,5 °C 14,1 °C 3,2 km/h (1 Bft)
30.03.2017 19:32 14,0 °C 14,1 °C 60 % 1023,1 hPa 0,0 mm 1,9 km/h (1 Bft) O 101 ° 0 min 0,000 mm 0,0 UV-I 9 W/m² 6,4 °C 14,0 °C 3,2 km/h (1 Bft)
30.03.2017 19:33 13,9 °C 14,0 °C 60 % 1023,1 hPa 0,0 mm 1,3 km/h (1 Bft) O 101 ° 0 min 0,000 mm 0,0 UV-I 9 W/m² 6,3 °C 13,9 °C 3,2 km/h (1 Bft)
30.03.2017 19:34 13,8 °C 13,9 °C 60 % 1023,1 hPa 0,0 mm 1,7 km/h (1 Bft) O 101 ° 0 min 0,000 mm 0,0 UV-I 9 W/m² 6,2 °C 13,8 °C 3,2 km/h (1 Bft)
30.03.2017 19:35 13,8 °C 13,8 °C 60 % 1023,0 hPa 0,0 mm 0,7 km/h (0 Bft) O 101 ° 0 min 0,000 mm 0,0 UV-I 9 W/m² 6,2 °C 13,8 °C 3,2 km/h (1 Bft)
30.03.2017 19:36 13,7 °C 13,8 °C 61 % 1023,1 hPa 0,0 mm 0,2 km/h (0 Bft) O 101 ° 0 min 0,000 mm 0,0 UV-I 9 W/m² 6,3 °C 13,7 °C 1,6 km/h (1 Bft)
30.03.2017 19:37 13,7 °C 13,7 °C 61 % 1023,1 hPa 0,0 mm 0,0 km/h (0 Bft) O 101 ° 0 min 0,000 mm 0,0 UV-I 7 W/m² 6,3 °C 13,7 °C 0,0 km/h (0 Bft)
30.03.2017 19:38 13,7 °C 13,7 °C 61 % 1023,1 hPa 0,0 mm 0,2 km/h (0 Bft) O 101 ° 0 min 0,000 mm 0,0 UV-I 5 W/m² 6,3 °C 13,7 °C 1,6 km/h (1 Bft)
30.03.2017 19:39 13,7 °C 13,7 °C 61 % 1023,1 hPa 0,0 mm 0,5 km/h (0 Bft) O 101 ° 0 min 0,000 mm 0,0 UV-I 5 W/m² 6,3 °C 13,7 °C 1,6 km/h (1 Bft)
30.03.2017 19:40 13,6 °C 13,7 °C 61 % 1023,1 hPa 0,0 mm 0,0 km/h (0 Bft) O 101 ° 0 min 0,000 mm 0,0 UV-I 5 W/m² 6,2 °C 13,6 °C 0,0 km/h (0 Bft)
30.03.2017 19:41 13,6 °C 13,6 °C 61 % 1023,1 hPa 0,0 mm 0,0 km/h (0 Bft) O 101 ° 0 min 0,000 mm 0,0 UV-I 5 W/m² 6,2 °C 13,6 °C 0,0 km/h (0 Bft)
30.03.2017 19:42 13,6 °C 13,6 °C 62 % 1023,1 hPa 0,0 mm 0,0 km/h (0 Bft) O 101 ° 0 min 0,000 mm 0,0 UV-I 0 W/m² 6,5 °C 13,6 °C 0,0 km/h (0 Bft)
30.03.2017 19:43 13,5 °C 13,6 °C 62 % 1023,1 hPa 0,0 mm 0,0 km/h (0 Bft) O 101 ° 0 min 0,000 mm 0,0 UV-I 0 W/m² 6,4 °C 13,5 °C 0,0 km/h (0 Bft)
30.03.2017 19:44 13,3 °C 13,5 °C 62 % 1023,1 hPa 0,0 mm 0,0 km/h (0 Bft) O 101 ° 0 min 0,000 mm 0,0 UV-I 0 W/m² 6,2 °C 13,3 °C 0,0 km/h (0 Bft)
30.03.2017 19:45 12,9 °C 13,3 °C 63 % 1023,1 hPa 0,0 mm 0,0 km/h (0 Bft) O 101 ° 0 min 0,000 mm 0,0 UV-I 0 W/m² 6,0 °C 12,9 °C 0,0 km/h (0 Bft)
30.03.2017 19:46 12,4 °C 12,9 °C 64 % 1023,2 hPa 0,0 mm 0,0 km/h (0 Bft) O 101 ° 0 min 0,000 mm 0,0 UV-I 0 W/m² 5,8 °C 12,4 °C 0,0 km/h (0 Bft)
30.03.2017 19:47 11,9 °C 12,4 °C 66 % 1023,1 hPa 0,0 mm 0,0 km/h (0 Bft) O 101 ° 0 min 0,000 mm 0,0 UV-I 0 W/m² 5,8 °C 11,9 °C 0,0 km/h (0 Bft)
30.03.2017 19:48 11,5 °C 11,9 °C 67 % 1023,2 hPa 0,0 mm 0,0 km/h (0 Bft) O 101 ° 0 min 0,000 mm 0,0 UV-I 0 W/m² 5,6 °C 11,5 °C 0,0 km/h (0 Bft)
30.03.2017 19:49 11,2 °C 11,5 °C 69 % 1023,2 hPa 0,0 mm 0,0 km/h (0 Bft) O 101 ° 0 min 0,000 mm 0,0 UV-I 0 W/m² 5,7 °C 11,2 °C 0,0 km/h (0 Bft)
30.03.2017 19:50 10,9 °C 11,2 °C 70 % 1023,2 hPa 0,0 mm 0,0 km/h (0 Bft) O 101 ° 0 min 0,000 mm 0,0 UV-I 0 W/m² 5,6 °C 10,9 °C 0,0 km/h (0 Bft)
30.03.2017 19:51 10,8 °C 10,9 °C 71 % 1023,2 hPa 0,0 mm 0,0 km/h (0 Bft) O 101 ° 0 min 0,000 mm 0,0 UV-I 0 W/m² 5,8 °C 10,8 °C 0,0 km/h (0 Bft)
30.03.2017 19:52 10,7 °C 10,8 °C 72 % 1023,2 hPa 0,0 mm 0,0 km/h (0 Bft) O 101 ° 0 min 0,000 mm 0,0 UV-I 0 W/m² 5,9 °C 10,7 °C 0,0 km/h (0 Bft)
30.03.2017 19:53 10,4 °C 10,7 °C 72 % 1023,2 hPa 0,0 mm 0,0 km/h (0 Bft) O 101 ° 0 min 0,000 mm 0,0 UV-I 0 W/m² 5,6 °C 10,4 °C 0,0 km/h (0 Bft)
30.03.2017 19:54 10,3 °C 10,4 °C 73 % 1023,2 hPa 0,0 mm 0,0 km/h (0 Bft) O 101 ° 0 min 0,000 mm 0,0 UV-I 0 W/m² 5,7 °C 10,3 °C 0,0 km/h (0 Bft)
30.03.2017 19:55 10,1 °C 10,3 °C 73 % 1023,2 hPa 0,0 mm 0,0 km/h (0 Bft) O 101 ° 0 min 0,000 mm 0,0 UV-I 0 W/m² 5,5 °C 10,1 °C 0,0 km/h (0 Bft)
30.03.2017 19:56 10,0 °C 10,1 °C 74 % 1023,2 hPa 0,0 mm 0,0 km/h (0 Bft) O 101 ° 0 min 0,000 mm 0,0 UV-I 0 W/m² 5,6 °C 10,0 °C 0,0 km/h (0 Bft)
30.03.2017 19:57 10,0 °C 10,0 °C 74 % 1023,2 hPa 0,0 mm 0,0 km/h (0 Bft) O 101 ° 0 min 0,000 mm 0,0 UV-I 0 W/m² 5,6 °C 10,0 °C 0,0 km/h (0 Bft)
30.03.2017 19:58 9,9 °C 10,0 °C 75 % 1023,2 hPa 0,0 mm 0,0 km/h (0 Bft) O 101 ° 0 min 0,000 mm 0,0 UV-I 0 W/m² 5,7 °C 9,9 °C 0,0 km/h (0 Bft)
30.03.2017 19:59 9,8 °C 9,9 °C 74 % 1023,3 hPa 0,0 mm 0,0 km/h (0 Bft) O 101 ° 0 min 0,000 mm 0,0 UV-I 0 W/m² 5,4 °C 9,8 °C 0,0 km/h (0 Bft)
30.03.2017 20:00 9,8 °C 9,8 °C 75 % 1023,2 hPa 0,0 mm 0,0 km/h (0 Bft) O 101 ° 0 min 0,000 mm 0,0 UV-I 0 W/m² 5,6 °C 9,8 °C 0,0 km/h (0 Bft)
30.03.2017 20:01 9,9 °C 9,9 °C 75 % 1023,2 hPa 0,0 mm 0,0 km/h (0 Bft) O 101 ° 0 min 0,026 mm 0,0 UV-I 0 W/m² 5,7 °C 9,9 °C 0,0 km/h (0 Bft)
30.03.2017 20:02 9,9 °C 9,9 °C 75 % 1023,3 hPa 0,0 mm 0,0 km/h (0 Bft) O 101 ° 0 min 0,000 mm 0,0 UV-I 0 W/m² 5,7 °C 9,9 °C 0,0 km/h (0 Bft)
30.03.2017 20:03 9,9 °C 9,9 °C 74 % 1023,3 hPa 0,0 mm 0,0 km/h (0 Bft) O 101 ° 0 min 0,000 mm 0,0 UV-I 0 W/m² 5,5 °C 9,9 °C 0,0 km/h (0 Bft)
30.03.2017 20:04 9,9 °C 9,9 °C 74 % 1023,3 hPa 0,0 mm 0,0 km/h (0 Bft) O 101 ° 0 min 0,000 mm 0,0 UV-I 0 W/m² 5,5 °C 9,9 °C 0,0 km/h (0 Bft)
30.03.2017 20:05 9,9 °C 9,9 °C 75 % 1023,3 hPa 0,0 mm 0,0 km/h (0 Bft) O 101 ° 0 min 0,000 mm 0,0 UV-I 0 W/m² 5,7 °C 9,9 °C 0,0 km/h (0 Bft)
30.03.2017 20:06 9,9 °C 9,9 °C 75 % 1023,2 hPa 0,0 mm 0,0 km/h (0 Bft) O 101 ° 0 min 0,000 mm 0,0 UV-I 0 W/m² 5,7 °C 9,9 °C 0,0 km/h (0 Bft)
30.03.2017 20:07 9,9 °C 9,9 °C 75 % 1023,3 hPa 0,0 mm 0,0 km/h (0 Bft) O 101 ° 0 min 0,000 mm 0,0 UV-I 0 W/m² 5,7 °C 9,9 °C 0,0 km/h (0 Bft)
30.03.2017 20:08 9,9 °C 10,0 °C 75 % 1023,3 hPa 0,0 mm 0,0 km/h (0 Bft) O 101 ° 0 min 0,000 mm 0,0 UV-I 0 W/m² 5,7 °C 9,9 °C 0,0 km/h (0 Bft)
30.03.2017 20:09 10,1 °C 10,1 °C 75 % 1023,3 hPa 0,0 mm 0,0 km/h (0 Bft) O 101 ° 0 min 0,000 mm 0,0 UV-I 0 W/m² 5,9 °C 10,1 °C 0,0 km/h (0 Bft)
30.03.2017 20:10 10,1 °C 10,1 °C 74 % 1023,2 hPa 0,0 mm 0,0 km/h (0 Bft) O 101 ° 0 min 0,000 mm 0,0 UV-I 0 W/m² 5,7 °C 10,1 °C 0,0 km/h (0 Bft)
30.03.2017 20:11 10,1 °C 10,1 °C 75 % 1023,3 hPa 0,0 mm 0,0 km/h (0 Bft) O 101 ° 0 min 0,000 mm 0,0 UV-I 0 W/m² 5,9 °C 10,1 °C 0,0 km/h (0 Bft)
30.03.2017 20:12 10,2 °C 10,2 °C 74 % 1023,3 hPa 0,0 mm 0,0 km/h (0 Bft) O 101 ° 0 min 0,000 mm 0,0 UV-I 0 W/m² 5,8 °C 10,2 °C 0,0 km/h (0 Bft)
30.03.2017 20:13 10,2 °C 10,2 °C 75 % 1023,3 hPa 0,0 mm 0,0 km/h (0 Bft) O 101 ° 0 min 0,000 mm 0,0 UV-I 0 W/m² 6,0 °C 10,2 °C 0,0 km/h (0 Bft)
30.03.2017 20:14 10,3 °C 10,3 °C 74 % 1023,3 hPa 0,0 mm 0,0 km/h (0 Bft) O 101 ° 0 min 0,000 mm 0,0 UV-I 0 W/m² 5,9 °C 10,3 °C 0,0 km/h (0 Bft)
30.03.2017 20:15 10,3 °C 10,3 °C 74 % 1023,3 hPa 0,0 mm 0,0 km/h (0 Bft) O 101 ° 0 min 0,000 mm 0,0 UV-I 0 W/m² 5,9 °C 10,3 °C 0,0 km/h (0 Bft)
30.03.2017 20:16 10,3 °C 10,3 °C 74 % 1023,3 hPa 0,0 mm 0,0 km/h (0 Bft) O 101 ° 0 min 0,000 mm 0,0 UV-I 0 W/m² 5,9 °C 10,3 °C 0,0 km/h (0 Bft)
30.03.2017 20:17 10,3 °C 10,3 °C 74 % 1023,4 hPa 0,0 mm 0,0 km/h (0 Bft) O 101 ° 0 min 0,000 mm 0,0 UV-I 0 W/m² 5,9 °C 10,3 °C 0,0 km/h (0 Bft)
30.03.2017 20:18 10,3 °C 10,3 °C 74 % 1023,4 hPa 0,0 mm 0,0 km/h (0 Bft) O 101 ° 0 min 0,000 mm 0,0 UV-I 0 W/m² 5,9 °C 10,3 °C 0,0 km/h (0 Bft)
30.03.2017 20:19 10,2 °C 10,3 °C 74 % 1023,4 hPa 0,0 mm 0,0 km/h (0 Bft) O 101 ° 0 min 0,000 mm 0,0 UV-I 0 W/m² 5,8 °C 10,2 °C 0,0 km/h (0 Bft)
30.03.2017 20:20 10,2 °C 10,2 °C 75 % 1023,4 hPa 0,0 mm 0,0 km/h (0 Bft) O 101 ° 0 min 0,000 mm 0,0 UV-I 0 W/m² 6,0 °C 10,2 °C 0,0 km/h (0 Bft)
30.03.2017 20:21 10,2 °C 10,2 °C 74 % 1023,4 hPa 0,0 mm 0,0 km/h (0 Bft) O 101 ° 0 min 0,000 mm 0,0 UV-I 0 W/m² 5,8 °C 10,2 °C 0,0 km/h (0 Bft)
30.03.2017 20:22 10,1 °C 10,2 °C 75 % 1023,4 hPa 0,0 mm 0,0 km/h (0 Bft) O 101 ° 0 min 0,000 mm 0,0 UV-I 0 W/m² 5,9 °C 10,1 °C 0,0 km/h (0 Bft)
30.03.2017 20:23 10,1 °C 10,1 °C 74 % 1023,4 hPa 0,0 mm 0,0 km/h (0 Bft) O 101 ° 0 min 0,000 mm 0,0 UV-I 0 W/m² 5,7 °C 10,1 °C 0,0 km/h (0 Bft)
30.03.2017 20:24 10,1 °C 10,1 °C 74 % 1023,4 hPa 0,0 mm 0,0 km/h (0 Bft) O 101 ° 0 min 0,000 mm 0,0 UV-I 0 W/m² 5,7 °C 10,1 °C 0,0 km/h (0 Bft)
30.03.2017 20:25 10,0 °C 10,1 °C 75 % 1023,5 hPa 0,0 mm 0,0 km/h (0 Bft) O 101 ° 0 min 0,000 mm 0,0 UV-I 0 W/m² 5,8 °C 10,0 °C 0,0 km/h (0 Bft)
30.03.2017 20:26 9,9 °C 10,0 °C 75 % 1023,5 hPa 0,0 mm 0,0 km/h (0 Bft) O 101 ° 0 min 0,000 mm 0,0 UV-I 0 W/m² 5,7 °C 9,9 °C 0,0 km/h (0 Bft)
30.03.2017 20:27 9,9 °C 9,9 °C 75 % 1023,5 hPa 0,0 mm 0,0 km/h (0 Bft) O 101 ° 0 min 0,000 mm 0,0 UV-I 0 W/m² 5,7 °C 9,9 °C 0,0 km/h (0 Bft)
30.03.2017 20:28 9,9 °C 9,9 °C 75 % 1023,5 hPa 0,0 mm 0,0 km/h (0 Bft) O 101 ° 0 min 0,000 mm 0,0 UV-I 0 W/m² 5,7 °C 9,9 °C 0,0 km/h (0 Bft)
30.03.2017 20:29 10,0 °C 10,0 °C 76 % 1023,5 hPa 0,0 mm 0,0 km/h (0 Bft) O 101 ° 0 min 0,000 mm 0,0 UV-I 0 W/m² 6,0 °C 10,0 °C 0,0 km/h (0 Bft)
30.03.2017 20:30 9,9 °C 10,0 °C 75 % 1023,5 hPa 0,0 mm 0,0 km/h (0 Bft) O 101 ° 0 min 0,000 mm 0,0 UV-I 0 W/m² 5,7 °C 9,9 °C 0,0 km/h (0 Bft)
30.03.2017 20:31 9,8 °C 9,9 °C 75 % 1023,5 hPa 0,0 mm 0,0 km/h (0 Bft) O 101 ° 0 min 0,000 mm 0,0 UV-I 0 W/m² 5,6 °C 9,8 °C 0,0 km/h (0 Bft)
30.03.2017 20:32 9,7 °C 9,8 °C 75 % 1023,5 hPa 0,0 mm 0,0 km/h (0 Bft) O 101 ° 0 min 0,000 mm 0,0 UV-I 0 W/m² 5,5 °C 9,7 °C 0,0 km/h (0 Bft)
30.03.2017 20:33 9,7 °C 9,7 °C 75 % 1023,5 hPa 0,0 mm 0,0 km/h (0 Bft) O 101 ° 0 min 0,000 mm 0,0 UV-I 0 W/m² 5,5 °C 9,7 °C 0,0 km/h (0 Bft)
30.03.2017 20:34 9,7 °C 9,7 °C 76 % 1023,6 hPa 0,0 mm 0,0 km/h (0 Bft) O 101 ° 0 min 0,000 mm 0,0 UV-I 0 W/m² 5,7 °C 9,7 °C 0,0 km/h (0 Bft)
30.03.2017 20:35 9,6 °C 9,7 °C 76 % 1023,6 hPa 0,0 mm 0,0 km/h (0 Bft) O 101 ° 0 min 0,000 mm 0,0 UV-I 0 W/m² 5,6 °C 9,6 °C 0,0 km/h (0 Bft)
30.03.2017 20:36 9,7 °C 9,7 °C 77 % 1023,6 hPa 0,0 mm 0,0 km/h (0 Bft) O 101 ° 0 min 0,000 mm 0,0 UV-I 0 W/m² 5,9 °C 9,7 °C 0,0 km/h (0 Bft)
30.03.2017 20:37 9,7 °C 9,7 °C 76 % 1023,6 hPa 0,0 mm 0,0 km/h (0 Bft) O 101 ° 0 min 0,000 mm 0,0 UV-I 0 W/m² 5,7 °C 9,7 °C 0,0 km/h (0 Bft)
30.03.2017 20:38 9,7 °C 9,7 °C 77 % 1023,6 hPa 0,0 mm 0,0 km/h (0 Bft) O 101 ° 0 min 0,000 mm 0,0 UV-I 0 W/m² 5,9 °C 9,7 °C 0,0 km/h (0 Bft)
30.03.2017 20:39 9,8 °C 9,8 °C 77 % 1023,6 hPa 0,0 mm 0,0 km/h (0 Bft) O 101 ° 0 min 0,000 mm 0,0 UV-I 0 W/m² 6,0 °C 9,8 °C 0,0 km/h (0 Bft)
30.03.2017 20:40 9,8 °C 9,8 °C 76 % 1023,7 hPa 0,0 mm 0,0 km/h (0 Bft) O 101 ° 0 min 0,000 mm 0,0 UV-I 0 W/m² 5,8 °C 9,8 °C 0,0 km/h (0 Bft)
30.03.2017 20:41 9,8 °C 9,8 °C 77 % 1023,6 hPa 0,0 mm 0,0 km/h (0 Bft) O 101 ° 0 min 0,000 mm 0,0 UV-I 0 W/m² 6,0 °C 9,8 °C 0,0 km/h (0 Bft)
30.03.2017 20:42 9,8 °C 9,8 °C 77 % 1023,6 hPa 0,0 mm 0,0 km/h (0 Bft) O 101 ° 0 min 0,000 mm 0,0 UV-I 0 W/m² 6,0 °C 9,8 °C 0,0 km/h (0 Bft)
30.03.2017 20:43 9,8 °C 9,8 °C 77 % 1023,6 hPa 0,0 mm 0,0 km/h (0 Bft) O 101 ° 0 min 0,000 mm 0,0 UV-I 0 W/m² 6,0 °C 9,8 °C 0,0 km/h (0 Bft)
30.03.2017 20:44 9,8 °C 9,8 °C 76 % 1023,6 hPa 0,0 mm 0,0 km/h (0 Bft) O 101 ° 0 min 0,000 mm 0,0 UV-I 0 W/m² 5,8 °C 9,8 °C 0,0 km/h (0 Bft)
30.03.2017 20:45 9,9 °C 9,9 °C 76 % 1023,6 hPa 0,0 mm 0,0 km/h (0 Bft) O 101 ° 0 min 0,000 mm 0,0 UV-I 0 W/m² 5,9 °C 9,9 °C 0,0 km/h (0 Bft)
30.03.2017 20:46 9,7 °C 9,9 °C 76 % 1023,7 hPa 0,0 mm 0,0 km/h (0 Bft) O 101 ° 0 min 0,000 mm 0,0 UV-I 0 W/m² 5,7 °C 9,7 °C 0,0 km/h (0 Bft)
30.03.2017 20:47 9,6 °C 9,7 °C 77 % 1023,7 hPa 0,0 mm 0,0 km/h (0 Bft) O 101 ° 0 min 0,000 mm 0,0 UV-I 0 W/m² 5,8 °C 9,6 °C 0,0 km/h (0 Bft)
30.03.2017 20:48 9,4 °C 9,6 °C 78 % 1023,7 hPa 0,0 mm 0,0 km/h (0 Bft) O 101 ° 0 min 0,000 mm 0,0 UV-I 0 W/m² 5,8 °C 9,4 °C 0,0 km/h (0 Bft)
30.03.2017 20:49 9,4 °C 9,4 °C 78 % 1023,7 hPa 0,0 mm 0,0 km/h (0 Bft) O 101 ° 0 min 0,000 mm 0,0 UV-I 0 W/m² 5,8 °C 9,4 °C 0,0 km/h (0 Bft)
30.03.2017 20:50 9,6 °C 9,6 °C 78 % 1023,7 hPa 0,0 mm 0,0 km/h (0 Bft) O 101 ° 0 min 0,000 mm 0,0 UV-I 0 W/m² 6,0 °C 9,6 °C 0,0 km/h (0 Bft)
30.03.2017 20:51 9,6 °C 9,7 °C 76 % 1023,7 hPa 0,0 mm 0,0 km/h (0 Bft) O 101 ° 0 min 0,000 mm 0,0 UV-I 0 W/m² 5,6 °C 9,6 °C 0,0 km/h (0 Bft)
30.03.2017 20:52 9,4 °C 9,6 °C 77 % 1023,7 hPa 0,0 mm 0,0 km/h (0 Bft) O 101 ° 0 min 0,000 mm 0,0 UV-I 0 W/m² 5,6 °C 9,4 °C 0,0 km/h (0 Bft)
30.03.2017 20:53 9,4 °C 9,4 °C 78 % 1023,7 hPa 0,0 mm 0,0 km/h (0 Bft) O 101 ° 0 min 0,000 mm 0,0 UV-I 0 W/m² 5,8 °C 9,4 °C 0,0 km/h (0 Bft)
30.03.2017 20:54 9,3 °C 9,4 °C 78 % 1023,7 hPa 0,0 mm 0,0 km/h (0 Bft) O 101 ° 0 min 0,000 mm 0,0 UV-I 0 W/m² 5,7 °C 9,3 °C 0,0 km/h (0 Bft)
30.03.2017 20:55 9,4 °C 9,4 °C 79 % 1023,7 hPa 0,0 mm 0,0 km/h (0 Bft) O 101 ° 0 min 0,000 mm 0,0 UV-I 0 W/m² 5,9 °C 9,4 °C 0,0 km/h (0 Bft)
30.03.2017 20:56 9,6 °C 9,6 °C 79 % 1023,7 hPa 0,0 mm 0,0 km/h (0 Bft) O 101 ° 0 min 0,000 mm 0,0 UV-I 0 W/m² 6,1 °C 9,6 °C 0,0 km/h (0 Bft)
30.03.2017 20:57 9,7 °C 9,7 °C 78 % 1023,6 hPa 0,0 mm 0,0 km/h (0 Bft) O 101 ° 0 min 0,000 mm 0,0 UV-I 0 W/m² 6,1 °C 9,7 °C 0,0 km/h (0 Bft)
30.03.2017 20:58 9,9 °C 9,9 °C 77 % 1023,7 hPa 0,0 mm 0,0 km/h (0 Bft) O 101 ° 0 min 0,000 mm 0,0 UV-I 0 W/m² 6,1 °C 9,9 °C 0,0 km/h (0 Bft)
30.03.2017 20:59 9,8 °C 9,9 °C 77 % 1023,6 hPa 0,0 mm 0,0 km/h (0 Bft) O 101 ° 0 min 0,000 mm 0,0 UV-I 0 W/m² 6,0 °C 9,8 °C 0,0 km/h (0 Bft)
30.03.2017 21:00 9,7 °C 9,8 °C 76 % 1023,7 hPa 0,0 mm 0,0 km/h (0 Bft) O 101 ° 0 min 0,000 mm 0,0 UV-I 0 W/m² 5,7 °C 9,7 °C 0,0 km/h (0 Bft)
30.03.2017 21:01 9,6 °C 9,7 °C 77 % 1023,6 hPa 0,0 mm 0,0 km/h (0 Bft) O 101 ° 0 min 0,025 mm 0,0 UV-I 0 W/m² 5,8 °C 9,6 °C 0,0 km/h (0 Bft)
30.03.2017 21:02 9,4 °C 9,6 °C 77 % 1023,7 hPa 0,0 mm 0,0 km/h (0 Bft) O 101 ° 0 min 0,000 mm 0,0 UV-I 0 W/m² 5,6 °C 9,4 °C 0,0 km/h (0 Bft)
30.03.2017 21:03 9,3 °C 9,4 °C 77 % 1023,7 hPa 0,0 mm 0,0 km/h (0 Bft) O 101 ° 0 min 0,000 mm 0,0 UV-I 0 W/m² 5,5 °C 9,3 °C 0,0 km/h (0 Bft)
30.03.2017 21:04 9,2 °C 9,3 °C 78 % 1023,7 hPa 0,0 mm 0,0 km/h (0 Bft) O 101 ° 0 min 0,000 mm 0,0 UV-I 0 W/m² 5,6 °C 9,2 °C 0,0 km/h (0 Bft)
30.03.2017 21:05 9,1 °C 9,2 °C 78 % 1023,7 hPa 0,0 mm 0,0 km/h (0 Bft) O 101 ° 0 min 0,000 mm 0,0 UV-I 0 W/m² 5,5 °C 9,1 °C 0,0 km/h (0 Bft)
30.03.2017 21:06 9,0 °C 9,1 °C 79 % 1023,7 hPa 0,0 mm 0,0 km/h (0 Bft) O 101 ° 0 min 0,000 mm 0,0 UV-I 0 W/m² 5,6 °C 9,0 °C 0,0 km/h (0 Bft)
30.03.2017 21:07 8,9 °C 9,0 °C 79 % 1023,7 hPa 0,0 mm 0,0 km/h (0 Bft) O 101 ° 0 min 0,000 mm 0,0 UV-I 0 W/m² 5,5 °C 8,9 °C 0,0 km/h (0 Bft)
30.03.2017 21:08 8,8 °C 8,9 °C 79 % 1023,7 hPa 0,0 mm 0,0 km/h (0 Bft) O 101 ° 0 min 0,000 mm 0,0 UV-I 0 W/m² 5,4 °C 8,8 °C 0,0 km/h (0 Bft)
30.03.2017 21:09 8,7 °C 8,8 °C 80 % 1023,7 hPa 0,0 mm 0,0 km/h (0 Bft) O 101 ° 0 min 0,000 mm 0,0 UV-I 0 W/m² 5,4 °C 8,7 °C 0,0 km/h (0 Bft)
30.03.2017 21:10 8,7 °C 8,7 °C 81 % 1023,7 hPa 0,0 mm 0,0 km/h (0 Bft) O 101 ° 0 min 0,000 mm 0,0 UV-I 0 W/m² 5,6 °C 8,7 °C 0,0 km/h (0 Bft)
30.03.2017 21:11 8,8 °C 8,8 °C 80 % 1023,7 hPa 0,0 mm 0,0 km/h (0 Bft) O 101 ° 0 min 0,000 mm 0,0 UV-I 0 W/m² 5,5 °C 8,8 °C 0,0 km/h (0 Bft)
30.03.2017 21:12 9,0 °C 9,0 °C 80 % 1023,7 hPa 0,0 mm 0,0 km/h (0 Bft) O 101 ° 0 min 0,000 mm 0,0 UV-I 0 W/m² 5,7 °C 9,0 °C 0,0 km/h (0 Bft)
30.03.2017 21:13 9,2 °C 9,2 °C 80 % 1023,8 hPa 0,0 mm 0,0 km/h (0 Bft) O 101 ° 0 min 0,000 mm 0,0 UV-I 0 W/m² 5,9 °C 9,2 °C 0,0 km/h (0 Bft)
30.03.2017 21:14 9,2 °C 9,2 °C 79 % 1023,7 hPa 0,0 mm 0,0 km/h (0 Bft) O 101 ° 0 min 0,000 mm 0,0 UV-I 0 W/m² 5,8 °C 9,2 °C 0,0 km/h (0 Bft)
30.03.2017 21:15 9,2 °C 9,2 °C 79 % 1023,8 hPa 0,0 mm 0,0 km/h (0 Bft) O 101 ° 0 min 0,000 mm 0,0 UV-I 0 W/m² 5,8 °C 9,2 °C 0,0 km/h (0 Bft)
30.03.2017 21:16 9,2 °C 9,3 °C 78 % 1023,7 hPa 0,0 mm 0,0 km/h (0 Bft) O 101 ° 0 min 0,000 mm 0,0 UV-I 0 W/m² 5,6 °C 9,2 °C 0,0 km/h (0 Bft)
30.03.2017 21:17 9,0 °C 9,2 °C 78 % 1023,7 hPa 0,0 mm 0,0 km/h (0 Bft) O 101 ° 0 min 0,000 mm 0,0 UV-I 0 W/m² 5,4 °C 9,0 °C 0,0 km/h (0 Bft)
30.03.2017 21:18 8,8 °C 9,0 °C 79 % 1023,7 hPa 0,0 mm 0,0 km/h (0 Bft) O 101 ° 0 min 0,000 mm 0,0 UV-I 0 W/m² 5,4 °C 8,8 °C 0,0 km/h (0 Bft)
30.03.2017 21:19 8,8 °C 8,8 °C 80 % 1023,8 hPa 0,0 mm 0,0 km/h (0 Bft) O 101 ° 0 min 0,000 mm 0,0 UV-I 0 W/m² 5,5 °C 8,8 °C 0,0 km/h (0 Bft)
30.03.2017 21:20 8,7 °C 8,8 °C 80 % 1023,8 hPa 0,0 mm 0,0 km/h (0 Bft) O 101 ° 0 min 0,000 mm 0,0 UV-I 0 W/m² 5,4 °C 8,7 °C 0,0 km/h (0 Bft)
30.03.2017 21:21 8,7 °C 8,8 °C 80 % 1023,8 hPa 0,0 mm 0,0 km/h (0 Bft) O 101 ° 0 min 0,000 mm 0,0 UV-I 0 W/m² 5,4 °C 8,7 °C 0,0 km/h (0 Bft)
30.03.2017 21:22 8,7 °C 8,7 °C 80 % 1023,8 hPa 0,0 mm 0,0 km/h (0 Bft) O 101 ° 0 min 0,000 mm 0,0 UV-I 0 W/m² 5,4 °C 8,7 °C 0,0 km/h (0 Bft)
30.03.2017 21:23 8,6 °C 8,7 °C 80 % 1023,8 hPa 0,0 mm 0,0 km/h (0 Bft) O 101 ° 0 min 0,000 mm 0,0 UV-I 0 W/m² 5,3 °C 8,6 °C 0,0 km/h (0 Bft)
30.03.2017 21:24 8,6 °C 8,6 °C 81 % 1023,8 hPa 0,0 mm 0,0 km/h (0 Bft) O 101 ° 0 min 0,000 mm 0,0 UV-I 0 W/m² 5,5 °C 8,6 °C 0,0 km/h (0 Bft)
30.03.2017 21:25 8,6 °C 8,6 °C 81 % 1023,7 hPa 0,0 mm 0,0 km/h (0 Bft) O 101 ° 0 min 0,000 mm 0,0 UV-I 0 W/m² 5,5 °C 8,6 °C 0,0 km/h (0 Bft)
30.03.2017 21:26 8,6 °C 8,6 °C 81 % 1023,8 hPa 0,0 mm 0,0 km/h (0 Bft) O 101 ° 0 min 0,000 mm 0,0 UV-I 0 W/m² 5,5 °C 8,6 °C 0,0 km/h (0 Bft)
30.03.2017 21:27 8,5 °C 8,6 °C 81 % 1023,8 hPa 0,0 mm 0,0 km/h (0 Bft) O 101 ° 0 min 0,000 mm 0,0 UV-I 0 W/m² 5,4 °C 8,5 °C 0,0 km/h (0 Bft)
30.03.2017 21:28 8,6 °C 8,6 °C 80 % 1023,7 hPa 0,0 mm 0,0 km/h (0 Bft) O 101 ° 0 min 0,000 mm 0,0 UV-I 0 W/m² 5,3 °C 8,6 °C 0,0 km/h (0 Bft)
30.03.2017 21:29 8,5 °C 8,6 °C 80 % 1023,8 hPa 0,0 mm 0,0 km/h (0 Bft) O 101 ° 0 min 0,000 mm 0,0 UV-I 0 W/m² 5,3 °C 8,5 °C 0,0 km/h (0 Bft)
30.03.2017 21:30 8,4 °C 8,5 °C 81 % 1023,7 hPa 0,0 mm 0,0 km/h (0 Bft) O 101 ° 0 min 0,000 mm 0,0 UV-I 0 W/m² 5,3 °C 8,4 °C 0,0 km/h (0 Bft)
30.03.2017 21:31 8,3 °C 8,4 °C 81 % 1023,7 hPa 0,0 mm 0,0 km/h (0 Bft) O 101 ° 0 min 0,000 mm 0,0 UV-I 0 W/m² 5,2 °C 8,3 °C 0,0 km/h (0 Bft)
30.03.2017 21:32 8,3 °C 8,3 °C 81 % 1023,8 hPa 0,0 mm 0,0 km/h (0 Bft) O 101 ° 0 min 0,000 mm 0,0 UV-I 0 W/m² 5,2 °C 8,3 °C 0,0 km/h (0 Bft)
30.03.2017 21:33 8,3 °C 8,3 °C 80 % 1023,8 hPa 0,0 mm 0,0 km/h (0 Bft) O 101 ° 0 min 0,000 mm 0,0 UV-I 0 W/m² 5,1 °C 8,3 °C 0,0 km/h (0 Bft)
30.03.2017 21:34 8,2 °C 8,3 °C 81 % 1023,7 hPa 0,0 mm 0,0 km/h (0 Bft) O 101 ° 0 min 0,000 mm 0,0 UV-I 0 W/m² 5,1 °C 8,2 °C 0,0 km/h (0 Bft)
30.03.2017 21:35 8,1 °C 8,2 °C 81 % 1023,7 hPa 0,0 mm 0,0 km/h (0 Bft) O 101 ° 0 min 0,000 mm 0,0 UV-I 0 W/m² 5,0 °C 8,1 °C 0,0 km/h (0 Bft)
30.03.2017 21:36 8,1 °C 8,1 °C 82 % 1023,8 hPa 0,0 mm 0,0 km/h (0 Bft) O 101 ° 0 min 0,000 mm 0,0 UV-I 0 W/m² 5,2 °C 8,1 °C 0,0 km/h (0 Bft)
30.03.2017 21:37 8,0 °C 8,1 °C 82 % 1023,8 hPa 0,0 mm 0,0 km/h (0 Bft) O 101 ° 0 min 0,000 mm 0,0 UV-I 0 W/m² 5,1 °C 8,0 °C 0,0 km/h (0 Bft)
30.03.2017 21:38 7,9 °C 8,0 °C 83 % 1023,8 hPa 0,0 mm 0,0 km/h (0 Bft) O 101 ° 0 min 0,000 mm 0,0 UV-I 0 W/m² 5,2 °C 7,9 °C 0,0 km/h (0 Bft)
30.03.2017 21:39 7,9 °C 7,9 °C 83 % 1023,8 hPa 0,0 mm 0,0 km/h (0 Bft) O 101 ° 0 min 0,000 mm 0,0 UV-I 0 W/m² 5,2 °C 7,9 °C 0,0 km/h (0 Bft)
30.03.2017 21:40 7,9 °C 7,9 °C 83 % 1023,8 hPa 0,0 mm 0,0 km/h (0 Bft) O 101 ° 0 min 0,000 mm 0,0 UV-I 0 W/m² 5,2 °C 7,9 °C 0,0 km/h (0 Bft)
30.03.2017 21:41 8,0 °C 8,0 °C 83 % 1023,8 hPa 0,0 mm 0,0 km/h (0 Bft) O 101 ° 0 min 0,000 mm 0,0 UV-I 0 W/m² 5,3 °C 8,0 °C 0,0 km/h (0 Bft)
30.03.2017 21:42 8,1 °C 8,1 °C 83 % 1023,8 hPa 0,0 mm 0,0 km/h (0 Bft) O 101 ° 0 min 0,000 mm 0,0 UV-I 0 W/m² 5,4 °C 8,1 °C 0,0 km/h (0 Bft)
30.03.2017 21:43 8,2 °C 8,2 °C 83 % 1023,8 hPa 0,0 mm 0,0 km/h (0 Bft) O 101 ° 0 min 0,000 mm 0,0 UV-I 0 W/m² 5,5 °C 8,2 °C 0,0 km/h (0 Bft)
30.03.2017 21:44 8,3 °C 8,3 °C 82 % 1023,8 hPa 0,0 mm 0,0 km/h (0 Bft) O 101 ° 0 min 0,000 mm 0,0 UV-I 0 W/m² 5,4 °C 8,3 °C 0,0 km/h (0 Bft)
30.03.2017 21:45 8,3 °C 8,4 °C 82 % 1023,8 hPa 0,0 mm 0,0 km/h (0 Bft) O 101 ° 0 min 0,000 mm 0,0 UV-I 0 W/m² 5,4 °C 8,3 °C 0,0 km/h (0 Bft)
30.03.2017 21:46 8,4 °C 8,4 °C 82 % 1023,7 hPa 0,0 mm 0,0 km/h (0 Bft) O 101 ° 0 min 0,000 mm 0,0 UV-I 0 W/m² 5,5 °C 8,4 °C 0,0 km/h (0 Bft)
30.03.2017 21:47 8,4 °C 8,4 °C 82 % 1023,7 hPa 0,0 mm 0,0 km/h (0 Bft) O 101 ° 0 min 0,000 mm 0,0 UV-I 0 W/m² 5,5 °C 8,4 °C 0,0 km/h (0 Bft)
30.03.2017 21:48 8,4 °C 8,4 °C 81 % 1023,7 hPa 0,0 mm 0,0 km/h (0 Bft) O 101 ° 0 min 0,000 mm 0,0 UV-I 0 W/m² 5,3 °C 8,4 °C 0,0 km/h (0 Bft)
30.03.2017 21:49 8,3 °C 8,4 °C 81 % 1023,8 hPa 0,0 mm 0,0 km/h (0 Bft) O 101 ° 0 min 0,000 mm 0,0 UV-I 0 W/m² 5,2 °C 8,3 °C 0,0 km/h (0 Bft)
30.03.2017 21:50 8,3 °C 8,3 °C 81 % 1023,8 hPa 0,0 mm 0,0 km/h (0 Bft) O 101 ° 0 min 0,000 mm 0,0 UV-I 0 W/m² 5,2 °C 8,3 °C 0,0 km/h (0 Bft)
30.03.2017 21:51 8,2 °C 8,3 °C 82 % 1023,8 hPa 0,0 mm 0,0 km/h (0 Bft) O 101 ° 0 min 0,000 mm 0,0 UV-I 0 W/m² 5,3 °C 8,2 °C 0,0 km/h (0 Bft)
30.03.2017 21:52 8,1 °C 8,2 °C 82 % 1023,8 hPa 0,0 mm 0,0 km/h (0 Bft) O 101 ° 0 min 0,000 mm 0,0 UV-I 0 W/m² 5,2 °C 8,1 °C 0,0 km/h (0 Bft)
30.03.2017 21:53 8,1 °C 8,1 °C 82 % 1023,8 hPa 0,0 mm 0,0 km/h (0 Bft) O 101 ° 0 min 0,000 mm 0,0 UV-I 0 W/m² 5,2 °C 8,1 °C 0,0 km/h (0 Bft)
30.03.2017 21:54 8,0 °C 8,1 °C 82 % 1023,7 hPa 0,0 mm 0,0 km/h (0 Bft) O 101 ° 0 min 0,000 mm 0,0 UV-I 0 W/m² 5,1 °C 8,0 °C 0,0 km/h (0 Bft)
30.03.2017 21:55 7,9 °C 8,0 °C 82 % 1023,7 hPa 0,0 mm 0,0 km/h (0 Bft) O 101 ° 0 min 0,000 mm 0,0 UV-I 0 W/m² 5,0 °C 7,9 °C 0,0 km/h (0 Bft)
30.03.2017 21:56 7,9 °C 7,9 °C 82 % 1023,7 hPa 0,0 mm 0,0 km/h (0 Bft) O 101 ° 0 min 0,000 mm 0,0 UV-I 0 W/m² 5,0 °C 7,9 °C 0,0 km/h (0 Bft)
30.03.2017 21:57 7,8 °C 7,9 °C 83 % 1023,7 hPa 0,0 mm 0,0 km/h (0 Bft) O 101 ° 0 min 0,000 mm 0,0 UV-I 0 W/m² 5,1 °C 7,8 °C 0,0 km/h (0 Bft)
30.03.2017 21:58 7,8 °C 7,8 °C 83 % 1023,7 hPa 0,0 mm 0,0 km/h (0 Bft) O 101 ° 0 min 0,000 mm 0,0 UV-I 0 W/m² 5,1 °C 7,8 °C 0,0 km/h (0 Bft)
30.03.2017 21:59 7,8 °C 7,8 °C 83 % 1023,7 hPa 0,0 mm 0,0 km/h (0 Bft) O 101 ° 0 min 0,000 mm 0,0 UV-I 0 W/m² 5,1 °C 7,8 °C 0,0 km/h (0 Bft)
30.03.2017 22:00 7,7 °C 7,8 °C 83 % 1023,7 hPa 0,0 mm 0,0 km/h (0 Bft) O 101 ° 0 min 0,000 mm 0,0 UV-I 0 W/m² 5,0 °C 7,7 °C 0,0 km/h (0 Bft)
30.03.2017 22:01 7,7 °C 7,7 °C 84 % 1023,7 hPa 0,0 mm 0,0 km/h (0 Bft) O 101 ° 0 min 0,000 mm 0,0 UV-I 0 W/m² 5,2 °C 7,7 °C 0,0 km/h (0 Bft)
30.03.2017 22:02 7,7 °C 7,7 °C 84 % 1023,7 hPa 0,0 mm 0,0 km/h (0 Bft) O 101 ° 0 min 0,000 mm 0,0 UV-I 0 W/m² 5,2 °C 7,7 °C 0,0 km/h (0 Bft)
30.03.2017 22:03 7,6 °C 7,7 °C 84 % 1023,7 hPa 0,0 mm 0,0 km/h (0 Bft) O 101 ° 0 min 0,000 mm 0,0 UV-I 0 W/m² 5,1 °C 7,6 °C 0,0 km/h (0 Bft)
30.03.2017 22:04 7,6 °C 7,6 °C 84 % 1023,7 hPa 0,0 mm 0,0 km/h (0 Bft) O 101 ° 0 min 0,000 mm 0,0 UV-I 0 W/m² 5,1 °C 7,6 °C 0,0 km/h (0 Bft)
30.03.2017 22:05 7,5 °C 7,6 °C 84 % 1023,7 hPa 0,0 mm 0,0 km/h (0 Bft) O 101 ° 0 min 0,000 mm 0,0 UV-I 0 W/m² 5,0 °C 7,5 °C 0,0 km/h (0 Bft)
30.03.2017 22:06 7,4 °C 7,5 °C 84 % 1023,6 hPa 0,0 mm 0,0 km/h (0 Bft) O 101 ° 0 min 0,000 mm 0,0 UV-I 0 W/m² 4,9 °C 7,4 °C 0,0 km/h (0 Bft)
30.03.2017 22:07 7,4 °C 7,4 °C 85 % 1023,7 hPa 0,0 mm 0,0 km/h (0 Bft) O 101 ° 0 min 0,000 mm 0,0 UV-I 0 W/m² 5,0 °C 7,4 °C 0,0 km/h (0 Bft)
30.03.2017 22:08 7,4 °C 7,4 °C 85 % 1023,6 hPa 0,0 mm 0,0 km/h (0 Bft) O 101 ° 0 min 0,000 mm 0,0 UV-I 0 W/m² 5,0 °C 7,4 °C 0,0 km/h (0 Bft)
30.03.2017 22:09 7,4 °C 7,4 °C 86 % 1023,6 hPa 0,0 mm 0,0 km/h (0 Bft) O 101 ° 0 min 0,000 mm 0,0 UV-I 0 W/m² 5,2 °C 7,4 °C 0,0 km/h (0 Bft)
30.03.2017 22:10 7,4 °C 7,4 °C 86 % 1023,6 hPa 0,0 mm 0,0 km/h (0 Bft) O 101 ° 0 min 0,000 mm 0,0 UV-I 0 W/m² 5,2 °C 7,4 °C 0,0 km/h (0 Bft)
30.03.2017 22:11 7,4 °C 7,4 °C 86 % 1023,6 hPa 0,0 mm 0,0 km/h (0 Bft) O 101 ° 0 min 0,000 mm 0,0 UV-I 0 W/m² 5,2 °C 7,4 °C 0,0 km/h (0 Bft)
30.03.2017 22:12 7,4 °C 7,4 °C 85 % 1023,6 hPa 0,0 mm 0,0 km/h (0 Bft) O 101 ° 0 min 0,000 mm 0,0 UV-I 0 W/m² 5,0 °C 7,4 °C 0,0 km/h (0 Bft)
30.03.2017 22:13 7,5 °C 7,5 °C 85 % 1023,6 hPa 0,0 mm 0,0 km/h (0 Bft) O 101 ° 0 min 0,000 mm 0,0 UV-I 0 W/m² 5,1 °C 7,5 °C 0,0 km/h (0 Bft)
30.03.2017 22:14 7,5 °C 7,5 °C 85 % 1023,6 hPa 0,0 mm 0,0 km/h (0 Bft) O 101 ° 0 min 0,000 mm 0,0 UV-I 0 W/m² 5,1 °C 7,5 °C 0,0 km/h (0 Bft)
30.03.2017 22:15 7,5 °C 7,5 °C 85 % 1023,5 hPa 0,0 mm 0,0 km/h (0 Bft) O 101 ° 0 min 0,000 mm 0,0 UV-I 0 W/m² 5,1 °C 7,5 °C 0,0 km/h (0 Bft)
30.03.2017 22:16 7,5 °C 7,5 °C 85 % 1023,6 hPa 0,0 mm 0,0 km/h (0 Bft) O 101 ° 0 min 0,000 mm 0,0 UV-I 0 W/m² 5,1 °C 7,5 °C 0,0 km/h (0 Bft)
30.03.2017 22:17 7,5 °C 7,5 °C 85 % 1023,6 hPa 0,0 mm 0,0 km/h (0 Bft) O 101 ° 0 min 0,000 mm 0,0 UV-I 0 W/m² 5,1 °C 7,5 °C 0,0 km/h (0 Bft)
30.03.2017 22:18 7,4 °C 7,5 °C 85 % 1023,5 hPa 0,0 mm 0,0 km/h (0 Bft) O 101 ° 0 min 0,000 mm 0,0 UV-I 0 W/m² 5,0 °C 7,4 °C 0,0 km/h (0 Bft)
30.03.2017 22:19 7,4 °C 7,4 °C 85 % 1023,5 hPa 0,0 mm 0,0 km/h (0 Bft) O 101 ° 0 min 0,000 mm 0,0 UV-I 0 W/m² 5,0 °C 7,4 °C 0,0 km/h (0 Bft)
30.03.2017 22:20 7,4 °C 7,4 °C 86 % 1023,5 hPa 0,0 mm 0,0 km/h (0 Bft) O 101 ° 0 min 0,000 mm 0,0 UV-I 0 W/m² 5,2 °C 7,4 °C 0,0 km/h (0 Bft)
30.03.2017 22:21 7,4 °C 7,4 °C 86 % 1023,5 hPa 0,0 mm 0,0 km/h (0 Bft) O 101 ° 0 min 0,000 mm 0,0 UV-I 0 W/m² 5,2 °C 7,4 °C 0,0 km/h (0 Bft)
30.03.2017 22:22 7,5 °C 7,5 °C 86 % 1023,5 hPa 0,0 mm 0,5 km/h (0 Bft) O 101 ° 0 min 0,000 mm 0,0 UV-I 0 W/m² 5,3 °C 7,5 °C 3,2 km/h (1 Bft)
30.03.2017 22:23 7,5 °C 7,6 °C 85 % 1023,5 hPa 0,0 mm 0,5 km/h (0 Bft) O 101 ° 0 min 0,000 mm 0,0 UV-I 0 W/m² 5,1 °C 7,5 °C 1,6 km/h (1 Bft)
30.03.2017 22:24 7,5 °C 7,5 °C 85 % 1023,5 hPa 0,0 mm 0,4 km/h (0 Bft) O 101 ° 0 min 0,000 mm 0,0 UV-I 0 W/m² 5,1 °C 7,5 °C 1,6 km/h (1 Bft)
30.03.2017 22:25 7,4 °C 7,5 °C 85 % 1023,4 hPa 0,0 mm 0,2 km/h (0 Bft) O 101 ° 0 min 0,000 mm 0,0 UV-I 0 W/m² 5,0 °C 7,4 °C 1,6 km/h (1 Bft)
30.03.2017 22:26 7,4 °C 7,5 °C 86 % 1023,4 hPa 0,0 mm 0,2 km/h (0 Bft) O 101 ° 0 min 0,000 mm 0,0 UV-I 0 W/m² 5,2 °C 7,4 °C 1,6 km/h (1 Bft)
30.03.2017 22:27 7,4 °C 7,4 °C 86 % 1023,4 hPa 0,0 mm 0,3 km/h (0 Bft) O 101 ° 0 min 0,000 mm 0,0 UV-I 0 W/m² 5,2 °C 7,4 °C 1,6 km/h (1 Bft)
30.03.2017 22:28 7,4 °C 7,4 °C 86 % 1023,5 hPa 0,0 mm 0,0 km/h (0 Bft) O 101 ° 0 min 0,000 mm 0,0 UV-I 0 W/m² 5,2 °C 7,4 °C 0,0 km/h (0 Bft)
30.03.2017 22:29 7,4 °C 7,4 °C 86 % 1023,5 hPa 0,0 mm 0,0 km/h (0 Bft) O 101 ° 0 min 0,000 mm 0,0 UV-I 0 W/m² 5,2 °C 7,4 °C 0,0 km/h (0 Bft)
30.03.2017 22:30 7,3 °C 7,4 °C 86 % 1023,5 hPa 0,0 mm 0,0 km/h (0 Bft) O 101 ° 0 min 0,000 mm 0,0 UV-I 0 W/m² 5,1 °C 7,3 °C 0,0 km/h (0 Bft)
30.03.2017 22:31 7,3 °C 7,3 °C 86 % 1023,4 hPa 0,0 mm 0,0 km/h (0 Bft) O 101 ° 0 min 0,000 mm 0,0 UV-I 0 W/m² 5,1 °C 7,3 °C 0,0 km/h (0 Bft)
30.03.2017 22:32 7,2 °C 7,3 °C 86 % 1023,4 hPa 0,0 mm 0,0 km/h (0 Bft) O 101 ° 0 min 0,000 mm 0,0 UV-I 0 W/m² 5,0 °C 7,2 °C 0,0 km/h (0 Bft)
30.03.2017 22:33 7,2 °C 7,2 °C 87 % 1023,4 hPa 0,0 mm 0,0 km/h (0 Bft) O 101 ° 0 min 0,000 mm 0,0 UV-I 0 W/m² 5,2 °C 7,2 °C 0,0 km/h (0 Bft)
30.03.2017 22:34 7,2 °C 7,2 °C 87 % 1023,4 hPa 0,0 mm 0,0 km/h (0 Bft) O 101 ° 0 min 0,000 mm 0,0 UV-I 0 W/m² 5,2 °C 7,2 °C 0,0 km/h (0 Bft)
30.03.2017 22:35 7,3 °C 7,3 °C 87 % 1023,4 hPa 0,0 mm 0,0 km/h (0 Bft) O 101 ° 0 min 0,000 mm 0,0 UV-I 0 W/m² 5,3 °C 7,3 °C 0,0 km/h (0 Bft)
30.03.2017 22:36 7,3 °C 7,3 °C 85 % 1023,4 hPa 0,0 mm 0,0 km/h (0 Bft) O 101 ° 0 min 0,000 mm 0,0 UV-I 0 W/m² 4,9 °C 7,3 °C 0,0 km/h (0 Bft)
30.03.2017 22:37 7,2 °C 7,3 °C 85 % 1023,4 hPa 0,0 mm 0,0 km/h (0 Bft) O 101 ° 0 min 0,000 mm 0,0 UV-I 0 W/m² 4,9 °C 7,2 °C 0,0 km/h (0 Bft)
30.03.2017 22:38 7,1 °C 7,2 °C 86 % 1023,4 hPa 0,0 mm 0,1 km/h (0 Bft) O 101 ° 0 min 0,000 mm 0,0 UV-I 0 W/m² 4,9 °C 7,1 °C 1,6 km/h (1 Bft)
30.03.2017 22:39 7,1 °C 7,1 °C 86 % 1023,3 hPa 0,0 mm 0,1 km/h (0 Bft) O 101 ° 0 min 0,000 mm 0,0 UV-I 0 W/m² 4,9 °C 7,1 °C 1,6 km/h (1 Bft)
30.03.2017 22:40 6,9 °C 7,1 °C 86 % 1023,4 hPa 0,0 mm 0,0 km/h (0 Bft) O 101 ° 0 min 0,000 mm 0,0 UV-I 0 W/m² 4,7 °C 6,9 °C 0,0 km/h (0 Bft)
30.03.2017 22:41 6,9 °C 6,9 °C 86 % 1023,3 hPa 0,0 mm 0,0 km/h (0 Bft) O 101 ° 0 min 0,000 mm 0,0 UV-I 0 W/m² 4,7 °C 6,9 °C 0,0 km/h (0 Bft)
30.03.2017 22:42 6,9 °C 6,9 °C 86 % 1023,4 hPa 0,0 mm 0,0 km/h (0 Bft) O 101 ° 0 min 0,000 mm 0,0 UV-I 0 W/m² 4,7 °C 6,9 °C 0,0 km/h (0 Bft)
30.03.2017 22:43 6,8 °C 6,9 °C 87 % 1023,3 hPa 0,0 mm 0,0 km/h (0 Bft) O 101 ° 0 min 0,000 mm 0,0 UV-I 0 W/m² 4,8 °C 6,8 °C 0,0 km/h (0 Bft)
30.03.2017 22:44 6,8 °C 6,8 °C 87 % 1023,4 hPa 0,0 mm 0,0 km/h (0 Bft) O 101 ° 0 min 0,000 mm 0,0 UV-I 0 W/m² 4,8 °C 6,8 °C 0,0 km/h (0 Bft)
30.03.2017 22:45 6,8 °C 6,8 °C 87 % 1023,3 hPa 0,0 mm 0,0 km/h (0 Bft) O 101 ° 0 min 0,000 mm 0,0 UV-I 0 W/m² 4,8 °C 6,8 °C 0,0 km/h (0 Bft)
30.03.2017 22:46 6,8 °C 6,8 °C 87 % 1023,4 hPa 0,0 mm 0,0 km/h (0 Bft) O 101 ° 0 min 0,000 mm 0,0 UV-I 0 W/m² 4,8 °C 6,8 °C 0,0 km/h (0 Bft)
30.03.2017 22:47 6,7 °C 6,8 °C 87 % 1023,4 hPa 0,0 mm 0,0 km/h (0 Bft) O 101 ° 0 min 0,000 mm 0,0 UV-I 0 W/m² 4,7 °C 6,7 °C 0,0 km/h (0 Bft)
30.03.2017 22:48 6,7 °C 6,7 °C 88 % 1023,4 hPa 0,0 mm 0,0 km/h (0 Bft) O 101 ° 0 min 0,000 mm 0,0 UV-I 0 W/m² 4,9 °C 6,7 °C 0,0 km/h (0 Bft)
30.03.2017 22:49 6,7 °C 6,7 °C 88 % 1023,4 hPa 0,0 mm 0,0 km/h (0 Bft) O 101 ° 0 min 0,000 mm 0,0 UV-I 0 W/m² 4,9 °C 6,7 °C 0,0 km/h (0 Bft)
30.03.2017 22:50 6,6 °C 6,7 °C 87 % 1023,3 hPa 0,0 mm 0,0 km/h (0 Bft) O 101 ° 0 min 0,000 mm 0,0 UV-I 0 W/m² 4,6 °C 6,6 °C 0,0 km/h (0 Bft)
30.03.2017 22:51 6,4 °C 6,6 °C 87 % 1023,3 hPa 0,0 mm 0,0 km/h (0 Bft) O 101 ° 0 min 0,000 mm 0,0 UV-I 0 W/m² 4,4 °C 6,4 °C 0,0 km/h (0 Bft)
30.03.2017 22:52 6,4 °C 6,5 °C 88 % 1023,3 hPa 0,0 mm 0,0 km/h (0 Bft) O 101 ° 0 min 0,000 mm 0,0 UV-I 0 W/m² 4,6 °C 6,4 °C 0,0 km/h (0 Bft)
30.03.2017 22:53 6,4 °C 6,4 °C 88 % 1023,3 hPa 0,0 mm 0,0 km/h (0 Bft) O 101 ° 0 min 0,000 mm 0,0 UV-I 0 W/m² 4,6 °C 6,4 °C 0,0 km/h (0 Bft)
30.03.2017 22:54 6,3 °C 6,4 °C 88 % 1023,3 hPa 0,0 mm 0,0 km/h (0 Bft) O 101 ° 0 min 0,000 mm 0,0 UV-I 0 W/m² 4,5 °C 6,3 °C 0,0 km/h (0 Bft)
30.03.2017 22:55 6,3 °C 6,3 °C 88 % 1023,4 hPa 0,0 mm 0,0 km/h (0 Bft) O 101 ° 0 min 0,000 mm 0,0 UV-I 0 W/m² 4,5 °C 6,3 °C 0,0 km/h (0 Bft)
30.03.2017 22:56 6,3 °C 6,4 °C 88 % 1023,3 hPa 0,0 mm 0,0 km/h (0 Bft) O 101 ° 0 min 0,000 mm 0,0 UV-I 0 W/m² 4,5 °C 6,3 °C 0,0 km/h (0 Bft)
30.03.2017 22:57 6,3 °C 6,3 °C 88 % 1023,3 hPa 0,0 mm 0,0 km/h (0 Bft) O 101 ° 0 min 0,000 mm 0,0 UV-I 0 W/m² 4,5 °C 6,3 °C 0,0 km/h (0 Bft)
30.03.2017 22:58 6,3 °C 6,3 °C 88 % 1023,3 hPa 0,0 mm 0,0 km/h (0 Bft) O 101 ° 0 min 0,000 mm 0,0 UV-I 0 W/m² 4,5 °C 6,3 °C 0,0 km/h (0 Bft)
30.03.2017 22:59 6,3 °C 6,3 °C 88 % 1023,3 hPa 0,0 mm 0,0 km/h (0 Bft) O 101 ° 0 min 0,000 mm 0,0 UV-I 0 W/m² 4,5 °C 6,3 °C 0,0 km/h (0 Bft)
30.03.2017 23:00 6,3 °C 6,3 °C 88 % 1023,3 hPa 0,0 mm 0,0 km/h (0 Bft) O 101 ° 0 min 0,000 mm 0,0 UV-I 0 W/m² 4,5 °C 6,3 °C 0,0 km/h (0 Bft)
30.03.2017 23:01 6,3 °C 6,3 °C 88 % 1023,3 hPa 0,0 mm 0,0 km/h (0 Bft) O 101 ° 0 min 0,000 mm 0,0 UV-I 0 W/m² 4,5 °C 6,3 °C 0,0 km/h (0 Bft)
30.03.2017 23:02 6,3 °C 6,3 °C 88 % 1023,3 hPa 0,0 mm 0,0 km/h (0 Bft) O 101 ° 0 min 0,000 mm 0,0 UV-I 0 W/m² 4,5 °C 6,3 °C 0,0 km/h (0 Bft)
30.03.2017 23:03 6,3 °C 6,3 °C 88 % 1023,3 hPa 0,0 mm 0,0 km/h (0 Bft) O 101 ° 0 min 0,000 mm 0,0 UV-I 0 W/m² 4,5 °C 6,3 °C 0,0 km/h (0 Bft)
30.03.2017 23:04 6,3 °C 6,3 °C 89 % 1023,3 hPa 0,0 mm 0,0 km/h (0 Bft) O 101 ° 0 min 0,000 mm 0,0 UV-I 0 W/m² 4,6 °C 6,3 °C 0,0 km/h (0 Bft)
30.03.2017 23:05 6,3 °C 6,3 °C 89 % 1023,3 hPa 0,0 mm 0,0 km/h (0 Bft) O 101 ° 0 min 0,000 mm 0,0 UV-I 0 W/m² 4,6 °C 6,3 °C 0,0 km/h (0 Bft)
30.03.2017 23:06 6,3 °C 6,3 °C 88 % 1023,2 hPa 0,0 mm 0,0 km/h (0 Bft) O 101 ° 0 min 0,000 mm 0,0 UV-I 0 W/m² 4,5 °C 6,3 °C 0,0 km/h (0 Bft)
30.03.2017 23:07 6,3 °C 6,3 °C 88 % 1023,2 hPa 0,0 mm 0,0 km/h (0 Bft) O 101 ° 0 min 0,000 mm 0,0 UV-I 0 W/m² 4,5 °C 6,3 °C 0,0 km/h (0 Bft)
30.03.2017 23:08 6,3 °C 6,3 °C 89 % 1023,2 hPa 0,0 mm 0,0 km/h (0 Bft) O 101 ° 0 min 0,000 mm 0,0 UV-I 0 W/m² 4,6 °C 6,3 °C 0,0 km/h (0 Bft)
30.03.2017 23:09 6,3 °C 6,3 °C 89 % 1023,2 hPa 0,0 mm 0,0 km/h (0 Bft) O 101 ° 0 min 0,000 mm 0,0 UV-I 0 W/m² 4,6 °C 6,3 °C 0,0 km/h (0 Bft)
30.03.2017 23:10 6,3 °C 6,3 °C 88 % 1023,2 hPa 0,0 mm 0,0 km/h (0 Bft) O 101 ° 0 min 0,000 mm 0,0 UV-I 0 W/m² 4,5 °C 6,3 °C 0,0 km/h (0 Bft)
30.03.2017 23:11 6,3 °C 6,3 °C 89 % 1023,2 hPa 0,0 mm 0,0 km/h (0 Bft) O 101 ° 0 min 0,000 mm 0,0 UV-I 0 W/m² 4,6 °C 6,3 °C 0,0 km/h (0 Bft)
30.03.2017 23:12 6,3 °C 6,3 °C 88 % 1023,2 hPa 0,0 mm 0,0 km/h (0 Bft) O 101 ° 0 min 0,000 mm 0,0 UV-I 0 W/m² 4,5 °C 6,3 °C 0,0 km/h (0 Bft)
30.03.2017 23:13 6,2 °C 6,3 °C 88 % 1023,2 hPa 0,0 mm 0,0 km/h (0 Bft) O 101 ° 0 min 0,000 mm 0,0 UV-I 0 W/m² 4,4 °C 6,2 °C 0,0 km/h (0 Bft)
30.03.2017 23:14 6,2 °C 6,2 °C 89 % 1023,2 hPa 0,0 mm 0,0 km/h (0 Bft) O 101 ° 0 min 0,000 mm 0,0 UV-I 0 W/m² 4,5 °C 6,2 °C 0,0 km/h (0 Bft)
30.03.2017 23:15 6,2 °C 6,2 °C 88 % 1023,2 hPa 0,0 mm 0,0 km/h (0 Bft) O 101 ° 0 min 0,000 mm 0,0 UV-I 0 W/m² 4,4 °C 6,2 °C 0,0 km/h (0 Bft)
30.03.2017 23:16 6,2 °C 6,2 °C 89 % 1023,1 hPa 0,0 mm 0,0 km/h (0 Bft) O 101 ° 0 min 0,000 mm 0,0 UV-I 0 W/m² 4,5 °C 6,2 °C 0,0 km/h (0 Bft)
30.03.2017 23:17 6,2 °C 6,2 °C 89 % 1023,1 hPa 0,0 mm 0,0 km/h (0 Bft) O 101 ° 0 min 0,000 mm 0,0 UV-I 0 W/m² 4,5 °C 6,2 °C 0,0 km/h (0 Bft)
30.03.2017 23:18 6,2 °C 6,2 °C 89 % 1023,2 hPa 0,0 mm 0,0 km/h (0 Bft) O 101 ° 0 min 0,000 mm 0,0 UV-I 0 W/m² 4,5 °C 6,2 °C 0,0 km/h (0 Bft)
30.03.2017 23:19 6,1 °C 6,2 °C 89 % 1023,1 hPa 0,0 mm 0,0 km/h (0 Bft) O 101 ° 0 min 0,000 mm 0,0 UV-I 0 W/m² 4,4 °C 6,1 °C 0,0 km/h (0 Bft)
30.03.2017 23:20 6,1 °C 6,1 °C 89 % 1023,1 hPa 0,0 mm 0,0 km/h (0 Bft) O 101 ° 0 min 0,000 mm 0,0 UV-I 0 W/m² 4,4 °C 6,1 °C 0,0 km/h (0 Bft)
30.03.2017 23:21 6,1 °C 6,1 °C 89 % 1023,1 hPa 0,0 mm 0,0 km/h (0 Bft) O 101 ° 0 min 0,000 mm 0,0 UV-I 0 W/m² 4,4 °C 6,1 °C 0,0 km/h (0 Bft)
30.03.2017 23:22 6,1 °C 6,1 °C 89 % 1023,1 hPa 0,0 mm 0,0 km/h (0 Bft) O 101 ° 0 min 0,000 mm 0,0 UV-I 0 W/m² 4,4 °C 6,1 °C 0,0 km/h (0 Bft)
30.03.2017 23:23 6,1 °C 6,1 °C 89 % 1023,1 hPa 0,0 mm 0,0 km/h (0 Bft) O 101 ° 0 min 0,000 mm 0,0 UV-I 0 W/m² 4,4 °C 6,1 °C 0,0 km/h (0 Bft)
30.03.2017 23:24 6,0 °C 6,1 °C 89 % 1023,1 hPa 0,0 mm 0,0 km/h (0 Bft) O 101 ° 0 min 0,000 mm 0,0 UV-I 0 W/m² 4,3 °C 6,0 °C 0,0 km/h (0 Bft)
30.03.2017 23:25 5,9 °C 6,0 °C 89 % 1023,1 hPa 0,0 mm 0,0 km/h (0 Bft) O 101 ° 0 min 0,000 mm 0,0 UV-I 0 W/m² 4,2 °C 5,9 °C 0,0 km/h (0 Bft)
30.03.2017 23:26 5,8 °C 5,9 °C 88 % 1023,1 hPa 0,0 mm 0,0 km/h (0 Bft) O 101 ° 0 min 0,000 mm 0,0 UV-I 0 W/m² 4,0 °C 5,8 °C 0,0 km/h (0 Bft)
30.03.2017 23:27 5,8 °C 5,8 °C 88 % 1023,1 hPa 0,0 mm 0,0 km/h (0 Bft) O 101 ° 0 min 0,000 mm 0,0 UV-I 0 W/m² 4,0 °C 5,8 °C 0,0 km/h (0 Bft)
30.03.2017 23:28 5,7 °C 5,8 °C 88 % 1023,1 hPa 0,0 mm 0,0 km/h (0 Bft) O 101 ° 0 min 0,000 mm 0,0 UV-I 0 W/m² 3,9 °C 5,7 °C 0,0 km/h (0 Bft)
30.03.2017 23:29 5,6 °C 5,7 °C 89 % 1023,1 hPa 0,0 mm 0,0 km/h (0 Bft) O 101 ° 0 min 0,000 mm 0,0 UV-I 0 W/m² 3,9 °C 5,6 °C 0,0 km/h (0 Bft)
30.03.2017 23:30 5,6 °C 5,6 °C 89 % 1023,1 hPa 0,0 mm 0,0 km/h (0 Bft) O 101 ° 0 min 0,000 mm 0,0 UV-I 0 W/m² 3,9 °C 5,6 °C 0,0 km/h (0 Bft)
30.03.2017 23:31 5,6 °C 5,6 °C 90 % 1023,0 hPa 0,0 mm 0,0 km/h (0 Bft) O 101 ° 0 min 0,000 mm 0,0 UV-I 0 W/m² 4,1 °C 5,6 °C 0,0 km/h (0 Bft)
30.03.2017 23:32 5,6 °C 5,6 °C 90 % 1023,1 hPa 0,0 mm 0,0 km/h (0 Bft) O 101 ° 0 min 0,000 mm 0,0 UV-I 0 W/m² 4,1 °C 5,6 °C 0,0 km/h (0 Bft)
30.03.2017 23:33 5,6 °C 5,6 °C 89 % 1023,1 hPa 0,0 mm 0,0 km/h (0 Bft) O 101 ° 0 min 0,000 mm 0,0 UV-I 0 W/m² 3,9 °C 5,6 °C 0,0 km/h (0 Bft)
30.03.2017 23:34 5,6 °C 5,6 °C 89 % 1023,0 hPa 0,0 mm 0,0 km/h (0 Bft) O 101 ° 0 min 0,000 mm 0,0 UV-I 0 W/m² 3,9 °C 5,6 °C 0,0 km/h (0 Bft)
30.03.2017 23:35 5,5 °C 5,6 °C 90 % 1023,1 hPa 0,0 mm 0,0 km/h (0 Bft) O 101 ° 0 min 0,000 mm 0,0 UV-I 0 W/m² 4,0 °C 5,5 °C 0,0 km/h (0 Bft)
30.03.2017 23:36 5,5 °C 5,6 °C 90 % 1023,0 hPa 0,0 mm 0,0 km/h (0 Bft) O 101 ° 0 min 0,000 mm 0,0 UV-I 0 W/m² 4,0 °C 5,5 °C 0,0 km/h (0 Bft)
30.03.2017 23:37 5,6 °C 5,6 °C 90 % 1023,0 hPa 0,0 mm 0,0 km/h (0 Bft) O 101 ° 0 min 0,000 mm 0,0 UV-I 0 W/m² 4,1 °C 5,6 °C 0,0 km/h (0 Bft)
30.03.2017 23:38 5,6 °C 5,6 °C 91 % 1023,0 hPa 0,0 mm 0,0 km/h (0 Bft) O 101 ° 0 min 0,000 mm 0,0 UV-I 0 W/m² 4,2 °C 5,6 °C 0,0 km/h (0 Bft)
30.03.2017 23:39 5,6 °C 5,6 °C 91 % 1023,0 hPa 0,0 mm 0,0 km/h (0 Bft) O 101 ° 0 min 0,000 mm 0,0 UV-I 0 W/m² 4,2 °C 5,6 °C 0,0 km/h (0 Bft)
30.03.2017 23:40 5,6 °C 5,6 °C 91 % 1023,0 hPa 0,0 mm 0,0 km/h (0 Bft) O 101 ° 0 min 0,000 mm 0,0 UV-I 0 W/m² 4,2 °C 5,6 °C 0,0 km/h (0 Bft)
30.03.2017 23:41 5,6 °C 5,6 °C 90 % 1023,0 hPa 0,0 mm 0,0 km/h (0 Bft) O 101 ° 0 min 0,000 mm 0,0 UV-I 0 W/m² 4,1 °C 5,6 °C 0,0 km/h (0 Bft)
30.03.2017 23:42 5,6 °C 5,6 °C 90 % 1023,0 hPa 0,0 mm 0,0 km/h (0 Bft) O 101 ° 0 min 0,000 mm 0,0 UV-I 0 W/m² 4,1 °C 5,6 °C 0,0 km/h (0 Bft)
30.03.2017 23:43 5,6 °C 5,6 °C 90 % 1022,9 hPa 0,0 mm 0,0 km/h (0 Bft) O 101 ° 0 min 0,000 mm 0,0 UV-I 0 W/m² 4,1 °C 5,6 °C 0,0 km/h (0 Bft)
30.03.2017 23:44 5,5 °C 5,6 °C 90 % 1023,0 hPa 0,0 mm 0,0 km/h (0 Bft) O 101 ° 0 min 0,000 mm 0,0 UV-I 0 W/m² 4,0 °C 5,5 °C 0,0 km/h (0 Bft)
30.03.2017 23:45 5,5 °C 5,5 °C 90 % 1022,9 hPa 0,0 mm 0,0 km/h (0 Bft) O 101 ° 0 min 0,000 mm 0,0 UV-I 0 W/m² 4,0 °C 5,5 °C 0,0 km/h (0 Bft)
30.03.2017 23:46 5,5 °C 5,5 °C 90 % 1022,9 hPa 0,0 mm 0,0 km/h (0 Bft) O 101 ° 0 min 0,000 mm 0,0 UV-I 0 W/m² 4,0 °C 5,5 °C 0,0 km/h (0 Bft)
30.03.2017 23:47 5,5 °C 5,5 °C 91 % 1022,9 hPa 0,0 mm 0,0 km/h (0 Bft) O 101 ° 0 min 0,000 mm 0,0 UV-I 0 W/m² 4,2 °C 5,5 °C 0,0 km/h (0 Bft)
30.03.2017 23:48 5,5 °C 5,5 °C 91 % 1022,9 hPa 0,0 mm 0,0 km/h (0 Bft) O 101 ° 0 min 0,000 mm 0,0 UV-I 0 W/m² 4,2 °C 5,5 °C 0,0 km/h (0 Bft)
30.03.2017 23:49 5,6 °C 5,6 °C 91 % 1022,9 hPa 0,0 mm 0,0 km/h (0 Bft) O 101 ° 0 min 0,000 mm 0,0 UV-I 0 W/m² 4,2 °C 5,6 °C 0,0 km/h (0 Bft)
30.03.2017 23:50 5,6 °C 5,6 °C 91 % 1022,9 hPa 0,0 mm 0,0 km/h (0 Bft) O 101 ° 0 min 0,000 mm 0,0 UV-I 0 W/m² 4,2 °C 5,6 °C 0,0 km/h (0 Bft)
30.03.2017 23:51 5,6 °C 5,6 °C 91 % 1022,9 hPa 0,0 mm 0,0 km/h (0 Bft) O 101 ° 0 min 0,000 mm 0,0 UV-I 0 W/m² 4,2 °C 5,6 °C 0,0 km/h (0 Bft)
30.03.2017 23:52 5,7 °C 5,7 °C 91 % 1022,9 hPa 0,0 mm 0,0 km/h (0 Bft) O 101 ° 0 min 0,000 mm 0,0 UV-I 0 W/m² 4,3 °C 5,7 °C 0,0 km/h (0 Bft)
30.03.2017 23:53 5,7 °C 5,7 °C 91 % 1022,9 hPa 0,0 mm 0,0 km/h (0 Bft) O 101 ° 0 min 0,000 mm 0,0 UV-I 0 W/m² 4,3 °C 5,7 °C 0,0 km/h (0 Bft)
30.03.2017 23:54 5,8 °C 5,8 °C 90 % 1022,8 hPa 0,0 mm 0,0 km/h (0 Bft) O 101 ° 0 min 0,000 mm 0,0 UV-I 0 W/m² 4,3 °C 5,8 °C 0,0 km/h (0 Bft)
30.03.2017 23:55 5,9 °C 5,9 °C 90 % 1022,8 hPa 0,0 mm 0,0 km/h (0 Bft) O 101 ° 0 min 0,000 mm 0,0 UV-I 0 W/m² 4,4 °C 5,9 °C 0,0 km/h (0 Bft)
30.03.2017 23:56 5,9 °C 5,9 °C 90 % 1022,8 hPa 0,0 mm 0,0 km/h (0 Bft) O 101 ° 0 min 0,000 mm 0,0 UV-I 0 W/m² 4,4 °C 5,9 °C 0,0 km/h (0 Bft)
30.03.2017 23:57 6,1 °C 6,1 °C 90 % 1022,8 hPa 0,0 mm 0,0 km/h (0 Bft) O 101 ° 0 min 0,000 mm 0,0 UV-I 0 W/m² 4,6 °C 6,1 °C 0,0 km/h (0 Bft)
30.03.2017 23:58 6,1 °C 6,1 °C 90 % 1022,8 hPa 0,0 mm 0,0 km/h (0 Bft) O 101 ° 0 min 0,000 mm 0,0 UV-I 0 W/m² 4,6 °C 6,1 °C 0,0 km/h (0 Bft)
30.03.2017 23:59 6,2 °C 6,2 °C 89 % 1022,8 hPa 0,0 mm 0,0 km/h (0 Bft) O 101 ° 0 min 0,000 mm 0,0 UV-I 0 W/m² 4,5 °C 6,2 °C 0,0 km/h (0 Bft)
_ Min-Zeit 07:30 07:33 16:34 23:59 - 23:59 - - - - - - 07:30 07:30 23:59
Minimum _ 1,7 °C 1,8 °C 45 % 1022,8 hPa - 0,0 km/h (0 Bft) - - - - - - 0,5 °C 1,7 °C 0,0 km/h (0 Bft)
_ Max-Zeit 16:07 16:08 08:15 02:24 23:59 14:14 - - 16:46 14:01 13:38 13:22 13:04 16:07 13:43
Maximum _ 18,1 °C 18,1 °C 93 % 1027,2 hPa 0,0 mm 14,0 km/h
O (3 Bft)
- - 1 min 0,407 mm 4,7 UV-I 747 W/m² 7,9 °C 18,1 °C 19,3 km/h
O (3 Bft)
Durchschnitt _ 9,6 °C 9,7 °C 73 % 1025,2 hPa #0,0 mm 2,7 km/h (1 Bft) O-NO - #7:39 h #2,921 mm 2,9 UV-I 198 W/m² 4,4 °C 9,6 °C 4,3 km/h (1 Bft)